<?xml version="1.0" encoding="UTF-8" standalone="no" ?>
<gpx xmlns="http://www.topografix.com/GPX/1/1" xmlns:xsi="http://www.w3.org/2001/XMLSchema-instance" xsi:schemaLocation="http://www.topografix.com/GPX/1/1 http://www.topografix.com/GPX/1/1/gpx.xsd" version="1.1" creator="VisuGPX - https://www.visugpx.com">
  <metadata>
    <name>Crossac 24/04/2022</name>
    <desc><![CDATA[Rando Crossac dimanche 24 avril 2022]]></desc>
  </metadata>
  <trk>
    <name><![CDATA[Crossac Cyclisme]]></name>
    <trkseg>
      <trkpt lat="47.40684" lon="-2.16333">
        <ele>56.799999237061</ele>
        <time>2022-04-24T06:21:51.000Z</time>
      </trkpt>
      <trkpt lat="47.40686" lon="-2.16356">
        <ele>56.799999237061</ele>
        <time>2022-04-24T06:21:55.000Z</time>
      </trkpt>
      <trkpt lat="47.40686" lon="-2.16362">
        <ele>57</ele>
        <time>2022-04-24T06:21:56.000Z</time>
      </trkpt>
      <trkpt lat="47.40687" lon="-2.16375">
        <ele>57</ele>
        <time>2022-04-24T06:21:58.000Z</time>
      </trkpt>
      <trkpt lat="47.40695" lon="-2.16425">
        <ele>57</ele>
        <time>2022-04-24T06:22:06.000Z</time>
      </trkpt>
      <trkpt lat="47.40707" lon="-2.16471">
        <ele>57</ele>
        <time>2022-04-24T06:22:13.000Z</time>
      </trkpt>
      <trkpt lat="47.40725" lon="-2.16524">
        <ele>57</ele>
        <time>2022-04-24T06:22:21.000Z</time>
      </trkpt>
      <trkpt lat="47.40745" lon="-2.16561">
        <ele>57</ele>
        <time>2022-04-24T06:22:27.000Z</time>
      </trkpt>
      <trkpt lat="47.40789" lon="-2.16604">
        <ele>57</ele>
        <time>2022-04-24T06:22:35.000Z</time>
      </trkpt>
      <trkpt lat="47.40819" lon="-2.16646">
        <ele>57</ele>
        <time>2022-04-24T06:22:43.000Z</time>
      </trkpt>
      <trkpt lat="47.40847" lon="-2.1669">
        <ele>57</ele>
        <time>2022-04-24T06:22:51.000Z</time>
      </trkpt>
      <trkpt lat="47.40877" lon="-2.16735">
        <ele>57</ele>
        <time>2022-04-24T06:22:59.000Z</time>
      </trkpt>
      <trkpt lat="47.40889" lon="-2.16749">
        <ele>57</ele>
        <time>2022-04-24T06:23:02.000Z</time>
      </trkpt>
      <trkpt lat="47.40898" lon="-2.16757">
        <ele>57</ele>
        <time>2022-04-24T06:23:04.000Z</time>
      </trkpt>
      <trkpt lat="47.40904" lon="-2.16761">
        <ele>57</ele>
        <time>2022-04-24T06:23:05.000Z</time>
      </trkpt>
      <trkpt lat="47.40913" lon="-2.1677">
        <ele>57</ele>
        <time>2022-04-24T06:23:07.000Z</time>
      </trkpt>
      <trkpt lat="47.40915" lon="-2.16785">
        <ele>57</ele>
        <time>2022-04-24T06:23:09.000Z</time>
      </trkpt>
      <trkpt lat="47.40916" lon="-2.16801">
        <ele>57</ele>
        <time>2022-04-24T06:23:11.000Z</time>
      </trkpt>
      <trkpt lat="47.40919" lon="-2.16809">
        <ele>57</ele>
        <time>2022-04-24T06:23:12.000Z</time>
      </trkpt>
      <trkpt lat="47.40923" lon="-2.16814">
        <ele>57</ele>
        <time>2022-04-24T06:23:13.000Z</time>
      </trkpt>
      <trkpt lat="47.40938" lon="-2.16822">
        <ele>57</ele>
        <time>2022-04-24T06:23:16.000Z</time>
      </trkpt>
      <trkpt lat="47.40953" lon="-2.16841">
        <ele>57</ele>
        <time>2022-04-24T06:23:20.000Z</time>
      </trkpt>
      <trkpt lat="47.40976" lon="-2.16866">
        <ele>57</ele>
        <time>2022-04-24T06:23:26.000Z</time>
      </trkpt>
      <trkpt lat="47.4098" lon="-2.16871">
        <ele>57</ele>
        <time>2022-04-24T06:23:27.000Z</time>
      </trkpt>
      <trkpt lat="47.41005" lon="-2.16905">
        <ele>57</ele>
        <time>2022-04-24T06:23:34.000Z</time>
      </trkpt>
      <trkpt lat="47.41018" lon="-2.16916">
        <ele>57</ele>
        <time>2022-04-24T06:23:37.000Z</time>
      </trkpt>
      <trkpt lat="47.41027" lon="-2.16918">
        <ele>57</ele>
        <time>2022-04-24T06:23:39.000Z</time>
      </trkpt>
      <trkpt lat="47.41046" lon="-2.16916">
        <ele>57</ele>
        <time>2022-04-24T06:23:43.000Z</time>
      </trkpt>
      <trkpt lat="47.4105" lon="-2.16915">
        <ele>57.799999237061</ele>
        <time>2022-04-24T06:23:44.000Z</time>
      </trkpt>
      <trkpt lat="47.41053" lon="-2.16914">
        <ele>58.200000762939</ele>
        <time>2022-04-24T06:23:45.000Z</time>
      </trkpt>
      <trkpt lat="47.41058" lon="-2.16915">
        <ele>58.599998474121</ele>
        <time>2022-04-24T06:23:46.000Z</time>
      </trkpt>
      <trkpt lat="47.41063" lon="-2.16916">
        <ele>59</ele>
        <time>2022-04-24T06:23:47.000Z</time>
      </trkpt>
      <trkpt lat="47.41072" lon="-2.16918">
        <ele>59</ele>
        <time>2022-04-24T06:23:49.000Z</time>
      </trkpt>
      <trkpt lat="47.41089" lon="-2.16906">
        <ele>59</ele>
        <time>2022-04-24T06:23:53.000Z</time>
      </trkpt>
      <trkpt lat="47.41109" lon="-2.16886">
        <ele>59</ele>
        <time>2022-04-24T06:23:58.000Z</time>
      </trkpt>
      <trkpt lat="47.41112" lon="-2.16882">
        <ele>59</ele>
        <time>2022-04-24T06:23:59.000Z</time>
      </trkpt>
      <trkpt lat="47.41117" lon="-2.16878">
        <ele>59</ele>
        <time>2022-04-24T06:24:00.000Z</time>
      </trkpt>
      <trkpt lat="47.41133" lon="-2.16862">
        <ele>59</ele>
        <time>2022-04-24T06:24:04.000Z</time>
      </trkpt>
      <trkpt lat="47.41141" lon="-2.16859">
        <ele>59</ele>
        <time>2022-04-24T06:24:06.000Z</time>
      </trkpt>
      <trkpt lat="47.41148" lon="-2.16865">
        <ele>59</ele>
        <time>2022-04-24T06:24:08.000Z</time>
      </trkpt>
      <trkpt lat="47.41155" lon="-2.16883">
        <ele>59</ele>
        <time>2022-04-24T06:24:11.000Z</time>
      </trkpt>
      <trkpt lat="47.41158" lon="-2.16895">
        <ele>59</ele>
        <time>2022-04-24T06:24:13.000Z</time>
      </trkpt>
      <trkpt lat="47.41169" lon="-2.16931">
        <ele>59</ele>
        <time>2022-04-24T06:24:19.000Z</time>
      </trkpt>
      <trkpt lat="47.41184" lon="-2.16979">
        <ele>59</ele>
        <time>2022-04-24T06:24:27.000Z</time>
      </trkpt>
      <trkpt lat="47.41188" lon="-2.16991">
        <ele>59</ele>
        <time>2022-04-24T06:24:29.000Z</time>
      </trkpt>
      <trkpt lat="47.41195" lon="-2.17016">
        <ele>59</ele>
        <time>2022-04-24T06:24:33.000Z</time>
      </trkpt>
      <trkpt lat="47.41207" lon="-2.1706">
        <ele>59</ele>
        <time>2022-04-24T06:24:40.000Z</time>
      </trkpt>
      <trkpt lat="47.4121" lon="-2.17067">
        <ele>59.400001525879</ele>
        <time>2022-04-24T06:24:41.000Z</time>
      </trkpt>
      <trkpt lat="47.41212" lon="-2.17073">
        <ele>59.799999237061</ele>
        <time>2022-04-24T06:24:42.000Z</time>
      </trkpt>
      <trkpt lat="47.41214" lon="-2.17079">
        <ele>60.200000762939</ele>
        <time>2022-04-24T06:24:43.000Z</time>
      </trkpt>
      <trkpt lat="47.41216" lon="-2.17086">
        <ele>60.599998474121</ele>
        <time>2022-04-24T06:24:44.000Z</time>
      </trkpt>
      <trkpt lat="47.41217" lon="-2.17092">
        <ele>61</ele>
        <time>2022-04-24T06:24:45.000Z</time>
      </trkpt>
      <trkpt lat="47.41223" lon="-2.17109">
        <ele>61</ele>
        <time>2022-04-24T06:24:48.000Z</time>
      </trkpt>
      <trkpt lat="47.41232" lon="-2.17149">
        <ele>61</ele>
        <time>2022-04-24T06:24:55.000Z</time>
      </trkpt>
      <trkpt lat="47.4123" lon="-2.17153">
        <ele>61</ele>
        <time>2022-04-24T06:24:56.000Z</time>
      </trkpt>
      <trkpt lat="47.41225" lon="-2.1716">
        <ele>61</ele>
        <time>2022-04-24T06:24:58.000Z</time>
      </trkpt>
      <trkpt lat="47.41215" lon="-2.17167">
        <ele>61</ele>
        <time>2022-04-24T06:25:02.000Z</time>
      </trkpt>
      <trkpt lat="47.41196" lon="-2.1718">
        <ele>61</ele>
        <time>2022-04-24T06:25:07.000Z</time>
      </trkpt>
      <trkpt lat="47.41185" lon="-2.17202">
        <ele>61</ele>
        <time>2022-04-24T06:25:11.000Z</time>
      </trkpt>
      <trkpt lat="47.41182" lon="-2.17208">
        <ele>61</ele>
        <time>2022-04-24T06:25:12.000Z</time>
      </trkpt>
      <trkpt lat="47.41172" lon="-2.1722">
        <ele>61</ele>
        <time>2022-04-24T06:25:15.000Z</time>
      </trkpt>
      <trkpt lat="47.41164" lon="-2.17229">
        <ele>61</ele>
        <time>2022-04-24T06:25:18.000Z</time>
      </trkpt>
      <trkpt lat="47.41159" lon="-2.1724">
        <ele>61</ele>
        <time>2022-04-24T06:25:22.000Z</time>
      </trkpt>
      <trkpt lat="47.41155" lon="-2.17264">
        <ele>61</ele>
        <time>2022-04-24T06:25:27.000Z</time>
      </trkpt>
      <trkpt lat="47.41162" lon="-2.17286">
        <ele>61</ele>
        <time>2022-04-24T06:25:32.000Z</time>
      </trkpt>
      <trkpt lat="47.41165" lon="-2.17288">
        <ele>61</ele>
        <time>2022-04-24T06:25:35.000Z</time>
      </trkpt>
      <trkpt lat="47.41165" lon="-2.17287">
        <ele>61</ele>
        <time>2022-04-24T06:41:38.000Z</time>
      </trkpt>
      <trkpt lat="47.41162" lon="-2.17282">
        <ele>61</ele>
        <time>2022-04-24T06:41:41.000Z</time>
      </trkpt>
      <trkpt lat="47.41156" lon="-2.17267">
        <ele>61</ele>
        <time>2022-04-24T06:41:46.000Z</time>
      </trkpt>
      <trkpt lat="47.41149" lon="-2.17242">
        <ele>61</ele>
        <time>2022-04-24T06:41:53.000Z</time>
      </trkpt>
      <trkpt lat="47.41142" lon="-2.17227">
        <ele>61</ele>
        <time>2022-04-24T06:41:59.000Z</time>
      </trkpt>
      <trkpt lat="47.41142" lon="-2.17223">
        <ele>61</ele>
        <time>2022-04-24T06:42:00.000Z</time>
      </trkpt>
      <trkpt lat="47.41143" lon="-2.17216">
        <ele>61</ele>
        <time>2022-04-24T06:42:02.000Z</time>
      </trkpt>
      <trkpt lat="47.41135" lon="-2.17208">
        <ele>61</ele>
        <time>2022-04-24T06:42:05.000Z</time>
      </trkpt>
      <trkpt lat="47.41131" lon="-2.17207">
        <ele>61</ele>
        <time>2022-04-24T06:42:06.000Z</time>
      </trkpt>
      <trkpt lat="47.41113" lon="-2.17204">
        <ele>61</ele>
        <time>2022-04-24T06:42:11.000Z</time>
      </trkpt>
      <trkpt lat="47.41097" lon="-2.17216">
        <ele>61</ele>
        <time>2022-04-24T06:42:16.000Z</time>
      </trkpt>
      <trkpt lat="47.41084" lon="-2.17219">
        <ele>61</ele>
        <time>2022-04-24T06:42:20.000Z</time>
      </trkpt>
      <trkpt lat="47.41082" lon="-2.17215">
        <ele>61</ele>
        <time>2022-04-24T06:42:21.000Z</time>
      </trkpt>
      <trkpt lat="47.41076" lon="-2.17195">
        <ele>61</ele>
        <time>2022-04-24T06:42:25.000Z</time>
      </trkpt>
      <trkpt lat="47.4107" lon="-2.17167">
        <ele>61</ele>
        <time>2022-04-24T06:42:30.000Z</time>
      </trkpt>
      <trkpt lat="47.41062" lon="-2.17146">
        <ele>61</ele>
        <time>2022-04-24T06:42:34.000Z</time>
      </trkpt>
      <trkpt lat="47.41052" lon="-2.17125">
        <ele>61</ele>
        <time>2022-04-24T06:42:38.000Z</time>
      </trkpt>
      <trkpt lat="47.41047" lon="-2.17108">
        <ele>61</ele>
        <time>2022-04-24T06:42:41.000Z</time>
      </trkpt>
      <trkpt lat="47.41033" lon="-2.17063">
        <ele>61</ele>
        <time>2022-04-24T06:42:49.000Z</time>
      </trkpt>
      <trkpt lat="47.4103" lon="-2.17057">
        <ele>61</ele>
        <time>2022-04-24T06:42:50.000Z</time>
      </trkpt>
      <trkpt lat="47.41025" lon="-2.17045">
        <ele>61</ele>
        <time>2022-04-24T06:42:52.000Z</time>
      </trkpt>
      <trkpt lat="47.41018" lon="-2.17026">
        <ele>61</ele>
        <time>2022-04-24T06:42:55.000Z</time>
      </trkpt>
      <trkpt lat="47.41008" lon="-2.16988">
        <ele>61</ele>
        <time>2022-04-24T06:43:01.000Z</time>
      </trkpt>
      <trkpt lat="47.41004" lon="-2.16979">
        <ele>61</ele>
        <time>2022-04-24T06:43:03.000Z</time>
      </trkpt>
      <trkpt lat="47.41" lon="-2.16977">
        <ele>61</ele>
        <time>2022-04-24T06:43:04.000Z</time>
      </trkpt>
      <trkpt lat="47.4098" lon="-2.16976">
        <ele>61</ele>
        <time>2022-04-24T06:43:09.000Z</time>
      </trkpt>
      <trkpt lat="47.40949" lon="-2.16977">
        <ele>61.400001525879</ele>
        <time>2022-04-24T06:43:16.000Z</time>
      </trkpt>
      <trkpt lat="47.40945" lon="-2.16977">
        <ele>61.799999237061</ele>
        <time>2022-04-24T06:43:17.000Z</time>
      </trkpt>
      <trkpt lat="47.4094" lon="-2.16977">
        <ele>62.200000762939</ele>
        <time>2022-04-24T06:43:18.000Z</time>
      </trkpt>
      <trkpt lat="47.40935" lon="-2.16978">
        <ele>62.799999237061</ele>
        <time>2022-04-24T06:43:19.000Z</time>
      </trkpt>
      <trkpt lat="47.40931" lon="-2.16978">
        <ele>63.200000762939</ele>
        <time>2022-04-24T06:43:20.000Z</time>
      </trkpt>
      <trkpt lat="47.40905" lon="-2.16984">
        <ele>63.200000762939</ele>
        <time>2022-04-24T06:43:26.000Z</time>
      </trkpt>
      <trkpt lat="47.40889" lon="-2.16992">
        <ele>63.599998474121</ele>
        <time>2022-04-24T06:43:30.000Z</time>
      </trkpt>
      <trkpt lat="47.40885" lon="-2.16994">
        <ele>64</ele>
        <time>2022-04-24T06:43:31.000Z</time>
      </trkpt>
      <trkpt lat="47.4088" lon="-2.16996">
        <ele>64.400001525879</ele>
        <time>2022-04-24T06:43:32.000Z</time>
      </trkpt>
      <trkpt lat="47.40877" lon="-2.16999">
        <ele>64.800003051758</ele>
        <time>2022-04-24T06:43:33.000Z</time>
      </trkpt>
      <trkpt lat="47.40873" lon="-2.17001">
        <ele>65.199996948242</ele>
        <time>2022-04-24T06:43:34.000Z</time>
      </trkpt>
      <trkpt lat="47.40849" lon="-2.17013">
        <ele>65.199996948242</ele>
        <time>2022-04-24T06:43:40.000Z</time>
      </trkpt>
      <trkpt lat="47.40814" lon="-2.1704">
        <ele>65.199996948242</ele>
        <time>2022-04-24T06:43:48.000Z</time>
      </trkpt>
      <trkpt lat="47.40778" lon="-2.17076">
        <ele>65.199996948242</ele>
        <time>2022-04-24T06:43:56.000Z</time>
      </trkpt>
      <trkpt lat="47.40763" lon="-2.17083">
        <ele>65.199996948242</ele>
        <time>2022-04-24T06:44:00.000Z</time>
      </trkpt>
      <trkpt lat="47.40754" lon="-2.17076">
        <ele>64.800003051758</ele>
        <time>2022-04-24T06:44:03.000Z</time>
      </trkpt>
      <trkpt lat="47.40752" lon="-2.17072">
        <ele>64.400001525879</ele>
        <time>2022-04-24T06:44:04.000Z</time>
      </trkpt>
      <trkpt lat="47.40752" lon="-2.17068">
        <ele>63.799999237061</ele>
        <time>2022-04-24T06:44:05.000Z</time>
      </trkpt>
      <trkpt lat="47.40754" lon="-2.17065">
        <ele>63.400001525879</ele>
        <time>2022-04-24T06:44:06.000Z</time>
      </trkpt>
      <trkpt lat="47.40756" lon="-2.17062">
        <ele>63</ele>
        <time>2022-04-24T06:44:07.000Z</time>
      </trkpt>
      <trkpt lat="47.40763" lon="-2.17043">
        <ele>63</ele>
        <time>2022-04-24T06:44:11.000Z</time>
      </trkpt>
      <trkpt lat="47.40764" lon="-2.17039">
        <ele>63</ele>
        <time>2022-04-24T06:44:12.000Z</time>
      </trkpt>
      <trkpt lat="47.40773" lon="-2.17008">
        <ele>63</ele>
        <time>2022-04-24T06:44:17.000Z</time>
      </trkpt>
      <trkpt lat="47.40782" lon="-2.16981">
        <ele>63</ele>
        <time>2022-04-24T06:44:21.000Z</time>
      </trkpt>
      <trkpt lat="47.40784" lon="-2.16961">
        <ele>63</ele>
        <time>2022-04-24T06:44:24.000Z</time>
      </trkpt>
      <trkpt lat="47.40785" lon="-2.16934">
        <ele>63</ele>
        <time>2022-04-24T06:44:28.000Z</time>
      </trkpt>
      <trkpt lat="47.40788" lon="-2.1692">
        <ele>63</ele>
        <time>2022-04-24T06:44:30.000Z</time>
      </trkpt>
      <trkpt lat="47.408" lon="-2.16895">
        <ele>63</ele>
        <time>2022-04-24T06:44:34.000Z</time>
      </trkpt>
      <trkpt lat="47.40803" lon="-2.1689">
        <ele>63</ele>
        <time>2022-04-24T06:44:35.000Z</time>
      </trkpt>
      <trkpt lat="47.40829" lon="-2.16848">
        <ele>63</ele>
        <time>2022-04-24T06:44:43.000Z</time>
      </trkpt>
      <trkpt lat="47.4083" lon="-2.16843">
        <ele>63</ele>
        <time>2022-04-24T06:44:44.000Z</time>
      </trkpt>
      <trkpt lat="47.40828" lon="-2.16833">
        <ele>63</ele>
        <time>2022-04-24T06:44:46.000Z</time>
      </trkpt>
      <trkpt lat="47.40823" lon="-2.16816">
        <ele>63</ele>
        <time>2022-04-24T06:44:49.000Z</time>
      </trkpt>
      <trkpt lat="47.40821" lon="-2.1681">
        <ele>63</ele>
        <time>2022-04-24T06:44:50.000Z</time>
      </trkpt>
      <trkpt lat="47.40818" lon="-2.16803">
        <ele>63</ele>
        <time>2022-04-24T06:44:51.000Z</time>
      </trkpt>
      <trkpt lat="47.40804" lon="-2.1676">
        <ele>63</ele>
        <time>2022-04-24T06:44:58.000Z</time>
      </trkpt>
      <trkpt lat="47.40791" lon="-2.16721">
        <ele>63</ele>
        <time>2022-04-24T06:45:05.000Z</time>
      </trkpt>
      <trkpt lat="47.40778" lon="-2.16681">
        <ele>63</ele>
        <time>2022-04-24T06:45:12.000Z</time>
      </trkpt>
      <trkpt lat="47.40764" lon="-2.16642">
        <ele>63</ele>
        <time>2022-04-24T06:45:18.000Z</time>
      </trkpt>
      <trkpt lat="47.4076" lon="-2.16633">
        <ele>62.599998474121</ele>
        <time>2022-04-24T06:45:20.000Z</time>
      </trkpt>
      <trkpt lat="47.40758" lon="-2.16629">
        <ele>62.200000762939</ele>
        <time>2022-04-24T06:45:21.000Z</time>
      </trkpt>
      <trkpt lat="47.40756" lon="-2.16628">
        <ele>61.799999237061</ele>
        <time>2022-04-24T06:45:22.000Z</time>
      </trkpt>
      <trkpt lat="47.40753" lon="-2.16628">
        <ele>61.400001525879</ele>
        <time>2022-04-24T06:45:23.000Z</time>
      </trkpt>
      <trkpt lat="47.40749" lon="-2.16629">
        <ele>61</ele>
        <time>2022-04-24T06:45:24.000Z</time>
      </trkpt>
      <trkpt lat="47.40741" lon="-2.16632">
        <ele>61</ele>
        <time>2022-04-24T06:45:26.000Z</time>
      </trkpt>
      <trkpt lat="47.40736" lon="-2.16635">
        <ele>61</ele>
        <time>2022-04-24T06:45:27.000Z</time>
      </trkpt>
      <trkpt lat="47.40713" lon="-2.16656">
        <ele>61</ele>
        <time>2022-04-24T06:45:32.000Z</time>
      </trkpt>
      <trkpt lat="47.40698" lon="-2.16673">
        <ele>61</ele>
        <time>2022-04-24T06:45:37.000Z</time>
      </trkpt>
      <trkpt lat="47.40684" lon="-2.16696">
        <ele>61</ele>
        <time>2022-04-24T06:45:43.000Z</time>
      </trkpt>
      <trkpt lat="47.40662" lon="-2.1673">
        <ele>61</ele>
        <time>2022-04-24T06:45:49.000Z</time>
      </trkpt>
      <trkpt lat="47.40643" lon="-2.16761">
        <ele>61</ele>
        <time>2022-04-24T06:45:54.000Z</time>
      </trkpt>
      <trkpt lat="47.40633" lon="-2.16784">
        <ele>61</ele>
        <time>2022-04-24T06:45:58.000Z</time>
      </trkpt>
      <trkpt lat="47.40628" lon="-2.16789">
        <ele>61</ele>
        <time>2022-04-24T06:46:01.000Z</time>
      </trkpt>
      <trkpt lat="47.40626" lon="-2.16789">
        <ele>61</ele>
        <time>2022-04-24T06:46:02.000Z</time>
      </trkpt>
      <trkpt lat="47.40618" lon="-2.16775">
        <ele>61</ele>
        <time>2022-04-24T06:46:06.000Z</time>
      </trkpt>
      <trkpt lat="47.40608" lon="-2.16767">
        <ele>61</ele>
        <time>2022-04-24T06:46:09.000Z</time>
      </trkpt>
      <trkpt lat="47.40604" lon="-2.16765">
        <ele>61</ele>
        <time>2022-04-24T06:46:10.000Z</time>
      </trkpt>
      <trkpt lat="47.406" lon="-2.16763">
        <ele>61</ele>
        <time>2022-04-24T06:46:11.000Z</time>
      </trkpt>
      <trkpt lat="47.40587" lon="-2.16765">
        <ele>61</ele>
        <time>2022-04-24T06:46:14.000Z</time>
      </trkpt>
      <trkpt lat="47.40569" lon="-2.1676">
        <ele>61</ele>
        <time>2022-04-24T06:46:19.000Z</time>
      </trkpt>
      <trkpt lat="47.40566" lon="-2.16756">
        <ele>61</ele>
        <time>2022-04-24T06:46:20.000Z</time>
      </trkpt>
      <trkpt lat="47.40559" lon="-2.16747">
        <ele>61</ele>
        <time>2022-04-24T06:46:22.000Z</time>
      </trkpt>
      <trkpt lat="47.40547" lon="-2.1674">
        <ele>61</ele>
        <time>2022-04-24T06:46:25.000Z</time>
      </trkpt>
      <trkpt lat="47.40542" lon="-2.16739">
        <ele>61</ele>
        <time>2022-04-24T06:46:26.000Z</time>
      </trkpt>
      <trkpt lat="47.40518" lon="-2.16721">
        <ele>61</ele>
        <time>2022-04-24T06:46:32.000Z</time>
      </trkpt>
      <trkpt lat="47.40505" lon="-2.16698">
        <ele>61</ele>
        <time>2022-04-24T06:46:37.000Z</time>
      </trkpt>
      <trkpt lat="47.40498" lon="-2.16688">
        <ele>61</ele>
        <time>2022-04-24T06:46:40.000Z</time>
      </trkpt>
      <trkpt lat="47.40496" lon="-2.16688">
        <ele>61</ele>
        <time>2022-04-24T06:46:41.000Z</time>
      </trkpt>
      <trkpt lat="47.40475" lon="-2.16678">
        <ele>61</ele>
        <time>2022-04-24T06:46:48.000Z</time>
      </trkpt>
      <trkpt lat="47.4046" lon="-2.16675">
        <ele>61</ele>
        <time>2022-04-24T06:46:52.000Z</time>
      </trkpt>
      <trkpt lat="47.40444" lon="-2.16668">
        <ele>61</ele>
        <time>2022-04-24T06:46:57.000Z</time>
      </trkpt>
      <trkpt lat="47.40423" lon="-2.1665">
        <ele>61</ele>
        <time>2022-04-24T06:47:02.000Z</time>
      </trkpt>
      <trkpt lat="47.40418" lon="-2.1665">
        <ele>61</ele>
        <time>2022-04-24T06:47:03.000Z</time>
      </trkpt>
      <trkpt lat="47.40412" lon="-2.16655">
        <ele>61</ele>
        <time>2022-04-24T06:47:05.000Z</time>
      </trkpt>
      <trkpt lat="47.40401" lon="-2.16657">
        <ele>61</ele>
        <time>2022-04-24T06:47:09.000Z</time>
      </trkpt>
      <trkpt lat="47.40396" lon="-2.16654">
        <ele>61</ele>
        <time>2022-04-24T06:47:11.000Z</time>
      </trkpt>
      <trkpt lat="47.40382" lon="-2.16654">
        <ele>61</ele>
        <time>2022-04-24T06:47:15.000Z</time>
      </trkpt>
      <trkpt lat="47.4037" lon="-2.16661">
        <ele>61</ele>
        <time>2022-04-24T06:47:19.000Z</time>
      </trkpt>
      <trkpt lat="47.40359" lon="-2.16658">
        <ele>61</ele>
        <time>2022-04-24T06:47:23.000Z</time>
      </trkpt>
      <trkpt lat="47.40352" lon="-2.16664">
        <ele>61</ele>
        <time>2022-04-24T06:47:26.000Z</time>
      </trkpt>
      <trkpt lat="47.40346" lon="-2.16669">
        <ele>61</ele>
        <time>2022-04-24T06:47:28.000Z</time>
      </trkpt>
      <trkpt lat="47.40327" lon="-2.16682">
        <ele>61</ele>
        <time>2022-04-24T06:47:33.000Z</time>
      </trkpt>
      <trkpt lat="47.40305" lon="-2.16696">
        <ele>61</ele>
        <time>2022-04-24T06:47:39.000Z</time>
      </trkpt>
      <trkpt lat="47.40291" lon="-2.16711">
        <ele>61</ele>
        <time>2022-04-24T06:47:44.000Z</time>
      </trkpt>
      <trkpt lat="47.40286" lon="-2.16728">
        <ele>61</ele>
        <time>2022-04-24T06:47:49.000Z</time>
      </trkpt>
      <trkpt lat="47.40293" lon="-2.16747">
        <ele>61</ele>
        <time>2022-04-24T06:47:54.000Z</time>
      </trkpt>
      <trkpt lat="47.40304" lon="-2.16763">
        <ele>61</ele>
        <time>2022-04-24T06:47:58.000Z</time>
      </trkpt>
      <trkpt lat="47.40307" lon="-2.16772">
        <ele>61</ele>
        <time>2022-04-24T06:48:00.000Z</time>
      </trkpt>
      <trkpt lat="47.40308" lon="-2.16782">
        <ele>61.400001525879</ele>
        <time>2022-04-24T06:48:02.000Z</time>
      </trkpt>
      <trkpt lat="47.4031" lon="-2.16784">
        <ele>61.799999237061</ele>
        <time>2022-04-24T06:48:03.000Z</time>
      </trkpt>
      <trkpt lat="47.40313" lon="-2.16785">
        <ele>62.200000762939</ele>
        <time>2022-04-24T06:48:04.000Z</time>
      </trkpt>
      <trkpt lat="47.40316" lon="-2.16784">
        <ele>62.599998474121</ele>
        <time>2022-04-24T06:48:05.000Z</time>
      </trkpt>
      <trkpt lat="47.40318" lon="-2.16782">
        <ele>63</ele>
        <time>2022-04-24T06:48:06.000Z</time>
      </trkpt>
      <trkpt lat="47.40321" lon="-2.16779">
        <ele>63</ele>
        <time>2022-04-24T06:48:07.000Z</time>
      </trkpt>
      <trkpt lat="47.40327" lon="-2.16778">
        <ele>63</ele>
        <time>2022-04-24T06:48:09.000Z</time>
      </trkpt>
      <trkpt lat="47.40333" lon="-2.1678">
        <ele>63</ele>
        <time>2022-04-24T06:48:11.000Z</time>
      </trkpt>
      <trkpt lat="47.40339" lon="-2.16778">
        <ele>63</ele>
        <time>2022-04-24T06:48:13.000Z</time>
      </trkpt>
      <trkpt lat="47.40345" lon="-2.16781">
        <ele>63</ele>
        <time>2022-04-24T06:48:15.000Z</time>
      </trkpt>
      <trkpt lat="47.40347" lon="-2.16785">
        <ele>63</ele>
        <time>2022-04-24T06:48:16.000Z</time>
      </trkpt>
      <trkpt lat="47.40352" lon="-2.16786">
        <ele>63.400001525879</ele>
        <time>2022-04-24T06:48:18.000Z</time>
      </trkpt>
      <trkpt lat="47.40353" lon="-2.16782">
        <ele>63.799999237061</ele>
        <time>2022-04-24T06:48:19.000Z</time>
      </trkpt>
      <trkpt lat="47.40355" lon="-2.16779">
        <ele>64.199996948242</ele>
        <time>2022-04-24T06:48:20.000Z</time>
      </trkpt>
      <trkpt lat="47.40357" lon="-2.16776">
        <ele>64.599998474121</ele>
        <time>2022-04-24T06:48:21.000Z</time>
      </trkpt>
      <trkpt lat="47.4036" lon="-2.16774">
        <ele>65</ele>
        <time>2022-04-24T06:48:22.000Z</time>
      </trkpt>
      <trkpt lat="47.40361" lon="-2.16774">
        <ele>65</ele>
        <time>2022-04-24T06:48:23.000Z</time>
      </trkpt>
      <trkpt lat="47.40363" lon="-2.16778">
        <ele>65</ele>
        <time>2022-04-24T06:48:24.000Z</time>
      </trkpt>
      <trkpt lat="47.40372" lon="-2.16797">
        <ele>65</ele>
        <time>2022-04-24T06:48:29.000Z</time>
      </trkpt>
      <trkpt lat="47.40369" lon="-2.16813">
        <ele>65</ele>
        <time>2022-04-24T06:48:33.000Z</time>
      </trkpt>
      <trkpt lat="47.40365" lon="-2.16817">
        <ele>65.400001525879</ele>
        <time>2022-04-24T06:48:35.000Z</time>
      </trkpt>
      <trkpt lat="47.40363" lon="-2.16815">
        <ele>66</ele>
        <time>2022-04-24T06:48:36.000Z</time>
      </trkpt>
      <trkpt lat="47.40364" lon="-2.16811">
        <ele>66.400001525879</ele>
        <time>2022-04-24T06:48:37.000Z</time>
      </trkpt>
      <trkpt lat="47.40364" lon="-2.16807">
        <ele>66.800003051758</ele>
        <time>2022-04-24T06:48:38.000Z</time>
      </trkpt>
      <trkpt lat="47.40364" lon="-2.16803">
        <ele>67.199996948242</ele>
        <time>2022-04-24T06:48:39.000Z</time>
      </trkpt>
      <trkpt lat="47.40357" lon="-2.16803">
        <ele>67.199996948242</ele>
        <time>2022-04-24T06:48:42.000Z</time>
      </trkpt>
      <trkpt lat="47.40344" lon="-2.16808">
        <ele>67.199996948242</ele>
        <time>2022-04-24T06:48:46.000Z</time>
      </trkpt>
      <trkpt lat="47.40341" lon="-2.16807">
        <ele>67.199996948242</ele>
        <time>2022-04-24T06:48:47.000Z</time>
      </trkpt>
      <trkpt lat="47.40335" lon="-2.16802">
        <ele>67.199996948242</ele>
        <time>2022-04-24T06:48:49.000Z</time>
      </trkpt>
      <trkpt lat="47.40334" lon="-2.16797">
        <ele>66.800003051758</ele>
        <time>2022-04-24T06:48:50.000Z</time>
      </trkpt>
      <trkpt lat="47.40331" lon="-2.16793">
        <ele>66.199996948242</ele>
        <time>2022-04-24T06:48:51.000Z</time>
      </trkpt>
      <trkpt lat="47.40329" lon="-2.16793">
        <ele>65.800003051758</ele>
        <time>2022-04-24T06:48:52.000Z</time>
      </trkpt>
      <trkpt lat="47.40326" lon="-2.16792">
        <ele>65.400001525879</ele>
        <time>2022-04-24T06:48:53.000Z</time>
      </trkpt>
      <trkpt lat="47.40324" lon="-2.1679">
        <ele>65</ele>
        <time>2022-04-24T06:48:54.000Z</time>
      </trkpt>
      <trkpt lat="47.40318" lon="-2.16792">
        <ele>65</ele>
        <time>2022-04-24T06:48:56.000Z</time>
      </trkpt>
      <trkpt lat="47.40315" lon="-2.16798">
        <ele>65</ele>
        <time>2022-04-24T06:49:00.000Z</time>
      </trkpt>
      <trkpt lat="47.4032" lon="-2.16804">
        <ele>65</ele>
        <time>2022-04-24T06:49:04.000Z</time>
      </trkpt>
      <trkpt lat="47.40326" lon="-2.1681">
        <ele>65</ele>
        <time>2022-04-24T06:49:07.000Z</time>
      </trkpt>
      <trkpt lat="47.4033" lon="-2.16816">
        <ele>65</ele>
        <time>2022-04-24T06:49:09.000Z</time>
      </trkpt>
      <trkpt lat="47.40335" lon="-2.16827">
        <ele>65</ele>
        <time>2022-04-24T06:49:12.000Z</time>
      </trkpt>
      <trkpt lat="47.40342" lon="-2.16837">
        <ele>65</ele>
        <time>2022-04-24T06:49:14.000Z</time>
      </trkpt>
      <trkpt lat="47.40346" lon="-2.16839">
        <ele>65</ele>
        <time>2022-04-24T06:49:15.000Z</time>
      </trkpt>
      <trkpt lat="47.4035" lon="-2.16839">
        <ele>65</ele>
        <time>2022-04-24T06:49:16.000Z</time>
      </trkpt>
      <trkpt lat="47.40353" lon="-2.16835">
        <ele>65.400001525879</ele>
        <time>2022-04-24T06:49:17.000Z</time>
      </trkpt>
      <trkpt lat="47.40354" lon="-2.16832">
        <ele>65.800003051758</ele>
        <time>2022-04-24T06:49:18.000Z</time>
      </trkpt>
      <trkpt lat="47.40356" lon="-2.16829">
        <ele>66.199996948242</ele>
        <time>2022-04-24T06:49:19.000Z</time>
      </trkpt>
      <trkpt lat="47.40359" lon="-2.16825">
        <ele>66.599998474121</ele>
        <time>2022-04-24T06:49:20.000Z</time>
      </trkpt>
      <trkpt lat="47.40362" lon="-2.16824">
        <ele>67</ele>
        <time>2022-04-24T06:49:21.000Z</time>
      </trkpt>
      <trkpt lat="47.40364" lon="-2.16826">
        <ele>67</ele>
        <time>2022-04-24T06:49:22.000Z</time>
      </trkpt>
      <trkpt lat="47.40368" lon="-2.16827">
        <ele>67</ele>
        <time>2022-04-24T06:49:23.000Z</time>
      </trkpt>
      <trkpt lat="47.40375" lon="-2.16827">
        <ele>67</ele>
        <time>2022-04-24T06:49:26.000Z</time>
      </trkpt>
      <trkpt lat="47.40378" lon="-2.16827">
        <ele>67</ele>
        <time>2022-04-24T06:49:27.000Z</time>
      </trkpt>
      <trkpt lat="47.4039" lon="-2.16828">
        <ele>67</ele>
        <time>2022-04-24T06:49:32.000Z</time>
      </trkpt>
      <trkpt lat="47.40395" lon="-2.16818">
        <ele>66.599998474121</ele>
        <time>2022-04-24T06:49:35.000Z</time>
      </trkpt>
      <trkpt lat="47.40398" lon="-2.16816">
        <ele>66.199996948242</ele>
        <time>2022-04-24T06:49:36.000Z</time>
      </trkpt>
      <trkpt lat="47.40399" lon="-2.16816">
        <ele>65.800003051758</ele>
        <time>2022-04-24T06:49:37.000Z</time>
      </trkpt>
      <trkpt lat="47.404" lon="-2.16819">
        <ele>65.400001525879</ele>
        <time>2022-04-24T06:49:38.000Z</time>
      </trkpt>
      <trkpt lat="47.40401" lon="-2.16821">
        <ele>64.800003051758</ele>
        <time>2022-04-24T06:49:39.000Z</time>
      </trkpt>
      <trkpt lat="47.404" lon="-2.16827">
        <ele>64.800003051758</ele>
        <time>2022-04-24T06:49:41.000Z</time>
      </trkpt>
      <trkpt lat="47.40398" lon="-2.16828">
        <ele>64.800003051758</ele>
        <time>2022-04-24T06:49:42.000Z</time>
      </trkpt>
      <trkpt lat="47.40397" lon="-2.16829">
        <ele>64.800003051758</ele>
        <time>2022-04-24T06:49:43.000Z</time>
      </trkpt>
      <trkpt lat="47.40389" lon="-2.16829">
        <ele>64.800003051758</ele>
        <time>2022-04-24T06:49:47.000Z</time>
      </trkpt>
      <trkpt lat="47.40386" lon="-2.1683">
        <ele>65.400001525879</ele>
        <time>2022-04-24T06:49:48.000Z</time>
      </trkpt>
      <trkpt lat="47.40383" lon="-2.16832">
        <ele>65.800003051758</ele>
        <time>2022-04-24T06:49:49.000Z</time>
      </trkpt>
      <trkpt lat="47.4038" lon="-2.16833">
        <ele>66.199996948242</ele>
        <time>2022-04-24T06:49:50.000Z</time>
      </trkpt>
      <trkpt lat="47.40377" lon="-2.16838">
        <ele>66.599998474121</ele>
        <time>2022-04-24T06:49:51.000Z</time>
      </trkpt>
      <trkpt lat="47.40377" lon="-2.16841">
        <ele>67.199996948242</ele>
        <time>2022-04-24T06:49:52.000Z</time>
      </trkpt>
      <trkpt lat="47.40362" lon="-2.16856">
        <ele>67.199996948242</ele>
        <time>2022-04-24T06:49:56.000Z</time>
      </trkpt>
      <trkpt lat="47.40352" lon="-2.16869">
        <ele>67.199996948242</ele>
        <time>2022-04-24T06:49:59.000Z</time>
      </trkpt>
      <trkpt lat="47.40355" lon="-2.16878">
        <ele>67.199996948242</ele>
        <time>2022-04-24T06:50:02.000Z</time>
      </trkpt>
      <trkpt lat="47.40365" lon="-2.16871">
        <ele>67.199996948242</ele>
        <time>2022-04-24T06:50:05.000Z</time>
      </trkpt>
      <trkpt lat="47.40374" lon="-2.16866">
        <ele>67.199996948242</ele>
        <time>2022-04-24T06:50:09.000Z</time>
      </trkpt>
      <trkpt lat="47.40375" lon="-2.16867">
        <ele>67.199996948242</ele>
        <time>2022-04-24T06:50:11.000Z</time>
      </trkpt>
      <trkpt lat="47.40373" lon="-2.16874">
        <ele>67.199996948242</ele>
        <time>2022-04-24T06:50:20.000Z</time>
      </trkpt>
      <trkpt lat="47.40373" lon="-2.16878">
        <ele>67.199996948242</ele>
        <time>2022-04-24T06:50:21.000Z</time>
      </trkpt>
      <trkpt lat="47.40381" lon="-2.16887">
        <ele>67.199996948242</ele>
        <time>2022-04-24T06:50:25.000Z</time>
      </trkpt>
      <trkpt lat="47.40386" lon="-2.1689">
        <ele>67.199996948242</ele>
        <time>2022-04-24T06:50:27.000Z</time>
      </trkpt>
      <trkpt lat="47.40388" lon="-2.16893">
        <ele>67.199996948242</ele>
        <time>2022-04-24T06:50:28.000Z</time>
      </trkpt>
      <trkpt lat="47.40388" lon="-2.16896">
        <ele>67.199996948242</ele>
        <time>2022-04-24T06:50:29.000Z</time>
      </trkpt>
      <trkpt lat="47.40382" lon="-2.16901">
        <ele>67.199996948242</ele>
        <time>2022-04-24T06:50:33.000Z</time>
      </trkpt>
      <trkpt lat="47.40371" lon="-2.16903">
        <ele>67.199996948242</ele>
        <time>2022-04-24T06:50:37.000Z</time>
      </trkpt>
      <trkpt lat="47.40368" lon="-2.16903">
        <ele>67.199996948242</ele>
        <time>2022-04-24T06:50:38.000Z</time>
      </trkpt>
      <trkpt lat="47.40365" lon="-2.16906">
        <ele>67.199996948242</ele>
        <time>2022-04-24T06:50:40.000Z</time>
      </trkpt>
      <trkpt lat="47.40368" lon="-2.16909">
        <ele>67.199996948242</ele>
        <time>2022-04-24T06:50:42.000Z</time>
      </trkpt>
      <trkpt lat="47.40374" lon="-2.16909">
        <ele>66.599998474121</ele>
        <time>2022-04-24T06:50:44.000Z</time>
      </trkpt>
      <trkpt lat="47.40377" lon="-2.16909">
        <ele>66.199996948242</ele>
        <time>2022-04-24T06:50:45.000Z</time>
      </trkpt>
      <trkpt lat="47.4038" lon="-2.1691">
        <ele>65.800003051758</ele>
        <time>2022-04-24T06:50:46.000Z</time>
      </trkpt>
      <trkpt lat="47.40383" lon="-2.16912">
        <ele>65.400001525879</ele>
        <time>2022-04-24T06:50:47.000Z</time>
      </trkpt>
      <trkpt lat="47.40384" lon="-2.16914">
        <ele>65</ele>
        <time>2022-04-24T06:50:48.000Z</time>
      </trkpt>
      <trkpt lat="47.40386" lon="-2.16915">
        <ele>65</ele>
        <time>2022-04-24T06:50:49.000Z</time>
      </trkpt>
      <trkpt lat="47.40388" lon="-2.16916">
        <ele>64.599998474121</ele>
        <time>2022-04-24T06:50:51.000Z</time>
      </trkpt>
      <trkpt lat="47.40389" lon="-2.16915">
        <ele>64.199996948242</ele>
        <time>2022-04-24T06:50:52.000Z</time>
      </trkpt>
      <trkpt lat="47.40389" lon="-2.16915">
        <ele>63.400001525879</ele>
        <time>2022-04-24T06:50:53.000Z</time>
      </trkpt>
      <trkpt lat="47.4039" lon="-2.16914">
        <ele>63</ele>
        <time>2022-04-24T06:50:54.000Z</time>
      </trkpt>
      <trkpt lat="47.4039" lon="-2.16914">
        <ele>63.400001525879</ele>
        <time>2022-04-24T06:50:55.000Z</time>
      </trkpt>
      <trkpt lat="47.4039" lon="-2.16914">
        <ele>63.799999237061</ele>
        <time>2022-04-24T06:50:56.000Z</time>
      </trkpt>
      <trkpt lat="47.40392" lon="-2.16909">
        <ele>65</ele>
        <time>2022-04-24T06:51:08.000Z</time>
      </trkpt>
      <trkpt lat="47.40392" lon="-2.16906">
        <ele>65</ele>
        <time>2022-04-24T06:51:09.000Z</time>
      </trkpt>
      <trkpt lat="47.4039" lon="-2.16896">
        <ele>65</ele>
        <time>2022-04-24T06:51:13.000Z</time>
      </trkpt>
      <trkpt lat="47.40393" lon="-2.16883">
        <ele>65</ele>
        <time>2022-04-24T06:51:16.000Z</time>
      </trkpt>
      <trkpt lat="47.40394" lon="-2.1688">
        <ele>65</ele>
        <time>2022-04-24T06:51:17.000Z</time>
      </trkpt>
      <trkpt lat="47.40398" lon="-2.16873">
        <ele>65</ele>
        <time>2022-04-24T06:51:20.000Z</time>
      </trkpt>
      <trkpt lat="47.40401" lon="-2.16873">
        <ele>65</ele>
        <time>2022-04-24T06:51:22.000Z</time>
      </trkpt>
      <trkpt lat="47.40409" lon="-2.16886">
        <ele>65</ele>
        <time>2022-04-24T06:51:26.000Z</time>
      </trkpt>
      <trkpt lat="47.40412" lon="-2.16891">
        <ele>65</ele>
        <time>2022-04-24T06:51:27.000Z</time>
      </trkpt>
      <trkpt lat="47.40411" lon="-2.16896">
        <ele>65</ele>
        <time>2022-04-24T06:51:28.000Z</time>
      </trkpt>
      <trkpt lat="47.4041" lon="-2.16906">
        <ele>65</ele>
        <time>2022-04-24T06:51:30.000Z</time>
      </trkpt>
      <trkpt lat="47.40407" lon="-2.16909">
        <ele>65</ele>
        <time>2022-04-24T06:51:31.000Z</time>
      </trkpt>
      <trkpt lat="47.40398" lon="-2.16917">
        <ele>65</ele>
        <time>2022-04-24T06:51:34.000Z</time>
      </trkpt>
      <trkpt lat="47.4039" lon="-2.16925">
        <ele>65</ele>
        <time>2022-04-24T06:51:38.000Z</time>
      </trkpt>
      <trkpt lat="47.40388" lon="-2.16926">
        <ele>65</ele>
        <time>2022-04-24T06:51:39.000Z</time>
      </trkpt>
      <trkpt lat="47.40374" lon="-2.16921">
        <ele>65</ele>
        <time>2022-04-24T06:51:43.000Z</time>
      </trkpt>
      <trkpt lat="47.40364" lon="-2.16916">
        <ele>65</ele>
        <time>2022-04-24T06:51:47.000Z</time>
      </trkpt>
      <trkpt lat="47.40354" lon="-2.16928">
        <ele>65</ele>
        <time>2022-04-24T06:51:51.000Z</time>
      </trkpt>
      <trkpt lat="47.40352" lon="-2.16934">
        <ele>65</ele>
        <time>2022-04-24T06:51:52.000Z</time>
      </trkpt>
      <trkpt lat="47.40346" lon="-2.16937">
        <ele>65</ele>
        <time>2022-04-24T06:51:54.000Z</time>
      </trkpt>
      <trkpt lat="47.40343" lon="-2.16933">
        <ele>65</ele>
        <time>2022-04-24T06:51:55.000Z</time>
      </trkpt>
      <trkpt lat="47.40342" lon="-2.16921">
        <ele>65</ele>
        <time>2022-04-24T06:51:58.000Z</time>
      </trkpt>
      <trkpt lat="47.40344" lon="-2.16913">
        <ele>65</ele>
        <time>2022-04-24T06:52:00.000Z</time>
      </trkpt>
      <trkpt lat="47.40341" lon="-2.16911">
        <ele>65</ele>
        <time>2022-04-24T06:52:01.000Z</time>
      </trkpt>
      <trkpt lat="47.40339" lon="-2.1691">
        <ele>65</ele>
        <time>2022-04-24T06:52:02.000Z</time>
      </trkpt>
      <trkpt lat="47.40323" lon="-2.16915">
        <ele>65</ele>
        <time>2022-04-24T06:52:07.000Z</time>
      </trkpt>
      <trkpt lat="47.40317" lon="-2.16927">
        <ele>65</ele>
        <time>2022-04-24T06:52:10.000Z</time>
      </trkpt>
      <trkpt lat="47.40315" lon="-2.16933">
        <ele>64.599998474121</ele>
        <time>2022-04-24T06:52:11.000Z</time>
      </trkpt>
      <trkpt lat="47.40314" lon="-2.1694">
        <ele>64.199996948242</ele>
        <time>2022-04-24T06:52:12.000Z</time>
      </trkpt>
      <trkpt lat="47.40312" lon="-2.16944">
        <ele>63.599998474121</ele>
        <time>2022-04-24T06:52:13.000Z</time>
      </trkpt>
      <trkpt lat="47.40309" lon="-2.16946">
        <ele>63.200000762939</ele>
        <time>2022-04-24T06:52:14.000Z</time>
      </trkpt>
      <trkpt lat="47.40305" lon="-2.16949">
        <ele>62.799999237061</ele>
        <time>2022-04-24T06:52:15.000Z</time>
      </trkpt>
      <trkpt lat="47.40302" lon="-2.16951">
        <ele>62.799999237061</ele>
        <time>2022-04-24T06:52:16.000Z</time>
      </trkpt>
      <trkpt lat="47.40293" lon="-2.16958">
        <ele>62.400001525879</ele>
        <time>2022-04-24T06:52:20.000Z</time>
      </trkpt>
      <trkpt lat="47.4029" lon="-2.16958">
        <ele>62</ele>
        <time>2022-04-24T06:52:21.000Z</time>
      </trkpt>
      <trkpt lat="47.40287" lon="-2.16958">
        <ele>61.599998474121</ele>
        <time>2022-04-24T06:52:22.000Z</time>
      </trkpt>
      <trkpt lat="47.40285" lon="-2.16959">
        <ele>61.200000762939</ele>
        <time>2022-04-24T06:52:23.000Z</time>
      </trkpt>
      <trkpt lat="47.40281" lon="-2.1696">
        <ele>60.799999237061</ele>
        <time>2022-04-24T06:52:24.000Z</time>
      </trkpt>
      <trkpt lat="47.40275" lon="-2.16966">
        <ele>60.799999237061</ele>
        <time>2022-04-24T06:52:26.000Z</time>
      </trkpt>
      <trkpt lat="47.4027" lon="-2.1698">
        <ele>60.799999237061</ele>
        <time>2022-04-24T06:52:29.000Z</time>
      </trkpt>
      <trkpt lat="47.4027" lon="-2.16985">
        <ele>60.799999237061</ele>
        <time>2022-04-24T06:52:30.000Z</time>
      </trkpt>
      <trkpt lat="47.40265" lon="-2.16986">
        <ele>60.799999237061</ele>
        <time>2022-04-24T06:52:33.000Z</time>
      </trkpt>
      <trkpt lat="47.40262" lon="-2.16986">
        <ele>60.799999237061</ele>
        <time>2022-04-24T06:52:34.000Z</time>
      </trkpt>
      <trkpt lat="47.40259" lon="-2.16981">
        <ele>60.799999237061</ele>
        <time>2022-04-24T06:52:37.000Z</time>
      </trkpt>
      <trkpt lat="47.4027" lon="-2.16971">
        <ele>60.799999237061</ele>
        <time>2022-04-24T06:52:42.000Z</time>
      </trkpt>
      <trkpt lat="47.40272" lon="-2.16958">
        <ele>60.799999237061</ele>
        <time>2022-04-24T06:52:46.000Z</time>
      </trkpt>
      <trkpt lat="47.40272" lon="-2.16953">
        <ele>60.799999237061</ele>
        <time>2022-04-24T06:52:47.000Z</time>
      </trkpt>
      <trkpt lat="47.40267" lon="-2.1694">
        <ele>60.799999237061</ele>
        <time>2022-04-24T06:52:50.000Z</time>
      </trkpt>
      <trkpt lat="47.40265" lon="-2.16938">
        <ele>60.799999237061</ele>
        <time>2022-04-24T06:52:51.000Z</time>
      </trkpt>
      <trkpt lat="47.4026" lon="-2.16917">
        <ele>60.799999237061</ele>
        <time>2022-04-24T06:52:56.000Z</time>
      </trkpt>
      <trkpt lat="47.40262" lon="-2.16917">
        <ele>60.799999237061</ele>
        <time>2022-04-24T06:52:57.000Z</time>
      </trkpt>
      <trkpt lat="47.40264" lon="-2.16919">
        <ele>60.799999237061</ele>
        <time>2022-04-24T06:52:58.000Z</time>
      </trkpt>
      <trkpt lat="47.40267" lon="-2.16918">
        <ele>60.799999237061</ele>
        <time>2022-04-24T06:52:59.000Z</time>
      </trkpt>
      <trkpt lat="47.40276" lon="-2.16916">
        <ele>60.799999237061</ele>
        <time>2022-04-24T06:53:02.000Z</time>
      </trkpt>
      <trkpt lat="47.40281" lon="-2.1692">
        <ele>60.799999237061</ele>
        <time>2022-04-24T06:53:04.000Z</time>
      </trkpt>
      <trkpt lat="47.40279" lon="-2.16931">
        <ele>60.799999237061</ele>
        <time>2022-04-24T06:53:08.000Z</time>
      </trkpt>
      <trkpt lat="47.40285" lon="-2.16937">
        <ele>60.799999237061</ele>
        <time>2022-04-24T06:53:12.000Z</time>
      </trkpt>
      <trkpt lat="47.40292" lon="-2.16945">
        <ele>60.799999237061</ele>
        <time>2022-04-24T06:53:15.000Z</time>
      </trkpt>
      <trkpt lat="47.40296" lon="-2.16946">
        <ele>60.799999237061</ele>
        <time>2022-04-24T06:53:16.000Z</time>
      </trkpt>
      <trkpt lat="47.40312" lon="-2.16942">
        <ele>60.799999237061</ele>
        <time>2022-04-24T06:53:21.000Z</time>
      </trkpt>
      <trkpt lat="47.40316" lon="-2.1693">
        <ele>60.799999237061</ele>
        <time>2022-04-24T06:53:26.000Z</time>
      </trkpt>
      <trkpt lat="47.40313" lon="-2.16928">
        <ele>60.799999237061</ele>
        <time>2022-04-24T06:53:27.000Z</time>
      </trkpt>
      <trkpt lat="47.40305" lon="-2.16926">
        <ele>60.799999237061</ele>
        <time>2022-04-24T06:53:30.000Z</time>
      </trkpt>
      <trkpt lat="47.40295" lon="-2.16912">
        <ele>60.799999237061</ele>
        <time>2022-04-24T06:53:33.000Z</time>
      </trkpt>
      <trkpt lat="47.40282" lon="-2.16908">
        <ele>60.799999237061</ele>
        <time>2022-04-24T06:53:37.000Z</time>
      </trkpt>
      <trkpt lat="47.40279" lon="-2.1691">
        <ele>60.799999237061</ele>
        <time>2022-04-24T06:53:38.000Z</time>
      </trkpt>
      <trkpt lat="47.40269" lon="-2.1691">
        <ele>60.799999237061</ele>
        <time>2022-04-24T06:53:42.000Z</time>
      </trkpt>
      <trkpt lat="47.40261" lon="-2.16898">
        <ele>60.799999237061</ele>
        <time>2022-04-24T06:53:47.000Z</time>
      </trkpt>
      <trkpt lat="47.4026" lon="-2.16896">
        <ele>60.799999237061</ele>
        <time>2022-04-24T06:53:48.000Z</time>
      </trkpt>
      <trkpt lat="47.40262" lon="-2.16893">
        <ele>60.799999237061</ele>
        <time>2022-04-24T06:53:50.000Z</time>
      </trkpt>
      <trkpt lat="47.40265" lon="-2.16891">
        <ele>60.799999237061</ele>
        <time>2022-04-24T06:53:52.000Z</time>
      </trkpt>
      <trkpt lat="47.40265" lon="-2.16893">
        <ele>60.799999237061</ele>
        <time>2022-04-24T06:53:55.000Z</time>
      </trkpt>
      <trkpt lat="47.4027" lon="-2.16895">
        <ele>60.799999237061</ele>
        <time>2022-04-24T06:54:04.000Z</time>
      </trkpt>
      <trkpt lat="47.40272" lon="-2.16895">
        <ele>60.799999237061</ele>
        <time>2022-04-24T06:54:05.000Z</time>
      </trkpt>
      <trkpt lat="47.40277" lon="-2.16887">
        <ele>60.799999237061</ele>
        <time>2022-04-24T06:54:09.000Z</time>
      </trkpt>
      <trkpt lat="47.4027" lon="-2.16888">
        <ele>60.799999237061</ele>
        <time>2022-04-24T06:54:12.000Z</time>
      </trkpt>
      <trkpt lat="47.40268" lon="-2.16878">
        <ele>60.799999237061</ele>
        <time>2022-04-24T06:54:16.000Z</time>
      </trkpt>
      <trkpt lat="47.40271" lon="-2.16874">
        <ele>60.799999237061</ele>
        <time>2022-04-24T06:54:19.000Z</time>
      </trkpt>
      <trkpt lat="47.40275" lon="-2.16873">
        <ele>60.799999237061</ele>
        <time>2022-04-24T06:54:21.000Z</time>
      </trkpt>
      <trkpt lat="47.40283" lon="-2.16866">
        <ele>60.799999237061</ele>
        <time>2022-04-24T06:54:24.000Z</time>
      </trkpt>
      <trkpt lat="47.40286" lon="-2.16855">
        <ele>60.799999237061</ele>
        <time>2022-04-24T06:54:26.000Z</time>
      </trkpt>
      <trkpt lat="47.40282" lon="-2.16845">
        <ele>60.799999237061</ele>
        <time>2022-04-24T06:54:30.000Z</time>
      </trkpt>
      <trkpt lat="47.40276" lon="-2.16852">
        <ele>60.799999237061</ele>
        <time>2022-04-24T06:54:34.000Z</time>
      </trkpt>
      <trkpt lat="47.40269" lon="-2.16856">
        <ele>60.799999237061</ele>
        <time>2022-04-24T06:54:37.000Z</time>
      </trkpt>
      <trkpt lat="47.4027" lon="-2.16849">
        <ele>60.799999237061</ele>
        <time>2022-04-24T06:54:40.000Z</time>
      </trkpt>
      <trkpt lat="47.40271" lon="-2.16841">
        <ele>60.799999237061</ele>
        <time>2022-04-24T06:54:44.000Z</time>
      </trkpt>
      <trkpt lat="47.40269" lon="-2.1684">
        <ele>60.799999237061</ele>
        <time>2022-04-24T06:54:45.000Z</time>
      </trkpt>
      <trkpt lat="47.4026" lon="-2.16836">
        <ele>60.799999237061</ele>
        <time>2022-04-24T06:54:48.000Z</time>
      </trkpt>
      <trkpt lat="47.4025" lon="-2.16822">
        <ele>60.799999237061</ele>
        <time>2022-04-24T06:54:52.000Z</time>
      </trkpt>
      <trkpt lat="47.40249" lon="-2.16818">
        <ele>60.799999237061</ele>
        <time>2022-04-24T06:54:53.000Z</time>
      </trkpt>
      <trkpt lat="47.40251" lon="-2.16819">
        <ele>60.799999237061</ele>
        <time>2022-04-24T06:54:54.000Z</time>
      </trkpt>
      <trkpt lat="47.40252" lon="-2.16821">
        <ele>60.799999237061</ele>
        <time>2022-04-24T06:54:56.000Z</time>
      </trkpt>
      <trkpt lat="47.40257" lon="-2.16826">
        <ele>60.799999237061</ele>
        <time>2022-04-24T06:54:57.000Z</time>
      </trkpt>
      <trkpt lat="47.4027" lon="-2.16824">
        <ele>60.799999237061</ele>
        <time>2022-04-24T06:55:01.000Z</time>
      </trkpt>
      <trkpt lat="47.40276" lon="-2.16824">
        <ele>60.799999237061</ele>
        <time>2022-04-24T06:55:04.000Z</time>
      </trkpt>
      <trkpt lat="47.40277" lon="-2.16826">
        <ele>60.799999237061</ele>
        <time>2022-04-24T06:55:05.000Z</time>
      </trkpt>
      <trkpt lat="47.40285" lon="-2.16825">
        <ele>60.799999237061</ele>
        <time>2022-04-24T06:55:09.000Z</time>
      </trkpt>
      <trkpt lat="47.40286" lon="-2.16821">
        <ele>60.799999237061</ele>
        <time>2022-04-24T06:55:10.000Z</time>
      </trkpt>
      <trkpt lat="47.40283" lon="-2.16811">
        <ele>60.799999237061</ele>
        <time>2022-04-24T06:55:13.000Z</time>
      </trkpt>
      <trkpt lat="47.40281" lon="-2.16809">
        <ele>60.799999237061</ele>
        <time>2022-04-24T06:55:14.000Z</time>
      </trkpt>
      <trkpt lat="47.40279" lon="-2.16795">
        <ele>60.799999237061</ele>
        <time>2022-04-24T06:55:18.000Z</time>
      </trkpt>
      <trkpt lat="47.40287" lon="-2.16796">
        <ele>60.799999237061</ele>
        <time>2022-04-24T06:55:22.000Z</time>
      </trkpt>
      <trkpt lat="47.40293" lon="-2.16801">
        <ele>61.200000762939</ele>
        <time>2022-04-24T06:55:24.000Z</time>
      </trkpt>
      <trkpt lat="47.40296" lon="-2.16804">
        <ele>61.599998474121</ele>
        <time>2022-04-24T06:55:25.000Z</time>
      </trkpt>
      <trkpt lat="47.40299" lon="-2.16808">
        <ele>62</ele>
        <time>2022-04-24T06:55:26.000Z</time>
      </trkpt>
      <trkpt lat="47.40302" lon="-2.16814">
        <ele>62.400001525879</ele>
        <time>2022-04-24T06:55:27.000Z</time>
      </trkpt>
      <trkpt lat="47.40303" lon="-2.1682">
        <ele>62.799999237061</ele>
        <time>2022-04-24T06:55:28.000Z</time>
      </trkpt>
      <trkpt lat="47.40312" lon="-2.16849">
        <ele>62.799999237061</ele>
        <time>2022-04-24T06:55:34.000Z</time>
      </trkpt>
      <trkpt lat="47.40319" lon="-2.16858">
        <ele>62.799999237061</ele>
        <time>2022-04-24T06:55:37.000Z</time>
      </trkpt>
      <trkpt lat="47.40326" lon="-2.16856">
        <ele>62.799999237061</ele>
        <time>2022-04-24T06:55:39.000Z</time>
      </trkpt>
      <trkpt lat="47.40332" lon="-2.16848">
        <ele>62.799999237061</ele>
        <time>2022-04-24T06:55:42.000Z</time>
      </trkpt>
      <trkpt lat="47.40333" lon="-2.16844">
        <ele>63.200000762939</ele>
        <time>2022-04-24T06:55:43.000Z</time>
      </trkpt>
      <trkpt lat="47.40333" lon="-2.16838">
        <ele>63.599998474121</ele>
        <time>2022-04-24T06:55:44.000Z</time>
      </trkpt>
      <trkpt lat="47.40333" lon="-2.16833">
        <ele>64</ele>
        <time>2022-04-24T06:55:45.000Z</time>
      </trkpt>
      <trkpt lat="47.40333" lon="-2.16829">
        <ele>64.599998474121</ele>
        <time>2022-04-24T06:55:46.000Z</time>
      </trkpt>
      <trkpt lat="47.40332" lon="-2.16826">
        <ele>65</ele>
        <time>2022-04-24T06:55:47.000Z</time>
      </trkpt>
      <trkpt lat="47.4033" lon="-2.16822">
        <ele>65</ele>
        <time>2022-04-24T06:55:49.000Z</time>
      </trkpt>
      <trkpt lat="47.40326" lon="-2.16822">
        <ele>65</ele>
        <time>2022-04-24T06:55:50.000Z</time>
      </trkpt>
      <trkpt lat="47.40322" lon="-2.16824">
        <ele>65</ele>
        <time>2022-04-24T06:55:52.000Z</time>
      </trkpt>
      <trkpt lat="47.40313" lon="-2.16825">
        <ele>65</ele>
        <time>2022-04-24T06:55:56.000Z</time>
      </trkpt>
      <trkpt lat="47.40312" lon="-2.16823">
        <ele>65</ele>
        <time>2022-04-24T06:55:57.000Z</time>
      </trkpt>
      <trkpt lat="47.40315" lon="-2.16811">
        <ele>65</ele>
        <time>2022-04-24T06:56:02.000Z</time>
      </trkpt>
      <trkpt lat="47.40309" lon="-2.16809">
        <ele>65</ele>
        <time>2022-04-24T06:56:05.000Z</time>
      </trkpt>
      <trkpt lat="47.403" lon="-2.16799">
        <ele>64.599998474121</ele>
        <time>2022-04-24T06:56:09.000Z</time>
      </trkpt>
      <trkpt lat="47.40298" lon="-2.16796">
        <ele>64.199996948242</ele>
        <time>2022-04-24T06:56:10.000Z</time>
      </trkpt>
      <trkpt lat="47.40295" lon="-2.16794">
        <ele>63.599998474121</ele>
        <time>2022-04-24T06:56:11.000Z</time>
      </trkpt>
      <trkpt lat="47.40291" lon="-2.16791">
        <ele>63.200000762939</ele>
        <time>2022-04-24T06:56:12.000Z</time>
      </trkpt>
      <trkpt lat="47.40287" lon="-2.16789">
        <ele>62.799999237061</ele>
        <time>2022-04-24T06:56:13.000Z</time>
      </trkpt>
      <trkpt lat="47.40283" lon="-2.16789">
        <ele>62.799999237061</ele>
        <time>2022-04-24T06:56:14.000Z</time>
      </trkpt>
      <trkpt lat="47.40279" lon="-2.1679">
        <ele>62.400001525879</ele>
        <time>2022-04-24T06:56:15.000Z</time>
      </trkpt>
      <trkpt lat="47.40275" lon="-2.16793">
        <ele>62</ele>
        <time>2022-04-24T06:56:16.000Z</time>
      </trkpt>
      <trkpt lat="47.40272" lon="-2.16793">
        <ele>61.599998474121</ele>
        <time>2022-04-24T06:56:17.000Z</time>
      </trkpt>
      <trkpt lat="47.40268" lon="-2.16794">
        <ele>61.200000762939</ele>
        <time>2022-04-24T06:56:18.000Z</time>
      </trkpt>
      <trkpt lat="47.40265" lon="-2.16794">
        <ele>60.799999237061</ele>
        <time>2022-04-24T06:56:19.000Z</time>
      </trkpt>
      <trkpt lat="47.40262" lon="-2.16797">
        <ele>60.799999237061</ele>
        <time>2022-04-24T06:56:20.000Z</time>
      </trkpt>
      <trkpt lat="47.4026" lon="-2.16802">
        <ele>60.799999237061</ele>
        <time>2022-04-24T06:56:22.000Z</time>
      </trkpt>
      <trkpt lat="47.40253" lon="-2.16811">
        <ele>60.799999237061</ele>
        <time>2022-04-24T06:56:26.000Z</time>
      </trkpt>
      <trkpt lat="47.40246" lon="-2.16802">
        <ele>60.799999237061</ele>
        <time>2022-04-24T06:56:29.000Z</time>
      </trkpt>
      <trkpt lat="47.40247" lon="-2.16793">
        <ele>60.799999237061</ele>
        <time>2022-04-24T06:56:31.000Z</time>
      </trkpt>
      <trkpt lat="47.4025" lon="-2.16786">
        <ele>60.799999237061</ele>
        <time>2022-04-24T06:56:33.000Z</time>
      </trkpt>
      <trkpt lat="47.40263" lon="-2.16779">
        <ele>60.799999237061</ele>
        <time>2022-04-24T06:56:37.000Z</time>
      </trkpt>
      <trkpt lat="47.40266" lon="-2.16778">
        <ele>60.799999237061</ele>
        <time>2022-04-24T06:56:38.000Z</time>
      </trkpt>
      <trkpt lat="47.4027" lon="-2.16772">
        <ele>60.799999237061</ele>
        <time>2022-04-24T06:56:40.000Z</time>
      </trkpt>
      <trkpt lat="47.40267" lon="-2.1677">
        <ele>60.799999237061</ele>
        <time>2022-04-24T06:56:42.000Z</time>
      </trkpt>
      <trkpt lat="47.40266" lon="-2.16766">
        <ele>60.799999237061</ele>
        <time>2022-04-24T06:56:44.000Z</time>
      </trkpt>
      <trkpt lat="47.4026" lon="-2.16754">
        <ele>60.799999237061</ele>
        <time>2022-04-24T06:56:48.000Z</time>
      </trkpt>
      <trkpt lat="47.4026" lon="-2.16746">
        <ele>60.799999237061</ele>
        <time>2022-04-24T06:56:50.000Z</time>
      </trkpt>
      <trkpt lat="47.40264" lon="-2.16732">
        <ele>60.799999237061</ele>
        <time>2022-04-24T06:56:53.000Z</time>
      </trkpt>
      <trkpt lat="47.40262" lon="-2.16724">
        <ele>60.799999237061</ele>
        <time>2022-04-24T06:56:55.000Z</time>
      </trkpt>
      <trkpt lat="47.40258" lon="-2.16722">
        <ele>60.799999237061</ele>
        <time>2022-04-24T06:56:56.000Z</time>
      </trkpt>
      <trkpt lat="47.40236" lon="-2.16716">
        <ele>60.799999237061</ele>
        <time>2022-04-24T06:57:03.000Z</time>
      </trkpt>
      <trkpt lat="47.40235" lon="-2.16713">
        <ele>60.799999237061</ele>
        <time>2022-04-24T06:57:04.000Z</time>
      </trkpt>
      <trkpt lat="47.40233" lon="-2.16704">
        <ele>60.799999237061</ele>
        <time>2022-04-24T06:57:07.000Z</time>
      </trkpt>
      <trkpt lat="47.40229" lon="-2.16702">
        <ele>60.799999237061</ele>
        <time>2022-04-24T06:57:09.000Z</time>
      </trkpt>
      <trkpt lat="47.40224" lon="-2.16698">
        <ele>60.799999237061</ele>
        <time>2022-04-24T06:57:12.000Z</time>
      </trkpt>
      <trkpt lat="47.40223" lon="-2.16696">
        <ele>60.799999237061</ele>
        <time>2022-04-24T06:57:13.000Z</time>
      </trkpt>
      <trkpt lat="47.40223" lon="-2.16666">
        <ele>60.799999237061</ele>
        <time>2022-04-24T06:57:19.000Z</time>
      </trkpt>
      <trkpt lat="47.40224" lon="-2.16652">
        <ele>60.799999237061</ele>
        <time>2022-04-24T06:57:23.000Z</time>
      </trkpt>
      <trkpt lat="47.40223" lon="-2.1665">
        <ele>60.400001525879</ele>
        <time>2022-04-24T06:57:24.000Z</time>
      </trkpt>
      <trkpt lat="47.4022" lon="-2.16649">
        <ele>60</ele>
        <time>2022-04-24T06:57:25.000Z</time>
      </trkpt>
      <trkpt lat="47.40216" lon="-2.16649">
        <ele>59.200000762939</ele>
        <time>2022-04-24T06:57:26.000Z</time>
      </trkpt>
      <trkpt lat="47.40213" lon="-2.16649">
        <ele>58.599998474121</ele>
        <time>2022-04-24T06:57:27.000Z</time>
      </trkpt>
      <trkpt lat="47.40208" lon="-2.16653">
        <ele>58.599998474121</ele>
        <time>2022-04-24T06:57:29.000Z</time>
      </trkpt>
      <trkpt lat="47.402" lon="-2.16671">
        <ele>58.599998474121</ele>
        <time>2022-04-24T06:57:34.000Z</time>
      </trkpt>
      <trkpt lat="47.40196" lon="-2.16676">
        <ele>58.599998474121</ele>
        <time>2022-04-24T06:57:36.000Z</time>
      </trkpt>
      <trkpt lat="47.40193" lon="-2.16677">
        <ele>58.599998474121</ele>
        <time>2022-04-24T06:57:37.000Z</time>
      </trkpt>
      <trkpt lat="47.40168" lon="-2.1667">
        <ele>58.599998474121</ele>
        <time>2022-04-24T06:57:43.000Z</time>
      </trkpt>
      <trkpt lat="47.4014" lon="-2.16665">
        <ele>58.599998474121</ele>
        <time>2022-04-24T06:57:49.000Z</time>
      </trkpt>
      <trkpt lat="47.40129" lon="-2.16663">
        <ele>58.599998474121</ele>
        <time>2022-04-24T06:57:53.000Z</time>
      </trkpt>
      <trkpt lat="47.40118" lon="-2.16662">
        <ele>58.599998474121</ele>
        <time>2022-04-24T06:57:59.000Z</time>
      </trkpt>
      <trkpt lat="47.40114" lon="-2.16662">
        <ele>58.599998474121</ele>
        <time>2022-04-24T06:58:00.000Z</time>
      </trkpt>
      <trkpt lat="47.40105" lon="-2.16662">
        <ele>58.599998474121</ele>
        <time>2022-04-24T06:58:02.000Z</time>
      </trkpt>
      <trkpt lat="47.401" lon="-2.16662">
        <ele>58.599998474121</ele>
        <time>2022-04-24T06:58:03.000Z</time>
      </trkpt>
      <trkpt lat="47.40079" lon="-2.16659">
        <ele>58.599998474121</ele>
        <time>2022-04-24T06:58:08.000Z</time>
      </trkpt>
      <trkpt lat="47.40063" lon="-2.16651">
        <ele>58.599998474121</ele>
        <time>2022-04-24T06:58:12.000Z</time>
      </trkpt>
      <trkpt lat="47.4006" lon="-2.16647">
        <ele>58.599998474121</ele>
        <time>2022-04-24T06:58:13.000Z</time>
      </trkpt>
      <trkpt lat="47.40057" lon="-2.16631">
        <ele>58.599998474121</ele>
        <time>2022-04-24T06:58:16.000Z</time>
      </trkpt>
      <trkpt lat="47.40057" lon="-2.16624">
        <ele>58.599998474121</ele>
        <time>2022-04-24T06:58:17.000Z</time>
      </trkpt>
      <trkpt lat="47.4006" lon="-2.16596">
        <ele>58.599998474121</ele>
        <time>2022-04-24T06:58:21.000Z</time>
      </trkpt>
      <trkpt lat="47.40061" lon="-2.16589">
        <ele>58.599998474121</ele>
        <time>2022-04-24T06:58:22.000Z</time>
      </trkpt>
      <trkpt lat="47.40061" lon="-2.16563">
        <ele>58.599998474121</ele>
        <time>2022-04-24T06:58:27.000Z</time>
      </trkpt>
      <trkpt lat="47.40057" lon="-2.16537">
        <ele>58.599998474121</ele>
        <time>2022-04-24T06:58:32.000Z</time>
      </trkpt>
      <trkpt lat="47.40046" lon="-2.165">
        <ele>58.599998474121</ele>
        <time>2022-04-24T06:58:38.000Z</time>
      </trkpt>
      <trkpt lat="47.40033" lon="-2.16453">
        <ele>58.599998474121</ele>
        <time>2022-04-24T06:58:45.000Z</time>
      </trkpt>
      <trkpt lat="47.40022" lon="-2.16414">
        <ele>58.599998474121</ele>
        <time>2022-04-24T06:58:51.000Z</time>
      </trkpt>
      <trkpt lat="47.40015" lon="-2.16391">
        <ele>58.599998474121</ele>
        <time>2022-04-24T06:58:54.000Z</time>
      </trkpt>
      <trkpt lat="47.40008" lon="-2.1638">
        <ele>58.599998474121</ele>
        <time>2022-04-24T06:58:56.000Z</time>
      </trkpt>
      <trkpt lat="47.39996" lon="-2.16377">
        <ele>58.599998474121</ele>
        <time>2022-04-24T06:58:59.000Z</time>
      </trkpt>
      <trkpt lat="47.39987" lon="-2.16381">
        <ele>58.599998474121</ele>
        <time>2022-04-24T06:59:01.000Z</time>
      </trkpt>
      <trkpt lat="47.3998" lon="-2.16385">
        <ele>59</ele>
        <time>2022-04-24T06:59:03.000Z</time>
      </trkpt>
      <trkpt lat="47.39977" lon="-2.16386">
        <ele>59.599998474121</ele>
        <time>2022-04-24T06:59:04.000Z</time>
      </trkpt>
      <trkpt lat="47.39973" lon="-2.16388">
        <ele>60</ele>
        <time>2022-04-24T06:59:05.000Z</time>
      </trkpt>
      <trkpt lat="47.3997" lon="-2.16389">
        <ele>60.799999237061</ele>
        <time>2022-04-24T06:59:06.000Z</time>
      </trkpt>
      <trkpt lat="47.3996" lon="-2.16391">
        <ele>60.799999237061</ele>
        <time>2022-04-24T06:59:09.000Z</time>
      </trkpt>
      <trkpt lat="47.39957" lon="-2.16388">
        <ele>61.200000762939</ele>
        <time>2022-04-24T06:59:10.000Z</time>
      </trkpt>
      <trkpt lat="47.39955" lon="-2.16384">
        <ele>61.599998474121</ele>
        <time>2022-04-24T06:59:11.000Z</time>
      </trkpt>
      <trkpt lat="47.39953" lon="-2.16379">
        <ele>62</ele>
        <time>2022-04-24T06:59:12.000Z</time>
      </trkpt>
      <trkpt lat="47.39951" lon="-2.16374">
        <ele>62.599998474121</ele>
        <time>2022-04-24T06:59:13.000Z</time>
      </trkpt>
      <trkpt lat="47.39949" lon="-2.16369">
        <ele>63</ele>
        <time>2022-04-24T06:59:14.000Z</time>
      </trkpt>
      <trkpt lat="47.39944" lon="-2.16359">
        <ele>63</ele>
        <time>2022-04-24T06:59:16.000Z</time>
      </trkpt>
      <trkpt lat="47.39938" lon="-2.1633">
        <ele>63</ele>
        <time>2022-04-24T06:59:20.000Z</time>
      </trkpt>
      <trkpt lat="47.39931" lon="-2.16263">
        <ele>63</ele>
        <time>2022-04-24T06:59:28.000Z</time>
      </trkpt>
      <trkpt lat="47.39924" lon="-2.16221">
        <ele>63</ele>
        <time>2022-04-24T06:59:34.000Z</time>
      </trkpt>
      <trkpt lat="47.39921" lon="-2.16217">
        <ele>63</ele>
        <time>2022-04-24T06:59:35.000Z</time>
      </trkpt>
      <trkpt lat="47.39908" lon="-2.16217">
        <ele>63</ele>
        <time>2022-04-24T06:59:38.000Z</time>
      </trkpt>
      <trkpt lat="47.39904" lon="-2.1622">
        <ele>63</ele>
        <time>2022-04-24T06:59:39.000Z</time>
      </trkpt>
      <trkpt lat="47.39895" lon="-2.16226">
        <ele>63</ele>
        <time>2022-04-24T06:59:41.000Z</time>
      </trkpt>
      <trkpt lat="47.39883" lon="-2.16235">
        <ele>63</ele>
        <time>2022-04-24T06:59:44.000Z</time>
      </trkpt>
      <trkpt lat="47.39878" lon="-2.16237">
        <ele>63</ele>
        <time>2022-04-24T06:59:45.000Z</time>
      </trkpt>
      <trkpt lat="47.39865" lon="-2.16244">
        <ele>63</ele>
        <time>2022-04-24T06:59:48.000Z</time>
      </trkpt>
      <trkpt lat="47.39861" lon="-2.16245">
        <ele>63</ele>
        <time>2022-04-24T06:59:49.000Z</time>
      </trkpt>
      <trkpt lat="47.39827" lon="-2.16253">
        <ele>63</ele>
        <time>2022-04-24T06:59:56.000Z</time>
      </trkpt>
      <trkpt lat="47.39788" lon="-2.16262">
        <ele>63</ele>
        <time>2022-04-24T07:00:04.000Z</time>
      </trkpt>
      <trkpt lat="47.39758" lon="-2.16271">
        <ele>63</ele>
        <time>2022-04-24T07:00:10.000Z</time>
      </trkpt>
      <trkpt lat="47.39739" lon="-2.16284">
        <ele>62.599998474121</ele>
        <time>2022-04-24T07:00:14.000Z</time>
      </trkpt>
      <trkpt lat="47.39735" lon="-2.16288">
        <ele>62.200000762939</ele>
        <time>2022-04-24T07:00:15.000Z</time>
      </trkpt>
      <trkpt lat="47.39732" lon="-2.16293">
        <ele>61.799999237061</ele>
        <time>2022-04-24T07:00:16.000Z</time>
      </trkpt>
      <trkpt lat="47.39729" lon="-2.16297">
        <ele>61.400001525879</ele>
        <time>2022-04-24T07:00:17.000Z</time>
      </trkpt>
      <trkpt lat="47.39725" lon="-2.163">
        <ele>61</ele>
        <time>2022-04-24T07:00:18.000Z</time>
      </trkpt>
      <trkpt lat="47.39722" lon="-2.16299">
        <ele>61</ele>
        <time>2022-04-24T07:00:19.000Z</time>
      </trkpt>
      <trkpt lat="47.39718" lon="-2.16285">
        <ele>61</ele>
        <time>2022-04-24T07:00:22.000Z</time>
      </trkpt>
      <trkpt lat="47.39718" lon="-2.16279">
        <ele>61</ele>
        <time>2022-04-24T07:00:23.000Z</time>
      </trkpt>
      <trkpt lat="47.39716" lon="-2.16241">
        <ele>61</ele>
        <time>2022-04-24T07:00:29.000Z</time>
      </trkpt>
      <trkpt lat="47.39712" lon="-2.16185">
        <ele>61</ele>
        <time>2022-04-24T07:00:36.000Z</time>
      </trkpt>
      <trkpt lat="47.39707" lon="-2.16119">
        <ele>61</ele>
        <time>2022-04-24T07:00:44.000Z</time>
      </trkpt>
      <trkpt lat="47.39703" lon="-2.16063">
        <ele>61</ele>
        <time>2022-04-24T07:00:51.000Z</time>
      </trkpt>
      <trkpt lat="47.39698" lon="-2.15998">
        <ele>61</ele>
        <time>2022-04-24T07:00:59.000Z</time>
      </trkpt>
      <trkpt lat="47.39692" lon="-2.15933">
        <ele>61</ele>
        <time>2022-04-24T07:01:07.000Z</time>
      </trkpt>
      <trkpt lat="47.39684" lon="-2.1585">
        <ele>61</ele>
        <time>2022-04-24T07:01:17.000Z</time>
      </trkpt>
      <trkpt lat="47.39678" lon="-2.15793">
        <ele>61</ele>
        <time>2022-04-24T07:01:24.000Z</time>
      </trkpt>
      <trkpt lat="47.39675" lon="-2.15772">
        <ele>61</ele>
        <time>2022-04-24T07:01:27.000Z</time>
      </trkpt>
      <trkpt lat="47.39672" lon="-2.15767">
        <ele>61</ele>
        <time>2022-04-24T07:01:28.000Z</time>
      </trkpt>
      <trkpt lat="47.39661" lon="-2.15769">
        <ele>61</ele>
        <time>2022-04-24T07:01:31.000Z</time>
      </trkpt>
      <trkpt lat="47.39658" lon="-2.15772">
        <ele>60.599998474121</ele>
        <time>2022-04-24T07:01:32.000Z</time>
      </trkpt>
      <trkpt lat="47.39655" lon="-2.15776">
        <ele>60.200000762939</ele>
        <time>2022-04-24T07:01:33.000Z</time>
      </trkpt>
      <trkpt lat="47.39652" lon="-2.15779">
        <ele>59.400001525879</ele>
        <time>2022-04-24T07:01:34.000Z</time>
      </trkpt>
      <trkpt lat="47.39649" lon="-2.1578">
        <ele>59</ele>
        <time>2022-04-24T07:01:35.000Z</time>
      </trkpt>
      <trkpt lat="47.39647" lon="-2.1578">
        <ele>59</ele>
        <time>2022-04-24T07:01:36.000Z</time>
      </trkpt>
      <trkpt lat="47.39643" lon="-2.1577">
        <ele>59</ele>
        <time>2022-04-24T07:01:39.000Z</time>
      </trkpt>
      <trkpt lat="47.39644" lon="-2.15761">
        <ele>59</ele>
        <time>2022-04-24T07:01:41.000Z</time>
      </trkpt>
      <trkpt lat="47.39645" lon="-2.15744">
        <ele>59</ele>
        <time>2022-04-24T07:01:44.000Z</time>
      </trkpt>
      <trkpt lat="47.39647" lon="-2.15726">
        <ele>59</ele>
        <time>2022-04-24T07:01:47.000Z</time>
      </trkpt>
      <trkpt lat="47.39651" lon="-2.15713">
        <ele>59</ele>
        <time>2022-04-24T07:01:49.000Z</time>
      </trkpt>
      <trkpt lat="47.39654" lon="-2.157">
        <ele>59</ele>
        <time>2022-04-24T07:01:51.000Z</time>
      </trkpt>
      <trkpt lat="47.39656" lon="-2.1568">
        <ele>59</ele>
        <time>2022-04-24T07:01:54.000Z</time>
      </trkpt>
      <trkpt lat="47.39655" lon="-2.15638">
        <ele>59</ele>
        <time>2022-04-24T07:02:01.000Z</time>
      </trkpt>
      <trkpt lat="47.39653" lon="-2.15633">
        <ele>59</ele>
        <time>2022-04-24T07:02:02.000Z</time>
      </trkpt>
      <trkpt lat="47.3965" lon="-2.15622">
        <ele>59</ele>
        <time>2022-04-24T07:02:04.000Z</time>
      </trkpt>
      <trkpt lat="47.39646" lon="-2.15612">
        <ele>59</ele>
        <time>2022-04-24T07:02:06.000Z</time>
      </trkpt>
      <trkpt lat="47.3964" lon="-2.15595">
        <ele>59</ele>
        <time>2022-04-24T07:02:09.000Z</time>
      </trkpt>
      <trkpt lat="47.39635" lon="-2.15577">
        <ele>59</ele>
        <time>2022-04-24T07:02:12.000Z</time>
      </trkpt>
      <trkpt lat="47.3963" lon="-2.1556">
        <ele>59</ele>
        <time>2022-04-24T07:02:15.000Z</time>
      </trkpt>
      <trkpt lat="47.39618" lon="-2.15522">
        <ele>59</ele>
        <time>2022-04-24T07:02:21.000Z</time>
      </trkpt>
      <trkpt lat="47.39603" lon="-2.15475">
        <ele>59</ele>
        <time>2022-04-24T07:02:28.000Z</time>
      </trkpt>
      <trkpt lat="47.39586" lon="-2.15421">
        <ele>59</ele>
        <time>2022-04-24T07:02:36.000Z</time>
      </trkpt>
      <trkpt lat="47.3957" lon="-2.15371">
        <ele>59</ele>
        <time>2022-04-24T07:02:43.000Z</time>
      </trkpt>
      <trkpt lat="47.39552" lon="-2.15318">
        <ele>59</ele>
        <time>2022-04-24T07:02:50.000Z</time>
      </trkpt>
      <trkpt lat="47.39541" lon="-2.15285">
        <ele>59</ele>
        <time>2022-04-24T07:02:55.000Z</time>
      </trkpt>
      <trkpt lat="47.39538" lon="-2.1528">
        <ele>59</ele>
        <time>2022-04-24T07:02:56.000Z</time>
      </trkpt>
      <trkpt lat="47.39525" lon="-2.15275">
        <ele>59</ele>
        <time>2022-04-24T07:02:59.000Z</time>
      </trkpt>
      <trkpt lat="47.39512" lon="-2.15287">
        <ele>59</ele>
        <time>2022-04-24T07:03:02.000Z</time>
      </trkpt>
      <trkpt lat="47.39498" lon="-2.15298">
        <ele>59</ele>
        <time>2022-04-24T07:03:05.000Z</time>
      </trkpt>
      <trkpt lat="47.39482" lon="-2.15307">
        <ele>59</ele>
        <time>2022-04-24T07:03:08.000Z</time>
      </trkpt>
      <trkpt lat="47.3946" lon="-2.15316">
        <ele>59.400001525879</ele>
        <time>2022-04-24T07:03:12.000Z</time>
      </trkpt>
      <trkpt lat="47.39454" lon="-2.15319">
        <ele>60.200000762939</ele>
        <time>2022-04-24T07:03:13.000Z</time>
      </trkpt>
      <trkpt lat="47.39449" lon="-2.15321">
        <ele>60.599998474121</ele>
        <time>2022-04-24T07:03:14.000Z</time>
      </trkpt>
      <trkpt lat="47.39443" lon="-2.15322">
        <ele>61.200000762939</ele>
        <time>2022-04-24T07:03:15.000Z</time>
      </trkpt>
      <trkpt lat="47.39426" lon="-2.15327">
        <ele>61.200000762939</ele>
        <time>2022-04-24T07:03:19.000Z</time>
      </trkpt>
      <trkpt lat="47.39424" lon="-2.15328">
        <ele>61.200000762939</ele>
        <time>2022-04-24T07:03:20.000Z</time>
      </trkpt>
      <trkpt lat="47.39421" lon="-2.1533">
        <ele>61.200000762939</ele>
        <time>2022-04-24T07:03:23.000Z</time>
      </trkpt>
      <trkpt lat="47.39421" lon="-2.15324">
        <ele>61.200000762939</ele>
        <time>2022-04-24T07:03:27.000Z</time>
      </trkpt>
      <trkpt lat="47.39433" lon="-2.15323">
        <ele>61.200000762939</ele>
        <time>2022-04-24T07:03:31.000Z</time>
      </trkpt>
      <trkpt lat="47.39456" lon="-2.15318">
        <ele>61.200000762939</ele>
        <time>2022-04-24T07:03:36.000Z</time>
      </trkpt>
      <trkpt lat="47.39487" lon="-2.153">
        <ele>61.200000762939</ele>
        <time>2022-04-24T07:03:42.000Z</time>
      </trkpt>
      <trkpt lat="47.39517" lon="-2.15277">
        <ele>61.200000762939</ele>
        <time>2022-04-24T07:03:48.000Z</time>
      </trkpt>
      <trkpt lat="47.39526" lon="-2.15266">
        <ele>61.200000762939</ele>
        <time>2022-04-24T07:03:50.000Z</time>
      </trkpt>
      <trkpt lat="47.39532" lon="-2.15253">
        <ele>61.200000762939</ele>
        <time>2022-04-24T07:03:52.000Z</time>
      </trkpt>
      <trkpt lat="47.39534" lon="-2.15225">
        <ele>61.200000762939</ele>
        <time>2022-04-24T07:03:56.000Z</time>
      </trkpt>
      <trkpt lat="47.39531" lon="-2.15212">
        <ele>61.200000762939</ele>
        <time>2022-04-24T07:03:58.000Z</time>
      </trkpt>
      <trkpt lat="47.39528" lon="-2.15198">
        <ele>61.200000762939</ele>
        <time>2022-04-24T07:04:00.000Z</time>
      </trkpt>
      <trkpt lat="47.39527" lon="-2.1519">
        <ele>61.200000762939</ele>
        <time>2022-04-24T07:04:01.000Z</time>
      </trkpt>
      <trkpt lat="47.39523" lon="-2.15139">
        <ele>61.200000762939</ele>
        <time>2022-04-24T07:04:07.000Z</time>
      </trkpt>
      <trkpt lat="47.39521" lon="-2.15087">
        <ele>61.200000762939</ele>
        <time>2022-04-24T07:04:13.000Z</time>
      </trkpt>
      <trkpt lat="47.39519" lon="-2.15078">
        <ele>61.200000762939</ele>
        <time>2022-04-24T07:04:14.000Z</time>
      </trkpt>
      <trkpt lat="47.39516" lon="-2.15015">
        <ele>61.200000762939</ele>
        <time>2022-04-24T07:04:21.000Z</time>
      </trkpt>
      <trkpt lat="47.39515" lon="-2.15006">
        <ele>61.200000762939</ele>
        <time>2022-04-24T07:04:22.000Z</time>
      </trkpt>
      <trkpt lat="47.39508" lon="-2.14973">
        <ele>61.200000762939</ele>
        <time>2022-04-24T07:04:26.000Z</time>
      </trkpt>
      <trkpt lat="47.39503" lon="-2.14957">
        <ele>61.200000762939</ele>
        <time>2022-04-24T07:04:28.000Z</time>
      </trkpt>
      <trkpt lat="47.39495" lon="-2.14943">
        <ele>61.200000762939</ele>
        <time>2022-04-24T07:04:30.000Z</time>
      </trkpt>
      <trkpt lat="47.39463" lon="-2.14895">
        <ele>61.200000762939</ele>
        <time>2022-04-24T07:04:37.000Z</time>
      </trkpt>
      <trkpt lat="47.39426" lon="-2.14844">
        <ele>61.200000762939</ele>
        <time>2022-04-24T07:04:45.000Z</time>
      </trkpt>
      <trkpt lat="47.39392" lon="-2.14803">
        <ele>61.200000762939</ele>
        <time>2022-04-24T07:04:52.000Z</time>
      </trkpt>
      <trkpt lat="47.39342" lon="-2.14762">
        <ele>61.200000762939</ele>
        <time>2022-04-24T07:05:01.000Z</time>
      </trkpt>
      <trkpt lat="47.39331" lon="-2.14754">
        <ele>60.799999237061</ele>
        <time>2022-04-24T07:05:03.000Z</time>
      </trkpt>
      <trkpt lat="47.39325" lon="-2.1475">
        <ele>60.400001525879</ele>
        <time>2022-04-24T07:05:04.000Z</time>
      </trkpt>
      <trkpt lat="47.3932" lon="-2.14746">
        <ele>60</ele>
        <time>2022-04-24T07:05:05.000Z</time>
      </trkpt>
      <trkpt lat="47.39315" lon="-2.14741">
        <ele>59.400001525879</ele>
        <time>2022-04-24T07:05:06.000Z</time>
      </trkpt>
      <trkpt lat="47.3931" lon="-2.14737">
        <ele>59</ele>
        <time>2022-04-24T07:05:07.000Z</time>
      </trkpt>
      <trkpt lat="47.39304" lon="-2.14733">
        <ele>59</ele>
        <time>2022-04-24T07:05:08.000Z</time>
      </trkpt>
      <trkpt lat="47.39268" lon="-2.14704">
        <ele>59</ele>
        <time>2022-04-24T07:05:15.000Z</time>
      </trkpt>
      <trkpt lat="47.39224" lon="-2.14663">
        <ele>59</ele>
        <time>2022-04-24T07:05:24.000Z</time>
      </trkpt>
      <trkpt lat="47.39186" lon="-2.1463">
        <ele>59</ele>
        <time>2022-04-24T07:05:32.000Z</time>
      </trkpt>
      <trkpt lat="47.39141" lon="-2.14591">
        <ele>59</ele>
        <time>2022-04-24T07:05:41.000Z</time>
      </trkpt>
      <trkpt lat="47.39128" lon="-2.14576">
        <ele>59</ele>
        <time>2022-04-24T07:05:44.000Z</time>
      </trkpt>
      <trkpt lat="47.39117" lon="-2.14557">
        <ele>59</ele>
        <time>2022-04-24T07:05:47.000Z</time>
      </trkpt>
      <trkpt lat="47.3911" lon="-2.14545">
        <ele>59.599998474121</ele>
        <time>2022-04-24T07:05:49.000Z</time>
      </trkpt>
      <trkpt lat="47.39106" lon="-2.1454">
        <ele>60</ele>
        <time>2022-04-24T07:05:50.000Z</time>
      </trkpt>
      <trkpt lat="47.39103" lon="-2.14534">
        <ele>60.400001525879</ele>
        <time>2022-04-24T07:05:51.000Z</time>
      </trkpt>
      <trkpt lat="47.39099" lon="-2.14528">
        <ele>60.799999237061</ele>
        <time>2022-04-24T07:05:52.000Z</time>
      </trkpt>
      <trkpt lat="47.39096" lon="-2.14523">
        <ele>61.200000762939</ele>
        <time>2022-04-24T07:05:53.000Z</time>
      </trkpt>
      <trkpt lat="47.39071" lon="-2.14483">
        <ele>61.200000762939</ele>
        <time>2022-04-24T07:06:00.000Z</time>
      </trkpt>
      <trkpt lat="47.39065" lon="-2.14472">
        <ele>61.599998474121</ele>
        <time>2022-04-24T07:06:02.000Z</time>
      </trkpt>
      <trkpt lat="47.39061" lon="-2.14466">
        <ele>62</ele>
        <time>2022-04-24T07:06:03.000Z</time>
      </trkpt>
      <trkpt lat="47.39058" lon="-2.14461">
        <ele>62.400001525879</ele>
        <time>2022-04-24T07:06:04.000Z</time>
      </trkpt>
      <trkpt lat="47.39055" lon="-2.14455">
        <ele>63</ele>
        <time>2022-04-24T07:06:05.000Z</time>
      </trkpt>
      <trkpt lat="47.39051" lon="-2.1445">
        <ele>63.400001525879</ele>
        <time>2022-04-24T07:06:06.000Z</time>
      </trkpt>
      <trkpt lat="47.39048" lon="-2.14444">
        <ele>63.400001525879</ele>
        <time>2022-04-24T07:06:07.000Z</time>
      </trkpt>
      <trkpt lat="47.39029" lon="-2.14413">
        <ele>63.400001525879</ele>
        <time>2022-04-24T07:06:13.000Z</time>
      </trkpt>
      <trkpt lat="47.39009" lon="-2.14372">
        <ele>63.799999237061</ele>
        <time>2022-04-24T07:06:20.000Z</time>
      </trkpt>
      <trkpt lat="47.39006" lon="-2.14367">
        <ele>64.199996948242</ele>
        <time>2022-04-24T07:06:21.000Z</time>
      </trkpt>
      <trkpt lat="47.39003" lon="-2.14361">
        <ele>64.599998474121</ele>
        <time>2022-04-24T07:06:22.000Z</time>
      </trkpt>
      <trkpt lat="47.39" lon="-2.14356">
        <ele>65</ele>
        <time>2022-04-24T07:06:23.000Z</time>
      </trkpt>
      <trkpt lat="47.38998" lon="-2.1435">
        <ele>65.400001525879</ele>
        <time>2022-04-24T07:06:24.000Z</time>
      </trkpt>
      <trkpt lat="47.38991" lon="-2.14332">
        <ele>65.400001525879</ele>
        <time>2022-04-24T07:06:27.000Z</time>
      </trkpt>
      <trkpt lat="47.38988" lon="-2.14327">
        <ele>65.400001525879</ele>
        <time>2022-04-24T07:06:28.000Z</time>
      </trkpt>
      <trkpt lat="47.38977" lon="-2.14308">
        <ele>65.400001525879</ele>
        <time>2022-04-24T07:06:32.000Z</time>
      </trkpt>
      <trkpt lat="47.3897" lon="-2.14296">
        <ele>65.400001525879</ele>
        <time>2022-04-24T07:06:37.000Z</time>
      </trkpt>
      <trkpt lat="47.38967" lon="-2.14297">
        <ele>65.400001525879</ele>
        <time>2022-04-24T07:08:21.000Z</time>
      </trkpt>
      <trkpt lat="47.38965" lon="-2.143">
        <ele>65.400001525879</ele>
        <time>2022-04-24T07:08:23.000Z</time>
      </trkpt>
      <trkpt lat="47.38953" lon="-2.14314">
        <ele>65.400001525879</ele>
        <time>2022-04-24T07:08:28.000Z</time>
      </trkpt>
      <trkpt lat="47.38933" lon="-2.14339">
        <ele>65.400001525879</ele>
        <time>2022-04-24T07:08:33.000Z</time>
      </trkpt>
      <trkpt lat="47.38923" lon="-2.1435">
        <ele>64.400001525879</ele>
        <time>2022-04-24T07:08:35.000Z</time>
      </trkpt>
      <trkpt lat="47.38918" lon="-2.14354">
        <ele>63.799999237061</ele>
        <time>2022-04-24T07:08:36.000Z</time>
      </trkpt>
      <trkpt lat="47.38912" lon="-2.14358">
        <ele>63.400001525879</ele>
        <time>2022-04-24T07:08:37.000Z</time>
      </trkpt>
      <trkpt lat="47.38906" lon="-2.14361">
        <ele>63</ele>
        <time>2022-04-24T07:08:38.000Z</time>
      </trkpt>
      <trkpt lat="47.38894" lon="-2.14363">
        <ele>62.400001525879</ele>
        <time>2022-04-24T07:08:40.000Z</time>
      </trkpt>
      <trkpt lat="47.38887" lon="-2.14364">
        <ele>62</ele>
        <time>2022-04-24T07:08:41.000Z</time>
      </trkpt>
      <trkpt lat="47.38882" lon="-2.14366">
        <ele>61.599998474121</ele>
        <time>2022-04-24T07:08:42.000Z</time>
      </trkpt>
      <trkpt lat="47.38876" lon="-2.14368">
        <ele>61.200000762939</ele>
        <time>2022-04-24T07:08:43.000Z</time>
      </trkpt>
      <trkpt lat="47.3887" lon="-2.1437">
        <ele>60.799999237061</ele>
        <time>2022-04-24T07:08:44.000Z</time>
      </trkpt>
      <trkpt lat="47.38838" lon="-2.14387">
        <ele>60.799999237061</ele>
        <time>2022-04-24T07:08:50.000Z</time>
      </trkpt>
      <trkpt lat="47.38832" lon="-2.14388">
        <ele>60.799999237061</ele>
        <time>2022-04-24T07:08:51.000Z</time>
      </trkpt>
      <trkpt lat="47.3881" lon="-2.14394">
        <ele>60.799999237061</ele>
        <time>2022-04-24T07:08:55.000Z</time>
      </trkpt>
      <trkpt lat="47.38768" lon="-2.14403">
        <ele>60.799999237061</ele>
        <time>2022-04-24T07:09:02.000Z</time>
      </trkpt>
      <trkpt lat="47.38732" lon="-2.14418">
        <ele>60.799999237061</ele>
        <time>2022-04-24T07:09:08.000Z</time>
      </trkpt>
      <trkpt lat="47.38727" lon="-2.14422">
        <ele>60.799999237061</ele>
        <time>2022-04-24T07:09:09.000Z</time>
      </trkpt>
      <trkpt lat="47.38712" lon="-2.14438">
        <ele>60.799999237061</ele>
        <time>2022-04-24T07:09:12.000Z</time>
      </trkpt>
      <trkpt lat="47.38709" lon="-2.14444">
        <ele>60.799999237061</ele>
        <time>2022-04-24T07:09:13.000Z</time>
      </trkpt>
      <trkpt lat="47.38694" lon="-2.1447">
        <ele>60.799999237061</ele>
        <time>2022-04-24T07:09:17.000Z</time>
      </trkpt>
      <trkpt lat="47.38692" lon="-2.14477">
        <ele>60.799999237061</ele>
        <time>2022-04-24T07:09:18.000Z</time>
      </trkpt>
      <trkpt lat="47.38679" lon="-2.1452">
        <ele>60.799999237061</ele>
        <time>2022-04-24T07:09:24.000Z</time>
      </trkpt>
      <trkpt lat="47.38677" lon="-2.14526">
        <ele>60.799999237061</ele>
        <time>2022-04-24T07:09:25.000Z</time>
      </trkpt>
      <trkpt lat="47.38668" lon="-2.14536">
        <ele>60.799999237061</ele>
        <time>2022-04-24T07:09:28.000Z</time>
      </trkpt>
      <trkpt lat="47.38662" lon="-2.14531">
        <ele>60.799999237061</ele>
        <time>2022-04-24T07:09:31.000Z</time>
      </trkpt>
      <trkpt lat="47.38659" lon="-2.14525">
        <ele>60.799999237061</ele>
        <time>2022-04-24T07:09:33.000Z</time>
      </trkpt>
      <trkpt lat="47.38653" lon="-2.14512">
        <ele>60.799999237061</ele>
        <time>2022-04-24T07:09:36.000Z</time>
      </trkpt>
      <trkpt lat="47.38645" lon="-2.14497">
        <ele>60.799999237061</ele>
        <time>2022-04-24T07:09:39.000Z</time>
      </trkpt>
      <trkpt lat="47.38641" lon="-2.14495">
        <ele>61.200000762939</ele>
        <time>2022-04-24T07:09:40.000Z</time>
      </trkpt>
      <trkpt lat="47.38637" lon="-2.14495">
        <ele>61.599998474121</ele>
        <time>2022-04-24T07:09:41.000Z</time>
      </trkpt>
      <trkpt lat="47.38632" lon="-2.14496">
        <ele>62</ele>
        <time>2022-04-24T07:09:42.000Z</time>
      </trkpt>
      <trkpt lat="47.38628" lon="-2.14498">
        <ele>62.400001525879</ele>
        <time>2022-04-24T07:09:43.000Z</time>
      </trkpt>
      <trkpt lat="47.38624" lon="-2.14499">
        <ele>62.799999237061</ele>
        <time>2022-04-24T07:09:44.000Z</time>
      </trkpt>
      <trkpt lat="47.38619" lon="-2.14502">
        <ele>62.799999237061</ele>
        <time>2022-04-24T07:09:45.000Z</time>
      </trkpt>
      <trkpt lat="47.38607" lon="-2.14515">
        <ele>62.799999237061</ele>
        <time>2022-04-24T07:09:48.000Z</time>
      </trkpt>
      <trkpt lat="47.38594" lon="-2.14525">
        <ele>62.799999237061</ele>
        <time>2022-04-24T07:09:51.000Z</time>
      </trkpt>
      <trkpt lat="47.38581" lon="-2.14534">
        <ele>62.799999237061</ele>
        <time>2022-04-24T07:09:54.000Z</time>
      </trkpt>
      <trkpt lat="47.38572" lon="-2.14541">
        <ele>62.799999237061</ele>
        <time>2022-04-24T07:09:56.000Z</time>
      </trkpt>
      <trkpt lat="47.3856" lon="-2.14556">
        <ele>62.799999237061</ele>
        <time>2022-04-24T07:09:59.000Z</time>
      </trkpt>
      <trkpt lat="47.38557" lon="-2.14561">
        <ele>62.400001525879</ele>
        <time>2022-04-24T07:10:00.000Z</time>
      </trkpt>
      <trkpt lat="47.38554" lon="-2.14566">
        <ele>62</ele>
        <time>2022-04-24T07:10:01.000Z</time>
      </trkpt>
      <trkpt lat="47.38553" lon="-2.14569">
        <ele>61.599998474121</ele>
        <time>2022-04-24T07:10:02.000Z</time>
      </trkpt>
      <trkpt lat="47.38551" lon="-2.14572">
        <ele>61</ele>
        <time>2022-04-24T07:10:03.000Z</time>
      </trkpt>
      <trkpt lat="47.3855" lon="-2.14575">
        <ele>60.599998474121</ele>
        <time>2022-04-24T07:10:04.000Z</time>
      </trkpt>
      <trkpt lat="47.38548" lon="-2.14588">
        <ele>60.599998474121</ele>
        <time>2022-04-24T07:10:08.000Z</time>
      </trkpt>
      <trkpt lat="47.38543" lon="-2.14609">
        <ele>60.599998474121</ele>
        <time>2022-04-24T07:10:12.000Z</time>
      </trkpt>
      <trkpt lat="47.3854" lon="-2.14614">
        <ele>60.599998474121</ele>
        <time>2022-04-24T07:10:13.000Z</time>
      </trkpt>
      <trkpt lat="47.38536" lon="-2.14625">
        <ele>60.599998474121</ele>
        <time>2022-04-24T07:10:15.000Z</time>
      </trkpt>
      <trkpt lat="47.38528" lon="-2.14639">
        <ele>60.200000762939</ele>
        <time>2022-04-24T07:10:18.000Z</time>
      </trkpt>
      <trkpt lat="47.38524" lon="-2.14642">
        <ele>59.799999237061</ele>
        <time>2022-04-24T07:10:19.000Z</time>
      </trkpt>
      <trkpt lat="47.3852" lon="-2.14643">
        <ele>59.400001525879</ele>
        <time>2022-04-24T07:10:20.000Z</time>
      </trkpt>
      <trkpt lat="47.38517" lon="-2.14643">
        <ele>59</ele>
        <time>2022-04-24T07:10:21.000Z</time>
      </trkpt>
      <trkpt lat="47.38513" lon="-2.14643">
        <ele>58.599998474121</ele>
        <time>2022-04-24T07:10:22.000Z</time>
      </trkpt>
      <trkpt lat="47.38505" lon="-2.14644">
        <ele>58.599998474121</ele>
        <time>2022-04-24T07:10:24.000Z</time>
      </trkpt>
      <trkpt lat="47.38499" lon="-2.14641">
        <ele>58.599998474121</ele>
        <time>2022-04-24T07:10:26.000Z</time>
      </trkpt>
      <trkpt lat="47.38488" lon="-2.14629">
        <ele>58.599998474121</ele>
        <time>2022-04-24T07:10:30.000Z</time>
      </trkpt>
      <trkpt lat="47.38486" lon="-2.14625">
        <ele>58.599998474121</ele>
        <time>2022-04-24T07:10:31.000Z</time>
      </trkpt>
      <trkpt lat="47.38477" lon="-2.14607">
        <ele>58.599998474121</ele>
        <time>2022-04-24T07:10:36.000Z</time>
      </trkpt>
      <trkpt lat="47.3848" lon="-2.14592">
        <ele>58.599998474121</ele>
        <time>2022-04-24T07:10:40.000Z</time>
      </trkpt>
      <trkpt lat="47.38482" lon="-2.14588">
        <ele>58.599998474121</ele>
        <time>2022-04-24T07:10:41.000Z</time>
      </trkpt>
      <trkpt lat="47.38494" lon="-2.14565">
        <ele>58.599998474121</ele>
        <time>2022-04-24T07:10:48.000Z</time>
      </trkpt>
      <trkpt lat="47.38505" lon="-2.14555">
        <ele>58.599998474121</ele>
        <time>2022-04-24T07:10:53.000Z</time>
      </trkpt>
      <trkpt lat="47.38517" lon="-2.14544">
        <ele>58.599998474121</ele>
        <time>2022-04-24T07:11:00.000Z</time>
      </trkpt>
      <trkpt lat="47.38526" lon="-2.14543">
        <ele>58.599998474121</ele>
        <time>2022-04-24T07:11:06.000Z</time>
      </trkpt>
      <trkpt lat="47.38527" lon="-2.14543">
        <ele>58.599998474121</ele>
        <time>2022-04-24T07:11:07.000Z</time>
      </trkpt>
      <trkpt lat="47.38529" lon="-2.14543">
        <ele>58.599998474121</ele>
        <time>2022-04-24T07:11:39.000Z</time>
      </trkpt>
      <trkpt lat="47.38532" lon="-2.14545">
        <ele>58.599998474121</ele>
        <time>2022-04-24T07:11:41.000Z</time>
      </trkpt>
      <trkpt lat="47.38535" lon="-2.14547">
        <ele>58.599998474121</ele>
        <time>2022-04-24T07:11:43.000Z</time>
      </trkpt>
      <trkpt lat="47.38541" lon="-2.14546">
        <ele>58.599998474121</ele>
        <time>2022-04-24T07:11:48.000Z</time>
      </trkpt>
      <trkpt lat="47.38544" lon="-2.14542">
        <ele>58.599998474121</ele>
        <time>2022-04-24T07:11:52.000Z</time>
      </trkpt>
      <trkpt lat="47.38544" lon="-2.14537">
        <ele>58.599998474121</ele>
        <time>2022-04-24T07:12:02.000Z</time>
      </trkpt>
      <trkpt lat="47.38536" lon="-2.14518">
        <ele>58.599998474121</ele>
        <time>2022-04-24T07:12:08.000Z</time>
      </trkpt>
      <trkpt lat="47.38527" lon="-2.14505">
        <ele>58.599998474121</ele>
        <time>2022-04-24T07:12:13.000Z</time>
      </trkpt>
      <trkpt lat="47.38525" lon="-2.14505">
        <ele>58.599998474121</ele>
        <time>2022-04-24T07:12:14.000Z</time>
      </trkpt>
      <trkpt lat="47.38514" lon="-2.14497">
        <ele>58.599998474121</ele>
        <time>2022-04-24T07:12:19.000Z</time>
      </trkpt>
      <trkpt lat="47.38511" lon="-2.14486">
        <ele>58.599998474121</ele>
        <time>2022-04-24T07:12:21.000Z</time>
      </trkpt>
      <trkpt lat="47.38507" lon="-2.14473">
        <ele>58.599998474121</ele>
        <time>2022-04-24T07:12:23.000Z</time>
      </trkpt>
      <trkpt lat="47.38505" lon="-2.14459">
        <ele>58.599998474121</ele>
        <time>2022-04-24T07:12:25.000Z</time>
      </trkpt>
      <trkpt lat="47.38505" lon="-2.14438">
        <ele>58.599998474121</ele>
        <time>2022-04-24T07:12:28.000Z</time>
      </trkpt>
      <trkpt lat="47.38509" lon="-2.14417">
        <ele>58.599998474121</ele>
        <time>2022-04-24T07:12:31.000Z</time>
      </trkpt>
      <trkpt lat="47.38515" lon="-2.14398">
        <ele>58.599998474121</ele>
        <time>2022-04-24T07:12:34.000Z</time>
      </trkpt>
      <trkpt lat="47.38518" lon="-2.14392">
        <ele>58.599998474121</ele>
        <time>2022-04-24T07:12:35.000Z</time>
      </trkpt>
      <trkpt lat="47.38531" lon="-2.1437">
        <ele>58.599998474121</ele>
        <time>2022-04-24T07:12:39.000Z</time>
      </trkpt>
      <trkpt lat="47.38552" lon="-2.14342">
        <ele>58.599998474121</ele>
        <time>2022-04-24T07:12:45.000Z</time>
      </trkpt>
      <trkpt lat="47.38555" lon="-2.14337">
        <ele>58.599998474121</ele>
        <time>2022-04-24T07:12:46.000Z</time>
      </trkpt>
      <trkpt lat="47.38561" lon="-2.14315">
        <ele>58.599998474121</ele>
        <time>2022-04-24T07:12:49.000Z</time>
      </trkpt>
      <trkpt lat="47.38573" lon="-2.14258">
        <ele>58.599998474121</ele>
        <time>2022-04-24T07:12:57.000Z</time>
      </trkpt>
      <trkpt lat="47.38582" lon="-2.14225">
        <ele>58.599998474121</ele>
        <time>2022-04-24T07:13:02.000Z</time>
      </trkpt>
      <trkpt lat="47.38593" lon="-2.14177">
        <ele>58.599998474121</ele>
        <time>2022-04-24T07:13:09.000Z</time>
      </trkpt>
      <trkpt lat="47.386" lon="-2.14158">
        <ele>59</ele>
        <time>2022-04-24T07:13:12.000Z</time>
      </trkpt>
      <trkpt lat="47.38602" lon="-2.14152">
        <ele>59.400001525879</ele>
        <time>2022-04-24T07:13:13.000Z</time>
      </trkpt>
      <trkpt lat="47.38604" lon="-2.14146">
        <ele>59.799999237061</ele>
        <time>2022-04-24T07:13:14.000Z</time>
      </trkpt>
      <trkpt lat="47.38606" lon="-2.1414">
        <ele>60.200000762939</ele>
        <time>2022-04-24T07:13:15.000Z</time>
      </trkpt>
      <trkpt lat="47.38607" lon="-2.14133">
        <ele>60.599998474121</ele>
        <time>2022-04-24T07:13:16.000Z</time>
      </trkpt>
      <trkpt lat="47.38603" lon="-2.14116">
        <ele>60.599998474121</ele>
        <time>2022-04-24T07:13:19.000Z</time>
      </trkpt>
      <trkpt lat="47.38591" lon="-2.14108">
        <ele>60.599998474121</ele>
        <time>2022-04-24T07:13:22.000Z</time>
      </trkpt>
      <trkpt lat="47.38566" lon="-2.14094">
        <ele>60.599998474121</ele>
        <time>2022-04-24T07:13:27.000Z</time>
      </trkpt>
      <trkpt lat="47.38531" lon="-2.14066">
        <ele>60.599998474121</ele>
        <time>2022-04-24T07:13:34.000Z</time>
      </trkpt>
      <trkpt lat="47.38501" lon="-2.14034">
        <ele>60.599998474121</ele>
        <time>2022-04-24T07:13:40.000Z</time>
      </trkpt>
      <trkpt lat="47.38458" lon="-2.13984">
        <ele>60.599998474121</ele>
        <time>2022-04-24T07:13:48.000Z</time>
      </trkpt>
      <trkpt lat="47.3842" lon="-2.13942">
        <ele>60.200000762939</ele>
        <time>2022-04-24T07:13:55.000Z</time>
      </trkpt>
      <trkpt lat="47.38415" lon="-2.13936">
        <ele>59.799999237061</ele>
        <time>2022-04-24T07:13:56.000Z</time>
      </trkpt>
      <trkpt lat="47.3841" lon="-2.13931">
        <ele>59.400001525879</ele>
        <time>2022-04-24T07:13:57.000Z</time>
      </trkpt>
      <trkpt lat="47.38405" lon="-2.13926">
        <ele>59</ele>
        <time>2022-04-24T07:13:58.000Z</time>
      </trkpt>
      <trkpt lat="47.384" lon="-2.13922">
        <ele>58.599998474121</ele>
        <time>2022-04-24T07:13:59.000Z</time>
      </trkpt>
      <trkpt lat="47.38388" lon="-2.13917">
        <ele>58.599998474121</ele>
        <time>2022-04-24T07:14:01.000Z</time>
      </trkpt>
      <trkpt lat="47.38347" lon="-2.13904">
        <ele>58.599998474121</ele>
        <time>2022-04-24T07:14:08.000Z</time>
      </trkpt>
      <trkpt lat="47.38303" lon="-2.13888">
        <ele>58.599998474121</ele>
        <time>2022-04-24T07:14:16.000Z</time>
      </trkpt>
      <trkpt lat="47.38285" lon="-2.13878">
        <ele>58.599998474121</ele>
        <time>2022-04-24T07:14:19.000Z</time>
      </trkpt>
      <trkpt lat="47.38269" lon="-2.13862">
        <ele>58.599998474121</ele>
        <time>2022-04-24T07:14:22.000Z</time>
      </trkpt>
      <trkpt lat="47.38253" lon="-2.13832">
        <ele>58.599998474121</ele>
        <time>2022-04-24T07:14:26.000Z</time>
      </trkpt>
      <trkpt lat="47.3825" lon="-2.13824">
        <ele>58.599998474121</ele>
        <time>2022-04-24T07:14:27.000Z</time>
      </trkpt>
      <trkpt lat="47.38223" lon="-2.13763">
        <ele>58.599998474121</ele>
        <time>2022-04-24T07:14:35.000Z</time>
      </trkpt>
      <trkpt lat="47.38207" lon="-2.13725">
        <ele>58.599998474121</ele>
        <time>2022-04-24T07:14:40.000Z</time>
      </trkpt>
      <trkpt lat="47.38207" lon="-2.13708">
        <ele>58.599998474121</ele>
        <time>2022-04-24T07:14:42.000Z</time>
      </trkpt>
      <trkpt lat="47.38215" lon="-2.13687">
        <ele>58.599998474121</ele>
        <time>2022-04-24T07:14:45.000Z</time>
      </trkpt>
      <trkpt lat="47.38224" lon="-2.13676">
        <ele>58.599998474121</ele>
        <time>2022-04-24T07:14:47.000Z</time>
      </trkpt>
      <trkpt lat="47.38239" lon="-2.13662">
        <ele>58.599998474121</ele>
        <time>2022-04-24T07:14:50.000Z</time>
      </trkpt>
      <trkpt lat="47.38272" lon="-2.13629">
        <ele>59</ele>
        <time>2022-04-24T07:14:57.000Z</time>
      </trkpt>
      <trkpt lat="47.38276" lon="-2.13625">
        <ele>59.400001525879</ele>
        <time>2022-04-24T07:14:58.000Z</time>
      </trkpt>
      <trkpt lat="47.38281" lon="-2.13621">
        <ele>59.799999237061</ele>
        <time>2022-04-24T07:14:59.000Z</time>
      </trkpt>
      <trkpt lat="47.38284" lon="-2.13617">
        <ele>60.200000762939</ele>
        <time>2022-04-24T07:15:00.000Z</time>
      </trkpt>
      <trkpt lat="47.38288" lon="-2.13613">
        <ele>60.599998474121</ele>
        <time>2022-04-24T07:15:01.000Z</time>
      </trkpt>
      <trkpt lat="47.38291" lon="-2.13607">
        <ele>60.599998474121</ele>
        <time>2022-04-24T07:15:02.000Z</time>
      </trkpt>
      <trkpt lat="47.38295" lon="-2.13596">
        <ele>60.599998474121</ele>
        <time>2022-04-24T07:15:04.000Z</time>
      </trkpt>
      <trkpt lat="47.38298" lon="-2.13585">
        <ele>60.599998474121</ele>
        <time>2022-04-24T07:15:06.000Z</time>
      </trkpt>
      <trkpt lat="47.383" lon="-2.13578">
        <ele>60.599998474121</ele>
        <time>2022-04-24T07:15:07.000Z</time>
      </trkpt>
      <trkpt lat="47.38304" lon="-2.13566">
        <ele>60.599998474121</ele>
        <time>2022-04-24T07:15:09.000Z</time>
      </trkpt>
      <trkpt lat="47.38308" lon="-2.13559">
        <ele>60.599998474121</ele>
        <time>2022-04-24T07:15:10.000Z</time>
      </trkpt>
      <trkpt lat="47.38319" lon="-2.13534">
        <ele>60.599998474121</ele>
        <time>2022-04-24T07:15:14.000Z</time>
      </trkpt>
      <trkpt lat="47.38326" lon="-2.13518">
        <ele>60.599998474121</ele>
        <time>2022-04-24T07:15:17.000Z</time>
      </trkpt>
      <trkpt lat="47.38324" lon="-2.13507">
        <ele>60.599998474121</ele>
        <time>2022-04-24T07:15:19.000Z</time>
      </trkpt>
      <trkpt lat="47.3831" lon="-2.13489">
        <ele>60.599998474121</ele>
        <time>2022-04-24T07:15:23.000Z</time>
      </trkpt>
      <trkpt lat="47.38268" lon="-2.13447">
        <ele>60.599998474121</ele>
        <time>2022-04-24T07:15:32.000Z</time>
      </trkpt>
      <trkpt lat="47.3823" lon="-2.13403">
        <ele>60.599998474121</ele>
        <time>2022-04-24T07:15:40.000Z</time>
      </trkpt>
      <trkpt lat="47.38226" lon="-2.13396">
        <ele>60.599998474121</ele>
        <time>2022-04-24T07:15:41.000Z</time>
      </trkpt>
      <trkpt lat="47.38211" lon="-2.13372">
        <ele>60.599998474121</ele>
        <time>2022-04-24T07:15:45.000Z</time>
      </trkpt>
      <trkpt lat="47.38174" lon="-2.13309">
        <ele>60.599998474121</ele>
        <time>2022-04-24T07:15:55.000Z</time>
      </trkpt>
      <trkpt lat="47.38147" lon="-2.13262">
        <ele>60.599998474121</ele>
        <time>2022-04-24T07:16:02.000Z</time>
      </trkpt>
      <trkpt lat="47.38117" lon="-2.13214">
        <ele>60.599998474121</ele>
        <time>2022-04-24T07:16:10.000Z</time>
      </trkpt>
      <trkpt lat="47.38103" lon="-2.1319">
        <ele>60.599998474121</ele>
        <time>2022-04-24T07:16:14.000Z</time>
      </trkpt>
      <trkpt lat="47.38095" lon="-2.13181">
        <ele>60.599998474121</ele>
        <time>2022-04-24T07:16:16.000Z</time>
      </trkpt>
      <trkpt lat="47.38081" lon="-2.1317">
        <ele>60.599998474121</ele>
        <time>2022-04-24T07:16:19.000Z</time>
      </trkpt>
      <trkpt lat="47.38068" lon="-2.13163">
        <ele>60.599998474121</ele>
        <time>2022-04-24T07:16:22.000Z</time>
      </trkpt>
      <trkpt lat="47.38034" lon="-2.13144">
        <ele>60.599998474121</ele>
        <time>2022-04-24T07:16:29.000Z</time>
      </trkpt>
      <trkpt lat="47.37988" lon="-2.13117">
        <ele>60.599998474121</ele>
        <time>2022-04-24T07:16:39.000Z</time>
      </trkpt>
      <trkpt lat="47.37979" lon="-2.13113">
        <ele>61</ele>
        <time>2022-04-24T07:16:41.000Z</time>
      </trkpt>
      <trkpt lat="47.37974" lon="-2.13114">
        <ele>61.400001525879</ele>
        <time>2022-04-24T07:16:42.000Z</time>
      </trkpt>
      <trkpt lat="47.3797" lon="-2.13119">
        <ele>61.799999237061</ele>
        <time>2022-04-24T07:16:43.000Z</time>
      </trkpt>
      <trkpt lat="47.37968" lon="-2.13126">
        <ele>62.200000762939</ele>
        <time>2022-04-24T07:16:44.000Z</time>
      </trkpt>
      <trkpt lat="47.37967" lon="-2.13135">
        <ele>62.599998474121</ele>
        <time>2022-04-24T07:16:45.000Z</time>
      </trkpt>
      <trkpt lat="47.37967" lon="-2.13144">
        <ele>62.599998474121</ele>
        <time>2022-04-24T07:16:46.000Z</time>
      </trkpt>
      <trkpt lat="47.37976" lon="-2.13168">
        <ele>62.599998474121</ele>
        <time>2022-04-24T07:16:49.000Z</time>
      </trkpt>
      <trkpt lat="47.37987" lon="-2.132">
        <ele>62.599998474121</ele>
        <time>2022-04-24T07:16:53.000Z</time>
      </trkpt>
      <trkpt lat="47.37988" lon="-2.13218">
        <ele>62.599998474121</ele>
        <time>2022-04-24T07:16:55.000Z</time>
      </trkpt>
      <trkpt lat="47.37981" lon="-2.13239">
        <ele>62.599998474121</ele>
        <time>2022-04-24T07:16:58.000Z</time>
      </trkpt>
      <trkpt lat="47.37968" lon="-2.13249">
        <ele>62.599998474121</ele>
        <time>2022-04-24T07:17:01.000Z</time>
      </trkpt>
      <trkpt lat="47.37959" lon="-2.13252">
        <ele>62.599998474121</ele>
        <time>2022-04-24T07:17:03.000Z</time>
      </trkpt>
      <trkpt lat="47.37939" lon="-2.13257">
        <ele>62.599998474121</ele>
        <time>2022-04-24T07:17:07.000Z</time>
      </trkpt>
      <trkpt lat="47.37898" lon="-2.13262">
        <ele>62.599998474121</ele>
        <time>2022-04-24T07:17:15.000Z</time>
      </trkpt>
      <trkpt lat="47.37887" lon="-2.13263">
        <ele>63</ele>
        <time>2022-04-24T07:17:17.000Z</time>
      </trkpt>
      <trkpt lat="47.37882" lon="-2.13263">
        <ele>63.599998474121</ele>
        <time>2022-04-24T07:17:18.000Z</time>
      </trkpt>
      <trkpt lat="47.37877" lon="-2.13263">
        <ele>64</ele>
        <time>2022-04-24T07:17:19.000Z</time>
      </trkpt>
      <trkpt lat="47.37871" lon="-2.13264">
        <ele>64.400001525879</ele>
        <time>2022-04-24T07:17:20.000Z</time>
      </trkpt>
      <trkpt lat="47.37866" lon="-2.13265">
        <ele>64.800003051758</ele>
        <time>2022-04-24T07:17:21.000Z</time>
      </trkpt>
      <trkpt lat="47.3786" lon="-2.13266">
        <ele>64.800003051758</ele>
        <time>2022-04-24T07:17:22.000Z</time>
      </trkpt>
      <trkpt lat="47.37819" lon="-2.1327">
        <ele>64.800003051758</ele>
        <time>2022-04-24T07:17:29.000Z</time>
      </trkpt>
      <trkpt lat="47.3777" lon="-2.13272">
        <ele>64.800003051758</ele>
        <time>2022-04-24T07:17:37.000Z</time>
      </trkpt>
      <trkpt lat="47.37724" lon="-2.13275">
        <ele>64.800003051758</ele>
        <time>2022-04-24T07:17:44.000Z</time>
      </trkpt>
      <trkpt lat="47.37689" lon="-2.13288">
        <ele>64.800003051758</ele>
        <time>2022-04-24T07:17:50.000Z</time>
      </trkpt>
      <trkpt lat="47.37683" lon="-2.13291">
        <ele>64.800003051758</ele>
        <time>2022-04-24T07:17:51.000Z</time>
      </trkpt>
      <trkpt lat="47.3766" lon="-2.133">
        <ele>64.800003051758</ele>
        <time>2022-04-24T07:17:55.000Z</time>
      </trkpt>
      <trkpt lat="47.37621" lon="-2.13316">
        <ele>64.400001525879</ele>
        <time>2022-04-24T07:18:02.000Z</time>
      </trkpt>
      <trkpt lat="47.37615" lon="-2.13318">
        <ele>64</ele>
        <time>2022-04-24T07:18:03.000Z</time>
      </trkpt>
      <trkpt lat="47.3761" lon="-2.1332">
        <ele>63.599998474121</ele>
        <time>2022-04-24T07:18:04.000Z</time>
      </trkpt>
      <trkpt lat="47.37605" lon="-2.1332">
        <ele>63.200000762939</ele>
        <time>2022-04-24T07:18:05.000Z</time>
      </trkpt>
      <trkpt lat="47.37599" lon="-2.1332">
        <ele>62.799999237061</ele>
        <time>2022-04-24T07:18:06.000Z</time>
      </trkpt>
      <trkpt lat="47.37587" lon="-2.13318">
        <ele>62.799999237061</ele>
        <time>2022-04-24T07:18:08.000Z</time>
      </trkpt>
      <trkpt lat="47.37542" lon="-2.13307">
        <ele>62.799999237061</ele>
        <time>2022-04-24T07:18:16.000Z</time>
      </trkpt>
      <trkpt lat="47.37494" lon="-2.13297">
        <ele>62.799999237061</ele>
        <time>2022-04-24T07:18:24.000Z</time>
      </trkpt>
      <trkpt lat="47.37482" lon="-2.13296">
        <ele>62.799999237061</ele>
        <time>2022-04-24T07:18:26.000Z</time>
      </trkpt>
      <trkpt lat="47.37464" lon="-2.13293">
        <ele>62.799999237061</ele>
        <time>2022-04-24T07:18:29.000Z</time>
      </trkpt>
      <trkpt lat="47.37426" lon="-2.13284">
        <ele>63.200000762939</ele>
        <time>2022-04-24T07:18:36.000Z</time>
      </trkpt>
      <trkpt lat="47.37421" lon="-2.13283">
        <ele>63.599998474121</ele>
        <time>2022-04-24T07:18:37.000Z</time>
      </trkpt>
      <trkpt lat="47.37415" lon="-2.13282">
        <ele>64</ele>
        <time>2022-04-24T07:18:38.000Z</time>
      </trkpt>
      <trkpt lat="47.3741" lon="-2.13281">
        <ele>64.400001525879</ele>
        <time>2022-04-24T07:18:39.000Z</time>
      </trkpt>
      <trkpt lat="47.37405" lon="-2.1328">
        <ele>64.800003051758</ele>
        <time>2022-04-24T07:18:40.000Z</time>
      </trkpt>
      <trkpt lat="47.37378" lon="-2.13275">
        <ele>64.800003051758</ele>
        <time>2022-04-24T07:18:45.000Z</time>
      </trkpt>
      <trkpt lat="47.37331" lon="-2.13265">
        <ele>64.800003051758</ele>
        <time>2022-04-24T07:18:53.000Z</time>
      </trkpt>
      <trkpt lat="47.37276" lon="-2.13248">
        <ele>64.800003051758</ele>
        <time>2022-04-24T07:19:02.000Z</time>
      </trkpt>
      <trkpt lat="47.37221" lon="-2.13229">
        <ele>64.800003051758</ele>
        <time>2022-04-24T07:19:11.000Z</time>
      </trkpt>
      <trkpt lat="47.37172" lon="-2.13211">
        <ele>64.800003051758</ele>
        <time>2022-04-24T07:19:19.000Z</time>
      </trkpt>
      <trkpt lat="47.37149" lon="-2.13204">
        <ele>64.800003051758</ele>
        <time>2022-04-24T07:19:23.000Z</time>
      </trkpt>
      <trkpt lat="47.37136" lon="-2.132">
        <ele>64.800003051758</ele>
        <time>2022-04-24T07:19:25.000Z</time>
      </trkpt>
      <trkpt lat="47.37117" lon="-2.13194">
        <ele>64.800003051758</ele>
        <time>2022-04-24T07:19:28.000Z</time>
      </trkpt>
      <trkpt lat="47.371" lon="-2.13188">
        <ele>64.800003051758</ele>
        <time>2022-04-24T07:19:31.000Z</time>
      </trkpt>
      <trkpt lat="47.37089" lon="-2.13184">
        <ele>64.400001525879</ele>
        <time>2022-04-24T07:19:33.000Z</time>
      </trkpt>
      <trkpt lat="47.37084" lon="-2.13181">
        <ele>64</ele>
        <time>2022-04-24T07:19:34.000Z</time>
      </trkpt>
      <trkpt lat="47.3708" lon="-2.13177">
        <ele>63.400001525879</ele>
        <time>2022-04-24T07:19:35.000Z</time>
      </trkpt>
      <trkpt lat="47.37076" lon="-2.1317">
        <ele>63</ele>
        <time>2022-04-24T07:19:36.000Z</time>
      </trkpt>
      <trkpt lat="47.37075" lon="-2.13161">
        <ele>62.599998474121</ele>
        <time>2022-04-24T07:19:37.000Z</time>
      </trkpt>
      <trkpt lat="47.37075" lon="-2.13142">
        <ele>62.599998474121</ele>
        <time>2022-04-24T07:19:39.000Z</time>
      </trkpt>
      <trkpt lat="47.37082" lon="-2.13112">
        <ele>62.200000762939</ele>
        <time>2022-04-24T07:19:42.000Z</time>
      </trkpt>
      <trkpt lat="47.37085" lon="-2.13102">
        <ele>61.799999237061</ele>
        <time>2022-04-24T07:19:43.000Z</time>
      </trkpt>
      <trkpt lat="47.37087" lon="-2.13093">
        <ele>61.400001525879</ele>
        <time>2022-04-24T07:19:44.000Z</time>
      </trkpt>
      <trkpt lat="47.3709" lon="-2.13083">
        <ele>61</ele>
        <time>2022-04-24T07:19:45.000Z</time>
      </trkpt>
      <trkpt lat="47.37093" lon="-2.13074">
        <ele>60.599998474121</ele>
        <time>2022-04-24T07:19:46.000Z</time>
      </trkpt>
      <trkpt lat="47.37108" lon="-2.13039">
        <ele>60.599998474121</ele>
        <time>2022-04-24T07:19:50.000Z</time>
      </trkpt>
      <trkpt lat="47.37134" lon="-2.12986">
        <ele>60.599998474121</ele>
        <time>2022-04-24T07:19:57.000Z</time>
      </trkpt>
      <trkpt lat="47.37142" lon="-2.12964">
        <ele>60.599998474121</ele>
        <time>2022-04-24T07:20:00.000Z</time>
      </trkpt>
      <trkpt lat="47.37143" lon="-2.12953">
        <ele>60.599998474121</ele>
        <time>2022-04-24T07:20:02.000Z</time>
      </trkpt>
      <trkpt lat="47.37146" lon="-2.12937">
        <ele>60.599998474121</ele>
        <time>2022-04-24T07:20:05.000Z</time>
      </trkpt>
      <trkpt lat="47.37149" lon="-2.12923">
        <ele>60.599998474121</ele>
        <time>2022-04-24T07:20:07.000Z</time>
      </trkpt>
      <trkpt lat="47.37154" lon="-2.12893">
        <ele>60.599998474121</ele>
        <time>2022-04-24T07:20:11.000Z</time>
      </trkpt>
      <trkpt lat="47.37156" lon="-2.12876">
        <ele>60.599998474121</ele>
        <time>2022-04-24T07:20:13.000Z</time>
      </trkpt>
      <trkpt lat="47.37166" lon="-2.12821">
        <ele>60.599998474121</ele>
        <time>2022-04-24T07:20:20.000Z</time>
      </trkpt>
      <trkpt lat="47.37176" lon="-2.12754">
        <ele>60.599998474121</ele>
        <time>2022-04-24T07:20:28.000Z</time>
      </trkpt>
      <trkpt lat="47.37178" lon="-2.12745">
        <ele>61</ele>
        <time>2022-04-24T07:20:29.000Z</time>
      </trkpt>
      <trkpt lat="47.37179" lon="-2.12737">
        <ele>61.400001525879</ele>
        <time>2022-04-24T07:20:30.000Z</time>
      </trkpt>
      <trkpt lat="47.37181" lon="-2.12729">
        <ele>61.799999237061</ele>
        <time>2022-04-24T07:20:31.000Z</time>
      </trkpt>
      <trkpt lat="47.37182" lon="-2.1272">
        <ele>62.200000762939</ele>
        <time>2022-04-24T07:20:32.000Z</time>
      </trkpt>
      <trkpt lat="47.37183" lon="-2.12712">
        <ele>62.599998474121</ele>
        <time>2022-04-24T07:20:33.000Z</time>
      </trkpt>
      <trkpt lat="47.37186" lon="-2.12695">
        <ele>62.599998474121</ele>
        <time>2022-04-24T07:20:35.000Z</time>
      </trkpt>
      <trkpt lat="47.37193" lon="-2.12649">
        <ele>62.599998474121</ele>
        <time>2022-04-24T07:20:41.000Z</time>
      </trkpt>
      <trkpt lat="47.37202" lon="-2.12593">
        <ele>62.599998474121</ele>
        <time>2022-04-24T07:20:48.000Z</time>
      </trkpt>
      <trkpt lat="47.37205" lon="-2.12577">
        <ele>62.599998474121</ele>
        <time>2022-04-24T07:20:50.000Z</time>
      </trkpt>
      <trkpt lat="47.37211" lon="-2.12562">
        <ele>62.599998474121</ele>
        <time>2022-04-24T07:20:52.000Z</time>
      </trkpt>
      <trkpt lat="47.37216" lon="-2.12558">
        <ele>62.599998474121</ele>
        <time>2022-04-24T07:20:53.000Z</time>
      </trkpt>
      <trkpt lat="47.37239" lon="-2.12551">
        <ele>62.599998474121</ele>
        <time>2022-04-24T07:20:57.000Z</time>
      </trkpt>
      <trkpt lat="47.37245" lon="-2.12551">
        <ele>62.599998474121</ele>
        <time>2022-04-24T07:20:58.000Z</time>
      </trkpt>
      <trkpt lat="47.37251" lon="-2.1255">
        <ele>62.599998474121</ele>
        <time>2022-04-24T07:20:59.000Z</time>
      </trkpt>
      <trkpt lat="47.37268" lon="-2.12545">
        <ele>62.599998474121</ele>
        <time>2022-04-24T07:21:02.000Z</time>
      </trkpt>
      <trkpt lat="47.37273" lon="-2.12542">
        <ele>62.599998474121</ele>
        <time>2022-04-24T07:21:03.000Z</time>
      </trkpt>
      <trkpt lat="47.37287" lon="-2.12536">
        <ele>62.599998474121</ele>
        <time>2022-04-24T07:21:06.000Z</time>
      </trkpt>
      <trkpt lat="47.37291" lon="-2.12535">
        <ele>62.599998474121</ele>
        <time>2022-04-24T07:21:07.000Z</time>
      </trkpt>
      <trkpt lat="47.37304" lon="-2.12532">
        <ele>62.599998474121</ele>
        <time>2022-04-24T07:21:10.000Z</time>
      </trkpt>
      <trkpt lat="47.37311" lon="-2.12526">
        <ele>62.599998474121</ele>
        <time>2022-04-24T07:21:12.000Z</time>
      </trkpt>
      <trkpt lat="47.37334" lon="-2.12509">
        <ele>62.599998474121</ele>
        <time>2022-04-24T07:21:17.000Z</time>
      </trkpt>
      <trkpt lat="47.3738" lon="-2.12483">
        <ele>62.599998474121</ele>
        <time>2022-04-24T07:21:25.000Z</time>
      </trkpt>
      <trkpt lat="47.37386" lon="-2.12478">
        <ele>62.599998474121</ele>
        <time>2022-04-24T07:21:26.000Z</time>
      </trkpt>
      <trkpt lat="47.37412" lon="-2.12451">
        <ele>62.599998474121</ele>
        <time>2022-04-24T07:21:31.000Z</time>
      </trkpt>
      <trkpt lat="47.37449" lon="-2.124">
        <ele>62.599998474121</ele>
        <time>2022-04-24T07:21:39.000Z</time>
      </trkpt>
      <trkpt lat="47.37486" lon="-2.12348">
        <ele>62.599998474121</ele>
        <time>2022-04-24T07:21:47.000Z</time>
      </trkpt>
      <trkpt lat="47.37503" lon="-2.1233">
        <ele>62.599998474121</ele>
        <time>2022-04-24T07:21:50.000Z</time>
      </trkpt>
      <trkpt lat="47.37515" lon="-2.12323">
        <ele>62.599998474121</ele>
        <time>2022-04-24T07:21:52.000Z</time>
      </trkpt>
      <trkpt lat="47.37535" lon="-2.12326">
        <ele>62.599998474121</ele>
        <time>2022-04-24T07:21:55.000Z</time>
      </trkpt>
      <trkpt lat="47.37541" lon="-2.12328">
        <ele>62.599998474121</ele>
        <time>2022-04-24T07:21:56.000Z</time>
      </trkpt>
      <trkpt lat="47.37568" lon="-2.12343">
        <ele>62.599998474121</ele>
        <time>2022-04-24T07:22:01.000Z</time>
      </trkpt>
      <trkpt lat="47.3761" lon="-2.12371">
        <ele>62.599998474121</ele>
        <time>2022-04-24T07:22:09.000Z</time>
      </trkpt>
      <trkpt lat="47.3765" lon="-2.12394">
        <ele>62.599998474121</ele>
        <time>2022-04-24T07:22:16.000Z</time>
      </trkpt>
      <trkpt lat="47.37682" lon="-2.12414">
        <ele>62.599998474121</ele>
        <time>2022-04-24T07:22:22.000Z</time>
      </trkpt>
      <trkpt lat="47.37709" lon="-2.12431">
        <ele>62.599998474121</ele>
        <time>2022-04-24T07:22:28.000Z</time>
      </trkpt>
      <trkpt lat="47.37718" lon="-2.12436">
        <ele>63</ele>
        <time>2022-04-24T07:22:30.000Z</time>
      </trkpt>
      <trkpt lat="47.37723" lon="-2.12439">
        <ele>63.400001525879</ele>
        <time>2022-04-24T07:22:31.000Z</time>
      </trkpt>
      <trkpt lat="47.37727" lon="-2.12442">
        <ele>64.199996948242</ele>
        <time>2022-04-24T07:22:32.000Z</time>
      </trkpt>
      <trkpt lat="47.37732" lon="-2.12445">
        <ele>64.599998474121</ele>
        <time>2022-04-24T07:22:33.000Z</time>
      </trkpt>
      <trkpt lat="47.37742" lon="-2.12451">
        <ele>64.599998474121</ele>
        <time>2022-04-24T07:22:35.000Z</time>
      </trkpt>
      <trkpt lat="47.3778" lon="-2.12485">
        <ele>64.599998474121</ele>
        <time>2022-04-24T07:22:43.000Z</time>
      </trkpt>
      <trkpt lat="47.37793" lon="-2.12497">
        <ele>65</ele>
        <time>2022-04-24T07:22:46.000Z</time>
      </trkpt>
      <trkpt lat="47.37798" lon="-2.12501">
        <ele>65.400001525879</ele>
        <time>2022-04-24T07:22:47.000Z</time>
      </trkpt>
      <trkpt lat="47.37802" lon="-2.12505">
        <ele>65.800003051758</ele>
        <time>2022-04-24T07:22:48.000Z</time>
      </trkpt>
      <trkpt lat="47.37806" lon="-2.12509">
        <ele>66.199996948242</ele>
        <time>2022-04-24T07:22:49.000Z</time>
      </trkpt>
      <trkpt lat="47.3781" lon="-2.12513">
        <ele>66.800003051758</ele>
        <time>2022-04-24T07:22:50.000Z</time>
      </trkpt>
      <trkpt lat="47.37815" lon="-2.12517">
        <ele>66.800003051758</ele>
        <time>2022-04-24T07:22:51.000Z</time>
      </trkpt>
      <trkpt lat="47.37857" lon="-2.12556">
        <ele>67.199996948242</ele>
        <time>2022-04-24T07:23:01.000Z</time>
      </trkpt>
      <trkpt lat="47.37862" lon="-2.1256">
        <ele>67.599998474121</ele>
        <time>2022-04-24T07:23:02.000Z</time>
      </trkpt>
      <trkpt lat="47.37866" lon="-2.12564">
        <ele>68</ele>
        <time>2022-04-24T07:23:03.000Z</time>
      </trkpt>
      <trkpt lat="47.3787" lon="-2.12568">
        <ele>68.400001525879</ele>
        <time>2022-04-24T07:23:04.000Z</time>
      </trkpt>
      <trkpt lat="47.37874" lon="-2.12571">
        <ele>68.800003051758</ele>
        <time>2022-04-24T07:23:05.000Z</time>
      </trkpt>
      <trkpt lat="47.37896" lon="-2.12593">
        <ele>68.800003051758</ele>
        <time>2022-04-24T07:23:10.000Z</time>
      </trkpt>
      <trkpt lat="47.37927" lon="-2.12631">
        <ele>68.800003051758</ele>
        <time>2022-04-24T07:23:17.000Z</time>
      </trkpt>
      <trkpt lat="47.37964" lon="-2.1268">
        <ele>68.800003051758</ele>
        <time>2022-04-24T07:23:25.000Z</time>
      </trkpt>
      <trkpt lat="47.37981" lon="-2.12708">
        <ele>68.400001525879</ele>
        <time>2022-04-24T07:23:29.000Z</time>
      </trkpt>
      <trkpt lat="47.37986" lon="-2.12714">
        <ele>68</ele>
        <time>2022-04-24T07:23:30.000Z</time>
      </trkpt>
      <trkpt lat="47.37989" lon="-2.12721">
        <ele>67.400001525879</ele>
        <time>2022-04-24T07:23:31.000Z</time>
      </trkpt>
      <trkpt lat="47.37993" lon="-2.12728">
        <ele>67</ele>
        <time>2022-04-24T07:23:32.000Z</time>
      </trkpt>
      <trkpt lat="47.37997" lon="-2.12734">
        <ele>66.599998474121</ele>
        <time>2022-04-24T07:23:33.000Z</time>
      </trkpt>
      <trkpt lat="47.38022" lon="-2.12779">
        <ele>66.599998474121</ele>
        <time>2022-04-24T07:23:40.000Z</time>
      </trkpt>
      <trkpt lat="47.38045" lon="-2.12831">
        <ele>66.599998474121</ele>
        <time>2022-04-24T07:23:47.000Z</time>
      </trkpt>
      <trkpt lat="47.38066" lon="-2.12889">
        <ele>66.599998474121</ele>
        <time>2022-04-24T07:23:54.000Z</time>
      </trkpt>
      <trkpt lat="47.38076" lon="-2.12915">
        <ele>66.199996948242</ele>
        <time>2022-04-24T07:23:57.000Z</time>
      </trkpt>
      <trkpt lat="47.38079" lon="-2.12924">
        <ele>65.800003051758</ele>
        <time>2022-04-24T07:23:58.000Z</time>
      </trkpt>
      <trkpt lat="47.38082" lon="-2.12933">
        <ele>65.400001525879</ele>
        <time>2022-04-24T07:23:59.000Z</time>
      </trkpt>
      <trkpt lat="47.38086" lon="-2.12942">
        <ele>65</ele>
        <time>2022-04-24T07:24:00.000Z</time>
      </trkpt>
      <trkpt lat="47.3809" lon="-2.1295">
        <ele>64.599998474121</ele>
        <time>2022-04-24T07:24:01.000Z</time>
      </trkpt>
      <trkpt lat="47.38094" lon="-2.12958">
        <ele>64.599998474121</ele>
        <time>2022-04-24T07:24:02.000Z</time>
      </trkpt>
      <trkpt lat="47.38108" lon="-2.1299">
        <ele>64.599998474121</ele>
        <time>2022-04-24T07:24:06.000Z</time>
      </trkpt>
      <trkpt lat="47.38111" lon="-2.12998">
        <ele>64.199996948242</ele>
        <time>2022-04-24T07:24:07.000Z</time>
      </trkpt>
      <trkpt lat="47.38113" lon="-2.13006">
        <ele>63.599998474121</ele>
        <time>2022-04-24T07:24:08.000Z</time>
      </trkpt>
      <trkpt lat="47.38116" lon="-2.13011">
        <ele>63.200000762939</ele>
        <time>2022-04-24T07:24:09.000Z</time>
      </trkpt>
      <trkpt lat="47.3812" lon="-2.13015">
        <ele>62.400001525879</ele>
        <time>2022-04-24T07:24:10.000Z</time>
      </trkpt>
      <trkpt lat="47.38124" lon="-2.13016">
        <ele>62.400001525879</ele>
        <time>2022-04-24T07:24:11.000Z</time>
      </trkpt>
      <trkpt lat="47.38137" lon="-2.13002">
        <ele>62.400001525879</ele>
        <time>2022-04-24T07:24:14.000Z</time>
      </trkpt>
      <trkpt lat="47.38141" lon="-2.12996">
        <ele>62.400001525879</ele>
        <time>2022-04-24T07:24:15.000Z</time>
      </trkpt>
      <trkpt lat="47.3817" lon="-2.12962">
        <ele>62</ele>
        <time>2022-04-24T07:24:21.000Z</time>
      </trkpt>
      <trkpt lat="47.38175" lon="-2.12956">
        <ele>61.599998474121</ele>
        <time>2022-04-24T07:24:22.000Z</time>
      </trkpt>
      <trkpt lat="47.38181" lon="-2.1295">
        <ele>61</ele>
        <time>2022-04-24T07:24:23.000Z</time>
      </trkpt>
      <trkpt lat="47.38186" lon="-2.12944">
        <ele>60.599998474121</ele>
        <time>2022-04-24T07:24:24.000Z</time>
      </trkpt>
      <trkpt lat="47.38191" lon="-2.12936">
        <ele>60.200000762939</ele>
        <time>2022-04-24T07:24:25.000Z</time>
      </trkpt>
      <trkpt lat="47.38195" lon="-2.12928">
        <ele>60.200000762939</ele>
        <time>2022-04-24T07:24:26.000Z</time>
      </trkpt>
      <trkpt lat="47.38199" lon="-2.12918">
        <ele>60.200000762939</ele>
        <time>2022-04-24T07:24:27.000Z</time>
      </trkpt>
      <trkpt lat="47.3821" lon="-2.12867">
        <ele>60.200000762939</ele>
        <time>2022-04-24T07:24:32.000Z</time>
      </trkpt>
      <trkpt lat="47.38211" lon="-2.12857">
        <ele>60.200000762939</ele>
        <time>2022-04-24T07:24:33.000Z</time>
      </trkpt>
      <trkpt lat="47.38213" lon="-2.12809">
        <ele>60.200000762939</ele>
        <time>2022-04-24T07:24:38.000Z</time>
      </trkpt>
      <trkpt lat="47.38212" lon="-2.12744">
        <ele>60.200000762939</ele>
        <time>2022-04-24T07:24:45.000Z</time>
      </trkpt>
      <trkpt lat="47.38207" lon="-2.12726">
        <ele>60.200000762939</ele>
        <time>2022-04-24T07:24:47.000Z</time>
      </trkpt>
      <trkpt lat="47.38201" lon="-2.12708">
        <ele>60.200000762939</ele>
        <time>2022-04-24T07:24:49.000Z</time>
      </trkpt>
      <trkpt lat="47.38178" lon="-2.12662">
        <ele>60.200000762939</ele>
        <time>2022-04-24T07:24:55.000Z</time>
      </trkpt>
      <trkpt lat="47.38151" lon="-2.12632">
        <ele>60.200000762939</ele>
        <time>2022-04-24T07:25:00.000Z</time>
      </trkpt>
      <trkpt lat="47.38115" lon="-2.126">
        <ele>60.200000762939</ele>
        <time>2022-04-24T07:25:07.000Z</time>
      </trkpt>
      <trkpt lat="47.38113" lon="-2.12575">
        <ele>60.200000762939</ele>
        <time>2022-04-24T07:25:10.000Z</time>
      </trkpt>
      <trkpt lat="47.38125" lon="-2.12553">
        <ele>60.200000762939</ele>
        <time>2022-04-24T07:25:13.000Z</time>
      </trkpt>
      <trkpt lat="47.38135" lon="-2.12541">
        <ele>60.200000762939</ele>
        <time>2022-04-24T07:25:15.000Z</time>
      </trkpt>
      <trkpt lat="47.38155" lon="-2.12515">
        <ele>60.200000762939</ele>
        <time>2022-04-24T07:25:19.000Z</time>
      </trkpt>
      <trkpt lat="47.38179" lon="-2.12472">
        <ele>59.799999237061</ele>
        <time>2022-04-24T07:25:25.000Z</time>
      </trkpt>
      <trkpt lat="47.38182" lon="-2.12465">
        <ele>59.400001525879</ele>
        <time>2022-04-24T07:25:26.000Z</time>
      </trkpt>
      <trkpt lat="47.38186" lon="-2.12459">
        <ele>59</ele>
        <time>2022-04-24T07:25:27.000Z</time>
      </trkpt>
      <trkpt lat="47.3819" lon="-2.12452">
        <ele>58.599998474121</ele>
        <time>2022-04-24T07:25:28.000Z</time>
      </trkpt>
      <trkpt lat="47.38194" lon="-2.12445">
        <ele>58.200000762939</ele>
        <time>2022-04-24T07:25:29.000Z</time>
      </trkpt>
      <trkpt lat="47.38223" lon="-2.12396">
        <ele>58.200000762939</ele>
        <time>2022-04-24T07:25:36.000Z</time>
      </trkpt>
      <trkpt lat="47.38256" lon="-2.1234">
        <ele>58.200000762939</ele>
        <time>2022-04-24T07:25:44.000Z</time>
      </trkpt>
      <trkpt lat="47.38283" lon="-2.12292">
        <ele>58.200000762939</ele>
        <time>2022-04-24T07:25:51.000Z</time>
      </trkpt>
      <trkpt lat="47.383" lon="-2.12258">
        <ele>58.200000762939</ele>
        <time>2022-04-24T07:25:57.000Z</time>
      </trkpt>
      <trkpt lat="47.38292" lon="-2.12251">
        <ele>58.200000762939</ele>
        <time>2022-04-24T07:26:00.000Z</time>
      </trkpt>
      <trkpt lat="47.3827" lon="-2.12238">
        <ele>58.200000762939</ele>
        <time>2022-04-24T07:26:05.000Z</time>
      </trkpt>
      <trkpt lat="47.3826" lon="-2.12232">
        <ele>58.200000762939</ele>
        <time>2022-04-24T07:26:07.000Z</time>
      </trkpt>
      <trkpt lat="47.3825" lon="-2.12225">
        <ele>58.200000762939</ele>
        <time>2022-04-24T07:26:09.000Z</time>
      </trkpt>
      <trkpt lat="47.38245" lon="-2.12221">
        <ele>58.200000762939</ele>
        <time>2022-04-24T07:26:10.000Z</time>
      </trkpt>
      <trkpt lat="47.38209" lon="-2.12195">
        <ele>58.200000762939</ele>
        <time>2022-04-24T07:26:17.000Z</time>
      </trkpt>
      <trkpt lat="47.38173" lon="-2.12161">
        <ele>58.200000762939</ele>
        <time>2022-04-24T07:26:24.000Z</time>
      </trkpt>
      <trkpt lat="47.38142" lon="-2.1212">
        <ele>58.200000762939</ele>
        <time>2022-04-24T07:26:31.000Z</time>
      </trkpt>
      <trkpt lat="47.38117" lon="-2.12071">
        <ele>58.200000762939</ele>
        <time>2022-04-24T07:26:38.000Z</time>
      </trkpt>
      <trkpt lat="47.38097" lon="-2.12008">
        <ele>58.200000762939</ele>
        <time>2022-04-24T07:26:46.000Z</time>
      </trkpt>
      <trkpt lat="47.38078" lon="-2.11971">
        <ele>58.200000762939</ele>
        <time>2022-04-24T07:26:51.000Z</time>
      </trkpt>
      <trkpt lat="47.38074" lon="-2.11965">
        <ele>58.200000762939</ele>
        <time>2022-04-24T07:26:52.000Z</time>
      </trkpt>
      <trkpt lat="47.38058" lon="-2.11951">
        <ele>58.200000762939</ele>
        <time>2022-04-24T07:26:55.000Z</time>
      </trkpt>
      <trkpt lat="47.38053" lon="-2.11947">
        <ele>58.200000762939</ele>
        <time>2022-04-24T07:26:56.000Z</time>
      </trkpt>
      <trkpt lat="47.38023" lon="-2.11921">
        <ele>58.200000762939</ele>
        <time>2022-04-24T07:27:02.000Z</time>
      </trkpt>
      <trkpt lat="47.37993" lon="-2.11895">
        <ele>58.200000762939</ele>
        <time>2022-04-24T07:27:08.000Z</time>
      </trkpt>
      <trkpt lat="47.37961" lon="-2.1187">
        <ele>58.200000762939</ele>
        <time>2022-04-24T07:27:14.000Z</time>
      </trkpt>
      <trkpt lat="47.37929" lon="-2.11833">
        <ele>58.200000762939</ele>
        <time>2022-04-24T07:27:21.000Z</time>
      </trkpt>
      <trkpt lat="47.37912" lon="-2.11793">
        <ele>58.200000762939</ele>
        <time>2022-04-24T07:27:27.000Z</time>
      </trkpt>
      <trkpt lat="47.37903" lon="-2.11752">
        <ele>58.200000762939</ele>
        <time>2022-04-24T07:27:32.000Z</time>
      </trkpt>
      <trkpt lat="47.3791" lon="-2.11719">
        <ele>58.200000762939</ele>
        <time>2022-04-24T07:27:36.000Z</time>
      </trkpt>
      <trkpt lat="47.37927" lon="-2.11694">
        <ele>58.200000762939</ele>
        <time>2022-04-24T07:27:40.000Z</time>
      </trkpt>
      <trkpt lat="47.37932" lon="-2.11689">
        <ele>58.200000762939</ele>
        <time>2022-04-24T07:27:41.000Z</time>
      </trkpt>
      <trkpt lat="47.37957" lon="-2.11664">
        <ele>58.200000762939</ele>
        <time>2022-04-24T07:27:46.000Z</time>
      </trkpt>
      <trkpt lat="47.37996" lon="-2.1163">
        <ele>58.200000762939</ele>
        <time>2022-04-24T07:27:54.000Z</time>
      </trkpt>
      <trkpt lat="47.38021" lon="-2.11607">
        <ele>58.200000762939</ele>
        <time>2022-04-24T07:27:59.000Z</time>
      </trkpt>
      <trkpt lat="47.38028" lon="-2.11592">
        <ele>58.200000762939</ele>
        <time>2022-04-24T07:28:01.000Z</time>
      </trkpt>
      <trkpt lat="47.38031" lon="-2.11585">
        <ele>58.599998474121</ele>
        <time>2022-04-24T07:28:02.000Z</time>
      </trkpt>
      <trkpt lat="47.38034" lon="-2.11578">
        <ele>59</ele>
        <time>2022-04-24T07:28:03.000Z</time>
      </trkpt>
      <trkpt lat="47.38037" lon="-2.11572">
        <ele>59.400001525879</ele>
        <time>2022-04-24T07:28:04.000Z</time>
      </trkpt>
      <trkpt lat="47.3804" lon="-2.11566">
        <ele>59.799999237061</ele>
        <time>2022-04-24T07:28:05.000Z</time>
      </trkpt>
      <trkpt lat="47.38043" lon="-2.11561">
        <ele>60.200000762939</ele>
        <time>2022-04-24T07:28:06.000Z</time>
      </trkpt>
      <trkpt lat="47.38046" lon="-2.11555">
        <ele>60.200000762939</ele>
        <time>2022-04-24T07:28:07.000Z</time>
      </trkpt>
      <trkpt lat="47.38051" lon="-2.11545">
        <ele>60.200000762939</ele>
        <time>2022-04-24T07:28:09.000Z</time>
      </trkpt>
      <trkpt lat="47.38064" lon="-2.11529">
        <ele>60.200000762939</ele>
        <time>2022-04-24T07:28:13.000Z</time>
      </trkpt>
      <trkpt lat="47.38067" lon="-2.11528">
        <ele>60.599998474121</ele>
        <time>2022-04-24T07:28:14.000Z</time>
      </trkpt>
      <trkpt lat="47.38071" lon="-2.1153">
        <ele>61</ele>
        <time>2022-04-24T07:28:15.000Z</time>
      </trkpt>
      <trkpt lat="47.38073" lon="-2.11533">
        <ele>62</ele>
        <time>2022-04-24T07:28:16.000Z</time>
      </trkpt>
      <trkpt lat="47.38075" lon="-2.11538">
        <ele>62.400001525879</ele>
        <time>2022-04-24T07:28:17.000Z</time>
      </trkpt>
      <trkpt lat="47.38085" lon="-2.11555">
        <ele>62.400001525879</ele>
        <time>2022-04-24T07:28:21.000Z</time>
      </trkpt>
      <trkpt lat="47.38091" lon="-2.11565">
        <ele>62.799999237061</ele>
        <time>2022-04-24T07:28:23.000Z</time>
      </trkpt>
      <trkpt lat="47.38094" lon="-2.1157">
        <ele>63.200000762939</ele>
        <time>2022-04-24T07:28:24.000Z</time>
      </trkpt>
      <trkpt lat="47.38097" lon="-2.11576">
        <ele>63.599998474121</ele>
        <time>2022-04-24T07:28:25.000Z</time>
      </trkpt>
      <trkpt lat="47.381" lon="-2.11582">
        <ele>64</ele>
        <time>2022-04-24T07:28:26.000Z</time>
      </trkpt>
      <trkpt lat="47.38103" lon="-2.11587">
        <ele>64.400001525879</ele>
        <time>2022-04-24T07:28:27.000Z</time>
      </trkpt>
      <trkpt lat="47.38128" lon="-2.11629">
        <ele>64.400001525879</ele>
        <time>2022-04-24T07:28:35.000Z</time>
      </trkpt>
      <trkpt lat="47.38148" lon="-2.11661">
        <ele>64.400001525879</ele>
        <time>2022-04-24T07:28:41.000Z</time>
      </trkpt>
      <trkpt lat="47.3818" lon="-2.11704">
        <ele>64.400001525879</ele>
        <time>2022-04-24T07:28:49.000Z</time>
      </trkpt>
      <trkpt lat="47.38212" lon="-2.11747">
        <ele>64.400001525879</ele>
        <time>2022-04-24T07:28:56.000Z</time>
      </trkpt>
      <trkpt lat="47.38256" lon="-2.11801">
        <ele>64.400001525879</ele>
        <time>2022-04-24T07:29:05.000Z</time>
      </trkpt>
      <trkpt lat="47.38297" lon="-2.1184">
        <ele>64.400001525879</ele>
        <time>2022-04-24T07:29:13.000Z</time>
      </trkpt>
      <trkpt lat="47.38337" lon="-2.11892">
        <ele>64.400001525879</ele>
        <time>2022-04-24T07:29:22.000Z</time>
      </trkpt>
      <trkpt lat="47.38365" lon="-2.11949">
        <ele>64.400001525879</ele>
        <time>2022-04-24T07:29:30.000Z</time>
      </trkpt>
      <trkpt lat="47.38387" lon="-2.12002">
        <ele>64.400001525879</ele>
        <time>2022-04-24T07:29:37.000Z</time>
      </trkpt>
      <trkpt lat="47.38413" lon="-2.12049">
        <ele>64.400001525879</ele>
        <time>2022-04-24T07:29:44.000Z</time>
      </trkpt>
      <trkpt lat="47.38417" lon="-2.12054">
        <ele>64</ele>
        <time>2022-04-24T07:29:45.000Z</time>
      </trkpt>
      <trkpt lat="47.38422" lon="-2.12059">
        <ele>63.599998474121</ele>
        <time>2022-04-24T07:29:46.000Z</time>
      </trkpt>
      <trkpt lat="47.38427" lon="-2.12064">
        <ele>63</ele>
        <time>2022-04-24T07:29:47.000Z</time>
      </trkpt>
      <trkpt lat="47.38432" lon="-2.1207">
        <ele>62.599998474121</ele>
        <time>2022-04-24T07:29:48.000Z</time>
      </trkpt>
      <trkpt lat="47.38437" lon="-2.12074">
        <ele>62.200000762939</ele>
        <time>2022-04-24T07:29:49.000Z</time>
      </trkpt>
      <trkpt lat="47.38447" lon="-2.12083">
        <ele>62.200000762939</ele>
        <time>2022-04-24T07:29:51.000Z</time>
      </trkpt>
      <trkpt lat="47.38494" lon="-2.12125">
        <ele>62.200000762939</ele>
        <time>2022-04-24T07:30:00.000Z</time>
      </trkpt>
      <trkpt lat="47.3853" lon="-2.1216">
        <ele>62.200000762939</ele>
        <time>2022-04-24T07:30:07.000Z</time>
      </trkpt>
      <trkpt lat="47.38571" lon="-2.12202">
        <ele>62.200000762939</ele>
        <time>2022-04-24T07:30:15.000Z</time>
      </trkpt>
      <trkpt lat="47.38609" lon="-2.1224">
        <ele>61.799999237061</ele>
        <time>2022-04-24T07:30:22.000Z</time>
      </trkpt>
      <trkpt lat="47.38614" lon="-2.12246">
        <ele>61.400001525879</ele>
        <time>2022-04-24T07:30:23.000Z</time>
      </trkpt>
      <trkpt lat="47.38619" lon="-2.12251">
        <ele>61</ele>
        <time>2022-04-24T07:30:24.000Z</time>
      </trkpt>
      <trkpt lat="47.38624" lon="-2.12257">
        <ele>60.599998474121</ele>
        <time>2022-04-24T07:30:25.000Z</time>
      </trkpt>
      <trkpt lat="47.38629" lon="-2.12262">
        <ele>60.200000762939</ele>
        <time>2022-04-24T07:30:26.000Z</time>
      </trkpt>
      <trkpt lat="47.38644" lon="-2.12275">
        <ele>60.200000762939</ele>
        <time>2022-04-24T07:30:29.000Z</time>
      </trkpt>
      <trkpt lat="47.38677" lon="-2.12299">
        <ele>60.200000762939</ele>
        <time>2022-04-24T07:30:35.000Z</time>
      </trkpt>
      <trkpt lat="47.38707" lon="-2.12301">
        <ele>60.200000762939</ele>
        <time>2022-04-24T07:30:40.000Z</time>
      </trkpt>
      <trkpt lat="47.38749" lon="-2.12296">
        <ele>60.200000762939</ele>
        <time>2022-04-24T07:30:47.000Z</time>
      </trkpt>
      <trkpt lat="47.38761" lon="-2.12294">
        <ele>60.200000762939</ele>
        <time>2022-04-24T07:30:49.000Z</time>
      </trkpt>
      <trkpt lat="47.38779" lon="-2.12295">
        <ele>60.200000762939</ele>
        <time>2022-04-24T07:30:52.000Z</time>
      </trkpt>
      <trkpt lat="47.38786" lon="-2.12295">
        <ele>60.200000762939</ele>
        <time>2022-04-24T07:30:53.000Z</time>
      </trkpt>
      <trkpt lat="47.38821" lon="-2.12305">
        <ele>60.200000762939</ele>
        <time>2022-04-24T07:30:59.000Z</time>
      </trkpt>
      <trkpt lat="47.38849" lon="-2.12316">
        <ele>60.200000762939</ele>
        <time>2022-04-24T07:31:04.000Z</time>
      </trkpt>
      <trkpt lat="47.3886" lon="-2.12319">
        <ele>60.200000762939</ele>
        <time>2022-04-24T07:31:06.000Z</time>
      </trkpt>
      <trkpt lat="47.38866" lon="-2.12319">
        <ele>60.200000762939</ele>
        <time>2022-04-24T07:31:07.000Z</time>
      </trkpt>
      <trkpt lat="47.38874" lon="-2.12328">
        <ele>60.200000762939</ele>
        <time>2022-04-24T07:31:09.000Z</time>
      </trkpt>
      <trkpt lat="47.38876" lon="-2.12353">
        <ele>60.200000762939</ele>
        <time>2022-04-24T07:31:12.000Z</time>
      </trkpt>
      <trkpt lat="47.38875" lon="-2.12368">
        <ele>60.200000762939</ele>
        <time>2022-04-24T07:31:14.000Z</time>
      </trkpt>
      <trkpt lat="47.38874" lon="-2.12376">
        <ele>60.200000762939</ele>
        <time>2022-04-24T07:31:15.000Z</time>
      </trkpt>
      <trkpt lat="47.38869" lon="-2.1239">
        <ele>60.200000762939</ele>
        <time>2022-04-24T07:31:17.000Z</time>
      </trkpt>
      <trkpt lat="47.38857" lon="-2.1241">
        <ele>60.200000762939</ele>
        <time>2022-04-24T07:31:20.000Z</time>
      </trkpt>
      <trkpt lat="47.3885" lon="-2.12424">
        <ele>60.200000762939</ele>
        <time>2022-04-24T07:31:22.000Z</time>
      </trkpt>
      <trkpt lat="47.3884" lon="-2.1246">
        <ele>60.200000762939</ele>
        <time>2022-04-24T07:31:26.000Z</time>
      </trkpt>
      <trkpt lat="47.38839" lon="-2.12469">
        <ele>60.200000762939</ele>
        <time>2022-04-24T07:31:27.000Z</time>
      </trkpt>
      <trkpt lat="47.38836" lon="-2.12512">
        <ele>60.200000762939</ele>
        <time>2022-04-24T07:31:32.000Z</time>
      </trkpt>
      <trkpt lat="47.38837" lon="-2.12521">
        <ele>60.200000762939</ele>
        <time>2022-04-24T07:31:33.000Z</time>
      </trkpt>
      <trkpt lat="47.38844" lon="-2.12553">
        <ele>60.200000762939</ele>
        <time>2022-04-24T07:31:37.000Z</time>
      </trkpt>
      <trkpt lat="47.38847" lon="-2.12561">
        <ele>60.200000762939</ele>
        <time>2022-04-24T07:31:38.000Z</time>
      </trkpt>
      <trkpt lat="47.38851" lon="-2.12567">
        <ele>60.200000762939</ele>
        <time>2022-04-24T07:31:39.000Z</time>
      </trkpt>
      <trkpt lat="47.38866" lon="-2.12582">
        <ele>60.200000762939</ele>
        <time>2022-04-24T07:31:42.000Z</time>
      </trkpt>
      <trkpt lat="47.38887" lon="-2.12588">
        <ele>60.200000762939</ele>
        <time>2022-04-24T07:31:46.000Z</time>
      </trkpt>
      <trkpt lat="47.38893" lon="-2.12587">
        <ele>60.200000762939</ele>
        <time>2022-04-24T07:31:47.000Z</time>
      </trkpt>
      <trkpt lat="47.38898" lon="-2.12586">
        <ele>60.200000762939</ele>
        <time>2022-04-24T07:31:48.000Z</time>
      </trkpt>
      <trkpt lat="47.3892" lon="-2.1258">
        <ele>60.599998474121</ele>
        <time>2022-04-24T07:31:52.000Z</time>
      </trkpt>
      <trkpt lat="47.38926" lon="-2.12579">
        <ele>61</ele>
        <time>2022-04-24T07:31:53.000Z</time>
      </trkpt>
      <trkpt lat="47.38932" lon="-2.12578">
        <ele>61.400001525879</ele>
        <time>2022-04-24T07:31:54.000Z</time>
      </trkpt>
      <trkpt lat="47.38937" lon="-2.12576">
        <ele>61.799999237061</ele>
        <time>2022-04-24T07:31:55.000Z</time>
      </trkpt>
      <trkpt lat="47.38943" lon="-2.12575">
        <ele>62.200000762939</ele>
        <time>2022-04-24T07:31:56.000Z</time>
      </trkpt>
      <trkpt lat="47.38966" lon="-2.1257">
        <ele>62.200000762939</ele>
        <time>2022-04-24T07:32:00.000Z</time>
      </trkpt>
      <trkpt lat="47.38983" lon="-2.12567">
        <ele>62.200000762939</ele>
        <time>2022-04-24T07:32:03.000Z</time>
      </trkpt>
      <trkpt lat="47.38994" lon="-2.12564">
        <ele>62.599998474121</ele>
        <time>2022-04-24T07:32:05.000Z</time>
      </trkpt>
      <trkpt lat="47.39" lon="-2.12563">
        <ele>63</ele>
        <time>2022-04-24T07:32:06.000Z</time>
      </trkpt>
      <trkpt lat="47.39005" lon="-2.12562">
        <ele>63.599998474121</ele>
        <time>2022-04-24T07:32:07.000Z</time>
      </trkpt>
      <trkpt lat="47.3901" lon="-2.12561">
        <ele>64</ele>
        <time>2022-04-24T07:32:08.000Z</time>
      </trkpt>
      <trkpt lat="47.39016" lon="-2.1256">
        <ele>64.400001525879</ele>
        <time>2022-04-24T07:32:09.000Z</time>
      </trkpt>
      <trkpt lat="47.39037" lon="-2.12555">
        <ele>64.400001525879</ele>
        <time>2022-04-24T07:32:13.000Z</time>
      </trkpt>
      <trkpt lat="47.39058" lon="-2.1255">
        <ele>64.800003051758</ele>
        <time>2022-04-24T07:32:17.000Z</time>
      </trkpt>
      <trkpt lat="47.39063" lon="-2.12549">
        <ele>65.199996948242</ele>
        <time>2022-04-24T07:32:18.000Z</time>
      </trkpt>
      <trkpt lat="47.39068" lon="-2.12548">
        <ele>65.599998474121</ele>
        <time>2022-04-24T07:32:19.000Z</time>
      </trkpt>
      <trkpt lat="47.39074" lon="-2.12546">
        <ele>66</ele>
        <time>2022-04-24T07:32:20.000Z</time>
      </trkpt>
      <trkpt lat="47.3908" lon="-2.12545">
        <ele>66.400001525879</ele>
        <time>2022-04-24T07:32:21.000Z</time>
      </trkpt>
      <trkpt lat="47.39117" lon="-2.12539">
        <ele>66.400001525879</ele>
        <time>2022-04-24T07:32:27.000Z</time>
      </trkpt>
      <trkpt lat="47.39153" lon="-2.12532">
        <ele>66.400001525879</ele>
        <time>2022-04-24T07:32:32.000Z</time>
      </trkpt>
      <trkpt lat="47.39161" lon="-2.1253">
        <ele>66</ele>
        <time>2022-04-24T07:32:33.000Z</time>
      </trkpt>
      <trkpt lat="47.3917" lon="-2.12528">
        <ele>65.599998474121</ele>
        <time>2022-04-24T07:32:34.000Z</time>
      </trkpt>
      <trkpt lat="47.39179" lon="-2.12525">
        <ele>65.199996948242</ele>
        <time>2022-04-24T07:32:35.000Z</time>
      </trkpt>
      <trkpt lat="47.39187" lon="-2.12521">
        <ele>64.800003051758</ele>
        <time>2022-04-24T07:32:36.000Z</time>
      </trkpt>
      <trkpt lat="47.39195" lon="-2.12516">
        <ele>64.400001525879</ele>
        <time>2022-04-24T07:32:37.000Z</time>
      </trkpt>
      <trkpt lat="47.39203" lon="-2.12509">
        <ele>63.799999237061</ele>
        <time>2022-04-24T07:32:38.000Z</time>
      </trkpt>
      <trkpt lat="47.39209" lon="-2.12503">
        <ele>63.400001525879</ele>
        <time>2022-04-24T07:32:39.000Z</time>
      </trkpt>
      <trkpt lat="47.39216" lon="-2.12496">
        <ele>63</ele>
        <time>2022-04-24T07:32:40.000Z</time>
      </trkpt>
      <trkpt lat="47.39222" lon="-2.1249">
        <ele>62.599998474121</ele>
        <time>2022-04-24T07:32:41.000Z</time>
      </trkpt>
      <trkpt lat="47.39228" lon="-2.12485">
        <ele>62.200000762939</ele>
        <time>2022-04-24T07:32:42.000Z</time>
      </trkpt>
      <trkpt lat="47.39247" lon="-2.12466">
        <ele>62.200000762939</ele>
        <time>2022-04-24T07:32:46.000Z</time>
      </trkpt>
      <trkpt lat="47.3925" lon="-2.12463">
        <ele>62.200000762939</ele>
        <time>2022-04-24T07:32:47.000Z</time>
      </trkpt>
      <trkpt lat="47.3926" lon="-2.12461">
        <ele>62.200000762939</ele>
        <time>2022-04-24T07:32:50.000Z</time>
      </trkpt>
      <trkpt lat="47.39264" lon="-2.12462">
        <ele>62.200000762939</ele>
        <time>2022-04-24T07:32:51.000Z</time>
      </trkpt>
      <trkpt lat="47.39285" lon="-2.12468">
        <ele>62.200000762939</ele>
        <time>2022-04-24T07:32:55.000Z</time>
      </trkpt>
      <trkpt lat="47.39327" lon="-2.12474">
        <ele>62.200000762939</ele>
        <time>2022-04-24T07:33:02.000Z</time>
      </trkpt>
      <trkpt lat="47.3937" lon="-2.12478">
        <ele>62.200000762939</ele>
        <time>2022-04-24T07:33:09.000Z</time>
      </trkpt>
      <trkpt lat="47.39411" lon="-2.12474">
        <ele>62.200000762939</ele>
        <time>2022-04-24T07:33:16.000Z</time>
      </trkpt>
      <trkpt lat="47.39443" lon="-2.12471">
        <ele>62.200000762939</ele>
        <time>2022-04-24T07:33:21.000Z</time>
      </trkpt>
      <trkpt lat="47.39478" lon="-2.12477">
        <ele>62.200000762939</ele>
        <time>2022-04-24T07:33:27.000Z</time>
      </trkpt>
      <trkpt lat="47.39518" lon="-2.12485">
        <ele>62.200000762939</ele>
        <time>2022-04-24T07:33:34.000Z</time>
      </trkpt>
      <trkpt lat="47.39524" lon="-2.12485">
        <ele>62.200000762939</ele>
        <time>2022-04-24T07:33:35.000Z</time>
      </trkpt>
      <trkpt lat="47.39554" lon="-2.1248">
        <ele>62.200000762939</ele>
        <time>2022-04-24T07:33:40.000Z</time>
      </trkpt>
      <trkpt lat="47.39587" lon="-2.1246">
        <ele>62.200000762939</ele>
        <time>2022-04-24T07:33:46.000Z</time>
      </trkpt>
      <trkpt lat="47.39592" lon="-2.12457">
        <ele>62.599998474121</ele>
        <time>2022-04-24T07:33:47.000Z</time>
      </trkpt>
      <trkpt lat="47.39597" lon="-2.12454">
        <ele>63</ele>
        <time>2022-04-24T07:33:48.000Z</time>
      </trkpt>
      <trkpt lat="47.39603" lon="-2.1245">
        <ele>63.599998474121</ele>
        <time>2022-04-24T07:33:49.000Z</time>
      </trkpt>
      <trkpt lat="47.39608" lon="-2.12447">
        <ele>64</ele>
        <time>2022-04-24T07:33:50.000Z</time>
      </trkpt>
      <trkpt lat="47.39613" lon="-2.12444">
        <ele>64.400001525879</ele>
        <time>2022-04-24T07:33:51.000Z</time>
      </trkpt>
      <trkpt lat="47.39628" lon="-2.12435">
        <ele>64.400001525879</ele>
        <time>2022-04-24T07:33:54.000Z</time>
      </trkpt>
      <trkpt lat="47.3965" lon="-2.12419">
        <ele>64.400001525879</ele>
        <time>2022-04-24T07:33:59.000Z</time>
      </trkpt>
      <trkpt lat="47.39652" lon="-2.12414">
        <ele>64.400001525879</ele>
        <time>2022-04-24T07:34:00.000Z</time>
      </trkpt>
      <trkpt lat="47.39649" lon="-2.12396">
        <ele>64.400001525879</ele>
        <time>2022-04-24T07:34:03.000Z</time>
      </trkpt>
      <trkpt lat="47.39645" lon="-2.12375">
        <ele>64.400001525879</ele>
        <time>2022-04-24T07:34:06.000Z</time>
      </trkpt>
      <trkpt lat="47.39643" lon="-2.12367">
        <ele>64.400001525879</ele>
        <time>2022-04-24T07:34:07.000Z</time>
      </trkpt>
      <trkpt lat="47.39625" lon="-2.12295">
        <ele>64.400001525879</ele>
        <time>2022-04-24T07:34:15.000Z</time>
      </trkpt>
      <trkpt lat="47.396" lon="-2.12238">
        <ele>64.400001525879</ele>
        <time>2022-04-24T07:34:22.000Z</time>
      </trkpt>
      <trkpt lat="47.39563" lon="-2.12184">
        <ele>64.400001525879</ele>
        <time>2022-04-24T07:34:30.000Z</time>
      </trkpt>
      <trkpt lat="47.39519" lon="-2.12124">
        <ele>64.400001525879</ele>
        <time>2022-04-24T07:34:39.000Z</time>
      </trkpt>
      <trkpt lat="47.39504" lon="-2.12103">
        <ele>64</ele>
        <time>2022-04-24T07:34:42.000Z</time>
      </trkpt>
      <trkpt lat="47.39499" lon="-2.12096">
        <ele>63.599998474121</ele>
        <time>2022-04-24T07:34:43.000Z</time>
      </trkpt>
      <trkpt lat="47.39494" lon="-2.1209">
        <ele>63.200000762939</ele>
        <time>2022-04-24T07:34:44.000Z</time>
      </trkpt>
      <trkpt lat="47.39489" lon="-2.12083">
        <ele>62.799999237061</ele>
        <time>2022-04-24T07:34:45.000Z</time>
      </trkpt>
      <trkpt lat="47.39484" lon="-2.12076">
        <ele>62.400001525879</ele>
        <time>2022-04-24T07:34:46.000Z</time>
      </trkpt>
      <trkpt lat="47.39451" lon="-2.12033">
        <ele>62.400001525879</ele>
        <time>2022-04-24T07:34:53.000Z</time>
      </trkpt>
      <trkpt lat="47.39426" lon="-2.11989">
        <ele>62.400001525879</ele>
        <time>2022-04-24T07:34:59.000Z</time>
      </trkpt>
      <trkpt lat="47.39397" lon="-2.11925">
        <ele>62.400001525879</ele>
        <time>2022-04-24T07:35:07.000Z</time>
      </trkpt>
      <trkpt lat="47.39375" lon="-2.11866">
        <ele>62.400001525879</ele>
        <time>2022-04-24T07:35:14.000Z</time>
      </trkpt>
      <trkpt lat="47.39372" lon="-2.11829">
        <ele>62.400001525879</ele>
        <time>2022-04-24T07:35:18.000Z</time>
      </trkpt>
      <trkpt lat="47.39375" lon="-2.11802">
        <ele>62.400001525879</ele>
        <time>2022-04-24T07:35:21.000Z</time>
      </trkpt>
      <trkpt lat="47.39377" lon="-2.11776">
        <ele>62.400001525879</ele>
        <time>2022-04-24T07:35:24.000Z</time>
      </trkpt>
      <trkpt lat="47.39379" lon="-2.11743">
        <ele>62.400001525879</ele>
        <time>2022-04-24T07:35:29.000Z</time>
      </trkpt>
      <trkpt lat="47.39387" lon="-2.11731">
        <ele>62.400001525879</ele>
        <time>2022-04-24T07:35:32.000Z</time>
      </trkpt>
      <trkpt lat="47.39416" lon="-2.11726">
        <ele>62.400001525879</ele>
        <time>2022-04-24T07:35:37.000Z</time>
      </trkpt>
      <trkpt lat="47.39453" lon="-2.11725">
        <ele>62.400001525879</ele>
        <time>2022-04-24T07:35:43.000Z</time>
      </trkpt>
      <trkpt lat="47.39494" lon="-2.11727">
        <ele>62.400001525879</ele>
        <time>2022-04-24T07:35:50.000Z</time>
      </trkpt>
      <trkpt lat="47.39524" lon="-2.11728">
        <ele>62.400001525879</ele>
        <time>2022-04-24T07:35:56.000Z</time>
      </trkpt>
      <trkpt lat="47.39543" lon="-2.11729">
        <ele>62.799999237061</ele>
        <time>2022-04-24T07:36:00.000Z</time>
      </trkpt>
      <trkpt lat="47.39547" lon="-2.11729">
        <ele>63.200000762939</ele>
        <time>2022-04-24T07:36:01.000Z</time>
      </trkpt>
      <trkpt lat="47.39551" lon="-2.1173">
        <ele>63.599998474121</ele>
        <time>2022-04-24T07:36:02.000Z</time>
      </trkpt>
      <trkpt lat="47.39555" lon="-2.11731">
        <ele>64.199996948242</ele>
        <time>2022-04-24T07:36:03.000Z</time>
      </trkpt>
      <trkpt lat="47.39559" lon="-2.11732">
        <ele>64.599998474121</ele>
        <time>2022-04-24T07:36:04.000Z</time>
      </trkpt>
      <trkpt lat="47.39568" lon="-2.11734">
        <ele>65.400001525879</ele>
        <time>2022-04-24T07:36:06.000Z</time>
      </trkpt>
      <trkpt lat="47.39572" lon="-2.11735">
        <ele>65.800003051758</ele>
        <time>2022-04-24T07:36:07.000Z</time>
      </trkpt>
      <trkpt lat="47.39577" lon="-2.11735">
        <ele>66.400001525879</ele>
        <time>2022-04-24T07:36:08.000Z</time>
      </trkpt>
      <trkpt lat="47.39582" lon="-2.11735">
        <ele>66.800003051758</ele>
        <time>2022-04-24T07:36:09.000Z</time>
      </trkpt>
      <trkpt lat="47.39599" lon="-2.11734">
        <ele>66.800003051758</ele>
        <time>2022-04-24T07:36:12.000Z</time>
      </trkpt>
      <trkpt lat="47.39605" lon="-2.11734">
        <ele>66.800003051758</ele>
        <time>2022-04-24T07:36:13.000Z</time>
      </trkpt>
      <trkpt lat="47.39629" lon="-2.11733">
        <ele>66.800003051758</ele>
        <time>2022-04-24T07:36:17.000Z</time>
      </trkpt>
      <trkpt lat="47.39652" lon="-2.11732">
        <ele>66.800003051758</ele>
        <time>2022-04-24T07:36:21.000Z</time>
      </trkpt>
      <trkpt lat="47.39655" lon="-2.11733">
        <ele>66.800003051758</ele>
        <time>2022-04-24T07:36:22.000Z</time>
      </trkpt>
      <trkpt lat="47.39659" lon="-2.11743">
        <ele>66.800003051758</ele>
        <time>2022-04-24T07:36:25.000Z</time>
      </trkpt>
      <trkpt lat="47.39652" lon="-2.11748">
        <ele>66.800003051758</ele>
        <time>2022-04-24T07:36:28.000Z</time>
      </trkpt>
      <trkpt lat="47.39639" lon="-2.11754">
        <ele>66.800003051758</ele>
        <time>2022-04-24T07:36:32.000Z</time>
      </trkpt>
      <trkpt lat="47.39639" lon="-2.11758">
        <ele>66.800003051758</ele>
        <time>2022-04-24T07:36:33.000Z</time>
      </trkpt>
      <trkpt lat="47.39637" lon="-2.11781">
        <ele>66.800003051758</ele>
        <time>2022-04-24T07:36:37.000Z</time>
      </trkpt>
      <trkpt lat="47.39637" lon="-2.11787">
        <ele>66.800003051758</ele>
        <time>2022-04-24T07:36:38.000Z</time>
      </trkpt>
      <trkpt lat="47.39635" lon="-2.11801">
        <ele>66.800003051758</ele>
        <time>2022-04-24T07:36:41.000Z</time>
      </trkpt>
      <trkpt lat="47.39632" lon="-2.11803">
        <ele>66.800003051758</ele>
        <time>2022-04-24T07:36:42.000Z</time>
      </trkpt>
      <trkpt lat="47.39627" lon="-2.11794">
        <ele>66.800003051758</ele>
        <time>2022-04-24T07:36:45.000Z</time>
      </trkpt>
      <trkpt lat="47.39622" lon="-2.11784">
        <ele>66.800003051758</ele>
        <time>2022-04-24T07:36:48.000Z</time>
      </trkpt>
      <trkpt lat="47.39614" lon="-2.11783">
        <ele>66.800003051758</ele>
        <time>2022-04-24T07:36:51.000Z</time>
      </trkpt>
      <trkpt lat="47.39612" lon="-2.11772">
        <ele>66.800003051758</ele>
        <time>2022-04-24T07:36:54.000Z</time>
      </trkpt>
      <trkpt lat="47.39606" lon="-2.11768">
        <ele>66.800003051758</ele>
        <time>2022-04-24T07:36:57.000Z</time>
      </trkpt>
      <trkpt lat="47.39612" lon="-2.11762">
        <ele>66.800003051758</ele>
        <time>2022-04-24T07:37:00.000Z</time>
      </trkpt>
      <trkpt lat="47.39618" lon="-2.11768">
        <ele>66.800003051758</ele>
        <time>2022-04-24T07:37:02.000Z</time>
      </trkpt>
      <trkpt lat="47.39621" lon="-2.11769">
        <ele>66.800003051758</ele>
        <time>2022-04-24T07:37:03.000Z</time>
      </trkpt>
      <trkpt lat="47.39629" lon="-2.11756">
        <ele>66.800003051758</ele>
        <time>2022-04-24T07:37:06.000Z</time>
      </trkpt>
      <trkpt lat="47.39625" lon="-2.11744">
        <ele>66.800003051758</ele>
        <time>2022-04-24T07:37:09.000Z</time>
      </trkpt>
      <trkpt lat="47.39614" lon="-2.11746">
        <ele>66.800003051758</ele>
        <time>2022-04-24T07:37:12.000Z</time>
      </trkpt>
      <trkpt lat="47.39609" lon="-2.11747">
        <ele>66.800003051758</ele>
        <time>2022-04-24T07:37:13.000Z</time>
      </trkpt>
      <trkpt lat="47.39598" lon="-2.11748">
        <ele>66.800003051758</ele>
        <time>2022-04-24T07:37:16.000Z</time>
      </trkpt>
      <trkpt lat="47.39595" lon="-2.11752">
        <ele>66.800003051758</ele>
        <time>2022-04-24T07:37:17.000Z</time>
      </trkpt>
      <trkpt lat="47.39595" lon="-2.11769">
        <ele>66.800003051758</ele>
        <time>2022-04-24T07:37:20.000Z</time>
      </trkpt>
      <trkpt lat="47.39594" lon="-2.11798">
        <ele>66.800003051758</ele>
        <time>2022-04-24T07:37:25.000Z</time>
      </trkpt>
      <trkpt lat="47.39603" lon="-2.11804">
        <ele>66.800003051758</ele>
        <time>2022-04-24T07:37:28.000Z</time>
      </trkpt>
      <trkpt lat="47.39613" lon="-2.11812">
        <ele>66.800003051758</ele>
        <time>2022-04-24T07:37:31.000Z</time>
      </trkpt>
      <trkpt lat="47.39623" lon="-2.11821">
        <ele>66.800003051758</ele>
        <time>2022-04-24T07:37:34.000Z</time>
      </trkpt>
      <trkpt lat="47.39633" lon="-2.11824">
        <ele>66.800003051758</ele>
        <time>2022-04-24T07:37:37.000Z</time>
      </trkpt>
      <trkpt lat="47.39636" lon="-2.11833">
        <ele>66.800003051758</ele>
        <time>2022-04-24T07:37:39.000Z</time>
      </trkpt>
      <trkpt lat="47.39638" lon="-2.11855">
        <ele>66.800003051758</ele>
        <time>2022-04-24T07:37:43.000Z</time>
      </trkpt>
      <trkpt lat="47.39638" lon="-2.11861">
        <ele>66.800003051758</ele>
        <time>2022-04-24T07:37:44.000Z</time>
      </trkpt>
      <trkpt lat="47.39643" lon="-2.11877">
        <ele>66.800003051758</ele>
        <time>2022-04-24T07:37:47.000Z</time>
      </trkpt>
      <trkpt lat="47.39646" lon="-2.11878">
        <ele>66.800003051758</ele>
        <time>2022-04-24T07:37:48.000Z</time>
      </trkpt>
      <trkpt lat="47.39656" lon="-2.11879">
        <ele>66.800003051758</ele>
        <time>2022-04-24T07:37:51.000Z</time>
      </trkpt>
      <trkpt lat="47.39656" lon="-2.11883">
        <ele>67.199996948242</ele>
        <time>2022-04-24T07:37:52.000Z</time>
      </trkpt>
      <trkpt lat="47.39655" lon="-2.11887">
        <ele>67.599998474121</ele>
        <time>2022-04-24T07:37:53.000Z</time>
      </trkpt>
      <trkpt lat="47.39655" lon="-2.11892">
        <ele>68</ele>
        <time>2022-04-24T07:37:54.000Z</time>
      </trkpt>
      <trkpt lat="47.39655" lon="-2.11897">
        <ele>68.400001525879</ele>
        <time>2022-04-24T07:37:55.000Z</time>
      </trkpt>
      <trkpt lat="47.39655" lon="-2.11903">
        <ele>68.800003051758</ele>
        <time>2022-04-24T07:37:56.000Z</time>
      </trkpt>
      <trkpt lat="47.39657" lon="-2.11907">
        <ele>68.800003051758</ele>
        <time>2022-04-24T07:37:57.000Z</time>
      </trkpt>
      <trkpt lat="47.39662" lon="-2.11903">
        <ele>68.800003051758</ele>
        <time>2022-04-24T07:37:59.000Z</time>
      </trkpt>
      <trkpt lat="47.39669" lon="-2.1189">
        <ele>68.800003051758</ele>
        <time>2022-04-24T07:38:03.000Z</time>
      </trkpt>
      <trkpt lat="47.39673" lon="-2.11881">
        <ele>68.800003051758</ele>
        <time>2022-04-24T07:38:06.000Z</time>
      </trkpt>
      <trkpt lat="47.39677" lon="-2.11876">
        <ele>68.800003051758</ele>
        <time>2022-04-24T07:38:09.000Z</time>
      </trkpt>
      <trkpt lat="47.39686" lon="-2.11885">
        <ele>68.800003051758</ele>
        <time>2022-04-24T07:38:13.000Z</time>
      </trkpt>
      <trkpt lat="47.39698" lon="-2.11889">
        <ele>68.800003051758</ele>
        <time>2022-04-24T07:38:17.000Z</time>
      </trkpt>
      <trkpt lat="47.39703" lon="-2.11891">
        <ele>68.800003051758</ele>
        <time>2022-04-24T07:38:19.000Z</time>
      </trkpt>
      <trkpt lat="47.39707" lon="-2.11897">
        <ele>68.800003051758</ele>
        <time>2022-04-24T07:38:21.000Z</time>
      </trkpt>
      <trkpt lat="47.39706" lon="-2.11905">
        <ele>68.800003051758</ele>
        <time>2022-04-24T07:38:24.000Z</time>
      </trkpt>
      <trkpt lat="47.39695" lon="-2.11899">
        <ele>68.800003051758</ele>
        <time>2022-04-24T07:38:28.000Z</time>
      </trkpt>
      <trkpt lat="47.3969" lon="-2.11905">
        <ele>68.800003051758</ele>
        <time>2022-04-24T07:38:31.000Z</time>
      </trkpt>
      <trkpt lat="47.39695" lon="-2.11913">
        <ele>68.800003051758</ele>
        <time>2022-04-24T07:38:34.000Z</time>
      </trkpt>
      <trkpt lat="47.39697" lon="-2.11915">
        <ele>69.199996948242</ele>
        <time>2022-04-24T07:38:35.000Z</time>
      </trkpt>
      <trkpt lat="47.39698" lon="-2.11918">
        <ele>69.599998474121</ele>
        <time>2022-04-24T07:38:36.000Z</time>
      </trkpt>
      <trkpt lat="47.39699" lon="-2.11923">
        <ele>70</ele>
        <time>2022-04-24T07:38:37.000Z</time>
      </trkpt>
      <trkpt lat="47.39699" lon="-2.11927">
        <ele>70.400001525879</ele>
        <time>2022-04-24T07:38:38.000Z</time>
      </trkpt>
      <trkpt lat="47.39696" lon="-2.11929">
        <ele>71</ele>
        <time>2022-04-24T07:38:39.000Z</time>
      </trkpt>
      <trkpt lat="47.39689" lon="-2.11931">
        <ele>71</ele>
        <time>2022-04-24T07:38:41.000Z</time>
      </trkpt>
      <trkpt lat="47.39679" lon="-2.11939">
        <ele>71</ele>
        <time>2022-04-24T07:38:44.000Z</time>
      </trkpt>
      <trkpt lat="47.39685" lon="-2.11948">
        <ele>71</ele>
        <time>2022-04-24T07:38:47.000Z</time>
      </trkpt>
      <trkpt lat="47.39694" lon="-2.11941">
        <ele>71</ele>
        <time>2022-04-24T07:38:50.000Z</time>
      </trkpt>
      <trkpt lat="47.39703" lon="-2.11944">
        <ele>71</ele>
        <time>2022-04-24T07:38:53.000Z</time>
      </trkpt>
      <trkpt lat="47.39709" lon="-2.11945">
        <ele>71</ele>
        <time>2022-04-24T07:38:55.000Z</time>
      </trkpt>
      <trkpt lat="47.39713" lon="-2.11943">
        <ele>71</ele>
        <time>2022-04-24T07:38:56.000Z</time>
      </trkpt>
      <trkpt lat="47.39717" lon="-2.11926">
        <ele>71</ele>
        <time>2022-04-24T07:38:59.000Z</time>
      </trkpt>
      <trkpt lat="47.39724" lon="-2.11907">
        <ele>71</ele>
        <time>2022-04-24T07:39:03.000Z</time>
      </trkpt>
      <trkpt lat="47.39727" lon="-2.11895">
        <ele>71</ele>
        <time>2022-04-24T07:39:06.000Z</time>
      </trkpt>
      <trkpt lat="47.39734" lon="-2.11871">
        <ele>71</ele>
        <time>2022-04-24T07:39:11.000Z</time>
      </trkpt>
      <trkpt lat="47.39739" lon="-2.11876">
        <ele>71</ele>
        <time>2022-04-24T07:39:13.000Z</time>
      </trkpt>
      <trkpt lat="47.39742" lon="-2.11881">
        <ele>71</ele>
        <time>2022-04-24T07:39:14.000Z</time>
      </trkpt>
      <trkpt lat="47.39747" lon="-2.11886">
        <ele>71</ele>
        <time>2022-04-24T07:39:16.000Z</time>
      </trkpt>
      <trkpt lat="47.39752" lon="-2.11874">
        <ele>71</ele>
        <time>2022-04-24T07:39:19.000Z</time>
      </trkpt>
      <trkpt lat="47.39762" lon="-2.11866">
        <ele>71</ele>
        <time>2022-04-24T07:39:23.000Z</time>
      </trkpt>
      <trkpt lat="47.39767" lon="-2.11865">
        <ele>70</ele>
        <time>2022-04-24T07:39:24.000Z</time>
      </trkpt>
      <trkpt lat="47.39772" lon="-2.11865">
        <ele>69.599998474121</ele>
        <time>2022-04-24T07:39:25.000Z</time>
      </trkpt>
      <trkpt lat="47.39778" lon="-2.11865">
        <ele>69.199996948242</ele>
        <time>2022-04-24T07:39:26.000Z</time>
      </trkpt>
      <trkpt lat="47.39784" lon="-2.11865">
        <ele>68.800003051758</ele>
        <time>2022-04-24T07:39:27.000Z</time>
      </trkpt>
      <trkpt lat="47.39802" lon="-2.11868">
        <ele>68.199996948242</ele>
        <time>2022-04-24T07:39:30.000Z</time>
      </trkpt>
      <trkpt lat="47.39806" lon="-2.1187">
        <ele>67.800003051758</ele>
        <time>2022-04-24T07:39:31.000Z</time>
      </trkpt>
      <trkpt lat="47.39808" lon="-2.11873">
        <ele>67.400001525879</ele>
        <time>2022-04-24T07:39:32.000Z</time>
      </trkpt>
      <trkpt lat="47.3981" lon="-2.11875">
        <ele>67</ele>
        <time>2022-04-24T07:39:33.000Z</time>
      </trkpt>
      <trkpt lat="47.39812" lon="-2.11876">
        <ele>66.400001525879</ele>
        <time>2022-04-24T07:39:34.000Z</time>
      </trkpt>
      <trkpt lat="47.39817" lon="-2.1187">
        <ele>66.400001525879</ele>
        <time>2022-04-24T07:39:37.000Z</time>
      </trkpt>
      <trkpt lat="47.39819" lon="-2.11869">
        <ele>66</ele>
        <time>2022-04-24T07:39:38.000Z</time>
      </trkpt>
      <trkpt lat="47.39821" lon="-2.11869">
        <ele>65.599998474121</ele>
        <time>2022-04-24T07:39:39.000Z</time>
      </trkpt>
      <trkpt lat="47.39823" lon="-2.1187">
        <ele>65.199996948242</ele>
        <time>2022-04-24T07:39:40.000Z</time>
      </trkpt>
      <trkpt lat="47.39825" lon="-2.11871">
        <ele>64.800003051758</ele>
        <time>2022-04-24T07:39:41.000Z</time>
      </trkpt>
      <trkpt lat="47.39828" lon="-2.11872">
        <ele>64.400001525879</ele>
        <time>2022-04-24T07:39:42.000Z</time>
      </trkpt>
      <trkpt lat="47.39836" lon="-2.11872">
        <ele>64.400001525879</ele>
        <time>2022-04-24T07:39:45.000Z</time>
      </trkpt>
      <trkpt lat="47.39843" lon="-2.11871">
        <ele>64.400001525879</ele>
        <time>2022-04-24T07:39:49.000Z</time>
      </trkpt>
      <trkpt lat="47.39845" lon="-2.11873">
        <ele>64.400001525879</ele>
        <time>2022-04-24T07:39:50.000Z</time>
      </trkpt>
      <trkpt lat="47.39848" lon="-2.11881">
        <ele>64.400001525879</ele>
        <time>2022-04-24T07:39:53.000Z</time>
      </trkpt>
      <trkpt lat="47.39852" lon="-2.11889">
        <ele>64.400001525879</ele>
        <time>2022-04-24T07:39:56.000Z</time>
      </trkpt>
      <trkpt lat="47.39865" lon="-2.11899">
        <ele>64.400001525879</ele>
        <time>2022-04-24T07:40:00.000Z</time>
      </trkpt>
      <trkpt lat="47.39871" lon="-2.11899">
        <ele>64</ele>
        <time>2022-04-24T07:40:02.000Z</time>
      </trkpt>
      <trkpt lat="47.39874" lon="-2.11898">
        <ele>63.599998474121</ele>
        <time>2022-04-24T07:40:03.000Z</time>
      </trkpt>
      <trkpt lat="47.39877" lon="-2.11897">
        <ele>63.200000762939</ele>
        <time>2022-04-24T07:40:04.000Z</time>
      </trkpt>
      <trkpt lat="47.3988" lon="-2.11895">
        <ele>62.799999237061</ele>
        <time>2022-04-24T07:40:05.000Z</time>
      </trkpt>
      <trkpt lat="47.39882" lon="-2.11893">
        <ele>62.400001525879</ele>
        <time>2022-04-24T07:40:06.000Z</time>
      </trkpt>
      <trkpt lat="47.39891" lon="-2.1189">
        <ele>62.400001525879</ele>
        <time>2022-04-24T07:40:10.000Z</time>
      </trkpt>
      <trkpt lat="47.39896" lon="-2.11897">
        <ele>62.400001525879</ele>
        <time>2022-04-24T07:40:15.000Z</time>
      </trkpt>
      <trkpt lat="47.39894" lon="-2.11908">
        <ele>62.400001525879</ele>
        <time>2022-04-24T07:40:21.000Z</time>
      </trkpt>
      <trkpt lat="47.39894" lon="-2.11925">
        <ele>62.400001525879</ele>
        <time>2022-04-24T07:40:25.000Z</time>
      </trkpt>
      <trkpt lat="47.39894" lon="-2.1193">
        <ele>62.400001525879</ele>
        <time>2022-04-24T07:40:26.000Z</time>
      </trkpt>
      <trkpt lat="47.39898" lon="-2.11954">
        <ele>62.400001525879</ele>
        <time>2022-04-24T07:40:31.000Z</time>
      </trkpt>
      <trkpt lat="47.39899" lon="-2.11996">
        <ele>62.400001525879</ele>
        <time>2022-04-24T07:40:37.000Z</time>
      </trkpt>
      <trkpt lat="47.39899" lon="-2.12005">
        <ele>62.400001525879</ele>
        <time>2022-04-24T07:40:39.000Z</time>
      </trkpt>
      <trkpt lat="47.39896" lon="-2.1201">
        <ele>62.400001525879</ele>
        <time>2022-04-24T07:40:41.000Z</time>
      </trkpt>
      <trkpt lat="47.39887" lon="-2.12008">
        <ele>62.400001525879</ele>
        <time>2022-04-24T07:40:45.000Z</time>
      </trkpt>
      <trkpt lat="47.39882" lon="-2.12003">
        <ele>62.400001525879</ele>
        <time>2022-04-24T07:40:48.000Z</time>
      </trkpt>
      <trkpt lat="47.39882" lon="-2.12001">
        <ele>62.400001525879</ele>
        <time>2022-04-24T07:40:49.000Z</time>
      </trkpt>
      <trkpt lat="47.39887" lon="-2.11985">
        <ele>62.400001525879</ele>
        <time>2022-04-24T07:40:53.000Z</time>
      </trkpt>
      <trkpt lat="47.39886" lon="-2.1198">
        <ele>62.400001525879</ele>
        <time>2022-04-24T07:40:54.000Z</time>
      </trkpt>
      <trkpt lat="47.39881" lon="-2.11975">
        <ele>62.400001525879</ele>
        <time>2022-04-24T07:40:57.000Z</time>
      </trkpt>
      <trkpt lat="47.39879" lon="-2.11975">
        <ele>62.400001525879</ele>
        <time>2022-04-24T07:40:58.000Z</time>
      </trkpt>
      <trkpt lat="47.39873" lon="-2.11972">
        <ele>62.400001525879</ele>
        <time>2022-04-24T07:41:01.000Z</time>
      </trkpt>
      <trkpt lat="47.39873" lon="-2.11967">
        <ele>62.400001525879</ele>
        <time>2022-04-24T07:41:04.000Z</time>
      </trkpt>
      <trkpt lat="47.39875" lon="-2.11966">
        <ele>62.400001525879</ele>
        <time>2022-04-24T07:41:05.000Z</time>
      </trkpt>
      <trkpt lat="47.39879" lon="-2.11963">
        <ele>62.400001525879</ele>
        <time>2022-04-24T07:41:10.000Z</time>
      </trkpt>
      <trkpt lat="47.3988" lon="-2.11956">
        <ele>62.400001525879</ele>
        <time>2022-04-24T07:41:17.000Z</time>
      </trkpt>
      <trkpt lat="47.39876" lon="-2.11947">
        <ele>62.400001525879</ele>
        <time>2022-04-24T07:41:21.000Z</time>
      </trkpt>
      <trkpt lat="47.39874" lon="-2.11947">
        <ele>62.400001525879</ele>
        <time>2022-04-24T07:41:22.000Z</time>
      </trkpt>
      <trkpt lat="47.39861" lon="-2.11944">
        <ele>62.400001525879</ele>
        <time>2022-04-24T07:41:27.000Z</time>
      </trkpt>
      <trkpt lat="47.39855" lon="-2.11942">
        <ele>62.400001525879</ele>
        <time>2022-04-24T07:41:30.000Z</time>
      </trkpt>
      <trkpt lat="47.39853" lon="-2.11944">
        <ele>62.400001525879</ele>
        <time>2022-04-24T07:41:31.000Z</time>
      </trkpt>
      <trkpt lat="47.39851" lon="-2.11956">
        <ele>62.400001525879</ele>
        <time>2022-04-24T07:41:34.000Z</time>
      </trkpt>
      <trkpt lat="47.39853" lon="-2.11973">
        <ele>62.400001525879</ele>
        <time>2022-04-24T07:41:37.000Z</time>
      </trkpt>
      <trkpt lat="47.39855" lon="-2.11985">
        <ele>62.400001525879</ele>
        <time>2022-04-24T07:41:39.000Z</time>
      </trkpt>
      <trkpt lat="47.39861" lon="-2.12002">
        <ele>62.400001525879</ele>
        <time>2022-04-24T07:41:43.000Z</time>
      </trkpt>
      <trkpt lat="47.39858" lon="-2.12008">
        <ele>62.799999237061</ele>
        <time>2022-04-24T07:41:46.000Z</time>
      </trkpt>
      <trkpt lat="47.39856" lon="-2.12008">
        <ele>63.200000762939</ele>
        <time>2022-04-24T07:41:47.000Z</time>
      </trkpt>
      <trkpt lat="47.39853" lon="-2.12007">
        <ele>63.599998474121</ele>
        <time>2022-04-24T07:41:48.000Z</time>
      </trkpt>
      <trkpt lat="47.3985" lon="-2.12004">
        <ele>64</ele>
        <time>2022-04-24T07:41:49.000Z</time>
      </trkpt>
      <trkpt lat="47.39848" lon="-2.12">
        <ele>64.400001525879</ele>
        <time>2022-04-24T07:41:50.000Z</time>
      </trkpt>
      <trkpt lat="47.39845" lon="-2.11995">
        <ele>64.400001525879</ele>
        <time>2022-04-24T07:41:51.000Z</time>
      </trkpt>
      <trkpt lat="47.39843" lon="-2.1199">
        <ele>64.400001525879</ele>
        <time>2022-04-24T07:41:52.000Z</time>
      </trkpt>
      <trkpt lat="47.39839" lon="-2.11976">
        <ele>64.400001525879</ele>
        <time>2022-04-24T07:41:55.000Z</time>
      </trkpt>
      <trkpt lat="47.39839" lon="-2.11973">
        <ele>64.400001525879</ele>
        <time>2022-04-24T07:41:56.000Z</time>
      </trkpt>
      <trkpt lat="47.39837" lon="-2.11956">
        <ele>64.400001525879</ele>
        <time>2022-04-24T07:42:00.000Z</time>
      </trkpt>
      <trkpt lat="47.39826" lon="-2.11933">
        <ele>64.400001525879</ele>
        <time>2022-04-24T07:42:05.000Z</time>
      </trkpt>
      <trkpt lat="47.39824" lon="-2.1192">
        <ele>64.400001525879</ele>
        <time>2022-04-24T07:42:08.000Z</time>
      </trkpt>
      <trkpt lat="47.39837" lon="-2.119">
        <ele>64.400001525879</ele>
        <time>2022-04-24T07:42:12.000Z</time>
      </trkpt>
      <trkpt lat="47.39841" lon="-2.1189">
        <ele>64.400001525879</ele>
        <time>2022-04-24T07:42:15.000Z</time>
      </trkpt>
      <trkpt lat="47.39839" lon="-2.1189">
        <ele>64.400001525879</ele>
        <time>2022-04-24T07:42:16.000Z</time>
      </trkpt>
      <trkpt lat="47.39838" lon="-2.11892">
        <ele>64.400001525879</ele>
        <time>2022-04-24T07:42:18.000Z</time>
      </trkpt>
      <trkpt lat="47.39836" lon="-2.11892">
        <ele>64.400001525879</ele>
        <time>2022-04-24T07:42:19.000Z</time>
      </trkpt>
      <trkpt lat="47.3983" lon="-2.11887">
        <ele>64.400001525879</ele>
        <time>2022-04-24T07:42:22.000Z</time>
      </trkpt>
      <trkpt lat="47.39823" lon="-2.11885">
        <ele>64.400001525879</ele>
        <time>2022-04-24T07:42:24.000Z</time>
      </trkpt>
      <trkpt lat="47.39809" lon="-2.11886">
        <ele>64.800003051758</ele>
        <time>2022-04-24T07:42:28.000Z</time>
      </trkpt>
      <trkpt lat="47.39806" lon="-2.11887">
        <ele>65.199996948242</ele>
        <time>2022-04-24T07:42:29.000Z</time>
      </trkpt>
      <trkpt lat="47.39803" lon="-2.11886">
        <ele>65.599998474121</ele>
        <time>2022-04-24T07:42:30.000Z</time>
      </trkpt>
      <trkpt lat="47.398" lon="-2.11885">
        <ele>66</ele>
        <time>2022-04-24T07:42:31.000Z</time>
      </trkpt>
      <trkpt lat="47.39797" lon="-2.11883">
        <ele>66.400001525879</ele>
        <time>2022-04-24T07:42:32.000Z</time>
      </trkpt>
      <trkpt lat="47.39794" lon="-2.11882">
        <ele>66.400001525879</ele>
        <time>2022-04-24T07:42:33.000Z</time>
      </trkpt>
      <trkpt lat="47.3979" lon="-2.11883">
        <ele>66.400001525879</ele>
        <time>2022-04-24T07:42:34.000Z</time>
      </trkpt>
      <trkpt lat="47.3978" lon="-2.11886">
        <ele>66.400001525879</ele>
        <time>2022-04-24T07:42:37.000Z</time>
      </trkpt>
      <trkpt lat="47.39772" lon="-2.11887">
        <ele>66.400001525879</ele>
        <time>2022-04-24T07:42:41.000Z</time>
      </trkpt>
      <trkpt lat="47.39772" lon="-2.11889">
        <ele>67.199996948242</ele>
        <time>2022-04-24T07:42:46.000Z</time>
      </trkpt>
      <trkpt lat="47.39772" lon="-2.1189">
        <ele>67.599998474121</ele>
        <time>2022-04-24T07:42:47.000Z</time>
      </trkpt>
      <trkpt lat="47.39773" lon="-2.11891">
        <ele>68</ele>
        <time>2022-04-24T07:42:48.000Z</time>
      </trkpt>
      <trkpt lat="47.39775" lon="-2.11891">
        <ele>68.599998474121</ele>
        <time>2022-04-24T07:42:49.000Z</time>
      </trkpt>
      <trkpt lat="47.39783" lon="-2.11895">
        <ele>68.599998474121</ele>
        <time>2022-04-24T07:42:52.000Z</time>
      </trkpt>
      <trkpt lat="47.39791" lon="-2.11897">
        <ele>68.599998474121</ele>
        <time>2022-04-24T07:42:55.000Z</time>
      </trkpt>
      <trkpt lat="47.39793" lon="-2.11897">
        <ele>68.599998474121</ele>
        <time>2022-04-24T07:42:56.000Z</time>
      </trkpt>
      <trkpt lat="47.39802" lon="-2.11904">
        <ele>68.599998474121</ele>
        <time>2022-04-24T07:42:59.000Z</time>
      </trkpt>
      <trkpt lat="47.39804" lon="-2.11908">
        <ele>68</ele>
        <time>2022-04-24T07:43:00.000Z</time>
      </trkpt>
      <trkpt lat="47.39805" lon="-2.11911">
        <ele>67.599998474121</ele>
        <time>2022-04-24T07:43:01.000Z</time>
      </trkpt>
      <trkpt lat="47.39803" lon="-2.11914">
        <ele>67.199996948242</ele>
        <time>2022-04-24T07:43:02.000Z</time>
      </trkpt>
      <trkpt lat="47.398" lon="-2.11915">
        <ele>66.800003051758</ele>
        <time>2022-04-24T07:43:03.000Z</time>
      </trkpt>
      <trkpt lat="47.39796" lon="-2.11916">
        <ele>66.400001525879</ele>
        <time>2022-04-24T07:43:04.000Z</time>
      </trkpt>
      <trkpt lat="47.39793" lon="-2.11914">
        <ele>66.400001525879</ele>
        <time>2022-04-24T07:43:05.000Z</time>
      </trkpt>
      <trkpt lat="47.3978" lon="-2.11907">
        <ele>66.400001525879</ele>
        <time>2022-04-24T07:43:09.000Z</time>
      </trkpt>
      <trkpt lat="47.39772" lon="-2.11909">
        <ele>66.400001525879</ele>
        <time>2022-04-24T07:43:12.000Z</time>
      </trkpt>
      <trkpt lat="47.3977" lon="-2.11908">
        <ele>66.800003051758</ele>
        <time>2022-04-24T07:43:13.000Z</time>
      </trkpt>
      <trkpt lat="47.39769" lon="-2.11908">
        <ele>67.199996948242</ele>
        <time>2022-04-24T07:43:14.000Z</time>
      </trkpt>
      <trkpt lat="47.39767" lon="-2.11908">
        <ele>67.599998474121</ele>
        <time>2022-04-24T07:43:15.000Z</time>
      </trkpt>
      <trkpt lat="47.39764" lon="-2.11911">
        <ele>68.199996948242</ele>
        <time>2022-04-24T07:43:16.000Z</time>
      </trkpt>
      <trkpt lat="47.39761" lon="-2.11912">
        <ele>68.599998474121</ele>
        <time>2022-04-24T07:43:17.000Z</time>
      </trkpt>
      <trkpt lat="47.39756" lon="-2.11919">
        <ele>68.599998474121</ele>
        <time>2022-04-24T07:43:19.000Z</time>
      </trkpt>
      <trkpt lat="47.39752" lon="-2.11936">
        <ele>68.599998474121</ele>
        <time>2022-04-24T07:43:23.000Z</time>
      </trkpt>
      <trkpt lat="47.39743" lon="-2.11938">
        <ele>68.599998474121</ele>
        <time>2022-04-24T07:43:26.000Z</time>
      </trkpt>
      <trkpt lat="47.39739" lon="-2.11939">
        <ele>68.599998474121</ele>
        <time>2022-04-24T07:43:27.000Z</time>
      </trkpt>
      <trkpt lat="47.39736" lon="-2.11938">
        <ele>69</ele>
        <time>2022-04-24T07:43:28.000Z</time>
      </trkpt>
      <trkpt lat="47.39733" lon="-2.11936">
        <ele>69.400001525879</ele>
        <time>2022-04-24T07:43:29.000Z</time>
      </trkpt>
      <trkpt lat="47.39731" lon="-2.11932">
        <ele>69.800003051758</ele>
        <time>2022-04-24T07:43:30.000Z</time>
      </trkpt>
      <trkpt lat="47.39729" lon="-2.11929">
        <ele>70.599998474121</ele>
        <time>2022-04-24T07:43:31.000Z</time>
      </trkpt>
      <trkpt lat="47.39723" lon="-2.11932">
        <ele>70.599998474121</ele>
        <time>2022-04-24T07:43:33.000Z</time>
      </trkpt>
      <trkpt lat="47.39717" lon="-2.11949">
        <ele>70.599998474121</ele>
        <time>2022-04-24T07:43:37.000Z</time>
      </trkpt>
      <trkpt lat="47.39706" lon="-2.11955">
        <ele>70.599998474121</ele>
        <time>2022-04-24T07:43:40.000Z</time>
      </trkpt>
      <trkpt lat="47.39703" lon="-2.11966">
        <ele>70.599998474121</ele>
        <time>2022-04-24T07:43:43.000Z</time>
      </trkpt>
      <trkpt lat="47.39712" lon="-2.11969">
        <ele>70.599998474121</ele>
        <time>2022-04-24T07:43:46.000Z</time>
      </trkpt>
      <trkpt lat="47.39722" lon="-2.11961">
        <ele>70.599998474121</ele>
        <time>2022-04-24T07:43:49.000Z</time>
      </trkpt>
      <trkpt lat="47.3973" lon="-2.11958">
        <ele>70.599998474121</ele>
        <time>2022-04-24T07:43:51.000Z</time>
      </trkpt>
      <trkpt lat="47.39738" lon="-2.11964">
        <ele>70.599998474121</ele>
        <time>2022-04-24T07:43:54.000Z</time>
      </trkpt>
      <trkpt lat="47.39735" lon="-2.11979">
        <ele>70.599998474121</ele>
        <time>2022-04-24T07:43:57.000Z</time>
      </trkpt>
      <trkpt lat="47.3973" lon="-2.11996">
        <ele>70.599998474121</ele>
        <time>2022-04-24T07:44:00.000Z</time>
      </trkpt>
      <trkpt lat="47.39729" lon="-2.12002">
        <ele>70.599998474121</ele>
        <time>2022-04-24T07:44:01.000Z</time>
      </trkpt>
      <trkpt lat="47.39723" lon="-2.12018">
        <ele>70.599998474121</ele>
        <time>2022-04-24T07:44:05.000Z</time>
      </trkpt>
      <trkpt lat="47.39715" lon="-2.12028">
        <ele>70.599998474121</ele>
        <time>2022-04-24T07:44:08.000Z</time>
      </trkpt>
      <trkpt lat="47.39707" lon="-2.12038">
        <ele>70.599998474121</ele>
        <time>2022-04-24T07:44:11.000Z</time>
      </trkpt>
      <trkpt lat="47.39703" lon="-2.12039">
        <ele>70.599998474121</ele>
        <time>2022-04-24T07:44:12.000Z</time>
      </trkpt>
      <trkpt lat="47.39694" lon="-2.12039">
        <ele>70.599998474121</ele>
        <time>2022-04-24T07:44:14.000Z</time>
      </trkpt>
      <trkpt lat="47.39683" lon="-2.12036">
        <ele>70.599998474121</ele>
        <time>2022-04-24T07:44:16.000Z</time>
      </trkpt>
      <trkpt lat="47.39672" lon="-2.1204">
        <ele>70.599998474121</ele>
        <time>2022-04-24T07:44:19.000Z</time>
      </trkpt>
      <trkpt lat="47.3967" lon="-2.12044">
        <ele>70.199996948242</ele>
        <time>2022-04-24T07:44:20.000Z</time>
      </trkpt>
      <trkpt lat="47.39669" lon="-2.12049">
        <ele>69.800003051758</ele>
        <time>2022-04-24T07:44:21.000Z</time>
      </trkpt>
      <trkpt lat="47.39668" lon="-2.12055">
        <ele>69.400001525879</ele>
        <time>2022-04-24T07:44:22.000Z</time>
      </trkpt>
      <trkpt lat="47.39669" lon="-2.12059">
        <ele>69</ele>
        <time>2022-04-24T07:44:23.000Z</time>
      </trkpt>
      <trkpt lat="47.39671" lon="-2.1206">
        <ele>68.599998474121</ele>
        <time>2022-04-24T07:44:24.000Z</time>
      </trkpt>
      <trkpt lat="47.39674" lon="-2.12059">
        <ele>68.599998474121</ele>
        <time>2022-04-24T07:44:25.000Z</time>
      </trkpt>
      <trkpt lat="47.39684" lon="-2.12055">
        <ele>68.599998474121</ele>
        <time>2022-04-24T07:44:28.000Z</time>
      </trkpt>
      <trkpt lat="47.39688" lon="-2.12056">
        <ele>68.599998474121</ele>
        <time>2022-04-24T07:44:29.000Z</time>
      </trkpt>
      <trkpt lat="47.39699" lon="-2.12052">
        <ele>68.599998474121</ele>
        <time>2022-04-24T07:44:33.000Z</time>
      </trkpt>
      <trkpt lat="47.39701" lon="-2.12048">
        <ele>68.599998474121</ele>
        <time>2022-04-24T07:44:34.000Z</time>
      </trkpt>
      <trkpt lat="47.39703" lon="-2.12047">
        <ele>68.599998474121</ele>
        <time>2022-04-24T07:44:35.000Z</time>
      </trkpt>
      <trkpt lat="47.39705" lon="-2.12048">
        <ele>68.599998474121</ele>
        <time>2022-04-24T07:44:36.000Z</time>
      </trkpt>
      <trkpt lat="47.39705" lon="-2.12059">
        <ele>68.599998474121</ele>
        <time>2022-04-24T07:44:39.000Z</time>
      </trkpt>
      <trkpt lat="47.39705" lon="-2.12063">
        <ele>69</ele>
        <time>2022-04-24T07:44:40.000Z</time>
      </trkpt>
      <trkpt lat="47.39705" lon="-2.12067">
        <ele>69.400001525879</ele>
        <time>2022-04-24T07:44:41.000Z</time>
      </trkpt>
      <trkpt lat="47.39705" lon="-2.1207">
        <ele>69.800003051758</ele>
        <time>2022-04-24T07:44:42.000Z</time>
      </trkpt>
      <trkpt lat="47.39704" lon="-2.12072">
        <ele>70.199996948242</ele>
        <time>2022-04-24T07:44:43.000Z</time>
      </trkpt>
      <trkpt lat="47.39702" lon="-2.12074">
        <ele>70.599998474121</ele>
        <time>2022-04-24T07:44:44.000Z</time>
      </trkpt>
      <trkpt lat="47.39694" lon="-2.12071">
        <ele>70.599998474121</ele>
        <time>2022-04-24T07:44:47.000Z</time>
      </trkpt>
      <trkpt lat="47.39692" lon="-2.1207">
        <ele>70.599998474121</ele>
        <time>2022-04-24T07:44:48.000Z</time>
      </trkpt>
      <trkpt lat="47.3969" lon="-2.12069">
        <ele>70.599998474121</ele>
        <time>2022-04-24T07:44:49.000Z</time>
      </trkpt>
      <trkpt lat="47.39687" lon="-2.1207">
        <ele>70.599998474121</ele>
        <time>2022-04-24T07:44:50.000Z</time>
      </trkpt>
      <trkpt lat="47.3967" lon="-2.12076">
        <ele>70.599998474121</ele>
        <time>2022-04-24T07:44:55.000Z</time>
      </trkpt>
      <trkpt lat="47.39666" lon="-2.12089">
        <ele>70.599998474121</ele>
        <time>2022-04-24T07:44:59.000Z</time>
      </trkpt>
      <trkpt lat="47.39662" lon="-2.12103">
        <ele>70.599998474121</ele>
        <time>2022-04-24T07:45:03.000Z</time>
      </trkpt>
      <trkpt lat="47.39661" lon="-2.12109">
        <ele>70.599998474121</ele>
        <time>2022-04-24T07:45:05.000Z</time>
      </trkpt>
      <trkpt lat="47.39662" lon="-2.12111">
        <ele>70.599998474121</ele>
        <time>2022-04-24T07:45:06.000Z</time>
      </trkpt>
      <trkpt lat="47.39676" lon="-2.12128">
        <ele>70.599998474121</ele>
        <time>2022-04-24T07:45:12.000Z</time>
      </trkpt>
      <trkpt lat="47.39683" lon="-2.12136">
        <ele>70.599998474121</ele>
        <time>2022-04-24T07:45:15.000Z</time>
      </trkpt>
      <trkpt lat="47.39685" lon="-2.12135">
        <ele>70.599998474121</ele>
        <time>2022-04-24T07:45:16.000Z</time>
      </trkpt>
      <trkpt lat="47.39698" lon="-2.12134">
        <ele>70.599998474121</ele>
        <time>2022-04-24T07:45:21.000Z</time>
      </trkpt>
      <trkpt lat="47.39711" lon="-2.12132">
        <ele>70.599998474121</ele>
        <time>2022-04-24T07:45:25.000Z</time>
      </trkpt>
      <trkpt lat="47.39714" lon="-2.12131">
        <ele>70.599998474121</ele>
        <time>2022-04-24T07:45:26.000Z</time>
      </trkpt>
      <trkpt lat="47.39723" lon="-2.12122">
        <ele>70.599998474121</ele>
        <time>2022-04-24T07:45:30.000Z</time>
      </trkpt>
      <trkpt lat="47.39718" lon="-2.12116">
        <ele>70.599998474121</ele>
        <time>2022-04-24T07:45:34.000Z</time>
      </trkpt>
      <trkpt lat="47.39708" lon="-2.12114">
        <ele>70.599998474121</ele>
        <time>2022-04-24T07:45:37.000Z</time>
      </trkpt>
      <trkpt lat="47.39705" lon="-2.12115">
        <ele>70.599998474121</ele>
        <time>2022-04-24T07:45:38.000Z</time>
      </trkpt>
      <trkpt lat="47.39698" lon="-2.12118">
        <ele>70.599998474121</ele>
        <time>2022-04-24T07:45:40.000Z</time>
      </trkpt>
      <trkpt lat="47.39693" lon="-2.12121">
        <ele>70.599998474121</ele>
        <time>2022-04-24T07:45:42.000Z</time>
      </trkpt>
      <trkpt lat="47.39684" lon="-2.12115">
        <ele>70.599998474121</ele>
        <time>2022-04-24T07:45:45.000Z</time>
      </trkpt>
      <trkpt lat="47.39682" lon="-2.12112">
        <ele>70.599998474121</ele>
        <time>2022-04-24T07:45:46.000Z</time>
      </trkpt>
      <trkpt lat="47.39679" lon="-2.12105">
        <ele>70.599998474121</ele>
        <time>2022-04-24T07:45:49.000Z</time>
      </trkpt>
      <trkpt lat="47.39685" lon="-2.12099">
        <ele>70.599998474121</ele>
        <time>2022-04-24T07:45:53.000Z</time>
      </trkpt>
      <trkpt lat="47.39701" lon="-2.12101">
        <ele>70.599998474121</ele>
        <time>2022-04-24T07:45:58.000Z</time>
      </trkpt>
      <trkpt lat="47.39704" lon="-2.12102">
        <ele>70.599998474121</ele>
        <time>2022-04-24T07:45:59.000Z</time>
      </trkpt>
      <trkpt lat="47.39713" lon="-2.12098">
        <ele>70.599998474121</ele>
        <time>2022-04-24T07:46:02.000Z</time>
      </trkpt>
      <trkpt lat="47.39723" lon="-2.12093">
        <ele>70.599998474121</ele>
        <time>2022-04-24T07:46:06.000Z</time>
      </trkpt>
      <trkpt lat="47.39733" lon="-2.12087">
        <ele>70.599998474121</ele>
        <time>2022-04-24T07:46:10.000Z</time>
      </trkpt>
      <trkpt lat="47.39733" lon="-2.12072">
        <ele>70.599998474121</ele>
        <time>2022-04-24T07:46:14.000Z</time>
      </trkpt>
      <trkpt lat="47.3973" lon="-2.12066">
        <ele>70.599998474121</ele>
        <time>2022-04-24T07:46:17.000Z</time>
      </trkpt>
      <trkpt lat="47.39726" lon="-2.12068">
        <ele>70.599998474121</ele>
        <time>2022-04-24T07:46:18.000Z</time>
      </trkpt>
      <trkpt lat="47.39718" lon="-2.12067">
        <ele>70.599998474121</ele>
        <time>2022-04-24T07:46:21.000Z</time>
      </trkpt>
      <trkpt lat="47.39721" lon="-2.12059">
        <ele>70.599998474121</ele>
        <time>2022-04-24T07:46:24.000Z</time>
      </trkpt>
      <trkpt lat="47.39725" lon="-2.12047">
        <ele>70.599998474121</ele>
        <time>2022-04-24T07:46:28.000Z</time>
      </trkpt>
      <trkpt lat="47.3973" lon="-2.12043">
        <ele>70.599998474121</ele>
        <time>2022-04-24T07:46:30.000Z</time>
      </trkpt>
      <trkpt lat="47.39734" lon="-2.12035">
        <ele>70.599998474121</ele>
        <time>2022-04-24T07:46:32.000Z</time>
      </trkpt>
      <trkpt lat="47.39734" lon="-2.1203">
        <ele>70.599998474121</ele>
        <time>2022-04-24T07:46:33.000Z</time>
      </trkpt>
      <trkpt lat="47.39732" lon="-2.12021">
        <ele>70.599998474121</ele>
        <time>2022-04-24T07:46:35.000Z</time>
      </trkpt>
      <trkpt lat="47.39732" lon="-2.12005">
        <ele>70.599998474121</ele>
        <time>2022-04-24T07:46:39.000Z</time>
      </trkpt>
      <trkpt lat="47.39734" lon="-2.12">
        <ele>70.599998474121</ele>
        <time>2022-04-24T07:46:40.000Z</time>
      </trkpt>
      <trkpt lat="47.39743" lon="-2.1199">
        <ele>70.599998474121</ele>
        <time>2022-04-24T07:46:44.000Z</time>
      </trkpt>
      <trkpt lat="47.39753" lon="-2.11998">
        <ele>70.599998474121</ele>
        <time>2022-04-24T07:46:48.000Z</time>
      </trkpt>
      <trkpt lat="47.39762" lon="-2.11998">
        <ele>70.599998474121</ele>
        <time>2022-04-24T07:46:52.000Z</time>
      </trkpt>
      <trkpt lat="47.39761" lon="-2.12008">
        <ele>70.599998474121</ele>
        <time>2022-04-24T07:46:55.000Z</time>
      </trkpt>
      <trkpt lat="47.39758" lon="-2.12015">
        <ele>70.599998474121</ele>
        <time>2022-04-24T07:46:57.000Z</time>
      </trkpt>
      <trkpt lat="47.39754" lon="-2.12024">
        <ele>70.599998474121</ele>
        <time>2022-04-24T07:47:00.000Z</time>
      </trkpt>
      <trkpt lat="47.39743" lon="-2.12036">
        <ele>70.599998474121</ele>
        <time>2022-04-24T07:47:04.000Z</time>
      </trkpt>
      <trkpt lat="47.39736" lon="-2.12043">
        <ele>70.599998474121</ele>
        <time>2022-04-24T07:47:07.000Z</time>
      </trkpt>
      <trkpt lat="47.39735" lon="-2.12049">
        <ele>70.599998474121</ele>
        <time>2022-04-24T07:47:09.000Z</time>
      </trkpt>
      <trkpt lat="47.39735" lon="-2.12063">
        <ele>70.599998474121</ele>
        <time>2022-04-24T07:47:13.000Z</time>
      </trkpt>
      <trkpt lat="47.39736" lon="-2.12068">
        <ele>70.599998474121</ele>
        <time>2022-04-24T07:47:14.000Z</time>
      </trkpt>
      <trkpt lat="47.39739" lon="-2.12083">
        <ele>70.599998474121</ele>
        <time>2022-04-24T07:47:19.000Z</time>
      </trkpt>
      <trkpt lat="47.39741" lon="-2.1208">
        <ele>70.599998474121</ele>
        <time>2022-04-24T07:47:21.000Z</time>
      </trkpt>
      <trkpt lat="47.39742" lon="-2.12078">
        <ele>70.599998474121</ele>
        <time>2022-04-24T07:47:22.000Z</time>
      </trkpt>
      <trkpt lat="47.3975" lon="-2.12059">
        <ele>70.599998474121</ele>
        <time>2022-04-24T07:47:28.000Z</time>
      </trkpt>
      <trkpt lat="47.3976" lon="-2.12047">
        <ele>70.599998474121</ele>
        <time>2022-04-24T07:47:33.000Z</time>
      </trkpt>
      <trkpt lat="47.39763" lon="-2.12043">
        <ele>70.599998474121</ele>
        <time>2022-04-24T07:47:35.000Z</time>
      </trkpt>
      <trkpt lat="47.39768" lon="-2.12037">
        <ele>70.599998474121</ele>
        <time>2022-04-24T07:47:38.000Z</time>
      </trkpt>
      <trkpt lat="47.39772" lon="-2.12023">
        <ele>70.599998474121</ele>
        <time>2022-04-24T07:47:42.000Z</time>
      </trkpt>
      <trkpt lat="47.39772" lon="-2.1202">
        <ele>70.599998474121</ele>
        <time>2022-04-24T07:47:43.000Z</time>
      </trkpt>
      <trkpt lat="47.39774" lon="-2.12007">
        <ele>70.599998474121</ele>
        <time>2022-04-24T07:47:47.000Z</time>
      </trkpt>
      <trkpt lat="47.39773" lon="-2.12004">
        <ele>70.599998474121</ele>
        <time>2022-04-24T07:47:49.000Z</time>
      </trkpt>
      <trkpt lat="47.39771" lon="-2.11993">
        <ele>70.599998474121</ele>
        <time>2022-04-24T07:47:52.000Z</time>
      </trkpt>
      <trkpt lat="47.39771" lon="-2.11985">
        <ele>70.199996948242</ele>
        <time>2022-04-24T07:47:54.000Z</time>
      </trkpt>
      <trkpt lat="47.3977" lon="-2.11981">
        <ele>69.800003051758</ele>
        <time>2022-04-24T07:47:55.000Z</time>
      </trkpt>
      <trkpt lat="47.39771" lon="-2.11976">
        <ele>69.400001525879</ele>
        <time>2022-04-24T07:47:56.000Z</time>
      </trkpt>
      <trkpt lat="47.3977" lon="-2.11972">
        <ele>69</ele>
        <time>2022-04-24T07:47:57.000Z</time>
      </trkpt>
      <trkpt lat="47.39769" lon="-2.11968">
        <ele>68.599998474121</ele>
        <time>2022-04-24T07:47:58.000Z</time>
      </trkpt>
      <trkpt lat="47.39767" lon="-2.11958">
        <ele>68.599998474121</ele>
        <time>2022-04-24T07:48:02.000Z</time>
      </trkpt>
      <trkpt lat="47.3977" lon="-2.11956">
        <ele>68.599998474121</ele>
        <time>2022-04-24T07:48:03.000Z</time>
      </trkpt>
      <trkpt lat="47.39785" lon="-2.11955">
        <ele>68.599998474121</ele>
        <time>2022-04-24T07:48:07.000Z</time>
      </trkpt>
      <trkpt lat="47.39788" lon="-2.1196">
        <ele>68.599998474121</ele>
        <time>2022-04-24T07:48:09.000Z</time>
      </trkpt>
      <trkpt lat="47.39787" lon="-2.11963">
        <ele>68.599998474121</ele>
        <time>2022-04-24T07:48:10.000Z</time>
      </trkpt>
      <trkpt lat="47.39787" lon="-2.11975">
        <ele>68.599998474121</ele>
        <time>2022-04-24T07:48:13.000Z</time>
      </trkpt>
      <trkpt lat="47.39787" lon="-2.11989">
        <ele>68.599998474121</ele>
        <time>2022-04-24T07:48:16.000Z</time>
      </trkpt>
      <trkpt lat="47.39793" lon="-2.11993">
        <ele>68.599998474121</ele>
        <time>2022-04-24T07:48:19.000Z</time>
      </trkpt>
      <trkpt lat="47.39805" lon="-2.11993">
        <ele>68.599998474121</ele>
        <time>2022-04-24T07:48:22.000Z</time>
      </trkpt>
      <trkpt lat="47.39807" lon="-2.11996">
        <ele>68.199996948242</ele>
        <time>2022-04-24T07:48:23.000Z</time>
      </trkpt>
      <trkpt lat="47.39807" lon="-2.12001">
        <ele>67.599998474121</ele>
        <time>2022-04-24T07:48:24.000Z</time>
      </trkpt>
      <trkpt lat="47.39808" lon="-2.12007">
        <ele>67.199996948242</ele>
        <time>2022-04-24T07:48:25.000Z</time>
      </trkpt>
      <trkpt lat="47.39809" lon="-2.12013">
        <ele>66.800003051758</ele>
        <time>2022-04-24T07:48:26.000Z</time>
      </trkpt>
      <trkpt lat="47.3981" lon="-2.12019">
        <ele>66.400001525879</ele>
        <time>2022-04-24T07:48:27.000Z</time>
      </trkpt>
      <trkpt lat="47.39811" lon="-2.12025">
        <ele>66.400001525879</ele>
        <time>2022-04-24T07:48:28.000Z</time>
      </trkpt>
      <trkpt lat="47.39814" lon="-2.12036">
        <ele>66.400001525879</ele>
        <time>2022-04-24T07:48:30.000Z</time>
      </trkpt>
      <trkpt lat="47.39819" lon="-2.12061">
        <ele>66.400001525879</ele>
        <time>2022-04-24T07:48:36.000Z</time>
      </trkpt>
      <trkpt lat="47.39821" lon="-2.12064">
        <ele>66.400001525879</ele>
        <time>2022-04-24T07:48:37.000Z</time>
      </trkpt>
      <trkpt lat="47.39825" lon="-2.12069">
        <ele>66.400001525879</ele>
        <time>2022-04-24T07:48:39.000Z</time>
      </trkpt>
      <trkpt lat="47.39833" lon="-2.12084">
        <ele>66.400001525879</ele>
        <time>2022-04-24T07:48:44.000Z</time>
      </trkpt>
      <trkpt lat="47.39829" lon="-2.121">
        <ele>66.400001525879</ele>
        <time>2022-04-24T07:48:48.000Z</time>
      </trkpt>
      <trkpt lat="47.3982" lon="-2.12101">
        <ele>66.400001525879</ele>
        <time>2022-04-24T07:48:51.000Z</time>
      </trkpt>
      <trkpt lat="47.39814" lon="-2.121">
        <ele>66.400001525879</ele>
        <time>2022-04-24T07:48:52.000Z</time>
      </trkpt>
      <trkpt lat="47.39808" lon="-2.12104">
        <ele>66.400001525879</ele>
        <time>2022-04-24T07:48:54.000Z</time>
      </trkpt>
      <trkpt lat="47.39806" lon="-2.12105">
        <ele>66.400001525879</ele>
        <time>2022-04-24T07:48:55.000Z</time>
      </trkpt>
      <trkpt lat="47.39801" lon="-2.12101">
        <ele>66.400001525879</ele>
        <time>2022-04-24T07:48:57.000Z</time>
      </trkpt>
      <trkpt lat="47.3979" lon="-2.1209">
        <ele>66.400001525879</ele>
        <time>2022-04-24T07:49:02.000Z</time>
      </trkpt>
      <trkpt lat="47.39782" lon="-2.12079">
        <ele>66.400001525879</ele>
        <time>2022-04-24T07:49:06.000Z</time>
      </trkpt>
      <trkpt lat="47.39778" lon="-2.12078">
        <ele>66.400001525879</ele>
        <time>2022-04-24T07:49:07.000Z</time>
      </trkpt>
      <trkpt lat="47.39771" lon="-2.12078">
        <ele>66.400001525879</ele>
        <time>2022-04-24T07:49:09.000Z</time>
      </trkpt>
      <trkpt lat="47.39767" lon="-2.12075">
        <ele>66.400001525879</ele>
        <time>2022-04-24T07:49:11.000Z</time>
      </trkpt>
      <trkpt lat="47.39764" lon="-2.12071">
        <ele>66.400001525879</ele>
        <time>2022-04-24T07:49:14.000Z</time>
      </trkpt>
      <trkpt lat="47.39764" lon="-2.12071">
        <ele>66.400001525879</ele>
        <time>2022-04-24T07:49:15.000Z</time>
      </trkpt>
      <trkpt lat="47.39766" lon="-2.12069">
        <ele>66.400001525879</ele>
        <time>2022-04-24T07:49:20.000Z</time>
      </trkpt>
      <trkpt lat="47.39771" lon="-2.12065">
        <ele>66.400001525879</ele>
        <time>2022-04-24T07:49:22.000Z</time>
      </trkpt>
      <trkpt lat="47.39773" lon="-2.12059">
        <ele>66.400001525879</ele>
        <time>2022-04-24T07:49:24.000Z</time>
      </trkpt>
      <trkpt lat="47.39773" lon="-2.1205">
        <ele>66.400001525879</ele>
        <time>2022-04-24T07:49:26.000Z</time>
      </trkpt>
      <trkpt lat="47.39769" lon="-2.12042">
        <ele>66.400001525879</ele>
        <time>2022-04-24T07:49:29.000Z</time>
      </trkpt>
      <trkpt lat="47.39764" lon="-2.12042">
        <ele>66.800003051758</ele>
        <time>2022-04-24T07:49:32.000Z</time>
      </trkpt>
      <trkpt lat="47.39764" lon="-2.12044">
        <ele>67.199996948242</ele>
        <time>2022-04-24T07:49:33.000Z</time>
      </trkpt>
      <trkpt lat="47.39763" lon="-2.12046">
        <ele>67.599998474121</ele>
        <time>2022-04-24T07:49:34.000Z</time>
      </trkpt>
      <trkpt lat="47.39763" lon="-2.12048">
        <ele>68</ele>
        <time>2022-04-24T07:49:35.000Z</time>
      </trkpt>
      <trkpt lat="47.39762" lon="-2.12049">
        <ele>68.400001525879</ele>
        <time>2022-04-24T07:49:36.000Z</time>
      </trkpt>
      <trkpt lat="47.39759" lon="-2.12053">
        <ele>68.400001525879</ele>
        <time>2022-04-24T07:49:40.000Z</time>
      </trkpt>
      <trkpt lat="47.39758" lon="-2.12066">
        <ele>68.400001525879</ele>
        <time>2022-04-24T07:49:44.000Z</time>
      </trkpt>
      <trkpt lat="47.39763" lon="-2.12072">
        <ele>68.400001525879</ele>
        <time>2022-04-24T07:49:46.000Z</time>
      </trkpt>
      <trkpt lat="47.39767" lon="-2.12076">
        <ele>68.400001525879</ele>
        <time>2022-04-24T07:49:47.000Z</time>
      </trkpt>
      <trkpt lat="47.39777" lon="-2.12086">
        <ele>68.400001525879</ele>
        <time>2022-04-24T07:49:50.000Z</time>
      </trkpt>
      <trkpt lat="47.39778" lon="-2.12089">
        <ele>68.400001525879</ele>
        <time>2022-04-24T07:49:51.000Z</time>
      </trkpt>
      <trkpt lat="47.39775" lon="-2.12093">
        <ele>68.400001525879</ele>
        <time>2022-04-24T07:49:53.000Z</time>
      </trkpt>
      <trkpt lat="47.39766" lon="-2.12093">
        <ele>68.400001525879</ele>
        <time>2022-04-24T07:49:57.000Z</time>
      </trkpt>
      <trkpt lat="47.39758" lon="-2.12093">
        <ele>68.400001525879</ele>
        <time>2022-04-24T07:49:59.000Z</time>
      </trkpt>
      <trkpt lat="47.39747" lon="-2.12097">
        <ele>68.400001525879</ele>
        <time>2022-04-24T07:50:02.000Z</time>
      </trkpt>
      <trkpt lat="47.39744" lon="-2.12099">
        <ele>68.400001525879</ele>
        <time>2022-04-24T07:50:03.000Z</time>
      </trkpt>
      <trkpt lat="47.39737" lon="-2.12106">
        <ele>68.800003051758</ele>
        <time>2022-04-24T07:50:06.000Z</time>
      </trkpt>
      <trkpt lat="47.39734" lon="-2.12109">
        <ele>69.599998474121</ele>
        <time>2022-04-24T07:50:07.000Z</time>
      </trkpt>
      <trkpt lat="47.39732" lon="-2.12113">
        <ele>70</ele>
        <time>2022-04-24T07:50:08.000Z</time>
      </trkpt>
      <trkpt lat="47.39731" lon="-2.12116">
        <ele>70.400001525879</ele>
        <time>2022-04-24T07:50:09.000Z</time>
      </trkpt>
      <trkpt lat="47.39731" lon="-2.12119">
        <ele>70.400001525879</ele>
        <time>2022-04-24T07:50:10.000Z</time>
      </trkpt>
      <trkpt lat="47.39739" lon="-2.12123">
        <ele>70.400001525879</ele>
        <time>2022-04-24T07:50:14.000Z</time>
      </trkpt>
      <trkpt lat="47.39747" lon="-2.12116">
        <ele>70.400001525879</ele>
        <time>2022-04-24T07:50:18.000Z</time>
      </trkpt>
      <trkpt lat="47.3975" lon="-2.12118">
        <ele>70</ele>
        <time>2022-04-24T07:50:19.000Z</time>
      </trkpt>
      <trkpt lat="47.39754" lon="-2.12117">
        <ele>69.599998474121</ele>
        <time>2022-04-24T07:50:20.000Z</time>
      </trkpt>
      <trkpt lat="47.39756" lon="-2.12116">
        <ele>69.199996948242</ele>
        <time>2022-04-24T07:50:21.000Z</time>
      </trkpt>
      <trkpt lat="47.39758" lon="-2.12115">
        <ele>68.800003051758</ele>
        <time>2022-04-24T07:50:22.000Z</time>
      </trkpt>
      <trkpt lat="47.3976" lon="-2.12114">
        <ele>68.400001525879</ele>
        <time>2022-04-24T07:50:23.000Z</time>
      </trkpt>
      <trkpt lat="47.39765" lon="-2.12112">
        <ele>68.400001525879</ele>
        <time>2022-04-24T07:50:25.000Z</time>
      </trkpt>
      <trkpt lat="47.39766" lon="-2.12114">
        <ele>68.400001525879</ele>
        <time>2022-04-24T07:50:26.000Z</time>
      </trkpt>
      <trkpt lat="47.39767" lon="-2.12126">
        <ele>68.400001525879</ele>
        <time>2022-04-24T07:50:30.000Z</time>
      </trkpt>
      <trkpt lat="47.39762" lon="-2.12129">
        <ele>68.400001525879</ele>
        <time>2022-04-24T07:50:32.000Z</time>
      </trkpt>
      <trkpt lat="47.39757" lon="-2.12133">
        <ele>68.400001525879</ele>
        <time>2022-04-24T07:50:34.000Z</time>
      </trkpt>
      <trkpt lat="47.39754" lon="-2.12135">
        <ele>68.400001525879</ele>
        <time>2022-04-24T07:50:35.000Z</time>
      </trkpt>
      <trkpt lat="47.39745" lon="-2.1214">
        <ele>68.400001525879</ele>
        <time>2022-04-24T07:50:38.000Z</time>
      </trkpt>
      <trkpt lat="47.39739" lon="-2.12139">
        <ele>68.400001525879</ele>
        <time>2022-04-24T07:50:42.000Z</time>
      </trkpt>
      <trkpt lat="47.39739" lon="-2.12139">
        <ele>67.800003051758</ele>
        <time>2022-04-24T07:50:43.000Z</time>
      </trkpt>
      <trkpt lat="47.39739" lon="-2.12138">
        <ele>67.400001525879</ele>
        <time>2022-04-24T07:50:44.000Z</time>
      </trkpt>
      <trkpt lat="47.39739" lon="-2.12138">
        <ele>66.800003051758</ele>
        <time>2022-04-24T07:50:45.000Z</time>
      </trkpt>
      <trkpt lat="47.39739" lon="-2.12137">
        <ele>67.199996948242</ele>
        <time>2022-04-24T07:50:46.000Z</time>
      </trkpt>
      <trkpt lat="47.39738" lon="-2.12136">
        <ele>67.599998474121</ele>
        <time>2022-04-24T07:50:47.000Z</time>
      </trkpt>
      <trkpt lat="47.39737" lon="-2.12136">
        <ele>68</ele>
        <time>2022-04-24T07:50:48.000Z</time>
      </trkpt>
      <trkpt lat="47.39735" lon="-2.12136">
        <ele>68.400001525879</ele>
        <time>2022-04-24T07:50:49.000Z</time>
      </trkpt>
      <trkpt lat="47.39733" lon="-2.12138">
        <ele>68.800003051758</ele>
        <time>2022-04-24T07:50:50.000Z</time>
      </trkpt>
      <trkpt lat="47.39728" lon="-2.1214">
        <ele>68.800003051758</ele>
        <time>2022-04-24T07:50:52.000Z</time>
      </trkpt>
      <trkpt lat="47.39725" lon="-2.1214">
        <ele>68.800003051758</ele>
        <time>2022-04-24T07:50:53.000Z</time>
      </trkpt>
      <trkpt lat="47.39713" lon="-2.12142">
        <ele>68.800003051758</ele>
        <time>2022-04-24T07:50:57.000Z</time>
      </trkpt>
      <trkpt lat="47.39697" lon="-2.12146">
        <ele>68.800003051758</ele>
        <time>2022-04-24T07:51:02.000Z</time>
      </trkpt>
      <trkpt lat="47.39692" lon="-2.12149">
        <ele>68.800003051758</ele>
        <time>2022-04-24T07:51:04.000Z</time>
      </trkpt>
      <trkpt lat="47.39685" lon="-2.12149">
        <ele>68.800003051758</ele>
        <time>2022-04-24T07:51:06.000Z</time>
      </trkpt>
      <trkpt lat="47.3968" lon="-2.12149">
        <ele>68.800003051758</ele>
        <time>2022-04-24T07:51:08.000Z</time>
      </trkpt>
      <trkpt lat="47.39676" lon="-2.12156">
        <ele>68.800003051758</ele>
        <time>2022-04-24T07:51:10.000Z</time>
      </trkpt>
      <trkpt lat="47.3967" lon="-2.12162">
        <ele>68.800003051758</ele>
        <time>2022-04-24T07:51:12.000Z</time>
      </trkpt>
      <trkpt lat="47.39664" lon="-2.1216">
        <ele>68.800003051758</ele>
        <time>2022-04-24T07:51:14.000Z</time>
      </trkpt>
      <trkpt lat="47.39658" lon="-2.12148">
        <ele>68.800003051758</ele>
        <time>2022-04-24T07:51:17.000Z</time>
      </trkpt>
      <trkpt lat="47.39656" lon="-2.12144">
        <ele>68.800003051758</ele>
        <time>2022-04-24T07:51:18.000Z</time>
      </trkpt>
      <trkpt lat="47.3965" lon="-2.12134">
        <ele>68.800003051758</ele>
        <time>2022-04-24T07:51:21.000Z</time>
      </trkpt>
      <trkpt lat="47.39639" lon="-2.12121">
        <ele>68.800003051758</ele>
        <time>2022-04-24T07:51:26.000Z</time>
      </trkpt>
      <trkpt lat="47.39637" lon="-2.12121">
        <ele>68.800003051758</ele>
        <time>2022-04-24T07:51:27.000Z</time>
      </trkpt>
      <trkpt lat="47.39636" lon="-2.12121">
        <ele>68.800003051758</ele>
        <time>2022-04-24T07:51:29.000Z</time>
      </trkpt>
      <trkpt lat="47.39636" lon="-2.1212">
        <ele>68.800003051758</ele>
        <time>2022-04-24T07:51:30.000Z</time>
      </trkpt>
      <trkpt lat="47.39635" lon="-2.12119">
        <ele>66.800003051758</ele>
        <time>2022-04-24T07:58:16.000Z</time>
      </trkpt>
      <trkpt lat="47.39636" lon="-2.12118">
        <ele>66.800003051758</ele>
        <time>2022-04-24T07:58:17.000Z</time>
      </trkpt>
      <trkpt lat="47.39642" lon="-2.12102">
        <ele>66.800003051758</ele>
        <time>2022-04-24T07:58:24.000Z</time>
      </trkpt>
      <trkpt lat="47.39646" lon="-2.12095">
        <ele>66.800003051758</ele>
        <time>2022-04-24T07:58:28.000Z</time>
      </trkpt>
      <trkpt lat="47.3965" lon="-2.1208">
        <ele>66.800003051758</ele>
        <time>2022-04-24T07:58:32.000Z</time>
      </trkpt>
      <trkpt lat="47.39642" lon="-2.12077">
        <ele>66.800003051758</ele>
        <time>2022-04-24T07:58:35.000Z</time>
      </trkpt>
      <trkpt lat="47.39633" lon="-2.12073">
        <ele>66.800003051758</ele>
        <time>2022-04-24T07:58:39.000Z</time>
      </trkpt>
      <trkpt lat="47.39637" lon="-2.12056">
        <ele>66.800003051758</ele>
        <time>2022-04-24T07:58:42.000Z</time>
      </trkpt>
      <trkpt lat="47.39646" lon="-2.12057">
        <ele>66.800003051758</ele>
        <time>2022-04-24T07:58:45.000Z</time>
      </trkpt>
      <trkpt lat="47.39654" lon="-2.12049">
        <ele>66.800003051758</ele>
        <time>2022-04-24T07:58:48.000Z</time>
      </trkpt>
      <trkpt lat="47.3965" lon="-2.12035">
        <ele>66.800003051758</ele>
        <time>2022-04-24T07:58:51.000Z</time>
      </trkpt>
      <trkpt lat="47.39641" lon="-2.12036">
        <ele>66.800003051758</ele>
        <time>2022-04-24T07:58:53.000Z</time>
      </trkpt>
      <trkpt lat="47.39637" lon="-2.12035">
        <ele>66.800003051758</ele>
        <time>2022-04-24T07:58:54.000Z</time>
      </trkpt>
      <trkpt lat="47.39631" lon="-2.12027">
        <ele>66.800003051758</ele>
        <time>2022-04-24T07:58:56.000Z</time>
      </trkpt>
      <trkpt lat="47.39637" lon="-2.12012">
        <ele>66.800003051758</ele>
        <time>2022-04-24T07:58:59.000Z</time>
      </trkpt>
      <trkpt lat="47.39642" lon="-2.1202">
        <ele>66.800003051758</ele>
        <time>2022-04-24T07:59:01.000Z</time>
      </trkpt>
      <trkpt lat="47.39644" lon="-2.12024">
        <ele>66.800003051758</ele>
        <time>2022-04-24T07:59:02.000Z</time>
      </trkpt>
      <trkpt lat="47.39648" lon="-2.12024">
        <ele>66.800003051758</ele>
        <time>2022-04-24T07:59:03.000Z</time>
      </trkpt>
      <trkpt lat="47.39652" lon="-2.12023">
        <ele>66.800003051758</ele>
        <time>2022-04-24T07:59:04.000Z</time>
      </trkpt>
      <trkpt lat="47.39665" lon="-2.12015">
        <ele>66.800003051758</ele>
        <time>2022-04-24T07:59:08.000Z</time>
      </trkpt>
      <trkpt lat="47.39666" lon="-2.12011">
        <ele>66.800003051758</ele>
        <time>2022-04-24T07:59:09.000Z</time>
      </trkpt>
      <trkpt lat="47.39669" lon="-2.12001">
        <ele>66.800003051758</ele>
        <time>2022-04-24T07:59:12.000Z</time>
      </trkpt>
      <trkpt lat="47.39673" lon="-2.12004">
        <ele>66.800003051758</ele>
        <time>2022-04-24T07:59:15.000Z</time>
      </trkpt>
      <trkpt lat="47.3968" lon="-2.12012">
        <ele>66.800003051758</ele>
        <time>2022-04-24T07:59:19.000Z</time>
      </trkpt>
      <trkpt lat="47.39683" lon="-2.12012">
        <ele>66.800003051758</ele>
        <time>2022-04-24T07:59:20.000Z</time>
      </trkpt>
      <trkpt lat="47.39693" lon="-2.12007">
        <ele>66.800003051758</ele>
        <time>2022-04-24T07:59:23.000Z</time>
      </trkpt>
      <trkpt lat="47.39692" lon="-2.12">
        <ele>66.800003051758</ele>
        <time>2022-04-24T07:59:25.000Z</time>
      </trkpt>
      <trkpt lat="47.39691" lon="-2.11996">
        <ele>67.199996948242</ele>
        <time>2022-04-24T07:59:26.000Z</time>
      </trkpt>
      <trkpt lat="47.39689" lon="-2.11992">
        <ele>67.599998474121</ele>
        <time>2022-04-24T07:59:27.000Z</time>
      </trkpt>
      <trkpt lat="47.39687" lon="-2.11988">
        <ele>68</ele>
        <time>2022-04-24T07:59:28.000Z</time>
      </trkpt>
      <trkpt lat="47.39682" lon="-2.1199">
        <ele>68.400001525879</ele>
        <time>2022-04-24T07:59:29.000Z</time>
      </trkpt>
      <trkpt lat="47.39678" lon="-2.11992">
        <ele>68.800003051758</ele>
        <time>2022-04-24T07:59:30.000Z</time>
      </trkpt>
      <trkpt lat="47.39666" lon="-2.11993">
        <ele>68.800003051758</ele>
        <time>2022-04-24T07:59:33.000Z</time>
      </trkpt>
      <trkpt lat="47.39654" lon="-2.12008">
        <ele>68.800003051758</ele>
        <time>2022-04-24T07:59:37.000Z</time>
      </trkpt>
      <trkpt lat="47.39643" lon="-2.12008">
        <ele>68.400001525879</ele>
        <time>2022-04-24T07:59:40.000Z</time>
      </trkpt>
      <trkpt lat="47.3964" lon="-2.12004">
        <ele>68</ele>
        <time>2022-04-24T07:59:41.000Z</time>
      </trkpt>
      <trkpt lat="47.39638" lon="-2.12001">
        <ele>67.400001525879</ele>
        <time>2022-04-24T07:59:42.000Z</time>
      </trkpt>
      <trkpt lat="47.39636" lon="-2.11998">
        <ele>67</ele>
        <time>2022-04-24T07:59:43.000Z</time>
      </trkpt>
      <trkpt lat="47.39637" lon="-2.11995">
        <ele>66.599998474121</ele>
        <time>2022-04-24T07:59:44.000Z</time>
      </trkpt>
      <trkpt lat="47.39636" lon="-2.11975">
        <ele>66.599998474121</ele>
        <time>2022-04-24T07:59:48.000Z</time>
      </trkpt>
      <trkpt lat="47.39644" lon="-2.11959">
        <ele>66.599998474121</ele>
        <time>2022-04-24T07:59:52.000Z</time>
      </trkpt>
      <trkpt lat="47.39658" lon="-2.1195">
        <ele>66.599998474121</ele>
        <time>2022-04-24T07:59:56.000Z</time>
      </trkpt>
      <trkpt lat="47.39664" lon="-2.11936">
        <ele>66.599998474121</ele>
        <time>2022-04-24T07:59:59.000Z</time>
      </trkpt>
      <trkpt lat="47.39658" lon="-2.11927">
        <ele>66.599998474121</ele>
        <time>2022-04-24T08:00:02.000Z</time>
      </trkpt>
      <trkpt lat="47.39651" lon="-2.11934">
        <ele>66.599998474121</ele>
        <time>2022-04-24T08:00:04.000Z</time>
      </trkpt>
      <trkpt lat="47.39636" lon="-2.11933">
        <ele>66.599998474121</ele>
        <time>2022-04-24T08:00:08.000Z</time>
      </trkpt>
      <trkpt lat="47.39633" lon="-2.11914">
        <ele>66.599998474121</ele>
        <time>2022-04-24T08:00:11.000Z</time>
      </trkpt>
      <trkpt lat="47.39633" lon="-2.11907">
        <ele>66.599998474121</ele>
        <time>2022-04-24T08:00:12.000Z</time>
      </trkpt>
      <trkpt lat="47.39631" lon="-2.11893">
        <ele>66.599998474121</ele>
        <time>2022-04-24T08:00:14.000Z</time>
      </trkpt>
      <trkpt lat="47.39631" lon="-2.11872">
        <ele>66.599998474121</ele>
        <time>2022-04-24T08:00:17.000Z</time>
      </trkpt>
      <trkpt lat="47.39619" lon="-2.11867">
        <ele>66.599998474121</ele>
        <time>2022-04-24T08:00:20.000Z</time>
      </trkpt>
      <trkpt lat="47.39614" lon="-2.11869">
        <ele>66.599998474121</ele>
        <time>2022-04-24T08:00:21.000Z</time>
      </trkpt>
      <trkpt lat="47.39589" lon="-2.11872">
        <ele>66.599998474121</ele>
        <time>2022-04-24T08:00:26.000Z</time>
      </trkpt>
      <trkpt lat="47.39578" lon="-2.11867">
        <ele>66.599998474121</ele>
        <time>2022-04-24T08:00:29.000Z</time>
      </trkpt>
      <trkpt lat="47.39578" lon="-2.11862">
        <ele>66.599998474121</ele>
        <time>2022-04-24T08:00:30.000Z</time>
      </trkpt>
      <trkpt lat="47.39588" lon="-2.11857">
        <ele>66.599998474121</ele>
        <time>2022-04-24T08:00:33.000Z</time>
      </trkpt>
      <trkpt lat="47.39596" lon="-2.11851">
        <ele>66.599998474121</ele>
        <time>2022-04-24T08:00:35.000Z</time>
      </trkpt>
      <trkpt lat="47.396" lon="-2.11846">
        <ele>66.599998474121</ele>
        <time>2022-04-24T08:00:36.000Z</time>
      </trkpt>
      <trkpt lat="47.39602" lon="-2.11839">
        <ele>66.599998474121</ele>
        <time>2022-04-24T08:00:37.000Z</time>
      </trkpt>
      <trkpt lat="47.39597" lon="-2.11829">
        <ele>66.599998474121</ele>
        <time>2022-04-24T08:00:39.000Z</time>
      </trkpt>
      <trkpt lat="47.39584" lon="-2.11828">
        <ele>66.599998474121</ele>
        <time>2022-04-24T08:00:42.000Z</time>
      </trkpt>
      <trkpt lat="47.39582" lon="-2.11812">
        <ele>66.599998474121</ele>
        <time>2022-04-24T08:00:45.000Z</time>
      </trkpt>
      <trkpt lat="47.39583" lon="-2.11791">
        <ele>66.599998474121</ele>
        <time>2022-04-24T08:00:48.000Z</time>
      </trkpt>
      <trkpt lat="47.39584" lon="-2.11784">
        <ele>66.599998474121</ele>
        <time>2022-04-24T08:00:49.000Z</time>
      </trkpt>
      <trkpt lat="47.39585" lon="-2.11771">
        <ele>66.599998474121</ele>
        <time>2022-04-24T08:00:51.000Z</time>
      </trkpt>
      <trkpt lat="47.3958" lon="-2.11762">
        <ele>66.599998474121</ele>
        <time>2022-04-24T08:00:53.000Z</time>
      </trkpt>
      <trkpt lat="47.39576" lon="-2.11749">
        <ele>66.599998474121</ele>
        <time>2022-04-24T08:00:56.000Z</time>
      </trkpt>
      <trkpt lat="47.39575" lon="-2.1174">
        <ele>66.599998474121</ele>
        <time>2022-04-24T08:00:58.000Z</time>
      </trkpt>
      <trkpt lat="47.39565" lon="-2.11736">
        <ele>66.599998474121</ele>
        <time>2022-04-24T08:01:01.000Z</time>
      </trkpt>
      <trkpt lat="47.39544" lon="-2.11738">
        <ele>66.599998474121</ele>
        <time>2022-04-24T08:01:06.000Z</time>
      </trkpt>
      <trkpt lat="47.39526" lon="-2.11733">
        <ele>66.599998474121</ele>
        <time>2022-04-24T08:01:09.000Z</time>
      </trkpt>
      <trkpt lat="47.3952" lon="-2.11732">
        <ele>66.599998474121</ele>
        <time>2022-04-24T08:01:10.000Z</time>
      </trkpt>
      <trkpt lat="47.39513" lon="-2.11732">
        <ele>66.199996948242</ele>
        <time>2022-04-24T08:01:11.000Z</time>
      </trkpt>
      <trkpt lat="47.39506" lon="-2.11731">
        <ele>65.800003051758</ele>
        <time>2022-04-24T08:01:12.000Z</time>
      </trkpt>
      <trkpt lat="47.39498" lon="-2.11731">
        <ele>65.400001525879</ele>
        <time>2022-04-24T08:01:13.000Z</time>
      </trkpt>
      <trkpt lat="47.39491" lon="-2.1173">
        <ele>64.599998474121</ele>
        <time>2022-04-24T08:01:14.000Z</time>
      </trkpt>
      <trkpt lat="47.39469" lon="-2.11729">
        <ele>64.199996948242</ele>
        <time>2022-04-24T08:01:17.000Z</time>
      </trkpt>
      <trkpt lat="47.39462" lon="-2.11728">
        <ele>63.799999237061</ele>
        <time>2022-04-24T08:01:18.000Z</time>
      </trkpt>
      <trkpt lat="47.39455" lon="-2.11727">
        <ele>63.400001525879</ele>
        <time>2022-04-24T08:01:19.000Z</time>
      </trkpt>
      <trkpt lat="47.39449" lon="-2.11727">
        <ele>62.799999237061</ele>
        <time>2022-04-24T08:01:20.000Z</time>
      </trkpt>
      <trkpt lat="47.39441" lon="-2.11727">
        <ele>62.400001525879</ele>
        <time>2022-04-24T08:01:21.000Z</time>
      </trkpt>
      <trkpt lat="47.39428" lon="-2.11727">
        <ele>62.400001525879</ele>
        <time>2022-04-24T08:01:23.000Z</time>
      </trkpt>
      <trkpt lat="47.39386" lon="-2.11728">
        <ele>62.400001525879</ele>
        <time>2022-04-24T08:01:30.000Z</time>
      </trkpt>
      <trkpt lat="47.39378" lon="-2.11724">
        <ele>62.400001525879</ele>
        <time>2022-04-24T08:01:32.000Z</time>
      </trkpt>
      <trkpt lat="47.39372" lon="-2.11713">
        <ele>62.400001525879</ele>
        <time>2022-04-24T08:01:34.000Z</time>
      </trkpt>
      <trkpt lat="47.39368" lon="-2.11687">
        <ele>62.400001525879</ele>
        <time>2022-04-24T08:01:37.000Z</time>
      </trkpt>
      <trkpt lat="47.39363" lon="-2.1167">
        <ele>62.400001525879</ele>
        <time>2022-04-24T08:01:39.000Z</time>
      </trkpt>
      <trkpt lat="47.39355" lon="-2.11646">
        <ele>62.400001525879</ele>
        <time>2022-04-24T08:01:42.000Z</time>
      </trkpt>
      <trkpt lat="47.3933" lon="-2.11577">
        <ele>62.400001525879</ele>
        <time>2022-04-24T08:01:51.000Z</time>
      </trkpt>
      <trkpt lat="47.39329" lon="-2.11568">
        <ele>62.400001525879</ele>
        <time>2022-04-24T08:01:52.000Z</time>
      </trkpt>
      <trkpt lat="47.39324" lon="-2.11545">
        <ele>62.400001525879</ele>
        <time>2022-04-24T08:01:55.000Z</time>
      </trkpt>
      <trkpt lat="47.39314" lon="-2.11487">
        <ele>62.400001525879</ele>
        <time>2022-04-24T08:02:02.000Z</time>
      </trkpt>
      <trkpt lat="47.39303" lon="-2.11434">
        <ele>62.400001525879</ele>
        <time>2022-04-24T08:02:08.000Z</time>
      </trkpt>
      <trkpt lat="47.39296" lon="-2.11358">
        <ele>62.400001525879</ele>
        <time>2022-04-24T08:02:16.000Z</time>
      </trkpt>
      <trkpt lat="47.39296" lon="-2.11285">
        <ele>62.400001525879</ele>
        <time>2022-04-24T08:02:24.000Z</time>
      </trkpt>
      <trkpt lat="47.39292" lon="-2.11215">
        <ele>62.400001525879</ele>
        <time>2022-04-24T08:02:32.000Z</time>
      </trkpt>
      <trkpt lat="47.39282" lon="-2.11158">
        <ele>62.400001525879</ele>
        <time>2022-04-24T08:02:39.000Z</time>
      </trkpt>
      <trkpt lat="47.39271" lon="-2.1109">
        <ele>62.400001525879</ele>
        <time>2022-04-24T08:02:47.000Z</time>
      </trkpt>
      <trkpt lat="47.39264" lon="-2.11038">
        <ele>62.400001525879</ele>
        <time>2022-04-24T08:02:53.000Z</time>
      </trkpt>
      <trkpt lat="47.39265" lon="-2.1101">
        <ele>62.400001525879</ele>
        <time>2022-04-24T08:02:56.000Z</time>
      </trkpt>
      <trkpt lat="47.39268" lon="-2.10991">
        <ele>62.400001525879</ele>
        <time>2022-04-24T08:02:58.000Z</time>
      </trkpt>
      <trkpt lat="47.39279" lon="-2.10937">
        <ele>62.400001525879</ele>
        <time>2022-04-24T08:03:04.000Z</time>
      </trkpt>
      <trkpt lat="47.39282" lon="-2.10899">
        <ele>62.400001525879</ele>
        <time>2022-04-24T08:03:08.000Z</time>
      </trkpt>
      <trkpt lat="47.39282" lon="-2.10889">
        <ele>62.400001525879</ele>
        <time>2022-04-24T08:03:09.000Z</time>
      </trkpt>
      <trkpt lat="47.39273" lon="-2.10843">
        <ele>62.400001525879</ele>
        <time>2022-04-24T08:03:14.000Z</time>
      </trkpt>
      <trkpt lat="47.39253" lon="-2.10786">
        <ele>62.400001525879</ele>
        <time>2022-04-24T08:03:21.000Z</time>
      </trkpt>
      <trkpt lat="47.39231" lon="-2.10716">
        <ele>62.400001525879</ele>
        <time>2022-04-24T08:03:29.000Z</time>
      </trkpt>
      <trkpt lat="47.3922" lon="-2.10662">
        <ele>62.400001525879</ele>
        <time>2022-04-24T08:03:35.000Z</time>
      </trkpt>
      <trkpt lat="47.39204" lon="-2.10584">
        <ele>62</ele>
        <time>2022-04-24T08:03:43.000Z</time>
      </trkpt>
      <trkpt lat="47.39202" lon="-2.10574">
        <ele>61.599998474121</ele>
        <time>2022-04-24T08:03:44.000Z</time>
      </trkpt>
      <trkpt lat="47.39201" lon="-2.10564">
        <ele>61.200000762939</ele>
        <time>2022-04-24T08:03:45.000Z</time>
      </trkpt>
      <trkpt lat="47.39199" lon="-2.10555">
        <ele>60.799999237061</ele>
        <time>2022-04-24T08:03:46.000Z</time>
      </trkpt>
      <trkpt lat="47.39197" lon="-2.10546">
        <ele>60.400001525879</ele>
        <time>2022-04-24T08:03:47.000Z</time>
      </trkpt>
      <trkpt lat="47.39186" lon="-2.10491">
        <ele>60.400001525879</ele>
        <time>2022-04-24T08:03:53.000Z</time>
      </trkpt>
      <trkpt lat="47.39176" lon="-2.10444">
        <ele>60.400001525879</ele>
        <time>2022-04-24T08:03:59.000Z</time>
      </trkpt>
      <trkpt lat="47.39172" lon="-2.10421">
        <ele>60.799999237061</ele>
        <time>2022-04-24T08:04:02.000Z</time>
      </trkpt>
      <trkpt lat="47.39171" lon="-2.10414">
        <ele>61.200000762939</ele>
        <time>2022-04-24T08:04:03.000Z</time>
      </trkpt>
      <trkpt lat="47.3917" lon="-2.10406">
        <ele>61.799999237061</ele>
        <time>2022-04-24T08:04:04.000Z</time>
      </trkpt>
      <trkpt lat="47.39168" lon="-2.10398">
        <ele>62.200000762939</ele>
        <time>2022-04-24T08:04:05.000Z</time>
      </trkpt>
      <trkpt lat="47.39166" lon="-2.10388">
        <ele>62.599998474121</ele>
        <time>2022-04-24T08:04:06.000Z</time>
      </trkpt>
      <trkpt lat="47.39164" lon="-2.1038">
        <ele>62.599998474121</ele>
        <time>2022-04-24T08:04:07.000Z</time>
      </trkpt>
      <trkpt lat="47.39152" lon="-2.10313">
        <ele>62.599998474121</ele>
        <time>2022-04-24T08:04:14.000Z</time>
      </trkpt>
      <trkpt lat="47.39149" lon="-2.10285">
        <ele>62.599998474121</ele>
        <time>2022-04-24T08:04:17.000Z</time>
      </trkpt>
      <trkpt lat="47.39151" lon="-2.10257">
        <ele>62.599998474121</ele>
        <time>2022-04-24T08:04:20.000Z</time>
      </trkpt>
      <trkpt lat="47.39162" lon="-2.10206">
        <ele>62.599998474121</ele>
        <time>2022-04-24T08:04:26.000Z</time>
      </trkpt>
      <trkpt lat="47.39175" lon="-2.10158">
        <ele>62.599998474121</ele>
        <time>2022-04-24T08:04:32.000Z</time>
      </trkpt>
      <trkpt lat="47.39187" lon="-2.10116">
        <ele>62.599998474121</ele>
        <time>2022-04-24T08:04:38.000Z</time>
      </trkpt>
      <trkpt lat="47.39198" lon="-2.10074">
        <ele>62.599998474121</ele>
        <time>2022-04-24T08:04:45.000Z</time>
      </trkpt>
      <trkpt lat="47.39199" lon="-2.10052">
        <ele>62.599998474121</ele>
        <time>2022-04-24T08:04:51.000Z</time>
      </trkpt>
      <trkpt lat="47.39196" lon="-2.10042">
        <ele>62.599998474121</ele>
        <time>2022-04-24T08:04:53.000Z</time>
      </trkpt>
      <trkpt lat="47.39195" lon="-2.10029">
        <ele>62.599998474121</ele>
        <time>2022-04-24T08:04:55.000Z</time>
      </trkpt>
      <trkpt lat="47.39199" lon="-2.10016">
        <ele>62.200000762939</ele>
        <time>2022-04-24T08:04:57.000Z</time>
      </trkpt>
      <trkpt lat="47.39203" lon="-2.10011">
        <ele>61.799999237061</ele>
        <time>2022-04-24T08:04:58.000Z</time>
      </trkpt>
      <trkpt lat="47.39207" lon="-2.10006">
        <ele>61.200000762939</ele>
        <time>2022-04-24T08:04:59.000Z</time>
      </trkpt>
      <trkpt lat="47.39211" lon="-2.10001">
        <ele>60.799999237061</ele>
        <time>2022-04-24T08:05:00.000Z</time>
      </trkpt>
      <trkpt lat="47.39215" lon="-2.09994">
        <ele>60.400001525879</ele>
        <time>2022-04-24T08:05:01.000Z</time>
      </trkpt>
      <trkpt lat="47.39222" lon="-2.09981">
        <ele>60.400001525879</ele>
        <time>2022-04-24T08:05:03.000Z</time>
      </trkpt>
      <trkpt lat="47.39249" lon="-2.09928">
        <ele>60.400001525879</ele>
        <time>2022-04-24T08:05:11.000Z</time>
      </trkpt>
      <trkpt lat="47.39263" lon="-2.09903">
        <ele>60.400001525879</ele>
        <time>2022-04-24T08:05:15.000Z</time>
      </trkpt>
      <trkpt lat="47.39264" lon="-2.09888">
        <ele>60.400001525879</ele>
        <time>2022-04-24T08:05:17.000Z</time>
      </trkpt>
      <trkpt lat="47.39253" lon="-2.09867">
        <ele>60.400001525879</ele>
        <time>2022-04-24T08:05:20.000Z</time>
      </trkpt>
      <trkpt lat="47.39248" lon="-2.09861">
        <ele>60.400001525879</ele>
        <time>2022-04-24T08:05:21.000Z</time>
      </trkpt>
      <trkpt lat="47.39227" lon="-2.09833">
        <ele>60.400001525879</ele>
        <time>2022-04-24T08:05:25.000Z</time>
      </trkpt>
      <trkpt lat="47.39223" lon="-2.09826">
        <ele>60.400001525879</ele>
        <time>2022-04-24T08:05:26.000Z</time>
      </trkpt>
      <trkpt lat="47.39205" lon="-2.09789">
        <ele>60.400001525879</ele>
        <time>2022-04-24T08:05:31.000Z</time>
      </trkpt>
      <trkpt lat="47.39187" lon="-2.09749">
        <ele>60.400001525879</ele>
        <time>2022-04-24T08:05:37.000Z</time>
      </trkpt>
      <trkpt lat="47.39166" lon="-2.09709">
        <ele>60.400001525879</ele>
        <time>2022-04-24T08:05:43.000Z</time>
      </trkpt>
      <trkpt lat="47.39159" lon="-2.09696">
        <ele>60.400001525879</ele>
        <time>2022-04-24T08:05:45.000Z</time>
      </trkpt>
      <trkpt lat="47.39146" lon="-2.09685">
        <ele>60.400001525879</ele>
        <time>2022-04-24T08:05:48.000Z</time>
      </trkpt>
      <trkpt lat="47.39133" lon="-2.09684">
        <ele>60.400001525879</ele>
        <time>2022-04-24T08:05:50.000Z</time>
      </trkpt>
      <trkpt lat="47.3912" lon="-2.09684">
        <ele>60.400001525879</ele>
        <time>2022-04-24T08:05:52.000Z</time>
      </trkpt>
      <trkpt lat="47.39086" lon="-2.09687">
        <ele>60.400001525879</ele>
        <time>2022-04-24T08:05:57.000Z</time>
      </trkpt>
      <trkpt lat="47.3904" lon="-2.09689">
        <ele>60.400001525879</ele>
        <time>2022-04-24T08:06:04.000Z</time>
      </trkpt>
      <trkpt lat="47.39001" lon="-2.09695">
        <ele>60.400001525879</ele>
        <time>2022-04-24T08:06:10.000Z</time>
      </trkpt>
      <trkpt lat="47.38971" lon="-2.09701">
        <ele>60.400001525879</ele>
        <time>2022-04-24T08:06:15.000Z</time>
      </trkpt>
      <trkpt lat="47.38949" lon="-2.09708">
        <ele>60.400001525879</ele>
        <time>2022-04-24T08:06:19.000Z</time>
      </trkpt>
      <trkpt lat="47.38939" lon="-2.09708">
        <ele>60.400001525879</ele>
        <time>2022-04-24T08:06:21.000Z</time>
      </trkpt>
      <trkpt lat="47.38926" lon="-2.09692">
        <ele>60.400001525879</ele>
        <time>2022-04-24T08:06:24.000Z</time>
      </trkpt>
      <trkpt lat="47.38923" lon="-2.09685">
        <ele>60.400001525879</ele>
        <time>2022-04-24T08:06:25.000Z</time>
      </trkpt>
      <trkpt lat="47.3892" lon="-2.09678">
        <ele>60.400001525879</ele>
        <time>2022-04-24T08:06:26.000Z</time>
      </trkpt>
      <trkpt lat="47.38914" lon="-2.09654">
        <ele>60.400001525879</ele>
        <time>2022-04-24T08:06:29.000Z</time>
      </trkpt>
      <trkpt lat="47.38898" lon="-2.09599">
        <ele>60.400001525879</ele>
        <time>2022-04-24T08:06:36.000Z</time>
      </trkpt>
      <trkpt lat="47.38881" lon="-2.09541">
        <ele>60.400001525879</ele>
        <time>2022-04-24T08:06:43.000Z</time>
      </trkpt>
      <trkpt lat="47.38873" lon="-2.09517">
        <ele>60.400001525879</ele>
        <time>2022-04-24T08:06:46.000Z</time>
      </trkpt>
      <trkpt lat="47.38866" lon="-2.09505">
        <ele>60.400001525879</ele>
        <time>2022-04-24T08:06:48.000Z</time>
      </trkpt>
      <trkpt lat="47.38849" lon="-2.09504">
        <ele>60.400001525879</ele>
        <time>2022-04-24T08:06:51.000Z</time>
      </trkpt>
      <trkpt lat="47.38812" lon="-2.09504">
        <ele>60.400001525879</ele>
        <time>2022-04-24T08:06:57.000Z</time>
      </trkpt>
      <trkpt lat="47.38781" lon="-2.09497">
        <ele>60.400001525879</ele>
        <time>2022-04-24T08:07:02.000Z</time>
      </trkpt>
      <trkpt lat="47.38742" lon="-2.09475">
        <ele>60.400001525879</ele>
        <time>2022-04-24T08:07:09.000Z</time>
      </trkpt>
      <trkpt lat="47.38731" lon="-2.09465">
        <ele>60.400001525879</ele>
        <time>2022-04-24T08:07:11.000Z</time>
      </trkpt>
      <trkpt lat="47.38722" lon="-2.09451">
        <ele>60.400001525879</ele>
        <time>2022-04-24T08:07:13.000Z</time>
      </trkpt>
      <trkpt lat="47.38715" lon="-2.09435">
        <ele>60.400001525879</ele>
        <time>2022-04-24T08:07:15.000Z</time>
      </trkpt>
      <trkpt lat="47.38705" lon="-2.09413">
        <ele>60.400001525879</ele>
        <time>2022-04-24T08:07:18.000Z</time>
      </trkpt>
      <trkpt lat="47.38694" lon="-2.09393">
        <ele>60.400001525879</ele>
        <time>2022-04-24T08:07:21.000Z</time>
      </trkpt>
      <trkpt lat="47.38685" lon="-2.09385">
        <ele>60.400001525879</ele>
        <time>2022-04-24T08:07:23.000Z</time>
      </trkpt>
      <trkpt lat="47.38671" lon="-2.09376">
        <ele>60.400001525879</ele>
        <time>2022-04-24T08:07:26.000Z</time>
      </trkpt>
      <trkpt lat="47.38662" lon="-2.09369">
        <ele>60.400001525879</ele>
        <time>2022-04-24T08:07:28.000Z</time>
      </trkpt>
      <trkpt lat="47.38642" lon="-2.09344">
        <ele>60.400001525879</ele>
        <time>2022-04-24T08:07:34.000Z</time>
      </trkpt>
      <trkpt lat="47.38631" lon="-2.09326">
        <ele>60.400001525879</ele>
        <time>2022-04-24T08:07:39.000Z</time>
      </trkpt>
      <trkpt lat="47.38634" lon="-2.09314">
        <ele>60.400001525879</ele>
        <time>2022-04-24T08:07:42.000Z</time>
      </trkpt>
      <trkpt lat="47.38631" lon="-2.0931">
        <ele>60.400001525879</ele>
        <time>2022-04-24T08:07:45.000Z</time>
      </trkpt>
      <trkpt lat="47.38626" lon="-2.0931">
        <ele>60.400001525879</ele>
        <time>2022-04-24T08:07:48.000Z</time>
      </trkpt>
      <trkpt lat="47.38623" lon="-2.09309">
        <ele>61.200000762939</ele>
        <time>2022-04-24T08:07:49.000Z</time>
      </trkpt>
      <trkpt lat="47.38621" lon="-2.0931">
        <ele>61.599998474121</ele>
        <time>2022-04-24T08:07:50.000Z</time>
      </trkpt>
      <trkpt lat="47.38617" lon="-2.09309">
        <ele>62</ele>
        <time>2022-04-24T08:07:51.000Z</time>
      </trkpt>
      <trkpt lat="47.38615" lon="-2.09307">
        <ele>62.599998474121</ele>
        <time>2022-04-24T08:07:52.000Z</time>
      </trkpt>
      <trkpt lat="47.38614" lon="-2.09304">
        <ele>62.599998474121</ele>
        <time>2022-04-24T08:07:53.000Z</time>
      </trkpt>
      <trkpt lat="47.38615" lon="-2.09303">
        <ele>62.599998474121</ele>
        <time>2022-04-24T08:07:54.000Z</time>
      </trkpt>
      <trkpt lat="47.3862" lon="-2.09295">
        <ele>62.599998474121</ele>
        <time>2022-04-24T08:07:57.000Z</time>
      </trkpt>
      <trkpt lat="47.38625" lon="-2.09284">
        <ele>62.599998474121</ele>
        <time>2022-04-24T08:08:01.000Z</time>
      </trkpt>
      <trkpt lat="47.38623" lon="-2.09284">
        <ele>62.599998474121</ele>
        <time>2022-04-24T08:08:04.000Z</time>
      </trkpt>
      <trkpt lat="47.38619" lon="-2.0928">
        <ele>62.599998474121</ele>
        <time>2022-04-24T08:08:08.000Z</time>
      </trkpt>
      <trkpt lat="47.3862" lon="-2.09277">
        <ele>62.599998474121</ele>
        <time>2022-04-24T08:08:10.000Z</time>
      </trkpt>
      <trkpt lat="47.38627" lon="-2.09274">
        <ele>62.599998474121</ele>
        <time>2022-04-24T08:08:13.000Z</time>
      </trkpt>
      <trkpt lat="47.38642" lon="-2.09273">
        <ele>62.599998474121</ele>
        <time>2022-04-24T08:08:17.000Z</time>
      </trkpt>
      <trkpt lat="47.38644" lon="-2.09273">
        <ele>63</ele>
        <time>2022-04-24T08:08:18.000Z</time>
      </trkpt>
      <trkpt lat="47.38645" lon="-2.09275">
        <ele>63.400001525879</ele>
        <time>2022-04-24T08:08:19.000Z</time>
      </trkpt>
      <trkpt lat="47.38646" lon="-2.09278">
        <ele>63.799999237061</ele>
        <time>2022-04-24T08:08:20.000Z</time>
      </trkpt>
      <trkpt lat="47.38647" lon="-2.0928">
        <ele>64.199996948242</ele>
        <time>2022-04-24T08:08:21.000Z</time>
      </trkpt>
      <trkpt lat="47.38646" lon="-2.09283">
        <ele>64.599998474121</ele>
        <time>2022-04-24T08:08:22.000Z</time>
      </trkpt>
      <trkpt lat="47.38644" lon="-2.09292">
        <ele>64.599998474121</ele>
        <time>2022-04-24T08:08:24.000Z</time>
      </trkpt>
      <trkpt lat="47.38652" lon="-2.09301">
        <ele>64.599998474121</ele>
        <time>2022-04-24T08:08:27.000Z</time>
      </trkpt>
      <trkpt lat="47.38668" lon="-2.09303">
        <ele>64.599998474121</ele>
        <time>2022-04-24T08:08:30.000Z</time>
      </trkpt>
      <trkpt lat="47.38673" lon="-2.09303">
        <ele>64.599998474121</ele>
        <time>2022-04-24T08:08:31.000Z</time>
      </trkpt>
      <trkpt lat="47.38702" lon="-2.09303">
        <ele>64.599998474121</ele>
        <time>2022-04-24T08:08:37.000Z</time>
      </trkpt>
      <trkpt lat="47.38733" lon="-2.09302">
        <ele>64.599998474121</ele>
        <time>2022-04-24T08:08:44.000Z</time>
      </trkpt>
      <trkpt lat="47.3875" lon="-2.09298">
        <ele>64.599998474121</ele>
        <time>2022-04-24T08:08:49.000Z</time>
      </trkpt>
      <trkpt lat="47.38753" lon="-2.09296">
        <ele>64.599998474121</ele>
        <time>2022-04-24T08:08:50.000Z</time>
      </trkpt>
      <trkpt lat="47.38755" lon="-2.0929">
        <ele>64.599998474121</ele>
        <time>2022-04-24T08:08:52.000Z</time>
      </trkpt>
      <trkpt lat="47.38754" lon="-2.09279">
        <ele>64.599998474121</ele>
        <time>2022-04-24T08:08:55.000Z</time>
      </trkpt>
      <trkpt lat="47.38753" lon="-2.09269">
        <ele>64.599998474121</ele>
        <time>2022-04-24T08:08:57.000Z</time>
      </trkpt>
      <trkpt lat="47.38754" lon="-2.09263">
        <ele>65.199996948242</ele>
        <time>2022-04-24T08:08:58.000Z</time>
      </trkpt>
      <trkpt lat="47.38754" lon="-2.09258">
        <ele>65.599998474121</ele>
        <time>2022-04-24T08:08:59.000Z</time>
      </trkpt>
      <trkpt lat="47.38754" lon="-2.09252">
        <ele>66</ele>
        <time>2022-04-24T08:09:00.000Z</time>
      </trkpt>
      <trkpt lat="47.38754" lon="-2.09248">
        <ele>66.400001525879</ele>
        <time>2022-04-24T08:09:01.000Z</time>
      </trkpt>
      <trkpt lat="47.38753" lon="-2.09245">
        <ele>66.800003051758</ele>
        <time>2022-04-24T08:09:02.000Z</time>
      </trkpt>
      <trkpt lat="47.38742" lon="-2.0924">
        <ele>66.800003051758</ele>
        <time>2022-04-24T08:09:07.000Z</time>
      </trkpt>
      <trkpt lat="47.38717" lon="-2.09243">
        <ele>66.800003051758</ele>
        <time>2022-04-24T08:09:12.000Z</time>
      </trkpt>
      <trkpt lat="47.38679" lon="-2.09248">
        <ele>66.800003051758</ele>
        <time>2022-04-24T08:09:19.000Z</time>
      </trkpt>
      <trkpt lat="47.38674" lon="-2.09249">
        <ele>66.800003051758</ele>
        <time>2022-04-24T08:09:20.000Z</time>
      </trkpt>
      <trkpt lat="47.38654" lon="-2.09251">
        <ele>66.800003051758</ele>
        <time>2022-04-24T08:09:24.000Z</time>
      </trkpt>
      <trkpt lat="47.38634" lon="-2.09253">
        <ele>66.800003051758</ele>
        <time>2022-04-24T08:09:28.000Z</time>
      </trkpt>
      <trkpt lat="47.38619" lon="-2.09258">
        <ele>66.400001525879</ele>
        <time>2022-04-24T08:09:32.000Z</time>
      </trkpt>
      <trkpt lat="47.38617" lon="-2.09261">
        <ele>65.800003051758</ele>
        <time>2022-04-24T08:09:33.000Z</time>
      </trkpt>
      <trkpt lat="47.38613" lon="-2.09264">
        <ele>65.400001525879</ele>
        <time>2022-04-24T08:09:34.000Z</time>
      </trkpt>
      <trkpt lat="47.38609" lon="-2.09266">
        <ele>65</ele>
        <time>2022-04-24T08:09:35.000Z</time>
      </trkpt>
      <trkpt lat="47.38606" lon="-2.09267">
        <ele>64.400001525879</ele>
        <time>2022-04-24T08:09:36.000Z</time>
      </trkpt>
      <trkpt lat="47.38603" lon="-2.09265">
        <ele>64.400001525879</ele>
        <time>2022-04-24T08:09:37.000Z</time>
      </trkpt>
      <trkpt lat="47.38597" lon="-2.09252">
        <ele>64.400001525879</ele>
        <time>2022-04-24T08:09:41.000Z</time>
      </trkpt>
      <trkpt lat="47.38588" lon="-2.09237">
        <ele>64.400001525879</ele>
        <time>2022-04-24T08:09:45.000Z</time>
      </trkpt>
      <trkpt lat="47.38587" lon="-2.0923">
        <ele>64</ele>
        <time>2022-04-24T08:09:48.000Z</time>
      </trkpt>
      <trkpt lat="47.38588" lon="-2.09228">
        <ele>63.599998474121</ele>
        <time>2022-04-24T08:09:49.000Z</time>
      </trkpt>
      <trkpt lat="47.38589" lon="-2.09228">
        <ele>63.200000762939</ele>
        <time>2022-04-24T08:09:50.000Z</time>
      </trkpt>
      <trkpt lat="47.38591" lon="-2.09229">
        <ele>62.599998474121</ele>
        <time>2022-04-24T08:09:51.000Z</time>
      </trkpt>
      <trkpt lat="47.38592" lon="-2.0923">
        <ele>62.200000762939</ele>
        <time>2022-04-24T08:09:52.000Z</time>
      </trkpt>
      <trkpt lat="47.38593" lon="-2.09231">
        <ele>62.200000762939</ele>
        <time>2022-04-24T08:09:53.000Z</time>
      </trkpt>
      <trkpt lat="47.38598" lon="-2.09235">
        <ele>62.200000762939</ele>
        <time>2022-04-24T08:09:58.000Z</time>
      </trkpt>
      <trkpt lat="47.38601" lon="-2.09237">
        <ele>62.200000762939</ele>
        <time>2022-04-24T08:10:00.000Z</time>
      </trkpt>
      <trkpt lat="47.38603" lon="-2.09235">
        <ele>62.200000762939</ele>
        <time>2022-04-24T08:10:02.000Z</time>
      </trkpt>
      <trkpt lat="47.38603" lon="-2.09232">
        <ele>62.599998474121</ele>
        <time>2022-04-24T08:10:04.000Z</time>
      </trkpt>
      <trkpt lat="47.38603" lon="-2.0923">
        <ele>63</ele>
        <time>2022-04-24T08:10:05.000Z</time>
      </trkpt>
      <trkpt lat="47.38603" lon="-2.09226">
        <ele>63.400001525879</ele>
        <time>2022-04-24T08:10:06.000Z</time>
      </trkpt>
      <trkpt lat="47.38604" lon="-2.09223">
        <ele>63.799999237061</ele>
        <time>2022-04-24T08:10:07.000Z</time>
      </trkpt>
      <trkpt lat="47.38606" lon="-2.09221">
        <ele>64.199996948242</ele>
        <time>2022-04-24T08:10:08.000Z</time>
      </trkpt>
      <trkpt lat="47.38612" lon="-2.09221">
        <ele>64.199996948242</ele>
        <time>2022-04-24T08:10:11.000Z</time>
      </trkpt>
      <trkpt lat="47.38616" lon="-2.09223">
        <ele>64.199996948242</ele>
        <time>2022-04-24T08:10:13.000Z</time>
      </trkpt>
      <trkpt lat="47.38621" lon="-2.09225">
        <ele>64.199996948242</ele>
        <time>2022-04-24T08:10:16.000Z</time>
      </trkpt>
      <trkpt lat="47.38624" lon="-2.09225">
        <ele>64.199996948242</ele>
        <time>2022-04-24T08:10:17.000Z</time>
      </trkpt>
      <trkpt lat="47.38628" lon="-2.09222">
        <ele>64.599998474121</ele>
        <time>2022-04-24T08:10:19.000Z</time>
      </trkpt>
      <trkpt lat="47.3863" lon="-2.09221">
        <ele>65.199996948242</ele>
        <time>2022-04-24T08:10:20.000Z</time>
      </trkpt>
      <trkpt lat="47.38632" lon="-2.09221">
        <ele>65.599998474121</ele>
        <time>2022-04-24T08:10:21.000Z</time>
      </trkpt>
      <trkpt lat="47.38633" lon="-2.0922">
        <ele>66</ele>
        <time>2022-04-24T08:10:22.000Z</time>
      </trkpt>
      <trkpt lat="47.38635" lon="-2.09221">
        <ele>66.400001525879</ele>
        <time>2022-04-24T08:10:23.000Z</time>
      </trkpt>
      <trkpt lat="47.38644" lon="-2.09224">
        <ele>66.400001525879</ele>
        <time>2022-04-24T08:10:26.000Z</time>
      </trkpt>
      <trkpt lat="47.38652" lon="-2.0922">
        <ele>66.400001525879</ele>
        <time>2022-04-24T08:10:28.000Z</time>
      </trkpt>
      <trkpt lat="47.38666" lon="-2.09218">
        <ele>66.400001525879</ele>
        <time>2022-04-24T08:10:31.000Z</time>
      </trkpt>
      <trkpt lat="47.3867" lon="-2.09219">
        <ele>66.400001525879</ele>
        <time>2022-04-24T08:10:32.000Z</time>
      </trkpt>
      <trkpt lat="47.38677" lon="-2.09226">
        <ele>66.400001525879</ele>
        <time>2022-04-24T08:10:34.000Z</time>
      </trkpt>
      <trkpt lat="47.38682" lon="-2.09228">
        <ele>66.400001525879</ele>
        <time>2022-04-24T08:10:36.000Z</time>
      </trkpt>
      <trkpt lat="47.38688" lon="-2.09227">
        <ele>66.400001525879</ele>
        <time>2022-04-24T08:10:38.000Z</time>
      </trkpt>
      <trkpt lat="47.38711" lon="-2.09226">
        <ele>66.400001525879</ele>
        <time>2022-04-24T08:10:45.000Z</time>
      </trkpt>
      <trkpt lat="47.38715" lon="-2.09214">
        <ele>66.400001525879</ele>
        <time>2022-04-24T08:10:49.000Z</time>
      </trkpt>
      <trkpt lat="47.38715" lon="-2.0921">
        <ele>66.400001525879</ele>
        <time>2022-04-24T08:10:51.000Z</time>
      </trkpt>
      <trkpt lat="47.38711" lon="-2.09208">
        <ele>66.400001525879</ele>
        <time>2022-04-24T08:10:53.000Z</time>
      </trkpt>
      <trkpt lat="47.38707" lon="-2.09207">
        <ele>66.400001525879</ele>
        <time>2022-04-24T08:10:54.000Z</time>
      </trkpt>
      <trkpt lat="47.38686" lon="-2.09204">
        <ele>66.400001525879</ele>
        <time>2022-04-24T08:10:59.000Z</time>
      </trkpt>
      <trkpt lat="47.38663" lon="-2.09204">
        <ele>66.400001525879</ele>
        <time>2022-04-24T08:11:04.000Z</time>
      </trkpt>
      <trkpt lat="47.3865" lon="-2.09197">
        <ele>66.400001525879</ele>
        <time>2022-04-24T08:11:08.000Z</time>
      </trkpt>
      <trkpt lat="47.38627" lon="-2.09188">
        <ele>66.400001525879</ele>
        <time>2022-04-24T08:11:13.000Z</time>
      </trkpt>
      <trkpt lat="47.38615" lon="-2.09188">
        <ele>66.400001525879</ele>
        <time>2022-04-24T08:11:17.000Z</time>
      </trkpt>
      <trkpt lat="47.38614" lon="-2.09188">
        <ele>66</ele>
        <time>2022-04-24T08:11:18.000Z</time>
      </trkpt>
      <trkpt lat="47.38613" lon="-2.09188">
        <ele>65.599998474121</ele>
        <time>2022-04-24T08:11:19.000Z</time>
      </trkpt>
      <trkpt lat="47.38605" lon="-2.09191">
        <ele>64.400001525879</ele>
        <time>2022-04-24T08:11:25.000Z</time>
      </trkpt>
      <trkpt lat="47.38601" lon="-2.09192">
        <ele>64.400001525879</ele>
        <time>2022-04-24T08:11:26.000Z</time>
      </trkpt>
      <trkpt lat="47.38597" lon="-2.09192">
        <ele>63.799999237061</ele>
        <time>2022-04-24T08:11:27.000Z</time>
      </trkpt>
      <trkpt lat="47.38593" lon="-2.0919">
        <ele>63.200000762939</ele>
        <time>2022-04-24T08:11:28.000Z</time>
      </trkpt>
      <trkpt lat="47.3859" lon="-2.0919">
        <ele>62.799999237061</ele>
        <time>2022-04-24T08:11:29.000Z</time>
      </trkpt>
      <trkpt lat="47.38587" lon="-2.09189">
        <ele>62.200000762939</ele>
        <time>2022-04-24T08:11:30.000Z</time>
      </trkpt>
      <trkpt lat="47.38585" lon="-2.09187">
        <ele>61.799999237061</ele>
        <time>2022-04-24T08:11:31.000Z</time>
      </trkpt>
      <trkpt lat="47.38584" lon="-2.09176">
        <ele>61.799999237061</ele>
        <time>2022-04-24T08:11:34.000Z</time>
      </trkpt>
      <trkpt lat="47.38583" lon="-2.09169">
        <ele>61.799999237061</ele>
        <time>2022-04-24T08:11:36.000Z</time>
      </trkpt>
      <trkpt lat="47.38584" lon="-2.09155">
        <ele>61.799999237061</ele>
        <time>2022-04-24T08:11:39.000Z</time>
      </trkpt>
      <trkpt lat="47.38584" lon="-2.09128">
        <ele>61.799999237061</ele>
        <time>2022-04-24T08:11:44.000Z</time>
      </trkpt>
      <trkpt lat="47.38584" lon="-2.09094">
        <ele>61.799999237061</ele>
        <time>2022-04-24T08:11:50.000Z</time>
      </trkpt>
      <trkpt lat="47.38584" lon="-2.09093">
        <ele>61.799999237061</ele>
        <time>2022-04-24T08:11:51.000Z</time>
      </trkpt>
      <trkpt lat="47.38591" lon="-2.09091">
        <ele>61.799999237061</ele>
        <time>2022-04-24T08:11:53.000Z</time>
      </trkpt>
      <trkpt lat="47.38616" lon="-2.09087">
        <ele>62.200000762939</ele>
        <time>2022-04-24T08:11:59.000Z</time>
      </trkpt>
      <trkpt lat="47.3862" lon="-2.09087">
        <ele>62.599998474121</ele>
        <time>2022-04-24T08:12:00.000Z</time>
      </trkpt>
      <trkpt lat="47.38624" lon="-2.09086">
        <ele>63</ele>
        <time>2022-04-24T08:12:01.000Z</time>
      </trkpt>
      <trkpt lat="47.38629" lon="-2.09085">
        <ele>63.400001525879</ele>
        <time>2022-04-24T08:12:02.000Z</time>
      </trkpt>
      <trkpt lat="47.38633" lon="-2.09084">
        <ele>63.799999237061</ele>
        <time>2022-04-24T08:12:03.000Z</time>
      </trkpt>
      <trkpt lat="47.38645" lon="-2.09083">
        <ele>63.799999237061</ele>
        <time>2022-04-24T08:12:06.000Z</time>
      </trkpt>
      <trkpt lat="47.38654" lon="-2.09082">
        <ele>64.400001525879</ele>
        <time>2022-04-24T08:12:09.000Z</time>
      </trkpt>
      <trkpt lat="47.38656" lon="-2.09081">
        <ele>64.800003051758</ele>
        <time>2022-04-24T08:12:10.000Z</time>
      </trkpt>
      <trkpt lat="47.38659" lon="-2.0908">
        <ele>65.199996948242</ele>
        <time>2022-04-24T08:12:11.000Z</time>
      </trkpt>
      <trkpt lat="47.38661" lon="-2.09079">
        <ele>65.800003051758</ele>
        <time>2022-04-24T08:12:12.000Z</time>
      </trkpt>
      <trkpt lat="47.38664" lon="-2.09078">
        <ele>66.199996948242</ele>
        <time>2022-04-24T08:12:13.000Z</time>
      </trkpt>
      <trkpt lat="47.38665" lon="-2.09075">
        <ele>66.199996948242</ele>
        <time>2022-04-24T08:12:14.000Z</time>
      </trkpt>
      <trkpt lat="47.38667" lon="-2.09073">
        <ele>66.199996948242</ele>
        <time>2022-04-24T08:12:15.000Z</time>
      </trkpt>
      <trkpt lat="47.38673" lon="-2.0906">
        <ele>66.199996948242</ele>
        <time>2022-04-24T08:12:19.000Z</time>
      </trkpt>
      <trkpt lat="47.38673" lon="-2.09056">
        <ele>66.199996948242</ele>
        <time>2022-04-24T08:12:20.000Z</time>
      </trkpt>
      <trkpt lat="47.38675" lon="-2.09042">
        <ele>66.199996948242</ele>
        <time>2022-04-24T08:12:25.000Z</time>
      </trkpt>
      <trkpt lat="47.38682" lon="-2.09033">
        <ele>66.599998474121</ele>
        <time>2022-04-24T08:12:27.000Z</time>
      </trkpt>
      <trkpt lat="47.38685" lon="-2.0903">
        <ele>67</ele>
        <time>2022-04-24T08:12:28.000Z</time>
      </trkpt>
      <trkpt lat="47.38688" lon="-2.09029">
        <ele>67.400001525879</ele>
        <time>2022-04-24T08:12:29.000Z</time>
      </trkpt>
      <trkpt lat="47.38692" lon="-2.09028">
        <ele>67.800003051758</ele>
        <time>2022-04-24T08:12:30.000Z</time>
      </trkpt>
      <trkpt lat="47.38696" lon="-2.09025">
        <ele>68.199996948242</ele>
        <time>2022-04-24T08:12:31.000Z</time>
      </trkpt>
      <trkpt lat="47.38699" lon="-2.09021">
        <ele>68.199996948242</ele>
        <time>2022-04-24T08:12:32.000Z</time>
      </trkpt>
      <trkpt lat="47.38707" lon="-2.09015">
        <ele>68.199996948242</ele>
        <time>2022-04-24T08:12:34.000Z</time>
      </trkpt>
      <trkpt lat="47.38718" lon="-2.09013">
        <ele>68.199996948242</ele>
        <time>2022-04-24T08:12:37.000Z</time>
      </trkpt>
      <trkpt lat="47.3872" lon="-2.09015">
        <ele>68.199996948242</ele>
        <time>2022-04-24T08:12:38.000Z</time>
      </trkpt>
      <trkpt lat="47.38722" lon="-2.09016">
        <ele>68.199996948242</ele>
        <time>2022-04-24T08:12:39.000Z</time>
      </trkpt>
      <trkpt lat="47.38721" lon="-2.0902">
        <ele>68.199996948242</ele>
        <time>2022-04-24T08:12:41.000Z</time>
      </trkpt>
      <trkpt lat="47.38718" lon="-2.09025">
        <ele>68.199996948242</ele>
        <time>2022-04-24T08:12:44.000Z</time>
      </trkpt>
      <trkpt lat="47.38715" lon="-2.09027">
        <ele>68.199996948242</ele>
        <time>2022-04-24T08:12:45.000Z</time>
      </trkpt>
      <trkpt lat="47.38704" lon="-2.09038">
        <ele>68.199996948242</ele>
        <time>2022-04-24T08:12:49.000Z</time>
      </trkpt>
      <trkpt lat="47.38691" lon="-2.09058">
        <ele>68.199996948242</ele>
        <time>2022-04-24T08:12:54.000Z</time>
      </trkpt>
      <trkpt lat="47.38692" lon="-2.09065">
        <ele>68.199996948242</ele>
        <time>2022-04-24T08:12:57.000Z</time>
      </trkpt>
      <trkpt lat="47.38694" lon="-2.09066">
        <ele>68.199996948242</ele>
        <time>2022-04-24T08:12:58.000Z</time>
      </trkpt>
      <trkpt lat="47.38697" lon="-2.09068">
        <ele>68.199996948242</ele>
        <time>2022-04-24T08:13:00.000Z</time>
      </trkpt>
      <trkpt lat="47.38702" lon="-2.09066">
        <ele>68.199996948242</ele>
        <time>2022-04-24T08:13:03.000Z</time>
      </trkpt>
      <trkpt lat="47.38711" lon="-2.09054">
        <ele>68.199996948242</ele>
        <time>2022-04-24T08:13:07.000Z</time>
      </trkpt>
      <trkpt lat="47.38718" lon="-2.09043">
        <ele>68.199996948242</ele>
        <time>2022-04-24T08:13:10.000Z</time>
      </trkpt>
      <trkpt lat="47.3872" lon="-2.09039">
        <ele>68.599998474121</ele>
        <time>2022-04-24T08:13:11.000Z</time>
      </trkpt>
      <trkpt lat="47.38721" lon="-2.09034">
        <ele>69.199996948242</ele>
        <time>2022-04-24T08:13:12.000Z</time>
      </trkpt>
      <trkpt lat="47.38723" lon="-2.0903">
        <ele>69.599998474121</ele>
        <time>2022-04-24T08:13:13.000Z</time>
      </trkpt>
      <trkpt lat="47.38727" lon="-2.09027">
        <ele>70</ele>
        <time>2022-04-24T08:13:14.000Z</time>
      </trkpt>
      <trkpt lat="47.38731" lon="-2.09025">
        <ele>70.400001525879</ele>
        <time>2022-04-24T08:13:15.000Z</time>
      </trkpt>
      <trkpt lat="47.38759" lon="-2.09018">
        <ele>70.400001525879</ele>
        <time>2022-04-24T08:13:20.000Z</time>
      </trkpt>
      <trkpt lat="47.38773" lon="-2.09011">
        <ele>70.400001525879</ele>
        <time>2022-04-24T08:13:23.000Z</time>
      </trkpt>
      <trkpt lat="47.38775" lon="-2.09007">
        <ele>70.400001525879</ele>
        <time>2022-04-24T08:13:24.000Z</time>
      </trkpt>
      <trkpt lat="47.38774" lon="-2.08988">
        <ele>70.400001525879</ele>
        <time>2022-04-24T08:13:29.000Z</time>
      </trkpt>
      <trkpt lat="47.38773" lon="-2.08964">
        <ele>70.400001525879</ele>
        <time>2022-04-24T08:13:36.000Z</time>
      </trkpt>
      <trkpt lat="47.38767" lon="-2.08938">
        <ele>70.400001525879</ele>
        <time>2022-04-24T08:13:42.000Z</time>
      </trkpt>
      <trkpt lat="47.3876" lon="-2.08902">
        <ele>70.400001525879</ele>
        <time>2022-04-24T08:13:47.000Z</time>
      </trkpt>
      <trkpt lat="47.38758" lon="-2.08894">
        <ele>70</ele>
        <time>2022-04-24T08:13:48.000Z</time>
      </trkpt>
      <trkpt lat="47.38756" lon="-2.08886">
        <ele>69.400001525879</ele>
        <time>2022-04-24T08:13:49.000Z</time>
      </trkpt>
      <trkpt lat="47.38754" lon="-2.08878">
        <ele>69</ele>
        <time>2022-04-24T08:13:50.000Z</time>
      </trkpt>
      <trkpt lat="47.38752" lon="-2.08869">
        <ele>68.599998474121</ele>
        <time>2022-04-24T08:13:51.000Z</time>
      </trkpt>
      <trkpt lat="47.3875" lon="-2.08861">
        <ele>68.199996948242</ele>
        <time>2022-04-24T08:13:52.000Z</time>
      </trkpt>
      <trkpt lat="47.38749" lon="-2.08852">
        <ele>68.199996948242</ele>
        <time>2022-04-24T08:13:53.000Z</time>
      </trkpt>
      <trkpt lat="47.38743" lon="-2.08818">
        <ele>67.800003051758</ele>
        <time>2022-04-24T08:13:57.000Z</time>
      </trkpt>
      <trkpt lat="47.38743" lon="-2.08809">
        <ele>67.400001525879</ele>
        <time>2022-04-24T08:13:58.000Z</time>
      </trkpt>
      <trkpt lat="47.38744" lon="-2.088">
        <ele>66.599998474121</ele>
        <time>2022-04-24T08:13:59.000Z</time>
      </trkpt>
      <trkpt lat="47.38746" lon="-2.08793">
        <ele>66.199996948242</ele>
        <time>2022-04-24T08:14:00.000Z</time>
      </trkpt>
      <trkpt lat="47.38755" lon="-2.0878">
        <ele>66.199996948242</ele>
        <time>2022-04-24T08:14:02.000Z</time>
      </trkpt>
      <trkpt lat="47.38772" lon="-2.0877">
        <ele>66.199996948242</ele>
        <time>2022-04-24T08:14:05.000Z</time>
      </trkpt>
      <trkpt lat="47.38815" lon="-2.08755">
        <ele>66.199996948242</ele>
        <time>2022-04-24T08:14:12.000Z</time>
      </trkpt>
      <trkpt lat="47.38847" lon="-2.08741">
        <ele>66.199996948242</ele>
        <time>2022-04-24T08:14:18.000Z</time>
      </trkpt>
      <trkpt lat="47.38851" lon="-2.08738">
        <ele>66.199996948242</ele>
        <time>2022-04-24T08:14:19.000Z</time>
      </trkpt>
      <trkpt lat="47.38881" lon="-2.08713">
        <ele>66.199996948242</ele>
        <time>2022-04-24T08:14:26.000Z</time>
      </trkpt>
      <trkpt lat="47.38914" lon="-2.08692">
        <ele>66.199996948242</ele>
        <time>2022-04-24T08:14:33.000Z</time>
      </trkpt>
      <trkpt lat="47.38947" lon="-2.08681">
        <ele>66.199996948242</ele>
        <time>2022-04-24T08:14:40.000Z</time>
      </trkpt>
      <trkpt lat="47.38955" lon="-2.08679">
        <ele>66.599998474121</ele>
        <time>2022-04-24T08:14:42.000Z</time>
      </trkpt>
      <trkpt lat="47.38958" lon="-2.08678">
        <ele>67</ele>
        <time>2022-04-24T08:14:43.000Z</time>
      </trkpt>
      <trkpt lat="47.38961" lon="-2.08677">
        <ele>67.400001525879</ele>
        <time>2022-04-24T08:14:44.000Z</time>
      </trkpt>
      <trkpt lat="47.38962" lon="-2.08674">
        <ele>67.800003051758</ele>
        <time>2022-04-24T08:14:45.000Z</time>
      </trkpt>
      <trkpt lat="47.38962" lon="-2.0867">
        <ele>68.199996948242</ele>
        <time>2022-04-24T08:14:46.000Z</time>
      </trkpt>
      <trkpt lat="47.38959" lon="-2.08665">
        <ele>68.199996948242</ele>
        <time>2022-04-24T08:14:48.000Z</time>
      </trkpt>
      <trkpt lat="47.38953" lon="-2.08659">
        <ele>68.199996948242</ele>
        <time>2022-04-24T08:14:50.000Z</time>
      </trkpt>
      <trkpt lat="47.38944" lon="-2.08651">
        <ele>68.199996948242</ele>
        <time>2022-04-24T08:14:52.000Z</time>
      </trkpt>
      <trkpt lat="47.38906" lon="-2.08623">
        <ele>68.199996948242</ele>
        <time>2022-04-24T08:15:00.000Z</time>
      </trkpt>
      <trkpt lat="47.3887" lon="-2.08597">
        <ele>68.199996948242</ele>
        <time>2022-04-24T08:15:07.000Z</time>
      </trkpt>
      <trkpt lat="47.38865" lon="-2.08592">
        <ele>68.199996948242</ele>
        <time>2022-04-24T08:15:08.000Z</time>
      </trkpt>
      <trkpt lat="47.38839" lon="-2.08577">
        <ele>68.199996948242</ele>
        <time>2022-04-24T08:15:12.000Z</time>
      </trkpt>
      <trkpt lat="47.38825" lon="-2.08568">
        <ele>67.800003051758</ele>
        <time>2022-04-24T08:15:14.000Z</time>
      </trkpt>
      <trkpt lat="47.38817" lon="-2.08564">
        <ele>67.400001525879</ele>
        <time>2022-04-24T08:15:15.000Z</time>
      </trkpt>
      <trkpt lat="47.3881" lon="-2.08561">
        <ele>67</ele>
        <time>2022-04-24T08:15:16.000Z</time>
      </trkpt>
      <trkpt lat="47.38803" lon="-2.08557">
        <ele>66.599998474121</ele>
        <time>2022-04-24T08:15:17.000Z</time>
      </trkpt>
      <trkpt lat="47.38796" lon="-2.08553">
        <ele>66.199996948242</ele>
        <time>2022-04-24T08:15:18.000Z</time>
      </trkpt>
      <trkpt lat="47.38789" lon="-2.0855">
        <ele>66.199996948242</ele>
        <time>2022-04-24T08:15:19.000Z</time>
      </trkpt>
      <trkpt lat="47.38777" lon="-2.08541">
        <ele>66.199996948242</ele>
        <time>2022-04-24T08:15:21.000Z</time>
      </trkpt>
      <trkpt lat="47.38769" lon="-2.08527">
        <ele>66.199996948242</ele>
        <time>2022-04-24T08:15:23.000Z</time>
      </trkpt>
      <trkpt lat="47.38767" lon="-2.08498">
        <ele>66.199996948242</ele>
        <time>2022-04-24T08:15:26.000Z</time>
      </trkpt>
      <trkpt lat="47.38767" lon="-2.08487">
        <ele>65.800003051758</ele>
        <time>2022-04-24T08:15:27.000Z</time>
      </trkpt>
      <trkpt lat="47.38768" lon="-2.08476">
        <ele>65.400001525879</ele>
        <time>2022-04-24T08:15:28.000Z</time>
      </trkpt>
      <trkpt lat="47.38768" lon="-2.08464">
        <ele>65</ele>
        <time>2022-04-24T08:15:29.000Z</time>
      </trkpt>
      <trkpt lat="47.38769" lon="-2.08453">
        <ele>64.599998474121</ele>
        <time>2022-04-24T08:15:30.000Z</time>
      </trkpt>
      <trkpt lat="47.38769" lon="-2.08441">
        <ele>64.199996948242</ele>
        <time>2022-04-24T08:15:31.000Z</time>
      </trkpt>
      <trkpt lat="47.38771" lon="-2.08418">
        <ele>64.199996948242</ele>
        <time>2022-04-24T08:15:33.000Z</time>
      </trkpt>
      <trkpt lat="47.38776" lon="-2.08335">
        <ele>63.799999237061</ele>
        <time>2022-04-24T08:15:40.000Z</time>
      </trkpt>
      <trkpt lat="47.38777" lon="-2.08323">
        <ele>63.400001525879</ele>
        <time>2022-04-24T08:15:41.000Z</time>
      </trkpt>
      <trkpt lat="47.38777" lon="-2.08312">
        <ele>63</ele>
        <time>2022-04-24T08:15:42.000Z</time>
      </trkpt>
      <trkpt lat="47.38778" lon="-2.08301">
        <ele>62.599998474121</ele>
        <time>2022-04-24T08:15:43.000Z</time>
      </trkpt>
      <trkpt lat="47.3878" lon="-2.0829">
        <ele>62</ele>
        <time>2022-04-24T08:15:44.000Z</time>
      </trkpt>
      <trkpt lat="47.38785" lon="-2.0827">
        <ele>62</ele>
        <time>2022-04-24T08:15:46.000Z</time>
      </trkpt>
      <trkpt lat="47.38796" lon="-2.08247">
        <ele>62</ele>
        <time>2022-04-24T08:15:49.000Z</time>
      </trkpt>
      <trkpt lat="47.38815" lon="-2.08224">
        <ele>62</ele>
        <time>2022-04-24T08:15:53.000Z</time>
      </trkpt>
      <trkpt lat="47.38821" lon="-2.08216">
        <ele>62</ele>
        <time>2022-04-24T08:15:55.000Z</time>
      </trkpt>
      <trkpt lat="47.38826" lon="-2.08211">
        <ele>62</ele>
        <time>2022-04-24T08:15:56.000Z</time>
      </trkpt>
      <trkpt lat="47.38839" lon="-2.08205">
        <ele>62</ele>
        <time>2022-04-24T08:15:58.000Z</time>
      </trkpt>
      <trkpt lat="47.38894" lon="-2.08199">
        <ele>62</ele>
        <time>2022-04-24T08:16:05.000Z</time>
      </trkpt>
      <trkpt lat="47.38901" lon="-2.082">
        <ele>62</ele>
        <time>2022-04-24T08:16:06.000Z</time>
      </trkpt>
      <trkpt lat="47.38922" lon="-2.0821">
        <ele>62</ele>
        <time>2022-04-24T08:16:09.000Z</time>
      </trkpt>
      <trkpt lat="47.38937" lon="-2.0822">
        <ele>62</ele>
        <time>2022-04-24T08:16:11.000Z</time>
      </trkpt>
      <trkpt lat="47.38961" lon="-2.0824">
        <ele>62</ele>
        <time>2022-04-24T08:16:15.000Z</time>
      </trkpt>
      <trkpt lat="47.3901" lon="-2.08293">
        <ele>62</ele>
        <time>2022-04-24T08:16:24.000Z</time>
      </trkpt>
      <trkpt lat="47.39043" lon="-2.08337">
        <ele>62</ele>
        <time>2022-04-24T08:16:31.000Z</time>
      </trkpt>
      <trkpt lat="47.39076" lon="-2.08379">
        <ele>62</ele>
        <time>2022-04-24T08:16:38.000Z</time>
      </trkpt>
      <trkpt lat="47.39102" lon="-2.08414">
        <ele>62</ele>
        <time>2022-04-24T08:16:44.000Z</time>
      </trkpt>
      <trkpt lat="47.39119" lon="-2.08425">
        <ele>62</ele>
        <time>2022-04-24T08:16:48.000Z</time>
      </trkpt>
      <trkpt lat="47.39123" lon="-2.0843">
        <ele>62</ele>
        <time>2022-04-24T08:16:49.000Z</time>
      </trkpt>
      <trkpt lat="47.39131" lon="-2.08442">
        <ele>62</ele>
        <time>2022-04-24T08:16:51.000Z</time>
      </trkpt>
      <trkpt lat="47.39142" lon="-2.08452">
        <ele>62</ele>
        <time>2022-04-24T08:16:53.000Z</time>
      </trkpt>
      <trkpt lat="47.39153" lon="-2.08449">
        <ele>62</ele>
        <time>2022-04-24T08:16:55.000Z</time>
      </trkpt>
      <trkpt lat="47.39167" lon="-2.08431">
        <ele>62</ele>
        <time>2022-04-24T08:16:58.000Z</time>
      </trkpt>
      <trkpt lat="47.39204" lon="-2.08383">
        <ele>61.599998474121</ele>
        <time>2022-04-24T08:17:05.000Z</time>
      </trkpt>
      <trkpt lat="47.39209" lon="-2.08376">
        <ele>60.799999237061</ele>
        <time>2022-04-24T08:17:06.000Z</time>
      </trkpt>
      <trkpt lat="47.39214" lon="-2.08369">
        <ele>60.400001525879</ele>
        <time>2022-04-24T08:17:07.000Z</time>
      </trkpt>
      <trkpt lat="47.39218" lon="-2.08362">
        <ele>60</ele>
        <time>2022-04-24T08:17:08.000Z</time>
      </trkpt>
      <trkpt lat="47.39233" lon="-2.08342">
        <ele>60</ele>
        <time>2022-04-24T08:17:11.000Z</time>
      </trkpt>
      <trkpt lat="47.39272" lon="-2.08299">
        <ele>60</ele>
        <time>2022-04-24T08:17:18.000Z</time>
      </trkpt>
      <trkpt lat="47.39304" lon="-2.08263">
        <ele>60</ele>
        <time>2022-04-24T08:17:24.000Z</time>
      </trkpt>
      <trkpt lat="47.39333" lon="-2.08236">
        <ele>60</ele>
        <time>2022-04-24T08:17:30.000Z</time>
      </trkpt>
      <trkpt lat="47.39343" lon="-2.08222">
        <ele>60</ele>
        <time>2022-04-24T08:17:34.000Z</time>
      </trkpt>
      <trkpt lat="47.39339" lon="-2.08222">
        <ele>60</ele>
        <time>2022-04-24T08:17:37.000Z</time>
      </trkpt>
      <trkpt lat="47.39329" lon="-2.0823">
        <ele>60</ele>
        <time>2022-04-24T08:17:41.000Z</time>
      </trkpt>
      <trkpt lat="47.39324" lon="-2.08233">
        <ele>60</ele>
        <time>2022-04-24T08:17:45.000Z</time>
      </trkpt>
      <trkpt lat="47.39323" lon="-2.08232">
        <ele>60</ele>
        <time>2022-04-24T08:17:46.000Z</time>
      </trkpt>
      <trkpt lat="47.39322" lon="-2.08229">
        <ele>60</ele>
        <time>2022-04-24T08:17:48.000Z</time>
      </trkpt>
      <trkpt lat="47.39321" lon="-2.08222">
        <ele>60</ele>
        <time>2022-04-24T08:17:50.000Z</time>
      </trkpt>
      <trkpt lat="47.39319" lon="-2.08216">
        <ele>60</ele>
        <time>2022-04-24T08:17:52.000Z</time>
      </trkpt>
      <trkpt lat="47.39317" lon="-2.08208">
        <ele>60</ele>
        <time>2022-04-24T08:17:54.000Z</time>
      </trkpt>
      <trkpt lat="47.39318" lon="-2.08204">
        <ele>60</ele>
        <time>2022-04-24T08:17:55.000Z</time>
      </trkpt>
      <trkpt lat="47.39322" lon="-2.08201">
        <ele>60</ele>
        <time>2022-04-24T08:17:58.000Z</time>
      </trkpt>
      <trkpt lat="47.39327" lon="-2.08207">
        <ele>60</ele>
        <time>2022-04-24T08:18:02.000Z</time>
      </trkpt>
      <trkpt lat="47.39331" lon="-2.08207">
        <ele>60</ele>
        <time>2022-04-24T08:18:04.000Z</time>
      </trkpt>
      <trkpt lat="47.39334" lon="-2.08204">
        <ele>60</ele>
        <time>2022-04-24T08:18:06.000Z</time>
      </trkpt>
      <trkpt lat="47.3934" lon="-2.08193">
        <ele>60</ele>
        <time>2022-04-24T08:18:10.000Z</time>
      </trkpt>
      <trkpt lat="47.39342" lon="-2.08191">
        <ele>60</ele>
        <time>2022-04-24T08:18:11.000Z</time>
      </trkpt>
      <trkpt lat="47.39346" lon="-2.08177">
        <ele>60</ele>
        <time>2022-04-24T08:18:16.000Z</time>
      </trkpt>
      <trkpt lat="47.39343" lon="-2.08176">
        <ele>60</ele>
        <time>2022-04-24T08:18:17.000Z</time>
      </trkpt>
      <trkpt lat="47.39332" lon="-2.08167">
        <ele>60</ele>
        <time>2022-04-24T08:18:21.000Z</time>
      </trkpt>
      <trkpt lat="47.39327" lon="-2.08157">
        <ele>60</ele>
        <time>2022-04-24T08:18:25.000Z</time>
      </trkpt>
      <trkpt lat="47.39326" lon="-2.0815">
        <ele>60</ele>
        <time>2022-04-24T08:18:27.000Z</time>
      </trkpt>
      <trkpt lat="47.39328" lon="-2.08145">
        <ele>60</ele>
        <time>2022-04-24T08:18:28.000Z</time>
      </trkpt>
      <trkpt lat="47.39333" lon="-2.08137">
        <ele>60</ele>
        <time>2022-04-24T08:18:30.000Z</time>
      </trkpt>
      <trkpt lat="47.39347" lon="-2.0812">
        <ele>60</ele>
        <time>2022-04-24T08:18:35.000Z</time>
      </trkpt>
      <trkpt lat="47.39348" lon="-2.08115">
        <ele>60</ele>
        <time>2022-04-24T08:18:36.000Z</time>
      </trkpt>
      <trkpt lat="47.39358" lon="-2.08103">
        <ele>60</ele>
        <time>2022-04-24T08:18:40.000Z</time>
      </trkpt>
      <trkpt lat="47.39374" lon="-2.08089">
        <ele>60</ele>
        <time>2022-04-24T08:18:44.000Z</time>
      </trkpt>
      <trkpt lat="47.39377" lon="-2.08089">
        <ele>60</ele>
        <time>2022-04-24T08:18:45.000Z</time>
      </trkpt>
      <trkpt lat="47.39382" lon="-2.08092">
        <ele>60</ele>
        <time>2022-04-24T08:18:47.000Z</time>
      </trkpt>
      <trkpt lat="47.39386" lon="-2.08098">
        <ele>60</ele>
        <time>2022-04-24T08:18:49.000Z</time>
      </trkpt>
      <trkpt lat="47.39385" lon="-2.08106">
        <ele>60</ele>
        <time>2022-04-24T08:18:52.000Z</time>
      </trkpt>
      <trkpt lat="47.39383" lon="-2.08107">
        <ele>60.400001525879</ele>
        <time>2022-04-24T08:18:53.000Z</time>
      </trkpt>
      <trkpt lat="47.39381" lon="-2.08105">
        <ele>60.799999237061</ele>
        <time>2022-04-24T08:18:54.000Z</time>
      </trkpt>
      <trkpt lat="47.39379" lon="-2.08105">
        <ele>61.400001525879</ele>
        <time>2022-04-24T08:18:55.000Z</time>
      </trkpt>
      <trkpt lat="47.39375" lon="-2.08105">
        <ele>61.799999237061</ele>
        <time>2022-04-24T08:18:56.000Z</time>
      </trkpt>
      <trkpt lat="47.39373" lon="-2.08106">
        <ele>62.200000762939</ele>
        <time>2022-04-24T08:18:57.000Z</time>
      </trkpt>
      <trkpt lat="47.39369" lon="-2.08112">
        <ele>62.200000762939</ele>
        <time>2022-04-24T08:18:59.000Z</time>
      </trkpt>
      <trkpt lat="47.39366" lon="-2.08118">
        <ele>62.200000762939</ele>
        <time>2022-04-24T08:19:01.000Z</time>
      </trkpt>
      <trkpt lat="47.39364" lon="-2.08126">
        <ele>62.200000762939</ele>
        <time>2022-04-24T08:19:03.000Z</time>
      </trkpt>
      <trkpt lat="47.39366" lon="-2.08132">
        <ele>62.200000762939</ele>
        <time>2022-04-24T08:19:05.000Z</time>
      </trkpt>
      <trkpt lat="47.39374" lon="-2.08149">
        <ele>62.200000762939</ele>
        <time>2022-04-24T08:19:10.000Z</time>
      </trkpt>
      <trkpt lat="47.39388" lon="-2.08158">
        <ele>62.200000762939</ele>
        <time>2022-04-24T08:19:15.000Z</time>
      </trkpt>
      <trkpt lat="47.39396" lon="-2.08171">
        <ele>62.200000762939</ele>
        <time>2022-04-24T08:19:20.000Z</time>
      </trkpt>
      <trkpt lat="47.394" lon="-2.08173">
        <ele>62.200000762939</ele>
        <time>2022-04-24T08:19:22.000Z</time>
      </trkpt>
      <trkpt lat="47.39401" lon="-2.08169">
        <ele>62.200000762939</ele>
        <time>2022-04-24T08:19:24.000Z</time>
      </trkpt>
      <trkpt lat="47.39409" lon="-2.0817">
        <ele>62.599998474121</ele>
        <time>2022-04-24T08:19:27.000Z</time>
      </trkpt>
      <trkpt lat="47.39412" lon="-2.08168">
        <ele>63</ele>
        <time>2022-04-24T08:19:28.000Z</time>
      </trkpt>
      <trkpt lat="47.39414" lon="-2.08165">
        <ele>63.400001525879</ele>
        <time>2022-04-24T08:19:29.000Z</time>
      </trkpt>
      <trkpt lat="47.39415" lon="-2.08161">
        <ele>63.799999237061</ele>
        <time>2022-04-24T08:19:30.000Z</time>
      </trkpt>
      <trkpt lat="47.39415" lon="-2.08159">
        <ele>64.199996948242</ele>
        <time>2022-04-24T08:19:31.000Z</time>
      </trkpt>
      <trkpt lat="47.39419" lon="-2.08148">
        <ele>64.199996948242</ele>
        <time>2022-04-24T08:19:34.000Z</time>
      </trkpt>
      <trkpt lat="47.39417" lon="-2.08138">
        <ele>64.199996948242</ele>
        <time>2022-04-24T08:19:37.000Z</time>
      </trkpt>
      <trkpt lat="47.39414" lon="-2.08138">
        <ele>64.199996948242</ele>
        <time>2022-04-24T08:19:38.000Z</time>
      </trkpt>
      <trkpt lat="47.39406" lon="-2.08132">
        <ele>64.199996948242</ele>
        <time>2022-04-24T08:19:41.000Z</time>
      </trkpt>
      <trkpt lat="47.39406" lon="-2.08129">
        <ele>64.199996948242</ele>
        <time>2022-04-24T08:19:42.000Z</time>
      </trkpt>
      <trkpt lat="47.394" lon="-2.08118">
        <ele>64.199996948242</ele>
        <time>2022-04-24T08:19:46.000Z</time>
      </trkpt>
      <trkpt lat="47.394" lon="-2.08105">
        <ele>63.799999237061</ele>
        <time>2022-04-24T08:19:49.000Z</time>
      </trkpt>
      <trkpt lat="47.39402" lon="-2.08101">
        <ele>63.400001525879</ele>
        <time>2022-04-24T08:19:50.000Z</time>
      </trkpt>
      <trkpt lat="47.39404" lon="-2.08098">
        <ele>63</ele>
        <time>2022-04-24T08:19:51.000Z</time>
      </trkpt>
      <trkpt lat="47.39407" lon="-2.081">
        <ele>62.599998474121</ele>
        <time>2022-04-24T08:19:52.000Z</time>
      </trkpt>
      <trkpt lat="47.39408" lon="-2.08103">
        <ele>62.200000762939</ele>
        <time>2022-04-24T08:19:53.000Z</time>
      </trkpt>
      <trkpt lat="47.39409" lon="-2.08105">
        <ele>62.200000762939</ele>
        <time>2022-04-24T08:19:54.000Z</time>
      </trkpt>
      <trkpt lat="47.39413" lon="-2.08121">
        <ele>62.200000762939</ele>
        <time>2022-04-24T08:19:59.000Z</time>
      </trkpt>
      <trkpt lat="47.39418" lon="-2.08122">
        <ele>62.200000762939</ele>
        <time>2022-04-24T08:20:03.000Z</time>
      </trkpt>
      <trkpt lat="47.39421" lon="-2.08125">
        <ele>62.599998474121</ele>
        <time>2022-04-24T08:20:05.000Z</time>
      </trkpt>
      <trkpt lat="47.39422" lon="-2.08122">
        <ele>63</ele>
        <time>2022-04-24T08:20:06.000Z</time>
      </trkpt>
      <trkpt lat="47.39423" lon="-2.08117">
        <ele>63.400001525879</ele>
        <time>2022-04-24T08:20:07.000Z</time>
      </trkpt>
      <trkpt lat="47.39422" lon="-2.08115">
        <ele>63.799999237061</ele>
        <time>2022-04-24T08:20:08.000Z</time>
      </trkpt>
      <trkpt lat="47.39422" lon="-2.08112">
        <ele>64.199996948242</ele>
        <time>2022-04-24T08:20:09.000Z</time>
      </trkpt>
      <trkpt lat="47.39424" lon="-2.08103">
        <ele>64.199996948242</ele>
        <time>2022-04-24T08:20:11.000Z</time>
      </trkpt>
      <trkpt lat="47.39423" lon="-2.081">
        <ele>64.199996948242</ele>
        <time>2022-04-24T08:20:12.000Z</time>
      </trkpt>
      <trkpt lat="47.39426" lon="-2.08097">
        <ele>63.799999237061</ele>
        <time>2022-04-24T08:20:13.000Z</time>
      </trkpt>
      <trkpt lat="47.39427" lon="-2.08095">
        <ele>63.400001525879</ele>
        <time>2022-04-24T08:20:14.000Z</time>
      </trkpt>
      <trkpt lat="47.39429" lon="-2.08095">
        <ele>62.799999237061</ele>
        <time>2022-04-24T08:20:15.000Z</time>
      </trkpt>
      <trkpt lat="47.39431" lon="-2.08098">
        <ele>62.400001525879</ele>
        <time>2022-04-24T08:20:16.000Z</time>
      </trkpt>
      <trkpt lat="47.39434" lon="-2.08102">
        <ele>62</ele>
        <time>2022-04-24T08:20:17.000Z</time>
      </trkpt>
      <trkpt lat="47.39438" lon="-2.08117">
        <ele>62</ele>
        <time>2022-04-24T08:20:20.000Z</time>
      </trkpt>
      <trkpt lat="47.39439" lon="-2.08129">
        <ele>63</ele>
        <time>2022-04-24T08:20:23.000Z</time>
      </trkpt>
      <trkpt lat="47.3944" lon="-2.08133">
        <ele>63.400001525879</ele>
        <time>2022-04-24T08:20:24.000Z</time>
      </trkpt>
      <trkpt lat="47.39441" lon="-2.08137">
        <ele>63.799999237061</ele>
        <time>2022-04-24T08:20:25.000Z</time>
      </trkpt>
      <trkpt lat="47.39445" lon="-2.08139">
        <ele>64.199996948242</ele>
        <time>2022-04-24T08:20:26.000Z</time>
      </trkpt>
      <trkpt lat="47.39449" lon="-2.0814">
        <ele>64.199996948242</ele>
        <time>2022-04-24T08:20:27.000Z</time>
      </trkpt>
      <trkpt lat="47.39465" lon="-2.08149">
        <ele>64.199996948242</ele>
        <time>2022-04-24T08:20:32.000Z</time>
      </trkpt>
      <trkpt lat="47.39472" lon="-2.0814">
        <ele>64.199996948242</ele>
        <time>2022-04-24T08:20:35.000Z</time>
      </trkpt>
      <trkpt lat="47.39473" lon="-2.08132">
        <ele>64.199996948242</ele>
        <time>2022-04-24T08:20:37.000Z</time>
      </trkpt>
      <trkpt lat="47.39476" lon="-2.08126">
        <ele>64.199996948242</ele>
        <time>2022-04-24T08:20:40.000Z</time>
      </trkpt>
      <trkpt lat="47.39481" lon="-2.08121">
        <ele>64.199996948242</ele>
        <time>2022-04-24T08:20:44.000Z</time>
      </trkpt>
      <trkpt lat="47.3948" lon="-2.0812">
        <ele>63.799999237061</ele>
        <time>2022-04-24T08:20:45.000Z</time>
      </trkpt>
      <trkpt lat="47.39478" lon="-2.08119">
        <ele>63.400001525879</ele>
        <time>2022-04-24T08:20:46.000Z</time>
      </trkpt>
      <trkpt lat="47.39475" lon="-2.08116">
        <ele>63</ele>
        <time>2022-04-24T08:20:47.000Z</time>
      </trkpt>
      <trkpt lat="47.39471" lon="-2.08114">
        <ele>62</ele>
        <time>2022-04-24T08:20:48.000Z</time>
      </trkpt>
      <trkpt lat="47.39468" lon="-2.08112">
        <ele>62</ele>
        <time>2022-04-24T08:20:49.000Z</time>
      </trkpt>
      <trkpt lat="47.39465" lon="-2.08112">
        <ele>62</ele>
        <time>2022-04-24T08:20:50.000Z</time>
      </trkpt>
      <trkpt lat="47.3946" lon="-2.08115">
        <ele>62</ele>
        <time>2022-04-24T08:20:52.000Z</time>
      </trkpt>
      <trkpt lat="47.39456" lon="-2.08115">
        <ele>62</ele>
        <time>2022-04-24T08:20:55.000Z</time>
      </trkpt>
      <trkpt lat="47.39455" lon="-2.08113">
        <ele>62</ele>
        <time>2022-04-24T08:20:56.000Z</time>
      </trkpt>
      <trkpt lat="47.39454" lon="-2.08102">
        <ele>62</ele>
        <time>2022-04-24T08:21:00.000Z</time>
      </trkpt>
      <trkpt lat="47.39457" lon="-2.08101">
        <ele>62</ele>
        <time>2022-04-24T08:21:02.000Z</time>
      </trkpt>
      <trkpt lat="47.39462" lon="-2.08098">
        <ele>62</ele>
        <time>2022-04-24T08:21:04.000Z</time>
      </trkpt>
      <trkpt lat="47.39466" lon="-2.08102">
        <ele>62</ele>
        <time>2022-04-24T08:21:08.000Z</time>
      </trkpt>
      <trkpt lat="47.39468" lon="-2.08105">
        <ele>62</ele>
        <time>2022-04-24T08:21:10.000Z</time>
      </trkpt>
      <trkpt lat="47.39469" lon="-2.08105">
        <ele>62</ele>
        <time>2022-04-24T08:21:11.000Z</time>
      </trkpt>
      <trkpt lat="47.39473" lon="-2.08105">
        <ele>62</ele>
        <time>2022-04-24T08:21:13.000Z</time>
      </trkpt>
      <trkpt lat="47.39479" lon="-2.08114">
        <ele>62</ele>
        <time>2022-04-24T08:21:17.000Z</time>
      </trkpt>
      <trkpt lat="47.39479" lon="-2.08117">
        <ele>62</ele>
        <time>2022-04-24T08:21:18.000Z</time>
      </trkpt>
      <trkpt lat="47.3948" lon="-2.0812">
        <ele>62</ele>
        <time>2022-04-24T08:21:19.000Z</time>
      </trkpt>
      <trkpt lat="47.39479" lon="-2.08126">
        <ele>62</ele>
        <time>2022-04-24T08:21:21.000Z</time>
      </trkpt>
      <trkpt lat="47.39476" lon="-2.08137">
        <ele>62</ele>
        <time>2022-04-24T08:21:25.000Z</time>
      </trkpt>
      <trkpt lat="47.39476" lon="-2.08138">
        <ele>62</ele>
        <time>2022-04-24T08:21:26.000Z</time>
      </trkpt>
      <trkpt lat="47.39483" lon="-2.08144">
        <ele>62</ele>
        <time>2022-04-24T08:21:27.000Z</time>
      </trkpt>
      <trkpt lat="47.39489" lon="-2.08154">
        <ele>62</ele>
        <time>2022-04-24T08:21:30.000Z</time>
      </trkpt>
      <trkpt lat="47.39487" lon="-2.08162">
        <ele>62</ele>
        <time>2022-04-24T08:21:33.000Z</time>
      </trkpt>
      <trkpt lat="47.39485" lon="-2.08162">
        <ele>62</ele>
        <time>2022-04-24T08:21:34.000Z</time>
      </trkpt>
      <trkpt lat="47.3948" lon="-2.08165">
        <ele>62</ele>
        <time>2022-04-24T08:21:36.000Z</time>
      </trkpt>
      <trkpt lat="47.39478" lon="-2.08174">
        <ele>62</ele>
        <time>2022-04-24T08:21:38.000Z</time>
      </trkpt>
      <trkpt lat="47.39477" lon="-2.08205">
        <ele>62</ele>
        <time>2022-04-24T08:21:43.000Z</time>
      </trkpt>
      <trkpt lat="47.39475" lon="-2.08208">
        <ele>62</ele>
        <time>2022-04-24T08:21:44.000Z</time>
      </trkpt>
      <trkpt lat="47.3947" lon="-2.08209">
        <ele>62</ele>
        <time>2022-04-24T08:21:46.000Z</time>
      </trkpt>
      <trkpt lat="47.39466" lon="-2.08205">
        <ele>62</ele>
        <time>2022-04-24T08:21:48.000Z</time>
      </trkpt>
      <trkpt lat="47.39461" lon="-2.08197">
        <ele>62</ele>
        <time>2022-04-24T08:21:51.000Z</time>
      </trkpt>
      <trkpt lat="47.3946" lon="-2.08178">
        <ele>62</ele>
        <time>2022-04-24T08:21:56.000Z</time>
      </trkpt>
      <trkpt lat="47.39461" lon="-2.0817">
        <ele>62</ele>
        <time>2022-04-24T08:21:58.000Z</time>
      </trkpt>
      <trkpt lat="47.39458" lon="-2.08168">
        <ele>62</ele>
        <time>2022-04-24T08:22:00.000Z</time>
      </trkpt>
      <trkpt lat="47.39456" lon="-2.08166">
        <ele>62.400001525879</ele>
        <time>2022-04-24T08:22:01.000Z</time>
      </trkpt>
      <trkpt lat="47.39454" lon="-2.08165">
        <ele>63.200000762939</ele>
        <time>2022-04-24T08:22:02.000Z</time>
      </trkpt>
      <trkpt lat="47.39453" lon="-2.08165">
        <ele>63.799999237061</ele>
        <time>2022-04-24T08:22:03.000Z</time>
      </trkpt>
      <trkpt lat="47.39452" lon="-2.08164">
        <ele>64.199996948242</ele>
        <time>2022-04-24T08:22:04.000Z</time>
      </trkpt>
      <trkpt lat="47.3945" lon="-2.08163">
        <ele>64.199996948242</ele>
        <time>2022-04-24T08:22:05.000Z</time>
      </trkpt>
      <trkpt lat="47.39439" lon="-2.0816">
        <ele>64.199996948242</ele>
        <time>2022-04-24T08:22:09.000Z</time>
      </trkpt>
      <trkpt lat="47.39432" lon="-2.08155">
        <ele>64.199996948242</ele>
        <time>2022-04-24T08:22:12.000Z</time>
      </trkpt>
      <trkpt lat="47.39431" lon="-2.08152">
        <ele>64.199996948242</ele>
        <time>2022-04-24T08:22:13.000Z</time>
      </trkpt>
      <trkpt lat="47.39432" lon="-2.08145">
        <ele>64.199996948242</ele>
        <time>2022-04-24T08:22:16.000Z</time>
      </trkpt>
      <trkpt lat="47.39433" lon="-2.08143">
        <ele>64.199996948242</ele>
        <time>2022-04-24T08:22:17.000Z</time>
      </trkpt>
      <trkpt lat="47.39431" lon="-2.08144">
        <ele>64.199996948242</ele>
        <time>2022-04-24T08:22:19.000Z</time>
      </trkpt>
      <trkpt lat="47.3943" lon="-2.08145">
        <ele>64.199996948242</ele>
        <time>2022-04-24T08:22:20.000Z</time>
      </trkpt>
      <trkpt lat="47.39428" lon="-2.08155">
        <ele>64.199996948242</ele>
        <time>2022-04-24T08:22:23.000Z</time>
      </trkpt>
      <trkpt lat="47.39428" lon="-2.08158">
        <ele>64.199996948242</ele>
        <time>2022-04-24T08:22:24.000Z</time>
      </trkpt>
      <trkpt lat="47.39433" lon="-2.08171">
        <ele>64.199996948242</ele>
        <time>2022-04-24T08:22:29.000Z</time>
      </trkpt>
      <trkpt lat="47.39432" lon="-2.08177">
        <ele>64.199996948242</ele>
        <time>2022-04-24T08:22:33.000Z</time>
      </trkpt>
      <trkpt lat="47.39436" lon="-2.08188">
        <ele>64.199996948242</ele>
        <time>2022-04-24T08:22:36.000Z</time>
      </trkpt>
      <trkpt lat="47.39439" lon="-2.08191">
        <ele>64.199996948242</ele>
        <time>2022-04-24T08:22:37.000Z</time>
      </trkpt>
      <trkpt lat="47.3945" lon="-2.08203">
        <ele>64.199996948242</ele>
        <time>2022-04-24T08:22:41.000Z</time>
      </trkpt>
      <trkpt lat="47.39457" lon="-2.08225">
        <ele>63.799999237061</ele>
        <time>2022-04-24T08:22:45.000Z</time>
      </trkpt>
      <trkpt lat="47.39458" lon="-2.08231">
        <ele>63.400001525879</ele>
        <time>2022-04-24T08:22:46.000Z</time>
      </trkpt>
      <trkpt lat="47.39456" lon="-2.08236">
        <ele>63</ele>
        <time>2022-04-24T08:22:47.000Z</time>
      </trkpt>
      <trkpt lat="47.39452" lon="-2.08238">
        <ele>62.400001525879</ele>
        <time>2022-04-24T08:22:48.000Z</time>
      </trkpt>
      <trkpt lat="47.39447" lon="-2.08238">
        <ele>62</ele>
        <time>2022-04-24T08:22:49.000Z</time>
      </trkpt>
      <trkpt lat="47.39432" lon="-2.0823">
        <ele>62</ele>
        <time>2022-04-24T08:22:54.000Z</time>
      </trkpt>
      <trkpt lat="47.39432" lon="-2.08216">
        <ele>62</ele>
        <time>2022-04-24T08:22:59.000Z</time>
      </trkpt>
      <trkpt lat="47.3943" lon="-2.08213">
        <ele>62</ele>
        <time>2022-04-24T08:23:00.000Z</time>
      </trkpt>
      <trkpt lat="47.39425" lon="-2.08206">
        <ele>62</ele>
        <time>2022-04-24T08:23:03.000Z</time>
      </trkpt>
      <trkpt lat="47.39424" lon="-2.08203">
        <ele>62</ele>
        <time>2022-04-24T08:23:04.000Z</time>
      </trkpt>
      <trkpt lat="47.39421" lon="-2.08188">
        <ele>62</ele>
        <time>2022-04-24T08:23:08.000Z</time>
      </trkpt>
      <trkpt lat="47.39418" lon="-2.08189">
        <ele>62</ele>
        <time>2022-04-24T08:23:09.000Z</time>
      </trkpt>
      <trkpt lat="47.39412" lon="-2.08191">
        <ele>62.400001525879</ele>
        <time>2022-04-24T08:23:11.000Z</time>
      </trkpt>
      <trkpt lat="47.39409" lon="-2.08192">
        <ele>62.799999237061</ele>
        <time>2022-04-24T08:23:12.000Z</time>
      </trkpt>
      <trkpt lat="47.39405" lon="-2.08191">
        <ele>63.400001525879</ele>
        <time>2022-04-24T08:23:13.000Z</time>
      </trkpt>
      <trkpt lat="47.39402" lon="-2.08192">
        <ele>64.199996948242</ele>
        <time>2022-04-24T08:23:14.000Z</time>
      </trkpt>
      <trkpt lat="47.39399" lon="-2.08198">
        <ele>64.199996948242</ele>
        <time>2022-04-24T08:23:17.000Z</time>
      </trkpt>
      <trkpt lat="47.39406" lon="-2.08202">
        <ele>64.199996948242</ele>
        <time>2022-04-24T08:23:20.000Z</time>
      </trkpt>
      <trkpt lat="47.39409" lon="-2.08207">
        <ele>64.199996948242</ele>
        <time>2022-04-24T08:23:22.000Z</time>
      </trkpt>
      <trkpt lat="47.39417" lon="-2.0822">
        <ele>64.199996948242</ele>
        <time>2022-04-24T08:23:25.000Z</time>
      </trkpt>
      <trkpt lat="47.39418" lon="-2.08229">
        <ele>63.799999237061</ele>
        <time>2022-04-24T08:23:28.000Z</time>
      </trkpt>
      <trkpt lat="47.39415" lon="-2.0823">
        <ele>63.200000762939</ele>
        <time>2022-04-24T08:23:29.000Z</time>
      </trkpt>
      <trkpt lat="47.39413" lon="-2.0823">
        <ele>62.799999237061</ele>
        <time>2022-04-24T08:23:30.000Z</time>
      </trkpt>
      <trkpt lat="47.39411" lon="-2.0823">
        <ele>62.400001525879</ele>
        <time>2022-04-24T08:23:31.000Z</time>
      </trkpt>
      <trkpt lat="47.39408" lon="-2.08229">
        <ele>62</ele>
        <time>2022-04-24T08:23:32.000Z</time>
      </trkpt>
      <trkpt lat="47.39405" lon="-2.08227">
        <ele>62</ele>
        <time>2022-04-24T08:23:34.000Z</time>
      </trkpt>
      <trkpt lat="47.39401" lon="-2.08223">
        <ele>62</ele>
        <time>2022-04-24T08:23:36.000Z</time>
      </trkpt>
      <trkpt lat="47.39389" lon="-2.08217">
        <ele>62</ele>
        <time>2022-04-24T08:23:39.000Z</time>
      </trkpt>
      <trkpt lat="47.39379" lon="-2.08208">
        <ele>62</ele>
        <time>2022-04-24T08:23:42.000Z</time>
      </trkpt>
      <trkpt lat="47.39375" lon="-2.08207">
        <ele>62</ele>
        <time>2022-04-24T08:23:43.000Z</time>
      </trkpt>
      <trkpt lat="47.39362" lon="-2.08206">
        <ele>62</ele>
        <time>2022-04-24T08:23:46.000Z</time>
      </trkpt>
      <trkpt lat="47.39355" lon="-2.08214">
        <ele>61.599998474121</ele>
        <time>2022-04-24T08:23:48.000Z</time>
      </trkpt>
      <trkpt lat="47.39353" lon="-2.08218">
        <ele>61.200000762939</ele>
        <time>2022-04-24T08:23:49.000Z</time>
      </trkpt>
      <trkpt lat="47.3935" lon="-2.08223">
        <ele>60.799999237061</ele>
        <time>2022-04-24T08:23:50.000Z</time>
      </trkpt>
      <trkpt lat="47.39346" lon="-2.08227">
        <ele>60.400001525879</ele>
        <time>2022-04-24T08:23:51.000Z</time>
      </trkpt>
      <trkpt lat="47.39343" lon="-2.08232">
        <ele>60</ele>
        <time>2022-04-24T08:23:52.000Z</time>
      </trkpt>
      <trkpt lat="47.3933" lon="-2.0825">
        <ele>60</ele>
        <time>2022-04-24T08:23:56.000Z</time>
      </trkpt>
      <trkpt lat="47.39307" lon="-2.08276">
        <ele>60</ele>
        <time>2022-04-24T08:24:02.000Z</time>
      </trkpt>
      <trkpt lat="47.39281" lon="-2.08306">
        <ele>60</ele>
        <time>2022-04-24T08:24:08.000Z</time>
      </trkpt>
      <trkpt lat="47.3925" lon="-2.08344">
        <ele>60</ele>
        <time>2022-04-24T08:24:15.000Z</time>
      </trkpt>
      <trkpt lat="47.39213" lon="-2.08387">
        <ele>60</ele>
        <time>2022-04-24T08:24:23.000Z</time>
      </trkpt>
      <trkpt lat="47.39189" lon="-2.08414">
        <ele>60</ele>
        <time>2022-04-24T08:24:29.000Z</time>
      </trkpt>
      <trkpt lat="47.3917" lon="-2.08432">
        <ele>60</ele>
        <time>2022-04-24T08:24:34.000Z</time>
      </trkpt>
      <trkpt lat="47.39166" lon="-2.08436">
        <ele>60</ele>
        <time>2022-04-24T08:24:35.000Z</time>
      </trkpt>
      <trkpt lat="47.39149" lon="-2.08462">
        <ele>60</ele>
        <time>2022-04-24T08:24:41.000Z</time>
      </trkpt>
      <trkpt lat="47.39148" lon="-2.08479">
        <ele>60</ele>
        <time>2022-04-24T08:24:44.000Z</time>
      </trkpt>
      <trkpt lat="47.39149" lon="-2.08485">
        <ele>60</ele>
        <time>2022-04-24T08:24:45.000Z</time>
      </trkpt>
      <trkpt lat="47.39152" lon="-2.08511">
        <ele>60</ele>
        <time>2022-04-24T08:24:49.000Z</time>
      </trkpt>
      <trkpt lat="47.3915" lon="-2.0853">
        <ele>60</ele>
        <time>2022-04-24T08:24:52.000Z</time>
      </trkpt>
      <trkpt lat="47.39147" lon="-2.08542">
        <ele>60</ele>
        <time>2022-04-24T08:24:54.000Z</time>
      </trkpt>
      <trkpt lat="47.39144" lon="-2.08567">
        <ele>60</ele>
        <time>2022-04-24T08:24:58.000Z</time>
      </trkpt>
      <trkpt lat="47.39142" lon="-2.0858">
        <ele>60</ele>
        <time>2022-04-24T08:25:00.000Z</time>
      </trkpt>
      <trkpt lat="47.39141" lon="-2.08597">
        <ele>60</ele>
        <time>2022-04-24T08:25:03.000Z</time>
      </trkpt>
      <trkpt lat="47.3914" lon="-2.08636">
        <ele>60</ele>
        <time>2022-04-24T08:25:09.000Z</time>
      </trkpt>
      <trkpt lat="47.3914" lon="-2.08684">
        <ele>60.400001525879</ele>
        <time>2022-04-24T08:25:16.000Z</time>
      </trkpt>
      <trkpt lat="47.39139" lon="-2.0869">
        <ele>60.799999237061</ele>
        <time>2022-04-24T08:25:17.000Z</time>
      </trkpt>
      <trkpt lat="47.39138" lon="-2.08697">
        <ele>61.599998474121</ele>
        <time>2022-04-24T08:25:18.000Z</time>
      </trkpt>
      <trkpt lat="47.39137" lon="-2.08703">
        <ele>62</ele>
        <time>2022-04-24T08:25:19.000Z</time>
      </trkpt>
      <trkpt lat="47.39135" lon="-2.08715">
        <ele>62</ele>
        <time>2022-04-24T08:25:21.000Z</time>
      </trkpt>
      <trkpt lat="47.39132" lon="-2.08747">
        <ele>62</ele>
        <time>2022-04-24T08:25:27.000Z</time>
      </trkpt>
      <trkpt lat="47.39124" lon="-2.08781">
        <ele>62</ele>
        <time>2022-04-24T08:25:33.000Z</time>
      </trkpt>
      <trkpt lat="47.39123" lon="-2.08793">
        <ele>62</ele>
        <time>2022-04-24T08:25:37.000Z</time>
      </trkpt>
      <trkpt lat="47.39122" lon="-2.08795">
        <ele>62</ele>
        <time>2022-04-24T08:25:39.000Z</time>
      </trkpt>
      <trkpt lat="47.39122" lon="-2.08799">
        <ele>62</ele>
        <time>2022-04-24T08:25:42.000Z</time>
      </trkpt>
      <trkpt lat="47.39124" lon="-2.08802">
        <ele>62</ele>
        <time>2022-04-24T08:25:43.000Z</time>
      </trkpt>
      <trkpt lat="47.39137" lon="-2.08816">
        <ele>62</ele>
        <time>2022-04-24T08:25:47.000Z</time>
      </trkpt>
      <trkpt lat="47.39141" lon="-2.08819">
        <ele>62</ele>
        <time>2022-04-24T08:25:48.000Z</time>
      </trkpt>
      <trkpt lat="47.3917" lon="-2.08842">
        <ele>62</ele>
        <time>2022-04-24T08:25:54.000Z</time>
      </trkpt>
      <trkpt lat="47.39209" lon="-2.08873">
        <ele>62</ele>
        <time>2022-04-24T08:26:02.000Z</time>
      </trkpt>
      <trkpt lat="47.39214" lon="-2.08876">
        <ele>62</ele>
        <time>2022-04-24T08:26:03.000Z</time>
      </trkpt>
      <trkpt lat="47.39233" lon="-2.08881">
        <ele>62</ele>
        <time>2022-04-24T08:26:06.000Z</time>
      </trkpt>
      <trkpt lat="47.39239" lon="-2.08881">
        <ele>62</ele>
        <time>2022-04-24T08:26:07.000Z</time>
      </trkpt>
      <trkpt lat="47.39258" lon="-2.08873">
        <ele>62</ele>
        <time>2022-04-24T08:26:10.000Z</time>
      </trkpt>
      <trkpt lat="47.39277" lon="-2.08862">
        <ele>62</ele>
        <time>2022-04-24T08:26:13.000Z</time>
      </trkpt>
      <trkpt lat="47.39296" lon="-2.08851">
        <ele>62</ele>
        <time>2022-04-24T08:26:16.000Z</time>
      </trkpt>
      <trkpt lat="47.39333" lon="-2.08829">
        <ele>62</ele>
        <time>2022-04-24T08:26:22.000Z</time>
      </trkpt>
      <trkpt lat="47.39383" lon="-2.08803">
        <ele>62</ele>
        <time>2022-04-24T08:26:30.000Z</time>
      </trkpt>
      <trkpt lat="47.39433" lon="-2.08784">
        <ele>62</ele>
        <time>2022-04-24T08:26:38.000Z</time>
      </trkpt>
      <trkpt lat="47.39471" lon="-2.08772">
        <ele>62</ele>
        <time>2022-04-24T08:26:44.000Z</time>
      </trkpt>
      <trkpt lat="47.39503" lon="-2.08761">
        <ele>62</ele>
        <time>2022-04-24T08:26:49.000Z</time>
      </trkpt>
      <trkpt lat="47.39547" lon="-2.08746">
        <ele>62</ele>
        <time>2022-04-24T08:26:56.000Z</time>
      </trkpt>
      <trkpt lat="47.39572" lon="-2.08741">
        <ele>62</ele>
        <time>2022-04-24T08:27:00.000Z</time>
      </trkpt>
      <trkpt lat="47.39578" lon="-2.08742">
        <ele>62</ele>
        <time>2022-04-24T08:27:01.000Z</time>
      </trkpt>
      <trkpt lat="47.39583" lon="-2.08743">
        <ele>62</ele>
        <time>2022-04-24T08:27:02.000Z</time>
      </trkpt>
      <trkpt lat="47.396" lon="-2.0875">
        <ele>62</ele>
        <time>2022-04-24T08:27:05.000Z</time>
      </trkpt>
      <trkpt lat="47.39607" lon="-2.08743">
        <ele>62</ele>
        <time>2022-04-24T08:27:07.000Z</time>
      </trkpt>
      <trkpt lat="47.3961" lon="-2.08713">
        <ele>62</ele>
        <time>2022-04-24T08:27:11.000Z</time>
      </trkpt>
      <trkpt lat="47.39609" lon="-2.08705">
        <ele>62</ele>
        <time>2022-04-24T08:27:12.000Z</time>
      </trkpt>
      <trkpt lat="47.39608" lon="-2.08697">
        <ele>62</ele>
        <time>2022-04-24T08:27:13.000Z</time>
      </trkpt>
      <trkpt lat="47.39604" lon="-2.08683">
        <ele>62</ele>
        <time>2022-04-24T08:27:15.000Z</time>
      </trkpt>
      <trkpt lat="47.39597" lon="-2.0867">
        <ele>62</ele>
        <time>2022-04-24T08:27:17.000Z</time>
      </trkpt>
      <trkpt lat="47.39583" lon="-2.08649">
        <ele>62</ele>
        <time>2022-04-24T08:27:20.000Z</time>
      </trkpt>
      <trkpt lat="47.39565" lon="-2.08621">
        <ele>62</ele>
        <time>2022-04-24T08:27:24.000Z</time>
      </trkpt>
      <trkpt lat="47.39558" lon="-2.08606">
        <ele>62</ele>
        <time>2022-04-24T08:27:26.000Z</time>
      </trkpt>
      <trkpt lat="47.39552" lon="-2.08592">
        <ele>62</ele>
        <time>2022-04-24T08:27:28.000Z</time>
      </trkpt>
      <trkpt lat="47.39544" lon="-2.08561">
        <ele>62</ele>
        <time>2022-04-24T08:27:32.000Z</time>
      </trkpt>
      <trkpt lat="47.39542" lon="-2.08546">
        <ele>62</ele>
        <time>2022-04-24T08:27:34.000Z</time>
      </trkpt>
      <trkpt lat="47.39541" lon="-2.08522">
        <ele>62</ele>
        <time>2022-04-24T08:27:37.000Z</time>
      </trkpt>
      <trkpt lat="47.39541" lon="-2.08514">
        <ele>62</ele>
        <time>2022-04-24T08:27:38.000Z</time>
      </trkpt>
      <trkpt lat="47.39542" lon="-2.08498">
        <ele>62</ele>
        <time>2022-04-24T08:27:40.000Z</time>
      </trkpt>
      <trkpt lat="47.39543" lon="-2.0849">
        <ele>62</ele>
        <time>2022-04-24T08:27:41.000Z</time>
      </trkpt>
      <trkpt lat="47.39554" lon="-2.08474">
        <ele>62</ele>
        <time>2022-04-24T08:27:44.000Z</time>
      </trkpt>
      <trkpt lat="47.39559" lon="-2.08472">
        <ele>61.200000762939</ele>
        <time>2022-04-24T08:27:45.000Z</time>
      </trkpt>
      <trkpt lat="47.39564" lon="-2.0847">
        <ele>60.799999237061</ele>
        <time>2022-04-24T08:27:46.000Z</time>
      </trkpt>
      <trkpt lat="47.3957" lon="-2.08469">
        <ele>60.400001525879</ele>
        <time>2022-04-24T08:27:47.000Z</time>
      </trkpt>
      <trkpt lat="47.39576" lon="-2.08468">
        <ele>60</ele>
        <time>2022-04-24T08:27:48.000Z</time>
      </trkpt>
      <trkpt lat="47.39587" lon="-2.08469">
        <ele>60</ele>
        <time>2022-04-24T08:27:50.000Z</time>
      </trkpt>
      <trkpt lat="47.39591" lon="-2.08473">
        <ele>60</ele>
        <time>2022-04-24T08:27:51.000Z</time>
      </trkpt>
      <trkpt lat="47.39611" lon="-2.08495">
        <ele>60</ele>
        <time>2022-04-24T08:27:56.000Z</time>
      </trkpt>
      <trkpt lat="47.39624" lon="-2.08499">
        <ele>60</ele>
        <time>2022-04-24T08:27:59.000Z</time>
      </trkpt>
      <trkpt lat="47.39632" lon="-2.085">
        <ele>60</ele>
        <time>2022-04-24T08:28:01.000Z</time>
      </trkpt>
      <trkpt lat="47.39658" lon="-2.08503">
        <ele>60</ele>
        <time>2022-04-24T08:28:07.000Z</time>
      </trkpt>
      <trkpt lat="47.39672" lon="-2.08506">
        <ele>60</ele>
        <time>2022-04-24T08:28:10.000Z</time>
      </trkpt>
      <trkpt lat="47.39687" lon="-2.08512">
        <ele>60</ele>
        <time>2022-04-24T08:28:13.000Z</time>
      </trkpt>
      <trkpt lat="47.39699" lon="-2.08525">
        <ele>60</ele>
        <time>2022-04-24T08:28:16.000Z</time>
      </trkpt>
      <trkpt lat="47.39703" lon="-2.08549">
        <ele>60</ele>
        <time>2022-04-24T08:28:20.000Z</time>
      </trkpt>
      <trkpt lat="47.39702" lon="-2.08557">
        <ele>60</ele>
        <time>2022-04-24T08:28:21.000Z</time>
      </trkpt>
      <trkpt lat="47.39701" lon="-2.08573">
        <ele>60</ele>
        <time>2022-04-24T08:28:23.000Z</time>
      </trkpt>
      <trkpt lat="47.39701" lon="-2.08598">
        <ele>60</ele>
        <time>2022-04-24T08:28:26.000Z</time>
      </trkpt>
      <trkpt lat="47.397" lon="-2.08629">
        <ele>60.400001525879</ele>
        <time>2022-04-24T08:28:30.000Z</time>
      </trkpt>
      <trkpt lat="47.397" lon="-2.08636">
        <ele>61</ele>
        <time>2022-04-24T08:28:31.000Z</time>
      </trkpt>
      <trkpt lat="47.397" lon="-2.08643">
        <ele>61.400001525879</ele>
        <time>2022-04-24T08:28:32.000Z</time>
      </trkpt>
      <trkpt lat="47.397" lon="-2.0865">
        <ele>61.799999237061</ele>
        <time>2022-04-24T08:28:33.000Z</time>
      </trkpt>
      <trkpt lat="47.397" lon="-2.08657">
        <ele>62.400001525879</ele>
        <time>2022-04-24T08:28:34.000Z</time>
      </trkpt>
      <trkpt lat="47.39698" lon="-2.08677">
        <ele>62.400001525879</ele>
        <time>2022-04-24T08:28:37.000Z</time>
      </trkpt>
      <trkpt lat="47.39697" lon="-2.08688">
        <ele>62.400001525879</ele>
        <time>2022-04-24T08:28:39.000Z</time>
      </trkpt>
      <trkpt lat="47.39698" lon="-2.08706">
        <ele>62.400001525879</ele>
        <time>2022-04-24T08:28:42.000Z</time>
      </trkpt>
      <trkpt lat="47.397" lon="-2.08712">
        <ele>62.400001525879</ele>
        <time>2022-04-24T08:28:43.000Z</time>
      </trkpt>
      <trkpt lat="47.3971" lon="-2.08743">
        <ele>62.400001525879</ele>
        <time>2022-04-24T08:28:47.000Z</time>
      </trkpt>
      <trkpt lat="47.39712" lon="-2.08751">
        <ele>62.400001525879</ele>
        <time>2022-04-24T08:28:48.000Z</time>
      </trkpt>
      <trkpt lat="47.39714" lon="-2.08759">
        <ele>62.400001525879</ele>
        <time>2022-04-24T08:28:49.000Z</time>
      </trkpt>
      <trkpt lat="47.39719" lon="-2.0878">
        <ele>62.400001525879</ele>
        <time>2022-04-24T08:28:52.000Z</time>
      </trkpt>
      <trkpt lat="47.39735" lon="-2.08781">
        <ele>62.400001525879</ele>
        <time>2022-04-24T08:28:55.000Z</time>
      </trkpt>
      <trkpt lat="47.3974" lon="-2.08779">
        <ele>62.400001525879</ele>
        <time>2022-04-24T08:28:56.000Z</time>
      </trkpt>
      <trkpt lat="47.39777" lon="-2.08771">
        <ele>62.400001525879</ele>
        <time>2022-04-24T08:29:02.000Z</time>
      </trkpt>
      <trkpt lat="47.3979" lon="-2.08769">
        <ele>62.400001525879</ele>
        <time>2022-04-24T08:29:04.000Z</time>
      </trkpt>
      <trkpt lat="47.39808" lon="-2.0876">
        <ele>62.400001525879</ele>
        <time>2022-04-24T08:29:07.000Z</time>
      </trkpt>
      <trkpt lat="47.3982" lon="-2.08751">
        <ele>62.400001525879</ele>
        <time>2022-04-24T08:29:09.000Z</time>
      </trkpt>
      <trkpt lat="47.39826" lon="-2.08746">
        <ele>62.400001525879</ele>
        <time>2022-04-24T08:29:10.000Z</time>
      </trkpt>
      <trkpt lat="47.39837" lon="-2.08733">
        <ele>62.400001525879</ele>
        <time>2022-04-24T08:29:12.000Z</time>
      </trkpt>
      <trkpt lat="47.39879" lon="-2.08687">
        <ele>62.400001525879</ele>
        <time>2022-04-24T08:29:20.000Z</time>
      </trkpt>
      <trkpt lat="47.39901" lon="-2.08656">
        <ele>62.400001525879</ele>
        <time>2022-04-24T08:29:25.000Z</time>
      </trkpt>
      <trkpt lat="47.3991" lon="-2.08645">
        <ele>62.400001525879</ele>
        <time>2022-04-24T08:29:27.000Z</time>
      </trkpt>
      <trkpt lat="47.39935" lon="-2.08617">
        <ele>62.400001525879</ele>
        <time>2022-04-24T08:29:33.000Z</time>
      </trkpt>
      <trkpt lat="47.39945" lon="-2.08603">
        <ele>62.400001525879</ele>
        <time>2022-04-24T08:29:36.000Z</time>
      </trkpt>
      <trkpt lat="47.39956" lon="-2.08593">
        <ele>62.400001525879</ele>
        <time>2022-04-24T08:29:39.000Z</time>
      </trkpt>
      <trkpt lat="47.39961" lon="-2.08585">
        <ele>62.400001525879</ele>
        <time>2022-04-24T08:29:42.000Z</time>
      </trkpt>
      <trkpt lat="47.39962" lon="-2.08584">
        <ele>62.400001525879</ele>
        <time>2022-04-24T08:29:43.000Z</time>
      </trkpt>
      <trkpt lat="47.39962" lon="-2.08584">
        <ele>62.400001525879</ele>
        <time>2022-04-24T08:29:44.000Z</time>
      </trkpt>
      <trkpt lat="47.39959" lon="-2.08584">
        <ele>60.200000762939</ele>
        <time>2022-04-24T08:33:57.000Z</time>
      </trkpt>
      <trkpt lat="47.39956" lon="-2.08586">
        <ele>60.200000762939</ele>
        <time>2022-04-24T08:33:59.000Z</time>
      </trkpt>
      <trkpt lat="47.39953" lon="-2.0859">
        <ele>60.200000762939</ele>
        <time>2022-04-24T08:34:01.000Z</time>
      </trkpt>
      <trkpt lat="47.39952" lon="-2.08593">
        <ele>60.200000762939</ele>
        <time>2022-04-24T08:34:02.000Z</time>
      </trkpt>
      <trkpt lat="47.39948" lon="-2.08598">
        <ele>60.200000762939</ele>
        <time>2022-04-24T08:34:04.000Z</time>
      </trkpt>
      <trkpt lat="47.39937" lon="-2.0862">
        <ele>60.200000762939</ele>
        <time>2022-04-24T08:34:10.000Z</time>
      </trkpt>
      <trkpt lat="47.39941" lon="-2.08639">
        <ele>60.200000762939</ele>
        <time>2022-04-24T08:34:14.000Z</time>
      </trkpt>
      <trkpt lat="47.39956" lon="-2.08661">
        <ele>60.200000762939</ele>
        <time>2022-04-24T08:34:20.000Z</time>
      </trkpt>
      <trkpt lat="47.39974" lon="-2.08684">
        <ele>60.200000762939</ele>
        <time>2022-04-24T08:34:26.000Z</time>
      </trkpt>
      <trkpt lat="47.39982" lon="-2.08694">
        <ele>60.200000762939</ele>
        <time>2022-04-24T08:34:30.000Z</time>
      </trkpt>
      <trkpt lat="47.39984" lon="-2.08694">
        <ele>60.200000762939</ele>
        <time>2022-04-24T08:34:31.000Z</time>
      </trkpt>
      <trkpt lat="47.39987" lon="-2.08691">
        <ele>60.200000762939</ele>
        <time>2022-04-24T08:34:33.000Z</time>
      </trkpt>
      <trkpt lat="47.39988" lon="-2.08687">
        <ele>60.200000762939</ele>
        <time>2022-04-24T08:34:34.000Z</time>
      </trkpt>
      <trkpt lat="47.4" lon="-2.08666">
        <ele>60.200000762939</ele>
        <time>2022-04-24T08:34:40.000Z</time>
      </trkpt>
      <trkpt lat="47.40015" lon="-2.08641">
        <ele>60.200000762939</ele>
        <time>2022-04-24T08:34:45.000Z</time>
      </trkpt>
      <trkpt lat="47.40028" lon="-2.08623">
        <ele>60.200000762939</ele>
        <time>2022-04-24T08:34:49.000Z</time>
      </trkpt>
      <trkpt lat="47.40046" lon="-2.08593">
        <ele>60.200000762939</ele>
        <time>2022-04-24T08:34:55.000Z</time>
      </trkpt>
      <trkpt lat="47.40059" lon="-2.0857">
        <ele>60.200000762939</ele>
        <time>2022-04-24T08:35:01.000Z</time>
      </trkpt>
      <trkpt lat="47.40062" lon="-2.08568">
        <ele>60.200000762939</ele>
        <time>2022-04-24T08:35:02.000Z</time>
      </trkpt>
      <trkpt lat="47.40067" lon="-2.0857">
        <ele>60.200000762939</ele>
        <time>2022-04-24T08:35:04.000Z</time>
      </trkpt>
      <trkpt lat="47.40067" lon="-2.08586">
        <ele>60.200000762939</ele>
        <time>2022-04-24T08:35:08.000Z</time>
      </trkpt>
      <trkpt lat="47.40067" lon="-2.08593">
        <ele>60.200000762939</ele>
        <time>2022-04-24T08:35:10.000Z</time>
      </trkpt>
      <trkpt lat="47.40065" lon="-2.08602">
        <ele>60.200000762939</ele>
        <time>2022-04-24T08:35:12.000Z</time>
      </trkpt>
      <trkpt lat="47.40063" lon="-2.08606">
        <ele>60.200000762939</ele>
        <time>2022-04-24T08:35:13.000Z</time>
      </trkpt>
      <trkpt lat="47.40054" lon="-2.08635">
        <ele>60.200000762939</ele>
        <time>2022-04-24T08:35:19.000Z</time>
      </trkpt>
      <trkpt lat="47.40042" lon="-2.08661">
        <ele>60.200000762939</ele>
        <time>2022-04-24T08:35:25.000Z</time>
      </trkpt>
      <trkpt lat="47.4004" lon="-2.0866">
        <ele>60.200000762939</ele>
        <time>2022-04-24T08:35:26.000Z</time>
      </trkpt>
      <trkpt lat="47.40039" lon="-2.08655">
        <ele>60.200000762939</ele>
        <time>2022-04-24T08:35:28.000Z</time>
      </trkpt>
      <trkpt lat="47.40038" lon="-2.08643">
        <ele>60.200000762939</ele>
        <time>2022-04-24T08:35:32.000Z</time>
      </trkpt>
      <trkpt lat="47.40036" lon="-2.08642">
        <ele>60.200000762939</ele>
        <time>2022-04-24T08:35:33.000Z</time>
      </trkpt>
      <trkpt lat="47.40024" lon="-2.08651">
        <ele>60.200000762939</ele>
        <time>2022-04-24T08:35:37.000Z</time>
      </trkpt>
      <trkpt lat="47.40015" lon="-2.08675">
        <ele>60.200000762939</ele>
        <time>2022-04-24T08:35:41.000Z</time>
      </trkpt>
      <trkpt lat="47.40007" lon="-2.08691">
        <ele>60.200000762939</ele>
        <time>2022-04-24T08:35:45.000Z</time>
      </trkpt>
      <trkpt lat="47.40007" lon="-2.08701">
        <ele>60.200000762939</ele>
        <time>2022-04-24T08:35:49.000Z</time>
      </trkpt>
      <trkpt lat="47.40011" lon="-2.08699">
        <ele>60.200000762939</ele>
        <time>2022-04-24T08:35:51.000Z</time>
      </trkpt>
      <trkpt lat="47.40014" lon="-2.08699">
        <ele>60.200000762939</ele>
        <time>2022-04-24T08:35:52.000Z</time>
      </trkpt>
      <trkpt lat="47.40016" lon="-2.08702">
        <ele>60.200000762939</ele>
        <time>2022-04-24T08:35:53.000Z</time>
      </trkpt>
      <trkpt lat="47.40028" lon="-2.08696">
        <ele>60.200000762939</ele>
        <time>2022-04-24T08:35:57.000Z</time>
      </trkpt>
      <trkpt lat="47.40038" lon="-2.0869">
        <ele>60.200000762939</ele>
        <time>2022-04-24T08:36:00.000Z</time>
      </trkpt>
      <trkpt lat="47.40041" lon="-2.08692">
        <ele>60.200000762939</ele>
        <time>2022-04-24T08:36:01.000Z</time>
      </trkpt>
      <trkpt lat="47.40051" lon="-2.08697">
        <ele>60.200000762939</ele>
        <time>2022-04-24T08:36:05.000Z</time>
      </trkpt>
      <trkpt lat="47.40052" lon="-2.08699">
        <ele>60.200000762939</ele>
        <time>2022-04-24T08:36:06.000Z</time>
      </trkpt>
      <trkpt lat="47.40048" lon="-2.08703">
        <ele>60.200000762939</ele>
        <time>2022-04-24T08:36:07.000Z</time>
      </trkpt>
      <trkpt lat="47.40045" lon="-2.08706">
        <ele>60.200000762939</ele>
        <time>2022-04-24T08:36:08.000Z</time>
      </trkpt>
      <trkpt lat="47.40031" lon="-2.08716">
        <ele>60.200000762939</ele>
        <time>2022-04-24T08:36:12.000Z</time>
      </trkpt>
      <trkpt lat="47.4003" lon="-2.08727">
        <ele>60.200000762939</ele>
        <time>2022-04-24T08:36:15.000Z</time>
      </trkpt>
      <trkpt lat="47.40039" lon="-2.08742">
        <ele>60.200000762939</ele>
        <time>2022-04-24T08:36:19.000Z</time>
      </trkpt>
      <trkpt lat="47.40047" lon="-2.08742">
        <ele>60.200000762939</ele>
        <time>2022-04-24T08:36:24.000Z</time>
      </trkpt>
      <trkpt lat="47.40049" lon="-2.08729">
        <ele>60.200000762939</ele>
        <time>2022-04-24T08:36:28.000Z</time>
      </trkpt>
      <trkpt lat="47.40055" lon="-2.08723">
        <ele>60.200000762939</ele>
        <time>2022-04-24T08:36:31.000Z</time>
      </trkpt>
      <trkpt lat="47.4006" lon="-2.08708">
        <ele>60.200000762939</ele>
        <time>2022-04-24T08:36:34.000Z</time>
      </trkpt>
      <trkpt lat="47.40062" lon="-2.08704">
        <ele>60.200000762939</ele>
        <time>2022-04-24T08:36:35.000Z</time>
      </trkpt>
      <trkpt lat="47.40076" lon="-2.08692">
        <ele>60.200000762939</ele>
        <time>2022-04-24T08:36:40.000Z</time>
      </trkpt>
      <trkpt lat="47.40086" lon="-2.08689">
        <ele>60.200000762939</ele>
        <time>2022-04-24T08:36:43.000Z</time>
      </trkpt>
      <trkpt lat="47.40088" lon="-2.08694">
        <ele>60.200000762939</ele>
        <time>2022-04-24T08:36:45.000Z</time>
      </trkpt>
      <trkpt lat="47.40084" lon="-2.08704">
        <ele>60.200000762939</ele>
        <time>2022-04-24T08:36:48.000Z</time>
      </trkpt>
      <trkpt lat="47.40078" lon="-2.08723">
        <ele>60.200000762939</ele>
        <time>2022-04-24T08:36:52.000Z</time>
      </trkpt>
      <trkpt lat="47.40069" lon="-2.08737">
        <ele>60.200000762939</ele>
        <time>2022-04-24T08:36:57.000Z</time>
      </trkpt>
      <trkpt lat="47.40069" lon="-2.08739">
        <ele>60.200000762939</ele>
        <time>2022-04-24T08:36:58.000Z</time>
      </trkpt>
      <trkpt lat="47.40076" lon="-2.08736">
        <ele>60.200000762939</ele>
        <time>2022-04-24T08:37:01.000Z</time>
      </trkpt>
      <trkpt lat="47.40082" lon="-2.08719">
        <ele>60.200000762939</ele>
        <time>2022-04-24T08:37:05.000Z</time>
      </trkpt>
      <trkpt lat="47.40086" lon="-2.08713">
        <ele>60.200000762939</ele>
        <time>2022-04-24T08:37:07.000Z</time>
      </trkpt>
      <trkpt lat="47.40091" lon="-2.08706">
        <ele>60.200000762939</ele>
        <time>2022-04-24T08:37:09.000Z</time>
      </trkpt>
      <trkpt lat="47.40103" lon="-2.08692">
        <ele>60.200000762939</ele>
        <time>2022-04-24T08:37:13.000Z</time>
      </trkpt>
      <trkpt lat="47.40104" lon="-2.08667">
        <ele>60.200000762939</ele>
        <time>2022-04-24T08:37:18.000Z</time>
      </trkpt>
      <trkpt lat="47.40105" lon="-2.08656">
        <ele>60.200000762939</ele>
        <time>2022-04-24T08:37:21.000Z</time>
      </trkpt>
      <trkpt lat="47.40109" lon="-2.08656">
        <ele>60.200000762939</ele>
        <time>2022-04-24T08:37:22.000Z</time>
      </trkpt>
      <trkpt lat="47.40124" lon="-2.08664">
        <ele>60.200000762939</ele>
        <time>2022-04-24T08:37:27.000Z</time>
      </trkpt>
      <trkpt lat="47.40128" lon="-2.08675">
        <ele>60.200000762939</ele>
        <time>2022-04-24T08:37:31.000Z</time>
      </trkpt>
      <trkpt lat="47.4013" lon="-2.08686">
        <ele>60.200000762939</ele>
        <time>2022-04-24T08:37:35.000Z</time>
      </trkpt>
      <trkpt lat="47.40132" lon="-2.08687">
        <ele>60.200000762939</ele>
        <time>2022-04-24T08:37:36.000Z</time>
      </trkpt>
      <trkpt lat="47.40142" lon="-2.0869">
        <ele>60.200000762939</ele>
        <time>2022-04-24T08:37:42.000Z</time>
      </trkpt>
      <trkpt lat="47.40153" lon="-2.08694">
        <ele>60.200000762939</ele>
        <time>2022-04-24T08:37:47.000Z</time>
      </trkpt>
      <trkpt lat="47.40154" lon="-2.08703">
        <ele>60.200000762939</ele>
        <time>2022-04-24T08:37:51.000Z</time>
      </trkpt>
      <trkpt lat="47.40152" lon="-2.08705">
        <ele>60.200000762939</ele>
        <time>2022-04-24T08:37:52.000Z</time>
      </trkpt>
      <trkpt lat="47.40147" lon="-2.08712">
        <ele>60.200000762939</ele>
        <time>2022-04-24T08:37:55.000Z</time>
      </trkpt>
      <trkpt lat="47.40145" lon="-2.08714">
        <ele>60.200000762939</ele>
        <time>2022-04-24T08:37:56.000Z</time>
      </trkpt>
      <trkpt lat="47.40141" lon="-2.08718">
        <ele>60.200000762939</ele>
        <time>2022-04-24T08:38:00.000Z</time>
      </trkpt>
      <trkpt lat="47.40138" lon="-2.0872">
        <ele>60.200000762939</ele>
        <time>2022-04-24T08:38:02.000Z</time>
      </trkpt>
      <trkpt lat="47.40127" lon="-2.08718">
        <ele>60.200000762939</ele>
        <time>2022-04-24T08:38:06.000Z</time>
      </trkpt>
      <trkpt lat="47.40113" lon="-2.08714">
        <ele>60.200000762939</ele>
        <time>2022-04-24T08:38:11.000Z</time>
      </trkpt>
      <trkpt lat="47.40109" lon="-2.08718">
        <ele>60.200000762939</ele>
        <time>2022-04-24T08:38:13.000Z</time>
      </trkpt>
      <trkpt lat="47.40106" lon="-2.08724">
        <ele>60.200000762939</ele>
        <time>2022-04-24T08:38:15.000Z</time>
      </trkpt>
      <trkpt lat="47.40103" lon="-2.08732">
        <ele>60.200000762939</ele>
        <time>2022-04-24T08:38:17.000Z</time>
      </trkpt>
      <trkpt lat="47.40101" lon="-2.08751">
        <ele>60.200000762939</ele>
        <time>2022-04-24T08:38:21.000Z</time>
      </trkpt>
      <trkpt lat="47.40107" lon="-2.08751">
        <ele>60.200000762939</ele>
        <time>2022-04-24T08:38:25.000Z</time>
      </trkpt>
      <trkpt lat="47.4012" lon="-2.08743">
        <ele>60.200000762939</ele>
        <time>2022-04-24T08:38:29.000Z</time>
      </trkpt>
      <trkpt lat="47.40124" lon="-2.08741">
        <ele>60.200000762939</ele>
        <time>2022-04-24T08:38:30.000Z</time>
      </trkpt>
      <trkpt lat="47.40127" lon="-2.08742">
        <ele>60.200000762939</ele>
        <time>2022-04-24T08:38:31.000Z</time>
      </trkpt>
      <trkpt lat="47.40132" lon="-2.08746">
        <ele>60.200000762939</ele>
        <time>2022-04-24T08:38:34.000Z</time>
      </trkpt>
      <trkpt lat="47.40131" lon="-2.0875">
        <ele>60.200000762939</ele>
        <time>2022-04-24T08:38:39.000Z</time>
      </trkpt>
      <trkpt lat="47.4012" lon="-2.08753">
        <ele>60.200000762939</ele>
        <time>2022-04-24T08:38:42.000Z</time>
      </trkpt>
      <trkpt lat="47.40109" lon="-2.08761">
        <ele>60.200000762939</ele>
        <time>2022-04-24T08:38:46.000Z</time>
      </trkpt>
      <trkpt lat="47.40107" lon="-2.08762">
        <ele>60.200000762939</ele>
        <time>2022-04-24T08:38:47.000Z</time>
      </trkpt>
      <trkpt lat="47.40105" lon="-2.08761">
        <ele>60.200000762939</ele>
        <time>2022-04-24T08:38:48.000Z</time>
      </trkpt>
      <trkpt lat="47.40098" lon="-2.08757">
        <ele>60.200000762939</ele>
        <time>2022-04-24T08:38:51.000Z</time>
      </trkpt>
      <trkpt lat="47.40091" lon="-2.08761">
        <ele>60.200000762939</ele>
        <time>2022-04-24T08:38:55.000Z</time>
      </trkpt>
      <trkpt lat="47.40091" lon="-2.08764">
        <ele>60.200000762939</ele>
        <time>2022-04-24T08:38:56.000Z</time>
      </trkpt>
      <trkpt lat="47.40095" lon="-2.0878">
        <ele>60.200000762939</ele>
        <time>2022-04-24T08:39:00.000Z</time>
      </trkpt>
      <trkpt lat="47.40094" lon="-2.08792">
        <ele>60.200000762939</ele>
        <time>2022-04-24T08:39:04.000Z</time>
      </trkpt>
      <trkpt lat="47.40096" lon="-2.088">
        <ele>60.200000762939</ele>
        <time>2022-04-24T08:39:26.000Z</time>
      </trkpt>
      <trkpt lat="47.401" lon="-2.08799">
        <ele>60.200000762939</ele>
        <time>2022-04-24T08:39:28.000Z</time>
      </trkpt>
      <trkpt lat="47.40115" lon="-2.08799">
        <ele>60.200000762939</ele>
        <time>2022-04-24T08:39:34.000Z</time>
      </trkpt>
      <trkpt lat="47.40132" lon="-2.088">
        <ele>60.200000762939</ele>
        <time>2022-04-24T08:39:39.000Z</time>
      </trkpt>
      <trkpt lat="47.40152" lon="-2.08796">
        <ele>60.200000762939</ele>
        <time>2022-04-24T08:39:44.000Z</time>
      </trkpt>
      <trkpt lat="47.40181" lon="-2.08789">
        <ele>60.200000762939</ele>
        <time>2022-04-24T08:39:50.000Z</time>
      </trkpt>
      <trkpt lat="47.4019" lon="-2.08784">
        <ele>60.200000762939</ele>
        <time>2022-04-24T08:39:52.000Z</time>
      </trkpt>
      <trkpt lat="47.40204" lon="-2.08773">
        <ele>60.200000762939</ele>
        <time>2022-04-24T08:39:55.000Z</time>
      </trkpt>
      <trkpt lat="47.40225" lon="-2.0876">
        <ele>60.200000762939</ele>
        <time>2022-04-24T08:40:00.000Z</time>
      </trkpt>
      <trkpt lat="47.40229" lon="-2.08757">
        <ele>60.200000762939</ele>
        <time>2022-04-24T08:40:01.000Z</time>
      </trkpt>
      <trkpt lat="47.40252" lon="-2.08739">
        <ele>60.200000762939</ele>
        <time>2022-04-24T08:40:06.000Z</time>
      </trkpt>
      <trkpt lat="47.40256" lon="-2.08733">
        <ele>60.200000762939</ele>
        <time>2022-04-24T08:40:07.000Z</time>
      </trkpt>
      <trkpt lat="47.40278" lon="-2.08709">
        <ele>60.200000762939</ele>
        <time>2022-04-24T08:40:12.000Z</time>
      </trkpt>
      <trkpt lat="47.40307" lon="-2.08689">
        <ele>60.200000762939</ele>
        <time>2022-04-24T08:40:18.000Z</time>
      </trkpt>
      <trkpt lat="47.40338" lon="-2.08667">
        <ele>60.200000762939</ele>
        <time>2022-04-24T08:40:25.000Z</time>
      </trkpt>
      <trkpt lat="47.40341" lon="-2.08664">
        <ele>60.200000762939</ele>
        <time>2022-04-24T08:40:26.000Z</time>
      </trkpt>
      <trkpt lat="47.40352" lon="-2.08641">
        <ele>60.200000762939</ele>
        <time>2022-04-24T08:40:30.000Z</time>
      </trkpt>
      <trkpt lat="47.40353" lon="-2.08619">
        <ele>60.200000762939</ele>
        <time>2022-04-24T08:40:33.000Z</time>
      </trkpt>
      <trkpt lat="47.40353" lon="-2.08588">
        <ele>60.200000762939</ele>
        <time>2022-04-24T08:40:38.000Z</time>
      </trkpt>
      <trkpt lat="47.40355" lon="-2.08585">
        <ele>60.200000762939</ele>
        <time>2022-04-24T08:40:39.000Z</time>
      </trkpt>
      <trkpt lat="47.4036" lon="-2.08585">
        <ele>60.200000762939</ele>
        <time>2022-04-24T08:40:41.000Z</time>
      </trkpt>
      <trkpt lat="47.40369" lon="-2.0859">
        <ele>60.200000762939</ele>
        <time>2022-04-24T08:40:45.000Z</time>
      </trkpt>
      <trkpt lat="47.40372" lon="-2.08602">
        <ele>60.200000762939</ele>
        <time>2022-04-24T08:40:49.000Z</time>
      </trkpt>
      <trkpt lat="47.40379" lon="-2.08613">
        <ele>60.200000762939</ele>
        <time>2022-04-24T08:40:53.000Z</time>
      </trkpt>
      <trkpt lat="47.40387" lon="-2.08631">
        <ele>60.200000762939</ele>
        <time>2022-04-24T08:40:57.000Z</time>
      </trkpt>
      <trkpt lat="47.4039" lon="-2.08634">
        <ele>60.200000762939</ele>
        <time>2022-04-24T08:40:58.000Z</time>
      </trkpt>
      <trkpt lat="47.40396" lon="-2.08636">
        <ele>60.200000762939</ele>
        <time>2022-04-24T08:41:00.000Z</time>
      </trkpt>
      <trkpt lat="47.40402" lon="-2.08635">
        <ele>60.200000762939</ele>
        <time>2022-04-24T08:41:02.000Z</time>
      </trkpt>
      <trkpt lat="47.40414" lon="-2.08636">
        <ele>60.200000762939</ele>
        <time>2022-04-24T08:41:05.000Z</time>
      </trkpt>
      <trkpt lat="47.40421" lon="-2.0864">
        <ele>60.200000762939</ele>
        <time>2022-04-24T08:41:07.000Z</time>
      </trkpt>
      <trkpt lat="47.40428" lon="-2.08648">
        <ele>60.200000762939</ele>
        <time>2022-04-24T08:41:09.000Z</time>
      </trkpt>
      <trkpt lat="47.40441" lon="-2.08664">
        <ele>60.200000762939</ele>
        <time>2022-04-24T08:41:14.000Z</time>
      </trkpt>
      <trkpt lat="47.40445" lon="-2.08665">
        <ele>60.200000762939</ele>
        <time>2022-04-24T08:41:16.000Z</time>
      </trkpt>
      <trkpt lat="47.4045" lon="-2.08664">
        <ele>60.200000762939</ele>
        <time>2022-04-24T08:41:18.000Z</time>
      </trkpt>
      <trkpt lat="47.40455" lon="-2.08651">
        <ele>60.200000762939</ele>
        <time>2022-04-24T08:41:21.000Z</time>
      </trkpt>
      <trkpt lat="47.40454" lon="-2.08643">
        <ele>60.200000762939</ele>
        <time>2022-04-24T08:41:23.000Z</time>
      </trkpt>
      <trkpt lat="47.40451" lon="-2.08643">
        <ele>60.200000762939</ele>
        <time>2022-04-24T08:41:25.000Z</time>
      </trkpt>
      <trkpt lat="47.40442" lon="-2.08633">
        <ele>60.200000762939</ele>
        <time>2022-04-24T08:41:30.000Z</time>
      </trkpt>
      <trkpt lat="47.40445" lon="-2.08625">
        <ele>60.200000762939</ele>
        <time>2022-04-24T08:41:33.000Z</time>
      </trkpt>
      <trkpt lat="47.40454" lon="-2.08624">
        <ele>60.200000762939</ele>
        <time>2022-04-24T08:41:36.000Z</time>
      </trkpt>
      <trkpt lat="47.40461" lon="-2.08603">
        <ele>60.200000762939</ele>
        <time>2022-04-24T08:41:40.000Z</time>
      </trkpt>
      <trkpt lat="47.40462" lon="-2.08598">
        <ele>60.200000762939</ele>
        <time>2022-04-24T08:41:41.000Z</time>
      </trkpt>
      <trkpt lat="47.40465" lon="-2.08595">
        <ele>60.200000762939</ele>
        <time>2022-04-24T08:41:43.000Z</time>
      </trkpt>
      <trkpt lat="47.40467" lon="-2.08595">
        <ele>60.200000762939</ele>
        <time>2022-04-24T08:41:44.000Z</time>
      </trkpt>
      <trkpt lat="47.4047" lon="-2.08604">
        <ele>60.200000762939</ele>
        <time>2022-04-24T08:41:48.000Z</time>
      </trkpt>
      <trkpt lat="47.4047" lon="-2.08609">
        <ele>60.200000762939</ele>
        <time>2022-04-24T08:41:49.000Z</time>
      </trkpt>
      <trkpt lat="47.40474" lon="-2.08624">
        <ele>60.200000762939</ele>
        <time>2022-04-24T08:41:52.000Z</time>
      </trkpt>
      <trkpt lat="47.40474" lon="-2.08629">
        <ele>60.200000762939</ele>
        <time>2022-04-24T08:41:53.000Z</time>
      </trkpt>
      <trkpt lat="47.40475" lon="-2.08643">
        <ele>60.200000762939</ele>
        <time>2022-04-24T08:41:56.000Z</time>
      </trkpt>
      <trkpt lat="47.40478" lon="-2.08658">
        <ele>60.200000762939</ele>
        <time>2022-04-24T08:41:59.000Z</time>
      </trkpt>
      <trkpt lat="47.40481" lon="-2.08658">
        <ele>60.200000762939</ele>
        <time>2022-04-24T08:42:00.000Z</time>
      </trkpt>
      <trkpt lat="47.40489" lon="-2.08652">
        <ele>60.200000762939</ele>
        <time>2022-04-24T08:42:03.000Z</time>
      </trkpt>
      <trkpt lat="47.40491" lon="-2.08649">
        <ele>60.200000762939</ele>
        <time>2022-04-24T08:42:04.000Z</time>
      </trkpt>
      <trkpt lat="47.40491" lon="-2.08643">
        <ele>60.200000762939</ele>
        <time>2022-04-24T08:42:07.000Z</time>
      </trkpt>
      <trkpt lat="47.4049" lon="-2.08641">
        <ele>60.200000762939</ele>
        <time>2022-04-24T08:42:08.000Z</time>
      </trkpt>
      <trkpt lat="47.4048" lon="-2.08623">
        <ele>60.200000762939</ele>
        <time>2022-04-24T08:42:13.000Z</time>
      </trkpt>
      <trkpt lat="47.4048" lon="-2.08619">
        <ele>60.200000762939</ele>
        <time>2022-04-24T08:42:14.000Z</time>
      </trkpt>
      <trkpt lat="47.40482" lon="-2.08614">
        <ele>60.200000762939</ele>
        <time>2022-04-24T08:42:16.000Z</time>
      </trkpt>
      <trkpt lat="47.40481" lon="-2.08609">
        <ele>60.200000762939</ele>
        <time>2022-04-24T08:42:18.000Z</time>
      </trkpt>
      <trkpt lat="47.40481" lon="-2.08603">
        <ele>60.200000762939</ele>
        <time>2022-04-24T08:42:20.000Z</time>
      </trkpt>
      <trkpt lat="47.40479" lon="-2.08598">
        <ele>60.200000762939</ele>
        <time>2022-04-24T08:42:22.000Z</time>
      </trkpt>
      <trkpt lat="47.40478" lon="-2.08593">
        <ele>60.200000762939</ele>
        <time>2022-04-24T08:42:24.000Z</time>
      </trkpt>
      <trkpt lat="47.40477" lon="-2.08588">
        <ele>60.200000762939</ele>
        <time>2022-04-24T08:42:25.000Z</time>
      </trkpt>
      <trkpt lat="47.40479" lon="-2.0857">
        <ele>60.200000762939</ele>
        <time>2022-04-24T08:42:28.000Z</time>
      </trkpt>
      <trkpt lat="47.4048" lon="-2.08564">
        <ele>60.200000762939</ele>
        <time>2022-04-24T08:42:29.000Z</time>
      </trkpt>
      <trkpt lat="47.40484" lon="-2.08551">
        <ele>60.200000762939</ele>
        <time>2022-04-24T08:42:32.000Z</time>
      </trkpt>
      <trkpt lat="47.40491" lon="-2.08548">
        <ele>60.200000762939</ele>
        <time>2022-04-24T08:42:34.000Z</time>
      </trkpt>
      <trkpt lat="47.40504" lon="-2.08537">
        <ele>60.200000762939</ele>
        <time>2022-04-24T08:42:39.000Z</time>
      </trkpt>
      <trkpt lat="47.40515" lon="-2.08532">
        <ele>60.200000762939</ele>
        <time>2022-04-24T08:42:43.000Z</time>
      </trkpt>
      <trkpt lat="47.40528" lon="-2.08544">
        <ele>60.200000762939</ele>
        <time>2022-04-24T08:42:47.000Z</time>
      </trkpt>
      <trkpt lat="47.4053" lon="-2.08547">
        <ele>60.200000762939</ele>
        <time>2022-04-24T08:42:48.000Z</time>
      </trkpt>
      <trkpt lat="47.40539" lon="-2.08563">
        <ele>60.200000762939</ele>
        <time>2022-04-24T08:42:52.000Z</time>
      </trkpt>
      <trkpt lat="47.40541" lon="-2.08566">
        <ele>60.200000762939</ele>
        <time>2022-04-24T08:42:53.000Z</time>
      </trkpt>
      <trkpt lat="47.40547" lon="-2.08569">
        <ele>60.200000762939</ele>
        <time>2022-04-24T08:42:56.000Z</time>
      </trkpt>
      <trkpt lat="47.40554" lon="-2.08566">
        <ele>60.200000762939</ele>
        <time>2022-04-24T08:42:59.000Z</time>
      </trkpt>
      <trkpt lat="47.40564" lon="-2.08561">
        <ele>60.200000762939</ele>
        <time>2022-04-24T08:43:01.000Z</time>
      </trkpt>
      <trkpt lat="47.40575" lon="-2.08558">
        <ele>60.200000762939</ele>
        <time>2022-04-24T08:43:03.000Z</time>
      </trkpt>
      <trkpt lat="47.40591" lon="-2.08547">
        <ele>60.200000762939</ele>
        <time>2022-04-24T08:43:06.000Z</time>
      </trkpt>
      <trkpt lat="47.40596" lon="-2.08542">
        <ele>60.200000762939</ele>
        <time>2022-04-24T08:43:07.000Z</time>
      </trkpt>
      <trkpt lat="47.40623" lon="-2.0851">
        <ele>60.200000762939</ele>
        <time>2022-04-24T08:43:13.000Z</time>
      </trkpt>
      <trkpt lat="47.40653" lon="-2.08476">
        <ele>60.200000762939</ele>
        <time>2022-04-24T08:43:20.000Z</time>
      </trkpt>
      <trkpt lat="47.4067" lon="-2.08467">
        <ele>60.200000762939</ele>
        <time>2022-04-24T08:43:24.000Z</time>
      </trkpt>
      <trkpt lat="47.40675" lon="-2.08466">
        <ele>60.200000762939</ele>
        <time>2022-04-24T08:43:25.000Z</time>
      </trkpt>
      <trkpt lat="47.40695" lon="-2.08463">
        <ele>60.200000762939</ele>
        <time>2022-04-24T08:43:29.000Z</time>
      </trkpt>
      <trkpt lat="47.40709" lon="-2.08464">
        <ele>60.200000762939</ele>
        <time>2022-04-24T08:43:32.000Z</time>
      </trkpt>
      <trkpt lat="47.40721" lon="-2.08468">
        <ele>60.200000762939</ele>
        <time>2022-04-24T08:43:35.000Z</time>
      </trkpt>
      <trkpt lat="47.40729" lon="-2.08472">
        <ele>60.200000762939</ele>
        <time>2022-04-24T08:43:37.000Z</time>
      </trkpt>
      <trkpt lat="47.40749" lon="-2.08478">
        <ele>60.200000762939</ele>
        <time>2022-04-24T08:43:43.000Z</time>
      </trkpt>
      <trkpt lat="47.4076" lon="-2.08484">
        <ele>60.200000762939</ele>
        <time>2022-04-24T08:43:47.000Z</time>
      </trkpt>
      <trkpt lat="47.40777" lon="-2.0849">
        <ele>60.200000762939</ele>
        <time>2022-04-24T08:43:52.000Z</time>
      </trkpt>
      <trkpt lat="47.40793" lon="-2.08505">
        <ele>60.200000762939</ele>
        <time>2022-04-24T08:43:57.000Z</time>
      </trkpt>
      <trkpt lat="47.40802" lon="-2.08531">
        <ele>60.200000762939</ele>
        <time>2022-04-24T08:44:02.000Z</time>
      </trkpt>
      <trkpt lat="47.40805" lon="-2.0855">
        <ele>60.200000762939</ele>
        <time>2022-04-24T08:44:05.000Z</time>
      </trkpt>
      <trkpt lat="47.40804" lon="-2.08562">
        <ele>60.200000762939</ele>
        <time>2022-04-24T08:44:07.000Z</time>
      </trkpt>
      <trkpt lat="47.40796" lon="-2.08577">
        <ele>60.200000762939</ele>
        <time>2022-04-24T08:44:10.000Z</time>
      </trkpt>
      <trkpt lat="47.40774" lon="-2.08589">
        <ele>60.200000762939</ele>
        <time>2022-04-24T08:44:15.000Z</time>
      </trkpt>
      <trkpt lat="47.40764" lon="-2.0859">
        <ele>60.200000762939</ele>
        <time>2022-04-24T08:44:17.000Z</time>
      </trkpt>
      <trkpt lat="47.40752" lon="-2.08593">
        <ele>60.200000762939</ele>
        <time>2022-04-24T08:44:19.000Z</time>
      </trkpt>
      <trkpt lat="47.40746" lon="-2.08596">
        <ele>60.200000762939</ele>
        <time>2022-04-24T08:44:20.000Z</time>
      </trkpt>
      <trkpt lat="47.40731" lon="-2.08606">
        <ele>60.200000762939</ele>
        <time>2022-04-24T08:44:23.000Z</time>
      </trkpt>
      <trkpt lat="47.40723" lon="-2.08616">
        <ele>60.200000762939</ele>
        <time>2022-04-24T08:44:25.000Z</time>
      </trkpt>
      <trkpt lat="47.40713" lon="-2.08645">
        <ele>60.200000762939</ele>
        <time>2022-04-24T08:44:29.000Z</time>
      </trkpt>
      <trkpt lat="47.40712" lon="-2.0868">
        <ele>60.200000762939</ele>
        <time>2022-04-24T08:44:33.000Z</time>
      </trkpt>
      <trkpt lat="47.40714" lon="-2.08698">
        <ele>60.200000762939</ele>
        <time>2022-04-24T08:44:35.000Z</time>
      </trkpt>
      <trkpt lat="47.40715" lon="-2.08706">
        <ele>60.200000762939</ele>
        <time>2022-04-24T08:44:36.000Z</time>
      </trkpt>
      <trkpt lat="47.40719" lon="-2.08721">
        <ele>60.200000762939</ele>
        <time>2022-04-24T08:44:38.000Z</time>
      </trkpt>
      <trkpt lat="47.40737" lon="-2.08772">
        <ele>60.200000762939</ele>
        <time>2022-04-24T08:44:45.000Z</time>
      </trkpt>
      <trkpt lat="47.40759" lon="-2.08815">
        <ele>60.200000762939</ele>
        <time>2022-04-24T08:44:52.000Z</time>
      </trkpt>
      <trkpt lat="47.40774" lon="-2.0884">
        <ele>60.200000762939</ele>
        <time>2022-04-24T08:44:57.000Z</time>
      </trkpt>
      <trkpt lat="47.40778" lon="-2.08845">
        <ele>60.200000762939</ele>
        <time>2022-04-24T08:44:58.000Z</time>
      </trkpt>
      <trkpt lat="47.40805" lon="-2.08879">
        <ele>60.200000762939</ele>
        <time>2022-04-24T08:45:05.000Z</time>
      </trkpt>
      <trkpt lat="47.40814" lon="-2.08893">
        <ele>60.200000762939</ele>
        <time>2022-04-24T08:45:10.000Z</time>
      </trkpt>
      <trkpt lat="47.40815" lon="-2.08893">
        <ele>60.200000762939</ele>
        <time>2022-04-24T08:45:11.000Z</time>
      </trkpt>
      <trkpt lat="47.40816" lon="-2.08895">
        <ele>60.200000762939</ele>
        <time>2022-04-24T08:45:51.000Z</time>
      </trkpt>
      <trkpt lat="47.4082" lon="-2.08901">
        <ele>60.200000762939</ele>
        <time>2022-04-24T08:45:53.000Z</time>
      </trkpt>
      <trkpt lat="47.40827" lon="-2.08922">
        <ele>60.200000762939</ele>
        <time>2022-04-24T08:45:57.000Z</time>
      </trkpt>
      <trkpt lat="47.40828" lon="-2.08929">
        <ele>60.200000762939</ele>
        <time>2022-04-24T08:45:58.000Z</time>
      </trkpt>
      <trkpt lat="47.4083" lon="-2.08955">
        <ele>60.200000762939</ele>
        <time>2022-04-24T08:46:02.000Z</time>
      </trkpt>
      <trkpt lat="47.40831" lon="-2.08967">
        <ele>60.200000762939</ele>
        <time>2022-04-24T08:46:04.000Z</time>
      </trkpt>
      <trkpt lat="47.40828" lon="-2.08977">
        <ele>60.200000762939</ele>
        <time>2022-04-24T08:46:06.000Z</time>
      </trkpt>
      <trkpt lat="47.40827" lon="-2.08979">
        <ele>60.200000762939</ele>
        <time>2022-04-24T08:46:08.000Z</time>
      </trkpt>
      <trkpt lat="47.40828" lon="-2.08984">
        <ele>60.200000762939</ele>
        <time>2022-04-24T08:47:22.000Z</time>
      </trkpt>
      <trkpt lat="47.4083" lon="-2.09005">
        <ele>60.200000762939</ele>
        <time>2022-04-24T08:47:28.000Z</time>
      </trkpt>
      <trkpt lat="47.40825" lon="-2.09028">
        <ele>60.200000762939</ele>
        <time>2022-04-24T08:47:33.000Z</time>
      </trkpt>
      <trkpt lat="47.40818" lon="-2.0904">
        <ele>60.200000762939</ele>
        <time>2022-04-24T08:47:37.000Z</time>
      </trkpt>
      <trkpt lat="47.40819" lon="-2.0904">
        <ele>60.200000762939</ele>
        <time>2022-04-24T08:47:38.000Z</time>
      </trkpt>
      <trkpt lat="47.40818" lon="-2.09041">
        <ele>60.200000762939</ele>
        <time>2022-04-24T08:48:03.000Z</time>
      </trkpt>
      <trkpt lat="47.40817" lon="-2.09044">
        <ele>60.200000762939</ele>
        <time>2022-04-24T08:48:04.000Z</time>
      </trkpt>
      <trkpt lat="47.4081" lon="-2.09058">
        <ele>60.200000762939</ele>
        <time>2022-04-24T08:48:09.000Z</time>
      </trkpt>
      <trkpt lat="47.40794" lon="-2.09072">
        <ele>60.200000762939</ele>
        <time>2022-04-24T08:48:15.000Z</time>
      </trkpt>
      <trkpt lat="47.40771" lon="-2.09074">
        <ele>60.200000762939</ele>
        <time>2022-04-24T08:48:21.000Z</time>
      </trkpt>
      <trkpt lat="47.40761" lon="-2.0908">
        <ele>60.200000762939</ele>
        <time>2022-04-24T08:48:23.000Z</time>
      </trkpt>
      <trkpt lat="47.40753" lon="-2.09092">
        <ele>60.200000762939</ele>
        <time>2022-04-24T08:48:25.000Z</time>
      </trkpt>
      <trkpt lat="47.40746" lon="-2.0912">
        <ele>60.200000762939</ele>
        <time>2022-04-24T08:48:29.000Z</time>
      </trkpt>
      <trkpt lat="47.40739" lon="-2.09168">
        <ele>60.200000762939</ele>
        <time>2022-04-24T08:48:35.000Z</time>
      </trkpt>
      <trkpt lat="47.40734" lon="-2.09224">
        <ele>60.200000762939</ele>
        <time>2022-04-24T08:48:42.000Z</time>
      </trkpt>
      <trkpt lat="47.40731" lon="-2.0924">
        <ele>60.200000762939</ele>
        <time>2022-04-24T08:48:44.000Z</time>
      </trkpt>
      <trkpt lat="47.40721" lon="-2.09263">
        <ele>60.200000762939</ele>
        <time>2022-04-24T08:48:47.000Z</time>
      </trkpt>
      <trkpt lat="47.40715" lon="-2.09277">
        <ele>60.200000762939</ele>
        <time>2022-04-24T08:48:49.000Z</time>
      </trkpt>
      <trkpt lat="47.40703" lon="-2.09305">
        <ele>60.200000762939</ele>
        <time>2022-04-24T08:48:53.000Z</time>
      </trkpt>
      <trkpt lat="47.407" lon="-2.09311">
        <ele>60.599998474121</ele>
        <time>2022-04-24T08:48:54.000Z</time>
      </trkpt>
      <trkpt lat="47.40698" lon="-2.09318">
        <ele>61</ele>
        <time>2022-04-24T08:48:55.000Z</time>
      </trkpt>
      <trkpt lat="47.40698" lon="-2.09327">
        <ele>61.400001525879</ele>
        <time>2022-04-24T08:48:56.000Z</time>
      </trkpt>
      <trkpt lat="47.40699" lon="-2.09334">
        <ele>61.799999237061</ele>
        <time>2022-04-24T08:48:57.000Z</time>
      </trkpt>
      <trkpt lat="47.407" lon="-2.09342">
        <ele>62.200000762939</ele>
        <time>2022-04-24T08:48:58.000Z</time>
      </trkpt>
      <trkpt lat="47.40703" lon="-2.09358">
        <ele>62.200000762939</ele>
        <time>2022-04-24T08:49:00.000Z</time>
      </trkpt>
      <trkpt lat="47.40705" lon="-2.09371">
        <ele>62.200000762939</ele>
        <time>2022-04-24T08:49:02.000Z</time>
      </trkpt>
      <trkpt lat="47.40706" lon="-2.09387">
        <ele>62.799999237061</ele>
        <time>2022-04-24T08:49:05.000Z</time>
      </trkpt>
      <trkpt lat="47.40707" lon="-2.09392">
        <ele>63.200000762939</ele>
        <time>2022-04-24T08:49:06.000Z</time>
      </trkpt>
      <trkpt lat="47.40707" lon="-2.09396">
        <ele>63.599998474121</ele>
        <time>2022-04-24T08:49:07.000Z</time>
      </trkpt>
      <trkpt lat="47.40708" lon="-2.09401">
        <ele>64.199996948242</ele>
        <time>2022-04-24T08:49:08.000Z</time>
      </trkpt>
      <trkpt lat="47.40708" lon="-2.09406">
        <ele>64.599998474121</ele>
        <time>2022-04-24T08:49:09.000Z</time>
      </trkpt>
      <trkpt lat="47.40709" lon="-2.09423">
        <ele>64.599998474121</ele>
        <time>2022-04-24T08:49:12.000Z</time>
      </trkpt>
      <trkpt lat="47.4071" lon="-2.09437">
        <ele>64.599998474121</ele>
        <time>2022-04-24T08:49:14.000Z</time>
      </trkpt>
      <trkpt lat="47.40712" lon="-2.09446">
        <ele>64.599998474121</ele>
        <time>2022-04-24T08:49:15.000Z</time>
      </trkpt>
      <trkpt lat="47.40718" lon="-2.09464">
        <ele>64.599998474121</ele>
        <time>2022-04-24T08:49:17.000Z</time>
      </trkpt>
      <trkpt lat="47.40729" lon="-2.09491">
        <ele>64.599998474121</ele>
        <time>2022-04-24T08:49:20.000Z</time>
      </trkpt>
      <trkpt lat="47.40736" lon="-2.09509">
        <ele>64.199996948242</ele>
        <time>2022-04-24T08:49:22.000Z</time>
      </trkpt>
      <trkpt lat="47.40739" lon="-2.09518">
        <ele>63.599998474121</ele>
        <time>2022-04-24T08:49:23.000Z</time>
      </trkpt>
      <trkpt lat="47.40743" lon="-2.09526">
        <ele>63.200000762939</ele>
        <time>2022-04-24T08:49:24.000Z</time>
      </trkpt>
      <trkpt lat="47.40747" lon="-2.09534">
        <ele>62.799999237061</ele>
        <time>2022-04-24T08:49:25.000Z</time>
      </trkpt>
      <trkpt lat="47.4075" lon="-2.09541">
        <ele>62.400001525879</ele>
        <time>2022-04-24T08:49:26.000Z</time>
      </trkpt>
      <trkpt lat="47.40755" lon="-2.09553">
        <ele>62.400001525879</ele>
        <time>2022-04-24T08:49:28.000Z</time>
      </trkpt>
      <trkpt lat="47.40768" lon="-2.09589">
        <ele>62.400001525879</ele>
        <time>2022-04-24T08:49:33.000Z</time>
      </trkpt>
      <trkpt lat="47.40773" lon="-2.09606">
        <ele>62.400001525879</ele>
        <time>2022-04-24T08:49:37.000Z</time>
      </trkpt>
      <trkpt lat="47.40774" lon="-2.09607">
        <ele>62.400001525879</ele>
        <time>2022-04-24T08:50:02.000Z</time>
      </trkpt>
      <trkpt lat="47.40776" lon="-2.09615">
        <ele>62.400001525879</ele>
        <time>2022-04-24T08:50:04.000Z</time>
      </trkpt>
      <trkpt lat="47.40785" lon="-2.09644">
        <ele>62.400001525879</ele>
        <time>2022-04-24T08:50:08.000Z</time>
      </trkpt>
      <trkpt lat="47.40796" lon="-2.09688">
        <ele>62.400001525879</ele>
        <time>2022-04-24T08:50:13.000Z</time>
      </trkpt>
      <trkpt lat="47.40797" lon="-2.09698">
        <ele>62.400001525879</ele>
        <time>2022-04-24T08:50:14.000Z</time>
      </trkpt>
      <trkpt lat="47.40798" lon="-2.09717">
        <ele>62.400001525879</ele>
        <time>2022-04-24T08:50:16.000Z</time>
      </trkpt>
      <trkpt lat="47.40797" lon="-2.09726">
        <ele>62.400001525879</ele>
        <time>2022-04-24T08:50:17.000Z</time>
      </trkpt>
      <trkpt lat="47.40793" lon="-2.09773">
        <ele>62</ele>
        <time>2022-04-24T08:50:22.000Z</time>
      </trkpt>
      <trkpt lat="47.40793" lon="-2.09782">
        <ele>61.599998474121</ele>
        <time>2022-04-24T08:50:23.000Z</time>
      </trkpt>
      <trkpt lat="47.40793" lon="-2.09792">
        <ele>60.599998474121</ele>
        <time>2022-04-24T08:50:24.000Z</time>
      </trkpt>
      <trkpt lat="47.40792" lon="-2.09801">
        <ele>60.200000762939</ele>
        <time>2022-04-24T08:50:25.000Z</time>
      </trkpt>
      <trkpt lat="47.40791" lon="-2.09835">
        <ele>60.200000762939</ele>
        <time>2022-04-24T08:50:29.000Z</time>
      </trkpt>
      <trkpt lat="47.40789" lon="-2.09842">
        <ele>60.200000762939</ele>
        <time>2022-04-24T08:50:30.000Z</time>
      </trkpt>
      <trkpt lat="47.40783" lon="-2.09851">
        <ele>60.200000762939</ele>
        <time>2022-04-24T08:50:32.000Z</time>
      </trkpt>
      <trkpt lat="47.40777" lon="-2.09862">
        <ele>60.200000762939</ele>
        <time>2022-04-24T08:50:34.000Z</time>
      </trkpt>
      <trkpt lat="47.40773" lon="-2.09873">
        <ele>60.200000762939</ele>
        <time>2022-04-24T08:50:36.000Z</time>
      </trkpt>
      <trkpt lat="47.40763" lon="-2.0989">
        <ele>60.200000762939</ele>
        <time>2022-04-24T08:50:39.000Z</time>
      </trkpt>
      <trkpt lat="47.40758" lon="-2.09895">
        <ele>60.200000762939</ele>
        <time>2022-04-24T08:50:40.000Z</time>
      </trkpt>
      <trkpt lat="47.40742" lon="-2.09917">
        <ele>60.200000762939</ele>
        <time>2022-04-24T08:50:44.000Z</time>
      </trkpt>
      <trkpt lat="47.40738" lon="-2.09932">
        <ele>60.599998474121</ele>
        <time>2022-04-24T08:50:46.000Z</time>
      </trkpt>
      <trkpt lat="47.40736" lon="-2.09939">
        <ele>61.200000762939</ele>
        <time>2022-04-24T08:50:47.000Z</time>
      </trkpt>
      <trkpt lat="47.40735" lon="-2.09946">
        <ele>61.599998474121</ele>
        <time>2022-04-24T08:50:48.000Z</time>
      </trkpt>
      <trkpt lat="47.40736" lon="-2.09955">
        <ele>62.400001525879</ele>
        <time>2022-04-24T08:50:49.000Z</time>
      </trkpt>
      <trkpt lat="47.40743" lon="-2.09983">
        <ele>62.400001525879</ele>
        <time>2022-04-24T08:50:53.000Z</time>
      </trkpt>
      <trkpt lat="47.40745" lon="-2.09991">
        <ele>62.400001525879</ele>
        <time>2022-04-24T08:50:54.000Z</time>
      </trkpt>
      <trkpt lat="47.40751" lon="-2.10019">
        <ele>62.400001525879</ele>
        <time>2022-04-24T08:50:58.000Z</time>
      </trkpt>
      <trkpt lat="47.40762" lon="-2.10067">
        <ele>62.400001525879</ele>
        <time>2022-04-24T08:51:04.000Z</time>
      </trkpt>
      <trkpt lat="47.40774" lon="-2.10123">
        <ele>62.400001525879</ele>
        <time>2022-04-24T08:51:11.000Z</time>
      </trkpt>
      <trkpt lat="47.40789" lon="-2.10192">
        <ele>62.400001525879</ele>
        <time>2022-04-24T08:51:20.000Z</time>
      </trkpt>
      <trkpt lat="47.40791" lon="-2.10216">
        <ele>62.799999237061</ele>
        <time>2022-04-24T08:51:23.000Z</time>
      </trkpt>
      <trkpt lat="47.40791" lon="-2.10224">
        <ele>63.200000762939</ele>
        <time>2022-04-24T08:51:24.000Z</time>
      </trkpt>
      <trkpt lat="47.4079" lon="-2.10232">
        <ele>63.599998474121</ele>
        <time>2022-04-24T08:51:25.000Z</time>
      </trkpt>
      <trkpt lat="47.4079" lon="-2.1024">
        <ele>64</ele>
        <time>2022-04-24T08:51:26.000Z</time>
      </trkpt>
      <trkpt lat="47.40789" lon="-2.10248">
        <ele>64.400001525879</ele>
        <time>2022-04-24T08:51:27.000Z</time>
      </trkpt>
      <trkpt lat="47.40785" lon="-2.10288">
        <ele>64.400001525879</ele>
        <time>2022-04-24T08:51:32.000Z</time>
      </trkpt>
      <trkpt lat="47.4079" lon="-2.10345">
        <ele>64.400001525879</ele>
        <time>2022-04-24T08:51:39.000Z</time>
      </trkpt>
      <trkpt lat="47.40805" lon="-2.10406">
        <ele>64.400001525879</ele>
        <time>2022-04-24T08:51:47.000Z</time>
      </trkpt>
      <trkpt lat="47.40814" lon="-2.10448">
        <ele>64.400001525879</ele>
        <time>2022-04-24T08:51:53.000Z</time>
      </trkpt>
      <trkpt lat="47.40828" lon="-2.10506">
        <ele>64.400001525879</ele>
        <time>2022-04-24T08:52:00.000Z</time>
      </trkpt>
      <trkpt lat="47.40837" lon="-2.10543">
        <ele>64.400001525879</ele>
        <time>2022-04-24T08:52:05.000Z</time>
      </trkpt>
      <trkpt lat="47.40846" lon="-2.10588">
        <ele>64.400001525879</ele>
        <time>2022-04-24T08:52:11.000Z</time>
      </trkpt>
      <trkpt lat="47.4085" lon="-2.10603">
        <ele>64.400001525879</ele>
        <time>2022-04-24T08:52:13.000Z</time>
      </trkpt>
      <trkpt lat="47.40858" lon="-2.10612">
        <ele>64.400001525879</ele>
        <time>2022-04-24T08:52:15.000Z</time>
      </trkpt>
      <trkpt lat="47.40875" lon="-2.10619">
        <ele>64.400001525879</ele>
        <time>2022-04-24T08:52:18.000Z</time>
      </trkpt>
      <trkpt lat="47.4088" lon="-2.10622">
        <ele>64.400001525879</ele>
        <time>2022-04-24T08:52:19.000Z</time>
      </trkpt>
      <trkpt lat="47.40895" lon="-2.10632">
        <ele>64.400001525879</ele>
        <time>2022-04-24T08:52:22.000Z</time>
      </trkpt>
      <trkpt lat="47.40912" lon="-2.10645">
        <ele>64.400001525879</ele>
        <time>2022-04-24T08:52:26.000Z</time>
      </trkpt>
      <trkpt lat="47.40915" lon="-2.1065">
        <ele>64.400001525879</ele>
        <time>2022-04-24T08:52:27.000Z</time>
      </trkpt>
      <trkpt lat="47.40925" lon="-2.10664">
        <ele>64.400001525879</ele>
        <time>2022-04-24T08:52:31.000Z</time>
      </trkpt>
      <trkpt lat="47.40927" lon="-2.10669">
        <ele>64.400001525879</ele>
        <time>2022-04-24T08:52:34.000Z</time>
      </trkpt>
      <trkpt lat="47.40936" lon="-2.10674">
        <ele>64.400001525879</ele>
        <time>2022-04-24T08:52:36.000Z</time>
      </trkpt>
      <trkpt lat="47.40941" lon="-2.10673">
        <ele>64.400001525879</ele>
        <time>2022-04-24T08:52:37.000Z</time>
      </trkpt>
      <trkpt lat="47.40971" lon="-2.10669">
        <ele>64.400001525879</ele>
        <time>2022-04-24T08:52:42.000Z</time>
      </trkpt>
      <trkpt lat="47.40986" lon="-2.10671">
        <ele>64.400001525879</ele>
        <time>2022-04-24T08:52:44.000Z</time>
      </trkpt>
      <trkpt lat="47.41001" lon="-2.10677">
        <ele>64.400001525879</ele>
        <time>2022-04-24T08:52:46.000Z</time>
      </trkpt>
      <trkpt lat="47.4103" lon="-2.1069">
        <ele>64</ele>
        <time>2022-04-24T08:52:50.000Z</time>
      </trkpt>
      <trkpt lat="47.41037" lon="-2.10693">
        <ele>63.599998474121</ele>
        <time>2022-04-24T08:52:51.000Z</time>
      </trkpt>
      <trkpt lat="47.41045" lon="-2.10695">
        <ele>62.799999237061</ele>
        <time>2022-04-24T08:52:52.000Z</time>
      </trkpt>
      <trkpt lat="47.41052" lon="-2.10698">
        <ele>62.400001525879</ele>
        <time>2022-04-24T08:52:53.000Z</time>
      </trkpt>
      <trkpt lat="47.41089" lon="-2.1071">
        <ele>62.400001525879</ele>
        <time>2022-04-24T08:52:59.000Z</time>
      </trkpt>
      <trkpt lat="47.41094" lon="-2.10722">
        <ele>62.400001525879</ele>
        <time>2022-04-24T08:53:01.000Z</time>
      </trkpt>
      <trkpt lat="47.41095" lon="-2.10734">
        <ele>62.400001525879</ele>
        <time>2022-04-24T08:53:03.000Z</time>
      </trkpt>
      <trkpt lat="47.41093" lon="-2.10757">
        <ele>62.400001525879</ele>
        <time>2022-04-24T08:53:06.000Z</time>
      </trkpt>
      <trkpt lat="47.41091" lon="-2.10764">
        <ele>62.400001525879</ele>
        <time>2022-04-24T08:53:07.000Z</time>
      </trkpt>
      <trkpt lat="47.41086" lon="-2.108">
        <ele>62.799999237061</ele>
        <time>2022-04-24T08:53:12.000Z</time>
      </trkpt>
      <trkpt lat="47.41085" lon="-2.10806">
        <ele>63.200000762939</ele>
        <time>2022-04-24T08:53:13.000Z</time>
      </trkpt>
      <trkpt lat="47.41084" lon="-2.10813">
        <ele>63.599998474121</ele>
        <time>2022-04-24T08:53:14.000Z</time>
      </trkpt>
      <trkpt lat="47.41084" lon="-2.1082">
        <ele>64</ele>
        <time>2022-04-24T08:53:15.000Z</time>
      </trkpt>
      <trkpt lat="47.41082" lon="-2.10827">
        <ele>64.400001525879</ele>
        <time>2022-04-24T08:53:16.000Z</time>
      </trkpt>
      <trkpt lat="47.41081" lon="-2.10834">
        <ele>64.400001525879</ele>
        <time>2022-04-24T08:53:17.000Z</time>
      </trkpt>
      <trkpt lat="47.41079" lon="-2.10842">
        <ele>65</ele>
        <time>2022-04-24T08:53:18.000Z</time>
      </trkpt>
      <trkpt lat="47.41078" lon="-2.1085">
        <ele>65.400001525879</ele>
        <time>2022-04-24T08:53:19.000Z</time>
      </trkpt>
      <trkpt lat="47.41077" lon="-2.10858">
        <ele>65.800003051758</ele>
        <time>2022-04-24T08:53:20.000Z</time>
      </trkpt>
      <trkpt lat="47.41076" lon="-2.10866">
        <ele>66.199996948242</ele>
        <time>2022-04-24T08:53:21.000Z</time>
      </trkpt>
      <trkpt lat="47.41074" lon="-2.10874">
        <ele>66.599998474121</ele>
        <time>2022-04-24T08:53:22.000Z</time>
      </trkpt>
      <trkpt lat="47.41072" lon="-2.10882">
        <ele>66.599998474121</ele>
        <time>2022-04-24T08:53:23.000Z</time>
      </trkpt>
      <trkpt lat="47.41069" lon="-2.10899">
        <ele>66.599998474121</ele>
        <time>2022-04-24T08:53:25.000Z</time>
      </trkpt>
      <trkpt lat="47.41064" lon="-2.10935">
        <ele>66.599998474121</ele>
        <time>2022-04-24T08:53:29.000Z</time>
      </trkpt>
      <trkpt lat="47.41055" lon="-2.10994">
        <ele>66.599998474121</ele>
        <time>2022-04-24T08:53:36.000Z</time>
      </trkpt>
      <trkpt lat="47.41047" lon="-2.11044">
        <ele>66.599998474121</ele>
        <time>2022-04-24T08:53:43.000Z</time>
      </trkpt>
      <trkpt lat="47.41043" lon="-2.11073">
        <ele>67</ele>
        <time>2022-04-24T08:53:47.000Z</time>
      </trkpt>
      <trkpt lat="47.41042" lon="-2.11081">
        <ele>67.400001525879</ele>
        <time>2022-04-24T08:53:48.000Z</time>
      </trkpt>
      <trkpt lat="47.41041" lon="-2.11089">
        <ele>67.800003051758</ele>
        <time>2022-04-24T08:53:49.000Z</time>
      </trkpt>
      <trkpt lat="47.4104" lon="-2.11096">
        <ele>68.199996948242</ele>
        <time>2022-04-24T08:53:50.000Z</time>
      </trkpt>
      <trkpt lat="47.41039" lon="-2.11105">
        <ele>68.599998474121</ele>
        <time>2022-04-24T08:53:51.000Z</time>
      </trkpt>
      <trkpt lat="47.41038" lon="-2.11113">
        <ele>68.599998474121</ele>
        <time>2022-04-24T08:53:52.000Z</time>
      </trkpt>
      <trkpt lat="47.41035" lon="-2.11129">
        <ele>68.599998474121</ele>
        <time>2022-04-24T08:53:54.000Z</time>
      </trkpt>
      <trkpt lat="47.4103" lon="-2.1116">
        <ele>68.599998474121</ele>
        <time>2022-04-24T08:53:58.000Z</time>
      </trkpt>
      <trkpt lat="47.41026" lon="-2.1119">
        <ele>68.599998474121</ele>
        <time>2022-04-24T08:54:02.000Z</time>
      </trkpt>
      <trkpt lat="47.41026" lon="-2.11205">
        <ele>68.599998474121</ele>
        <time>2022-04-24T08:54:04.000Z</time>
      </trkpt>
      <trkpt lat="47.41026" lon="-2.11212">
        <ele>69.199996948242</ele>
        <time>2022-04-24T08:54:05.000Z</time>
      </trkpt>
      <trkpt lat="47.41025" lon="-2.11219">
        <ele>70</ele>
        <time>2022-04-24T08:54:06.000Z</time>
      </trkpt>
      <trkpt lat="47.41024" lon="-2.11227">
        <ele>70.400001525879</ele>
        <time>2022-04-24T08:54:07.000Z</time>
      </trkpt>
      <trkpt lat="47.41023" lon="-2.11234">
        <ele>70.800003051758</ele>
        <time>2022-04-24T08:54:08.000Z</time>
      </trkpt>
      <trkpt lat="47.41022" lon="-2.11241">
        <ele>70.800003051758</ele>
        <time>2022-04-24T08:54:09.000Z</time>
      </trkpt>
      <trkpt lat="47.41015" lon="-2.11294">
        <ele>70.800003051758</ele>
        <time>2022-04-24T08:54:16.000Z</time>
      </trkpt>
      <trkpt lat="47.41007" lon="-2.1135">
        <ele>70.800003051758</ele>
        <time>2022-04-24T08:54:23.000Z</time>
      </trkpt>
      <trkpt lat="47.40998" lon="-2.11408">
        <ele>70.800003051758</ele>
        <time>2022-04-24T08:54:30.000Z</time>
      </trkpt>
      <trkpt lat="47.40997" lon="-2.11417">
        <ele>70.800003051758</ele>
        <time>2022-04-24T08:54:31.000Z</time>
      </trkpt>
      <trkpt lat="47.40992" lon="-2.11459">
        <ele>70.800003051758</ele>
        <time>2022-04-24T08:54:36.000Z</time>
      </trkpt>
      <trkpt lat="47.40983" lon="-2.11519">
        <ele>70.800003051758</ele>
        <time>2022-04-24T08:54:43.000Z</time>
      </trkpt>
      <trkpt lat="47.40969" lon="-2.11573">
        <ele>70.800003051758</ele>
        <time>2022-04-24T08:54:50.000Z</time>
      </trkpt>
      <trkpt lat="47.40951" lon="-2.11629">
        <ele>70.800003051758</ele>
        <time>2022-04-24T08:54:57.000Z</time>
      </trkpt>
      <trkpt lat="47.40934" lon="-2.11684">
        <ele>70.199996948242</ele>
        <time>2022-04-24T08:55:03.000Z</time>
      </trkpt>
      <trkpt lat="47.40931" lon="-2.11693">
        <ele>69.800003051758</ele>
        <time>2022-04-24T08:55:04.000Z</time>
      </trkpt>
      <trkpt lat="47.40928" lon="-2.11703">
        <ele>69.400001525879</ele>
        <time>2022-04-24T08:55:05.000Z</time>
      </trkpt>
      <trkpt lat="47.40924" lon="-2.11713">
        <ele>68.800003051758</ele>
        <time>2022-04-24T08:55:06.000Z</time>
      </trkpt>
      <trkpt lat="47.40921" lon="-2.11723">
        <ele>68.400001525879</ele>
        <time>2022-04-24T08:55:07.000Z</time>
      </trkpt>
      <trkpt lat="47.40917" lon="-2.11733">
        <ele>68</ele>
        <time>2022-04-24T08:55:08.000Z</time>
      </trkpt>
      <trkpt lat="47.40914" lon="-2.11744">
        <ele>67.599998474121</ele>
        <time>2022-04-24T08:55:09.000Z</time>
      </trkpt>
      <trkpt lat="47.40911" lon="-2.11754">
        <ele>67</ele>
        <time>2022-04-24T08:55:10.000Z</time>
      </trkpt>
      <trkpt lat="47.40907" lon="-2.11764">
        <ele>66.599998474121</ele>
        <time>2022-04-24T08:55:11.000Z</time>
      </trkpt>
      <trkpt lat="47.40904" lon="-2.11774">
        <ele>66.199996948242</ele>
        <time>2022-04-24T08:55:12.000Z</time>
      </trkpt>
      <trkpt lat="47.40891" lon="-2.11813">
        <ele>65.800003051758</ele>
        <time>2022-04-24T08:55:16.000Z</time>
      </trkpt>
      <trkpt lat="47.40888" lon="-2.11823">
        <ele>65.400001525879</ele>
        <time>2022-04-24T08:55:17.000Z</time>
      </trkpt>
      <trkpt lat="47.40885" lon="-2.11833">
        <ele>64.800003051758</ele>
        <time>2022-04-24T08:55:18.000Z</time>
      </trkpt>
      <trkpt lat="47.40882" lon="-2.11843">
        <ele>64.400001525879</ele>
        <time>2022-04-24T08:55:19.000Z</time>
      </trkpt>
      <trkpt lat="47.4088" lon="-2.11852">
        <ele>64</ele>
        <time>2022-04-24T08:55:20.000Z</time>
      </trkpt>
      <trkpt lat="47.40878" lon="-2.11862">
        <ele>64</ele>
        <time>2022-04-24T08:55:21.000Z</time>
      </trkpt>
      <trkpt lat="47.40878" lon="-2.11872">
        <ele>64</ele>
        <time>2022-04-24T08:55:22.000Z</time>
      </trkpt>
      <trkpt lat="47.40877" lon="-2.11903">
        <ele>64</ele>
        <time>2022-04-24T08:55:25.000Z</time>
      </trkpt>
      <trkpt lat="47.40877" lon="-2.11932">
        <ele>64</ele>
        <time>2022-04-24T08:55:28.000Z</time>
      </trkpt>
      <trkpt lat="47.40877" lon="-2.11963">
        <ele>63.599998474121</ele>
        <time>2022-04-24T08:55:31.000Z</time>
      </trkpt>
      <trkpt lat="47.40877" lon="-2.11975">
        <ele>63.200000762939</ele>
        <time>2022-04-24T08:55:32.000Z</time>
      </trkpt>
      <trkpt lat="47.40877" lon="-2.11986">
        <ele>62.799999237061</ele>
        <time>2022-04-24T08:55:33.000Z</time>
      </trkpt>
      <trkpt lat="47.40878" lon="-2.11996">
        <ele>62.400001525879</ele>
        <time>2022-04-24T08:55:34.000Z</time>
      </trkpt>
      <trkpt lat="47.4088" lon="-2.12006">
        <ele>62</ele>
        <time>2022-04-24T08:55:35.000Z</time>
      </trkpt>
      <trkpt lat="47.40881" lon="-2.12015">
        <ele>62</ele>
        <time>2022-04-24T08:55:36.000Z</time>
      </trkpt>
      <trkpt lat="47.40886" lon="-2.12028">
        <ele>62</ele>
        <time>2022-04-24T08:55:38.000Z</time>
      </trkpt>
      <trkpt lat="47.40906" lon="-2.1204">
        <ele>62</ele>
        <time>2022-04-24T08:55:41.000Z</time>
      </trkpt>
      <trkpt lat="47.40944" lon="-2.12074">
        <ele>62</ele>
        <time>2022-04-24T08:55:48.000Z</time>
      </trkpt>
      <trkpt lat="47.40952" lon="-2.12087">
        <ele>62</ele>
        <time>2022-04-24T08:55:50.000Z</time>
      </trkpt>
      <trkpt lat="47.40963" lon="-2.12107">
        <ele>62</ele>
        <time>2022-04-24T08:55:53.000Z</time>
      </trkpt>
      <trkpt lat="47.40981" lon="-2.12141">
        <ele>62</ele>
        <time>2022-04-24T08:55:58.000Z</time>
      </trkpt>
      <trkpt lat="47.41006" lon="-2.12187">
        <ele>62</ele>
        <time>2022-04-24T08:56:05.000Z</time>
      </trkpt>
      <trkpt lat="47.41032" lon="-2.12236">
        <ele>62</ele>
        <time>2022-04-24T08:56:12.000Z</time>
      </trkpt>
      <trkpt lat="47.41038" lon="-2.1225">
        <ele>62</ele>
        <time>2022-04-24T08:56:14.000Z</time>
      </trkpt>
      <trkpt lat="47.4104" lon="-2.12258">
        <ele>62.400001525879</ele>
        <time>2022-04-24T08:56:15.000Z</time>
      </trkpt>
      <trkpt lat="47.41042" lon="-2.12266">
        <ele>62.799999237061</ele>
        <time>2022-04-24T08:56:16.000Z</time>
      </trkpt>
      <trkpt lat="47.41043" lon="-2.12275">
        <ele>63.200000762939</ele>
        <time>2022-04-24T08:56:17.000Z</time>
      </trkpt>
      <trkpt lat="47.41044" lon="-2.12284">
        <ele>63.599998474121</ele>
        <time>2022-04-24T08:56:18.000Z</time>
      </trkpt>
      <trkpt lat="47.41045" lon="-2.12292">
        <ele>64</ele>
        <time>2022-04-24T08:56:19.000Z</time>
      </trkpt>
      <trkpt lat="47.41047" lon="-2.12317">
        <ele>64</ele>
        <time>2022-04-24T08:56:22.000Z</time>
      </trkpt>
      <trkpt lat="47.4105" lon="-2.12334">
        <ele>64</ele>
        <time>2022-04-24T08:56:24.000Z</time>
      </trkpt>
      <trkpt lat="47.41054" lon="-2.12378">
        <ele>64.400001525879</ele>
        <time>2022-04-24T08:56:29.000Z</time>
      </trkpt>
      <trkpt lat="47.41056" lon="-2.12386">
        <ele>64.800003051758</ele>
        <time>2022-04-24T08:56:30.000Z</time>
      </trkpt>
      <trkpt lat="47.41057" lon="-2.12395">
        <ele>65.199996948242</ele>
        <time>2022-04-24T08:56:31.000Z</time>
      </trkpt>
      <trkpt lat="47.41058" lon="-2.12403">
        <ele>65.599998474121</ele>
        <time>2022-04-24T08:56:32.000Z</time>
      </trkpt>
      <trkpt lat="47.41058" lon="-2.12412">
        <ele>66</ele>
        <time>2022-04-24T08:56:33.000Z</time>
      </trkpt>
      <trkpt lat="47.4106" lon="-2.12445">
        <ele>66</ele>
        <time>2022-04-24T08:56:37.000Z</time>
      </trkpt>
      <trkpt lat="47.41066" lon="-2.12496">
        <ele>66</ele>
        <time>2022-04-24T08:56:43.000Z</time>
      </trkpt>
      <trkpt lat="47.41075" lon="-2.12564">
        <ele>66</ele>
        <time>2022-04-24T08:56:50.000Z</time>
      </trkpt>
      <trkpt lat="47.41077" lon="-2.12573">
        <ele>66</ele>
        <time>2022-04-24T08:56:51.000Z</time>
      </trkpt>
      <trkpt lat="47.4109" lon="-2.1261">
        <ele>66</ele>
        <time>2022-04-24T08:56:55.000Z</time>
      </trkpt>
      <trkpt lat="47.41107" lon="-2.12664">
        <ele>66</ele>
        <time>2022-04-24T08:57:01.000Z</time>
      </trkpt>
      <trkpt lat="47.4111" lon="-2.12708">
        <ele>66</ele>
        <time>2022-04-24T08:57:06.000Z</time>
      </trkpt>
      <trkpt lat="47.41101" lon="-2.12732">
        <ele>66</ele>
        <time>2022-04-24T08:57:09.000Z</time>
      </trkpt>
      <trkpt lat="47.41092" lon="-2.12746">
        <ele>66</ele>
        <time>2022-04-24T08:57:11.000Z</time>
      </trkpt>
      <trkpt lat="47.41084" lon="-2.12761">
        <ele>66</ele>
        <time>2022-04-24T08:57:13.000Z</time>
      </trkpt>
      <trkpt lat="47.41078" lon="-2.12777">
        <ele>66</ele>
        <time>2022-04-24T08:57:15.000Z</time>
      </trkpt>
      <trkpt lat="47.41075" lon="-2.12794">
        <ele>66</ele>
        <time>2022-04-24T08:57:17.000Z</time>
      </trkpt>
      <trkpt lat="47.41067" lon="-2.12828">
        <ele>66</ele>
        <time>2022-04-24T08:57:21.000Z</time>
      </trkpt>
      <trkpt lat="47.41051" lon="-2.12865">
        <ele>66</ele>
        <time>2022-04-24T08:57:26.000Z</time>
      </trkpt>
      <trkpt lat="47.41039" lon="-2.12893">
        <ele>66</ele>
        <time>2022-04-24T08:57:30.000Z</time>
      </trkpt>
      <trkpt lat="47.41026" lon="-2.12913">
        <ele>66</ele>
        <time>2022-04-24T08:57:33.000Z</time>
      </trkpt>
      <trkpt lat="47.40998" lon="-2.12963">
        <ele>66</ele>
        <time>2022-04-24T08:57:40.000Z</time>
      </trkpt>
      <trkpt lat="47.4097" lon="-2.13011">
        <ele>66</ele>
        <time>2022-04-24T08:57:47.000Z</time>
      </trkpt>
      <trkpt lat="47.40958" lon="-2.13033">
        <ele>66</ele>
        <time>2022-04-24T08:57:50.000Z</time>
      </trkpt>
      <trkpt lat="47.40946" lon="-2.13053">
        <ele>66.400001525879</ele>
        <time>2022-04-24T08:57:53.000Z</time>
      </trkpt>
      <trkpt lat="47.40941" lon="-2.13059">
        <ele>66.800003051758</ele>
        <time>2022-04-24T08:57:54.000Z</time>
      </trkpt>
      <trkpt lat="47.40936" lon="-2.13065">
        <ele>67.199996948242</ele>
        <time>2022-04-24T08:57:55.000Z</time>
      </trkpt>
      <trkpt lat="47.40931" lon="-2.13071">
        <ele>67.599998474121</ele>
        <time>2022-04-24T08:57:56.000Z</time>
      </trkpt>
      <trkpt lat="47.40926" lon="-2.13076">
        <ele>68.199996948242</ele>
        <time>2022-04-24T08:57:57.000Z</time>
      </trkpt>
      <trkpt lat="47.4091" lon="-2.13091">
        <ele>68.199996948242</ele>
        <time>2022-04-24T08:58:00.000Z</time>
      </trkpt>
      <trkpt lat="47.40866" lon="-2.13117">
        <ele>68.199996948242</ele>
        <time>2022-04-24T08:58:07.000Z</time>
      </trkpt>
      <trkpt lat="47.4083" lon="-2.13136">
        <ele>68.199996948242</ele>
        <time>2022-04-24T08:58:13.000Z</time>
      </trkpt>
      <trkpt lat="47.4079" lon="-2.13166">
        <ele>68.199996948242</ele>
        <time>2022-04-24T08:58:20.000Z</time>
      </trkpt>
      <trkpt lat="47.40746" lon="-2.1319">
        <ele>68.199996948242</ele>
        <time>2022-04-24T08:58:27.000Z</time>
      </trkpt>
      <trkpt lat="47.40694" lon="-2.13213">
        <ele>68.199996948242</ele>
        <time>2022-04-24T08:58:35.000Z</time>
      </trkpt>
      <trkpt lat="47.40648" lon="-2.1325">
        <ele>68.199996948242</ele>
        <time>2022-04-24T08:58:43.000Z</time>
      </trkpt>
      <trkpt lat="47.40638" lon="-2.13262">
        <ele>68.199996948242</ele>
        <time>2022-04-24T08:58:45.000Z</time>
      </trkpt>
      <trkpt lat="47.40625" lon="-2.13284">
        <ele>68.199996948242</ele>
        <time>2022-04-24T08:58:48.000Z</time>
      </trkpt>
      <trkpt lat="47.40608" lon="-2.13311">
        <ele>68.199996948242</ele>
        <time>2022-04-24T08:58:52.000Z</time>
      </trkpt>
      <trkpt lat="47.40603" lon="-2.13315">
        <ele>68.199996948242</ele>
        <time>2022-04-24T08:58:53.000Z</time>
      </trkpt>
      <trkpt lat="47.40586" lon="-2.13323">
        <ele>68.199996948242</ele>
        <time>2022-04-24T08:58:56.000Z</time>
      </trkpt>
      <trkpt lat="47.40581" lon="-2.13324">
        <ele>68.199996948242</ele>
        <time>2022-04-24T08:58:57.000Z</time>
      </trkpt>
      <trkpt lat="47.40567" lon="-2.13326">
        <ele>68.199996948242</ele>
        <time>2022-04-24T08:59:01.000Z</time>
      </trkpt>
      <trkpt lat="47.40556" lon="-2.13329">
        <ele>68.199996948242</ele>
        <time>2022-04-24T08:59:08.000Z</time>
      </trkpt>
      <trkpt lat="47.40555" lon="-2.13328">
        <ele>68.199996948242</ele>
        <time>2022-04-24T08:59:09.000Z</time>
      </trkpt>
      <trkpt lat="47.40555" lon="-2.13326">
        <ele>68.199996948242</ele>
        <time>2022-04-24T08:59:11.000Z</time>
      </trkpt>
      <trkpt lat="47.40555" lon="-2.13323">
        <ele>68.199996948242</ele>
        <time>2022-04-24T08:59:21.000Z</time>
      </trkpt>
      <trkpt lat="47.40556" lon="-2.13308">
        <ele>68.199996948242</ele>
        <time>2022-04-24T08:59:26.000Z</time>
      </trkpt>
      <trkpt lat="47.40556" lon="-2.13297">
        <ele>68.199996948242</ele>
        <time>2022-04-24T08:59:28.000Z</time>
      </trkpt>
      <trkpt lat="47.40556" lon="-2.13283">
        <ele>68.199996948242</ele>
        <time>2022-04-24T08:59:30.000Z</time>
      </trkpt>
      <trkpt lat="47.40557" lon="-2.13226">
        <ele>68.199996948242</ele>
        <time>2022-04-24T08:59:37.000Z</time>
      </trkpt>
      <trkpt lat="47.40557" lon="-2.13165">
        <ele>68.199996948242</ele>
        <time>2022-04-24T08:59:44.000Z</time>
      </trkpt>
      <trkpt lat="47.40557" lon="-2.13139">
        <ele>68.199996948242</ele>
        <time>2022-04-24T08:59:47.000Z</time>
      </trkpt>
      <trkpt lat="47.40553" lon="-2.13103">
        <ele>68.199996948242</ele>
        <time>2022-04-24T08:59:51.000Z</time>
      </trkpt>
      <trkpt lat="47.40543" lon="-2.13024">
        <ele>68.199996948242</ele>
        <time>2022-04-24T08:59:59.000Z</time>
      </trkpt>
      <trkpt lat="47.40534" lon="-2.12966">
        <ele>67.800003051758</ele>
        <time>2022-04-24T09:00:05.000Z</time>
      </trkpt>
      <trkpt lat="47.40532" lon="-2.12956">
        <ele>67.199996948242</ele>
        <time>2022-04-24T09:00:06.000Z</time>
      </trkpt>
      <trkpt lat="47.40531" lon="-2.12947">
        <ele>66.800003051758</ele>
        <time>2022-04-24T09:00:07.000Z</time>
      </trkpt>
      <trkpt lat="47.40529" lon="-2.12937">
        <ele>66.400001525879</ele>
        <time>2022-04-24T09:00:08.000Z</time>
      </trkpt>
      <trkpt lat="47.40527" lon="-2.12926">
        <ele>66</ele>
        <time>2022-04-24T09:00:09.000Z</time>
      </trkpt>
      <trkpt lat="47.40517" lon="-2.12899">
        <ele>66</ele>
        <time>2022-04-24T09:00:12.000Z</time>
      </trkpt>
      <trkpt lat="47.40492" lon="-2.1286">
        <ele>66</ele>
        <time>2022-04-24T09:00:17.000Z</time>
      </trkpt>
      <trkpt lat="47.40473" lon="-2.12843">
        <ele>66</ele>
        <time>2022-04-24T09:00:20.000Z</time>
      </trkpt>
      <trkpt lat="47.40461" lon="-2.12832">
        <ele>66</ele>
        <time>2022-04-24T09:00:22.000Z</time>
      </trkpt>
      <trkpt lat="47.40425" lon="-2.12802">
        <ele>66</ele>
        <time>2022-04-24T09:00:28.000Z</time>
      </trkpt>
      <trkpt lat="47.40401" lon="-2.1278">
        <ele>66</ele>
        <time>2022-04-24T09:00:32.000Z</time>
      </trkpt>
      <trkpt lat="47.4039" lon="-2.12768">
        <ele>66</ele>
        <time>2022-04-24T09:00:34.000Z</time>
      </trkpt>
      <trkpt lat="47.40381" lon="-2.12754">
        <ele>66</ele>
        <time>2022-04-24T09:00:36.000Z</time>
      </trkpt>
      <trkpt lat="47.40373" lon="-2.12736">
        <ele>66</ele>
        <time>2022-04-24T09:00:38.000Z</time>
      </trkpt>
      <trkpt lat="47.40367" lon="-2.12718">
        <ele>66</ele>
        <time>2022-04-24T09:00:40.000Z</time>
      </trkpt>
      <trkpt lat="47.40362" lon="-2.12699">
        <ele>65.199996948242</ele>
        <time>2022-04-24T09:00:42.000Z</time>
      </trkpt>
      <trkpt lat="47.40359" lon="-2.1269">
        <ele>64.800003051758</ele>
        <time>2022-04-24T09:00:43.000Z</time>
      </trkpt>
      <trkpt lat="47.40356" lon="-2.12681">
        <ele>64.400001525879</ele>
        <time>2022-04-24T09:00:44.000Z</time>
      </trkpt>
      <trkpt lat="47.40352" lon="-2.12671">
        <ele>64</ele>
        <time>2022-04-24T09:00:45.000Z</time>
      </trkpt>
      <trkpt lat="47.40333" lon="-2.12638">
        <ele>64</ele>
        <time>2022-04-24T09:00:49.000Z</time>
      </trkpt>
      <trkpt lat="47.40306" lon="-2.12604">
        <ele>64</ele>
        <time>2022-04-24T09:00:54.000Z</time>
      </trkpt>
      <trkpt lat="47.40281" lon="-2.12574">
        <ele>64</ele>
        <time>2022-04-24T09:00:59.000Z</time>
      </trkpt>
      <trkpt lat="47.40275" lon="-2.1257">
        <ele>64</ele>
        <time>2022-04-24T09:01:00.000Z</time>
      </trkpt>
      <trkpt lat="47.40264" lon="-2.12573">
        <ele>64</ele>
        <time>2022-04-24T09:01:02.000Z</time>
      </trkpt>
      <trkpt lat="47.40256" lon="-2.12587">
        <ele>64</ele>
        <time>2022-04-24T09:01:04.000Z</time>
      </trkpt>
      <trkpt lat="47.40253" lon="-2.12603">
        <ele>64</ele>
        <time>2022-04-24T09:01:06.000Z</time>
      </trkpt>
      <trkpt lat="47.40249" lon="-2.12621">
        <ele>64</ele>
        <time>2022-04-24T09:01:08.000Z</time>
      </trkpt>
      <trkpt lat="47.40231" lon="-2.1269">
        <ele>64</ele>
        <time>2022-04-24T09:01:16.000Z</time>
      </trkpt>
      <trkpt lat="47.40222" lon="-2.12747">
        <ele>64</ele>
        <time>2022-04-24T09:01:23.000Z</time>
      </trkpt>
      <trkpt lat="47.4022" lon="-2.12754">
        <ele>64</ele>
        <time>2022-04-24T09:01:24.000Z</time>
      </trkpt>
      <trkpt lat="47.40213" lon="-2.12772">
        <ele>64</ele>
        <time>2022-04-24T09:01:27.000Z</time>
      </trkpt>
      <trkpt lat="47.40214" lon="-2.12802">
        <ele>64</ele>
        <time>2022-04-24T09:01:31.000Z</time>
      </trkpt>
      <trkpt lat="47.40218" lon="-2.12817">
        <ele>64</ele>
        <time>2022-04-24T09:01:33.000Z</time>
      </trkpt>
      <trkpt lat="47.40226" lon="-2.12852">
        <ele>64</ele>
        <time>2022-04-24T09:01:38.000Z</time>
      </trkpt>
      <trkpt lat="47.40227" lon="-2.12859">
        <ele>64</ele>
        <time>2022-04-24T09:01:39.000Z</time>
      </trkpt>
      <trkpt lat="47.40226" lon="-2.1288">
        <ele>64.400001525879</ele>
        <time>2022-04-24T09:01:42.000Z</time>
      </trkpt>
      <trkpt lat="47.40225" lon="-2.12887">
        <ele>64.800003051758</ele>
        <time>2022-04-24T09:01:43.000Z</time>
      </trkpt>
      <trkpt lat="47.40224" lon="-2.12894">
        <ele>65.400001525879</ele>
        <time>2022-04-24T09:01:44.000Z</time>
      </trkpt>
      <trkpt lat="47.40223" lon="-2.12901">
        <ele>65.800003051758</ele>
        <time>2022-04-24T09:01:45.000Z</time>
      </trkpt>
      <trkpt lat="47.40222" lon="-2.12908">
        <ele>66.199996948242</ele>
        <time>2022-04-24T09:01:46.000Z</time>
      </trkpt>
      <trkpt lat="47.40216" lon="-2.12929">
        <ele>66.199996948242</ele>
        <time>2022-04-24T09:01:49.000Z</time>
      </trkpt>
      <trkpt lat="47.40212" lon="-2.12942">
        <ele>66.199996948242</ele>
        <time>2022-04-24T09:01:51.000Z</time>
      </trkpt>
      <trkpt lat="47.40202" lon="-2.1297">
        <ele>66.199996948242</ele>
        <time>2022-04-24T09:01:55.000Z</time>
      </trkpt>
      <trkpt lat="47.40187" lon="-2.13011">
        <ele>66.199996948242</ele>
        <time>2022-04-24T09:02:01.000Z</time>
      </trkpt>
      <trkpt lat="47.40175" lon="-2.13055">
        <ele>66.199996948242</ele>
        <time>2022-04-24T09:02:07.000Z</time>
      </trkpt>
      <trkpt lat="47.40172" lon="-2.13071">
        <ele>66.199996948242</ele>
        <time>2022-04-24T09:02:09.000Z</time>
      </trkpt>
      <trkpt lat="47.4017" lon="-2.13087">
        <ele>66.199996948242</ele>
        <time>2022-04-24T09:02:11.000Z</time>
      </trkpt>
      <trkpt lat="47.4017" lon="-2.13096">
        <ele>66.199996948242</ele>
        <time>2022-04-24T09:02:12.000Z</time>
      </trkpt>
      <trkpt lat="47.40172" lon="-2.1312">
        <ele>66.199996948242</ele>
        <time>2022-04-24T09:02:15.000Z</time>
      </trkpt>
      <trkpt lat="47.40177" lon="-2.13143">
        <ele>66.199996948242</ele>
        <time>2022-04-24T09:02:18.000Z</time>
      </trkpt>
      <trkpt lat="47.40191" lon="-2.1318">
        <ele>66.199996948242</ele>
        <time>2022-04-24T09:02:23.000Z</time>
      </trkpt>
      <trkpt lat="47.4021" lon="-2.13213">
        <ele>66.199996948242</ele>
        <time>2022-04-24T09:02:28.000Z</time>
      </trkpt>
      <trkpt lat="47.40214" lon="-2.13219">
        <ele>66.199996948242</ele>
        <time>2022-04-24T09:02:29.000Z</time>
      </trkpt>
      <trkpt lat="47.40245" lon="-2.13265">
        <ele>66.199996948242</ele>
        <time>2022-04-24T09:02:37.000Z</time>
      </trkpt>
      <trkpt lat="47.40266" lon="-2.13295">
        <ele>66.599998474121</ele>
        <time>2022-04-24T09:02:42.000Z</time>
      </trkpt>
      <trkpt lat="47.40269" lon="-2.13301">
        <ele>67</ele>
        <time>2022-04-24T09:02:43.000Z</time>
      </trkpt>
      <trkpt lat="47.40273" lon="-2.13307">
        <ele>67.400001525879</ele>
        <time>2022-04-24T09:02:44.000Z</time>
      </trkpt>
      <trkpt lat="47.40277" lon="-2.13312">
        <ele>68.199996948242</ele>
        <time>2022-04-24T09:02:45.000Z</time>
      </trkpt>
      <trkpt lat="47.40304" lon="-2.13352">
        <ele>68.599998474121</ele>
        <time>2022-04-24T09:02:52.000Z</time>
      </trkpt>
      <trkpt lat="47.40307" lon="-2.13358">
        <ele>69</ele>
        <time>2022-04-24T09:02:53.000Z</time>
      </trkpt>
      <trkpt lat="47.40311" lon="-2.13364">
        <ele>69.599998474121</ele>
        <time>2022-04-24T09:02:54.000Z</time>
      </trkpt>
      <trkpt lat="47.40315" lon="-2.13369">
        <ele>70</ele>
        <time>2022-04-24T09:02:55.000Z</time>
      </trkpt>
      <trkpt lat="47.40318" lon="-2.13374">
        <ele>70.400001525879</ele>
        <time>2022-04-24T09:02:56.000Z</time>
      </trkpt>
      <trkpt lat="47.40324" lon="-2.13384">
        <ele>70.400001525879</ele>
        <time>2022-04-24T09:02:58.000Z</time>
      </trkpt>
      <trkpt lat="47.40338" lon="-2.13414">
        <ele>70.400001525879</ele>
        <time>2022-04-24T09:03:04.000Z</time>
      </trkpt>
      <trkpt lat="47.40335" lon="-2.13433">
        <ele>70.400001525879</ele>
        <time>2022-04-24T09:03:07.000Z</time>
      </trkpt>
      <trkpt lat="47.40324" lon="-2.13485">
        <ele>70.400001525879</ele>
        <time>2022-04-24T09:03:13.000Z</time>
      </trkpt>
      <trkpt lat="47.40313" lon="-2.13528">
        <ele>70</ele>
        <time>2022-04-24T09:03:17.000Z</time>
      </trkpt>
      <trkpt lat="47.40309" lon="-2.13539">
        <ele>69.400001525879</ele>
        <time>2022-04-24T09:03:18.000Z</time>
      </trkpt>
      <trkpt lat="47.40305" lon="-2.13551">
        <ele>69</ele>
        <time>2022-04-24T09:03:19.000Z</time>
      </trkpt>
      <trkpt lat="47.403" lon="-2.13562">
        <ele>68.599998474121</ele>
        <time>2022-04-24T09:03:20.000Z</time>
      </trkpt>
      <trkpt lat="47.40294" lon="-2.13572">
        <ele>68.199996948242</ele>
        <time>2022-04-24T09:03:21.000Z</time>
      </trkpt>
      <trkpt lat="47.40288" lon="-2.13582">
        <ele>67.800003051758</ele>
        <time>2022-04-24T09:03:22.000Z</time>
      </trkpt>
      <trkpt lat="47.40281" lon="-2.13591">
        <ele>67.400001525879</ele>
        <time>2022-04-24T09:03:23.000Z</time>
      </trkpt>
      <trkpt lat="47.40275" lon="-2.13599">
        <ele>67</ele>
        <time>2022-04-24T09:03:24.000Z</time>
      </trkpt>
      <trkpt lat="47.40268" lon="-2.13607">
        <ele>66.599998474121</ele>
        <time>2022-04-24T09:03:25.000Z</time>
      </trkpt>
      <trkpt lat="47.40262" lon="-2.13614">
        <ele>66</ele>
        <time>2022-04-24T09:03:26.000Z</time>
      </trkpt>
      <trkpt lat="47.40257" lon="-2.13621">
        <ele>66</ele>
        <time>2022-04-24T09:03:27.000Z</time>
      </trkpt>
      <trkpt lat="47.40248" lon="-2.13636">
        <ele>66</ele>
        <time>2022-04-24T09:03:29.000Z</time>
      </trkpt>
      <trkpt lat="47.40239" lon="-2.1365">
        <ele>66</ele>
        <time>2022-04-24T09:03:31.000Z</time>
      </trkpt>
      <trkpt lat="47.40214" lon="-2.13693">
        <ele>66</ele>
        <time>2022-04-24T09:03:37.000Z</time>
      </trkpt>
      <trkpt lat="47.40185" lon="-2.13747">
        <ele>66</ele>
        <time>2022-04-24T09:03:44.000Z</time>
      </trkpt>
      <trkpt lat="47.40155" lon="-2.13806">
        <ele>66</ele>
        <time>2022-04-24T09:03:51.000Z</time>
      </trkpt>
      <trkpt lat="47.40141" lon="-2.13836">
        <ele>66</ele>
        <time>2022-04-24T09:03:55.000Z</time>
      </trkpt>
      <trkpt lat="47.40144" lon="-2.13859">
        <ele>66</ele>
        <time>2022-04-24T09:03:58.000Z</time>
      </trkpt>
      <trkpt lat="47.40153" lon="-2.13869">
        <ele>66</ele>
        <time>2022-04-24T09:04:00.000Z</time>
      </trkpt>
      <trkpt lat="47.40162" lon="-2.1388">
        <ele>66</ele>
        <time>2022-04-24T09:04:02.000Z</time>
      </trkpt>
      <trkpt lat="47.40197" lon="-2.13919">
        <ele>66</ele>
        <time>2022-04-24T09:04:09.000Z</time>
      </trkpt>
      <trkpt lat="47.40236" lon="-2.13962">
        <ele>66</ele>
        <time>2022-04-24T09:04:16.000Z</time>
      </trkpt>
      <trkpt lat="47.40276" lon="-2.14007">
        <ele>66</ele>
        <time>2022-04-24T09:04:23.000Z</time>
      </trkpt>
      <trkpt lat="47.40305" lon="-2.14037">
        <ele>66</ele>
        <time>2022-04-24T09:04:28.000Z</time>
      </trkpt>
      <trkpt lat="47.40327" lon="-2.14062">
        <ele>66</ele>
        <time>2022-04-24T09:04:32.000Z</time>
      </trkpt>
      <trkpt lat="47.40338" lon="-2.14074">
        <ele>66</ele>
        <time>2022-04-24T09:04:34.000Z</time>
      </trkpt>
      <trkpt lat="47.40385" lon="-2.14118">
        <ele>66</ele>
        <time>2022-04-24T09:04:42.000Z</time>
      </trkpt>
      <trkpt lat="47.40419" lon="-2.14149">
        <ele>66</ele>
        <time>2022-04-24T09:04:48.000Z</time>
      </trkpt>
      <trkpt lat="47.40453" lon="-2.14178">
        <ele>66</ele>
        <time>2022-04-24T09:04:54.000Z</time>
      </trkpt>
      <trkpt lat="47.40487" lon="-2.14209">
        <ele>66</ele>
        <time>2022-04-24T09:05:00.000Z</time>
      </trkpt>
      <trkpt lat="47.40521" lon="-2.1424">
        <ele>66</ele>
        <time>2022-04-24T09:05:06.000Z</time>
      </trkpt>
      <trkpt lat="47.40549" lon="-2.14271">
        <ele>66</ele>
        <time>2022-04-24T09:05:11.000Z</time>
      </trkpt>
      <trkpt lat="47.40553" lon="-2.14279">
        <ele>66</ele>
        <time>2022-04-24T09:05:12.000Z</time>
      </trkpt>
      <trkpt lat="47.4058" lon="-2.14329">
        <ele>66</ele>
        <time>2022-04-24T09:05:19.000Z</time>
      </trkpt>
      <trkpt lat="47.4058" lon="-2.14345">
        <ele>66</ele>
        <time>2022-04-24T09:05:22.000Z</time>
      </trkpt>
      <trkpt lat="47.40579" lon="-2.14358">
        <ele>66</ele>
        <time>2022-04-24T09:05:26.000Z</time>
      </trkpt>
      <trkpt lat="47.40581" lon="-2.14364">
        <ele>66</ele>
        <time>2022-04-24T09:05:28.000Z</time>
      </trkpt>
      <trkpt lat="47.4058" lon="-2.14371">
        <ele>66</ele>
        <time>2022-04-24T09:05:30.000Z</time>
      </trkpt>
      <trkpt lat="47.40578" lon="-2.14373">
        <ele>66</ele>
        <time>2022-04-24T09:05:31.000Z</time>
      </trkpt>
      <trkpt lat="47.40566" lon="-2.14381">
        <ele>66</ele>
        <time>2022-04-24T09:05:35.000Z</time>
      </trkpt>
      <trkpt lat="47.40566" lon="-2.14392">
        <ele>66</ele>
        <time>2022-04-24T09:05:38.000Z</time>
      </trkpt>
      <trkpt lat="47.40573" lon="-2.14392">
        <ele>66</ele>
        <time>2022-04-24T09:05:41.000Z</time>
      </trkpt>
      <trkpt lat="47.40579" lon="-2.14379">
        <ele>66</ele>
        <time>2022-04-24T09:05:45.000Z</time>
      </trkpt>
      <trkpt lat="47.40581" lon="-2.14376">
        <ele>66</ele>
        <time>2022-04-24T09:05:46.000Z</time>
      </trkpt>
      <trkpt lat="47.40583" lon="-2.14373">
        <ele>66</ele>
        <time>2022-04-24T09:05:47.000Z</time>
      </trkpt>
      <trkpt lat="47.40588" lon="-2.14376">
        <ele>66</ele>
        <time>2022-04-24T09:05:49.000Z</time>
      </trkpt>
      <trkpt lat="47.40585" lon="-2.14387">
        <ele>66</ele>
        <time>2022-04-24T09:05:52.000Z</time>
      </trkpt>
      <trkpt lat="47.40584" lon="-2.1439">
        <ele>66</ele>
        <time>2022-04-24T09:05:53.000Z</time>
      </trkpt>
      <trkpt lat="47.40579" lon="-2.14398">
        <ele>66</ele>
        <time>2022-04-24T09:05:56.000Z</time>
      </trkpt>
      <trkpt lat="47.40579" lon="-2.14402">
        <ele>66</ele>
        <time>2022-04-24T09:05:57.000Z</time>
      </trkpt>
      <trkpt lat="47.40581" lon="-2.14408">
        <ele>66</ele>
        <time>2022-04-24T09:05:59.000Z</time>
      </trkpt>
      <trkpt lat="47.40588" lon="-2.14402">
        <ele>66</ele>
        <time>2022-04-24T09:06:02.000Z</time>
      </trkpt>
      <trkpt lat="47.40594" lon="-2.14398">
        <ele>66</ele>
        <time>2022-04-24T09:06:04.000Z</time>
      </trkpt>
      <trkpt lat="47.40598" lon="-2.14399">
        <ele>66</ele>
        <time>2022-04-24T09:06:06.000Z</time>
      </trkpt>
      <trkpt lat="47.40606" lon="-2.14408">
        <ele>66</ele>
        <time>2022-04-24T09:06:10.000Z</time>
      </trkpt>
      <trkpt lat="47.40607" lon="-2.14411">
        <ele>66</ele>
        <time>2022-04-24T09:06:11.000Z</time>
      </trkpt>
      <trkpt lat="47.40603" lon="-2.14421">
        <ele>66</ele>
        <time>2022-04-24T09:06:15.000Z</time>
      </trkpt>
      <trkpt lat="47.40602" lon="-2.14425">
        <ele>66</ele>
        <time>2022-04-24T09:06:16.000Z</time>
      </trkpt>
      <trkpt lat="47.406" lon="-2.14437">
        <ele>66</ele>
        <time>2022-04-24T09:06:19.000Z</time>
      </trkpt>
      <trkpt lat="47.406" lon="-2.1444">
        <ele>66</ele>
        <time>2022-04-24T09:06:20.000Z</time>
      </trkpt>
      <trkpt lat="47.40605" lon="-2.14443">
        <ele>66</ele>
        <time>2022-04-24T09:06:22.000Z</time>
      </trkpt>
      <trkpt lat="47.40606" lon="-2.14441">
        <ele>66</ele>
        <time>2022-04-24T09:06:23.000Z</time>
      </trkpt>
      <trkpt lat="47.40616" lon="-2.14431">
        <ele>66</ele>
        <time>2022-04-24T09:06:27.000Z</time>
      </trkpt>
      <trkpt lat="47.40618" lon="-2.14433">
        <ele>66</ele>
        <time>2022-04-24T09:06:28.000Z</time>
      </trkpt>
      <trkpt lat="47.40621" lon="-2.14439">
        <ele>66</ele>
        <time>2022-04-24T09:06:30.000Z</time>
      </trkpt>
      <trkpt lat="47.40615" lon="-2.14459">
        <ele>66</ele>
        <time>2022-04-24T09:06:35.000Z</time>
      </trkpt>
      <trkpt lat="47.40611" lon="-2.14472">
        <ele>66</ele>
        <time>2022-04-24T09:06:38.000Z</time>
      </trkpt>
      <trkpt lat="47.40611" lon="-2.1448">
        <ele>66</ele>
        <time>2022-04-24T09:06:40.000Z</time>
      </trkpt>
      <trkpt lat="47.40611" lon="-2.14492">
        <ele>66</ele>
        <time>2022-04-24T09:06:43.000Z</time>
      </trkpt>
      <trkpt lat="47.40612" lon="-2.14494">
        <ele>66</ele>
        <time>2022-04-24T09:06:44.000Z</time>
      </trkpt>
      <trkpt lat="47.40617" lon="-2.14494">
        <ele>66</ele>
        <time>2022-04-24T09:06:47.000Z</time>
      </trkpt>
      <trkpt lat="47.40618" lon="-2.14492">
        <ele>66</ele>
        <time>2022-04-24T09:06:48.000Z</time>
      </trkpt>
      <trkpt lat="47.40619" lon="-2.14491">
        <ele>66</ele>
        <time>2022-04-24T09:06:49.000Z</time>
      </trkpt>
      <trkpt lat="47.40619" lon="-2.14489">
        <ele>66</ele>
        <time>2022-04-24T09:06:50.000Z</time>
      </trkpt>
      <trkpt lat="47.40619" lon="-2.1448">
        <ele>66</ele>
        <time>2022-04-24T09:06:53.000Z</time>
      </trkpt>
      <trkpt lat="47.40619" lon="-2.14464">
        <ele>66</ele>
        <time>2022-04-24T09:06:58.000Z</time>
      </trkpt>
      <trkpt lat="47.40621" lon="-2.1445">
        <ele>66</ele>
        <time>2022-04-24T09:07:02.000Z</time>
      </trkpt>
      <trkpt lat="47.40622" lon="-2.1445">
        <ele>66</ele>
        <time>2022-04-24T09:07:03.000Z</time>
      </trkpt>
      <trkpt lat="47.40622" lon="-2.14452">
        <ele>66</ele>
        <time>2022-04-24T09:07:04.000Z</time>
      </trkpt>
      <trkpt lat="47.4062" lon="-2.14459">
        <ele>66</ele>
        <time>2022-04-24T09:07:06.000Z</time>
      </trkpt>
      <trkpt lat="47.40619" lon="-2.1447">
        <ele>66</ele>
        <time>2022-04-24T09:07:10.000Z</time>
      </trkpt>
      <trkpt lat="47.40619" lon="-2.1447">
        <ele>66</ele>
        <time>2022-04-24T09:07:11.000Z</time>
      </trkpt>
      <trkpt lat="47.40623" lon="-2.14473">
        <ele>66</ele>
        <time>2022-04-24T09:07:15.000Z</time>
      </trkpt>
      <trkpt lat="47.40626" lon="-2.14477">
        <ele>66</ele>
        <time>2022-04-24T09:07:16.000Z</time>
      </trkpt>
      <trkpt lat="47.4063" lon="-2.1449">
        <ele>66</ele>
        <time>2022-04-24T09:07:20.000Z</time>
      </trkpt>
      <trkpt lat="47.4063" lon="-2.14499">
        <ele>66</ele>
        <time>2022-04-24T09:07:24.000Z</time>
      </trkpt>
      <trkpt lat="47.40631" lon="-2.14502">
        <ele>66</ele>
        <time>2022-04-24T09:07:25.000Z</time>
      </trkpt>
      <trkpt lat="47.40633" lon="-2.14507">
        <ele>66</ele>
        <time>2022-04-24T09:07:27.000Z</time>
      </trkpt>
      <trkpt lat="47.4064" lon="-2.14507">
        <ele>66</ele>
        <time>2022-04-24T09:07:30.000Z</time>
      </trkpt>
      <trkpt lat="47.40644" lon="-2.14505">
        <ele>66</ele>
        <time>2022-04-24T09:07:31.000Z</time>
      </trkpt>
      <trkpt lat="47.40654" lon="-2.14497">
        <ele>66</ele>
        <time>2022-04-24T09:07:34.000Z</time>
      </trkpt>
      <trkpt lat="47.40656" lon="-2.14495">
        <ele>66</ele>
        <time>2022-04-24T09:07:35.000Z</time>
      </trkpt>
      <trkpt lat="47.40659" lon="-2.14497">
        <ele>66</ele>
        <time>2022-04-24T09:07:38.000Z</time>
      </trkpt>
      <trkpt lat="47.4066" lon="-2.14499">
        <ele>66</ele>
        <time>2022-04-24T09:07:39.000Z</time>
      </trkpt>
      <trkpt lat="47.40661" lon="-2.14505">
        <ele>66</ele>
        <time>2022-04-24T09:07:41.000Z</time>
      </trkpt>
      <trkpt lat="47.40657" lon="-2.14516">
        <ele>66</ele>
        <time>2022-04-24T09:07:44.000Z</time>
      </trkpt>
      <trkpt lat="47.40655" lon="-2.14519">
        <ele>66</ele>
        <time>2022-04-24T09:07:45.000Z</time>
      </trkpt>
      <trkpt lat="47.40652" lon="-2.14528">
        <ele>66</ele>
        <time>2022-04-24T09:07:48.000Z</time>
      </trkpt>
      <trkpt lat="47.40653" lon="-2.1453">
        <ele>66</ele>
        <time>2022-04-24T09:07:49.000Z</time>
      </trkpt>
      <trkpt lat="47.40652" lon="-2.14534">
        <ele>66</ele>
        <time>2022-04-24T09:07:50.000Z</time>
      </trkpt>
      <trkpt lat="47.40652" lon="-2.1454">
        <ele>66</ele>
        <time>2022-04-24T09:07:53.000Z</time>
      </trkpt>
      <trkpt lat="47.40656" lon="-2.14538">
        <ele>66</ele>
        <time>2022-04-24T09:07:56.000Z</time>
      </trkpt>
      <trkpt lat="47.4066" lon="-2.14535">
        <ele>66</ele>
        <time>2022-04-24T09:07:58.000Z</time>
      </trkpt>
      <trkpt lat="47.40667" lon="-2.14541">
        <ele>66</ele>
        <time>2022-04-24T09:08:01.000Z</time>
      </trkpt>
      <trkpt lat="47.40667" lon="-2.14554">
        <ele>66</ele>
        <time>2022-04-24T09:08:04.000Z</time>
      </trkpt>
      <trkpt lat="47.40665" lon="-2.14556">
        <ele>66</ele>
        <time>2022-04-24T09:08:05.000Z</time>
      </trkpt>
      <trkpt lat="47.40656" lon="-2.14575">
        <ele>66</ele>
        <time>2022-04-24T09:08:11.000Z</time>
      </trkpt>
      <trkpt lat="47.40654" lon="-2.14576">
        <ele>66</ele>
        <time>2022-04-24T09:08:12.000Z</time>
      </trkpt>
      <trkpt lat="47.4065" lon="-2.14581">
        <ele>66</ele>
        <time>2022-04-24T09:08:14.000Z</time>
      </trkpt>
      <trkpt lat="47.40648" lon="-2.14585">
        <ele>66.599998474121</ele>
        <time>2022-04-24T09:08:15.000Z</time>
      </trkpt>
      <trkpt lat="47.40645" lon="-2.14588">
        <ele>67</ele>
        <time>2022-04-24T09:08:16.000Z</time>
      </trkpt>
      <trkpt lat="47.40643" lon="-2.1459">
        <ele>67.400001525879</ele>
        <time>2022-04-24T09:08:17.000Z</time>
      </trkpt>
      <trkpt lat="47.40642" lon="-2.1459">
        <ele>67.800003051758</ele>
        <time>2022-04-24T09:08:18.000Z</time>
      </trkpt>
      <trkpt lat="47.40642" lon="-2.14587">
        <ele>68.199996948242</ele>
        <time>2022-04-24T09:08:19.000Z</time>
      </trkpt>
      <trkpt lat="47.40641" lon="-2.1457">
        <ele>68.199996948242</ele>
        <time>2022-04-24T09:08:23.000Z</time>
      </trkpt>
      <trkpt lat="47.40639" lon="-2.14552">
        <ele>68.199996948242</ele>
        <time>2022-04-24T09:08:28.000Z</time>
      </trkpt>
      <trkpt lat="47.40635" lon="-2.14555">
        <ele>68.199996948242</ele>
        <time>2022-04-24T09:08:30.000Z</time>
      </trkpt>
      <trkpt lat="47.40633" lon="-2.14554">
        <ele>68.199996948242</ele>
        <time>2022-04-24T09:08:31.000Z</time>
      </trkpt>
      <trkpt lat="47.40632" lon="-2.14542">
        <ele>68.199996948242</ele>
        <time>2022-04-24T09:08:34.000Z</time>
      </trkpt>
      <trkpt lat="47.40631" lon="-2.14529">
        <ele>68.199996948242</ele>
        <time>2022-04-24T09:08:38.000Z</time>
      </trkpt>
      <trkpt lat="47.40624" lon="-2.14529">
        <ele>68.199996948242</ele>
        <time>2022-04-24T09:08:41.000Z</time>
      </trkpt>
      <trkpt lat="47.40619" lon="-2.14538">
        <ele>68.199996948242</ele>
        <time>2022-04-24T09:08:44.000Z</time>
      </trkpt>
      <trkpt lat="47.40619" lon="-2.14542">
        <ele>68.199996948242</ele>
        <time>2022-04-24T09:08:45.000Z</time>
      </trkpt>
      <trkpt lat="47.40616" lon="-2.1456">
        <ele>68.199996948242</ele>
        <time>2022-04-24T09:08:50.000Z</time>
      </trkpt>
      <trkpt lat="47.40615" lon="-2.14563">
        <ele>68.199996948242</ele>
        <time>2022-04-24T09:08:51.000Z</time>
      </trkpt>
      <trkpt lat="47.40613" lon="-2.14564">
        <ele>68.199996948242</ele>
        <time>2022-04-24T09:08:52.000Z</time>
      </trkpt>
      <trkpt lat="47.40611" lon="-2.14563">
        <ele>68.199996948242</ele>
        <time>2022-04-24T09:08:54.000Z</time>
      </trkpt>
      <trkpt lat="47.40611" lon="-2.1456">
        <ele>68.199996948242</ele>
        <time>2022-04-24T09:08:55.000Z</time>
      </trkpt>
      <trkpt lat="47.40612" lon="-2.14552">
        <ele>68.199996948242</ele>
        <time>2022-04-24T09:08:58.000Z</time>
      </trkpt>
      <trkpt lat="47.40609" lon="-2.14548">
        <ele>68.199996948242</ele>
        <time>2022-04-24T09:09:02.000Z</time>
      </trkpt>
      <trkpt lat="47.40607" lon="-2.14547">
        <ele>68.199996948242</ele>
        <time>2022-04-24T09:09:03.000Z</time>
      </trkpt>
      <trkpt lat="47.406" lon="-2.14539">
        <ele>68.199996948242</ele>
        <time>2022-04-24T09:09:06.000Z</time>
      </trkpt>
      <trkpt lat="47.406" lon="-2.14536">
        <ele>68.199996948242</ele>
        <time>2022-04-24T09:09:07.000Z</time>
      </trkpt>
      <trkpt lat="47.40601" lon="-2.14532">
        <ele>68.199996948242</ele>
        <time>2022-04-24T09:09:08.000Z</time>
      </trkpt>
      <trkpt lat="47.40603" lon="-2.14521">
        <ele>68.199996948242</ele>
        <time>2022-04-24T09:09:11.000Z</time>
      </trkpt>
      <trkpt lat="47.40606" lon="-2.14513">
        <ele>68.199996948242</ele>
        <time>2022-04-24T09:09:14.000Z</time>
      </trkpt>
      <trkpt lat="47.40608" lon="-2.14507">
        <ele>68.199996948242</ele>
        <time>2022-04-24T09:09:16.000Z</time>
      </trkpt>
      <trkpt lat="47.40608" lon="-2.14497">
        <ele>68.199996948242</ele>
        <time>2022-04-24T09:09:19.000Z</time>
      </trkpt>
      <trkpt lat="47.40606" lon="-2.1449">
        <ele>68.199996948242</ele>
        <time>2022-04-24T09:09:21.000Z</time>
      </trkpt>
      <trkpt lat="47.40599" lon="-2.14482">
        <ele>68.199996948242</ele>
        <time>2022-04-24T09:09:24.000Z</time>
      </trkpt>
      <trkpt lat="47.40596" lon="-2.14479">
        <ele>68.199996948242</ele>
        <time>2022-04-24T09:09:25.000Z</time>
      </trkpt>
      <trkpt lat="47.40593" lon="-2.14472">
        <ele>68.199996948242</ele>
        <time>2022-04-24T09:09:27.000Z</time>
      </trkpt>
      <trkpt lat="47.40594" lon="-2.14465">
        <ele>68.199996948242</ele>
        <time>2022-04-24T09:09:29.000Z</time>
      </trkpt>
      <trkpt lat="47.40592" lon="-2.14457">
        <ele>67.800003051758</ele>
        <time>2022-04-24T09:09:31.000Z</time>
      </trkpt>
      <trkpt lat="47.40591" lon="-2.14453">
        <ele>67.400001525879</ele>
        <time>2022-04-24T09:09:32.000Z</time>
      </trkpt>
      <trkpt lat="47.4059" lon="-2.14449">
        <ele>67</ele>
        <time>2022-04-24T09:09:33.000Z</time>
      </trkpt>
      <trkpt lat="47.40588" lon="-2.14445">
        <ele>66.599998474121</ele>
        <time>2022-04-24T09:09:34.000Z</time>
      </trkpt>
      <trkpt lat="47.40586" lon="-2.14442">
        <ele>66.199996948242</ele>
        <time>2022-04-24T09:09:35.000Z</time>
      </trkpt>
      <trkpt lat="47.40574" lon="-2.14428">
        <ele>66.199996948242</ele>
        <time>2022-04-24T09:09:40.000Z</time>
      </trkpt>
      <trkpt lat="47.40564" lon="-2.14418">
        <ele>66.199996948242</ele>
        <time>2022-04-24T09:09:44.000Z</time>
      </trkpt>
      <trkpt lat="47.40563" lon="-2.14419">
        <ele>66.199996948242</ele>
        <time>2022-04-24T09:09:45.000Z</time>
      </trkpt>
      <trkpt lat="47.40548" lon="-2.14424">
        <ele>66.199996948242</ele>
        <time>2022-04-24T09:09:50.000Z</time>
      </trkpt>
      <trkpt lat="47.40536" lon="-2.14429">
        <ele>66.199996948242</ele>
        <time>2022-04-24T09:09:54.000Z</time>
      </trkpt>
      <trkpt lat="47.40534" lon="-2.14433">
        <ele>66.199996948242</ele>
        <time>2022-04-24T09:09:55.000Z</time>
      </trkpt>
      <trkpt lat="47.40531" lon="-2.14436">
        <ele>66.199996948242</ele>
        <time>2022-04-24T09:09:56.000Z</time>
      </trkpt>
      <trkpt lat="47.40525" lon="-2.14435">
        <ele>66.199996948242</ele>
        <time>2022-04-24T09:09:58.000Z</time>
      </trkpt>
      <trkpt lat="47.40515" lon="-2.14428">
        <ele>66.199996948242</ele>
        <time>2022-04-24T09:10:02.000Z</time>
      </trkpt>
      <trkpt lat="47.40512" lon="-2.14429">
        <ele>66.199996948242</ele>
        <time>2022-04-24T09:10:04.000Z</time>
      </trkpt>
      <trkpt lat="47.40509" lon="-2.14431">
        <ele>66.199996948242</ele>
        <time>2022-04-24T09:10:39.000Z</time>
      </trkpt>
      <trkpt lat="47.405" lon="-2.14443">
        <ele>66.199996948242</ele>
        <time>2022-04-24T09:10:44.000Z</time>
      </trkpt>
      <trkpt lat="47.40483" lon="-2.14462">
        <ele>66.199996948242</ele>
        <time>2022-04-24T09:10:50.000Z</time>
      </trkpt>
      <trkpt lat="47.40473" lon="-2.14473">
        <ele>66.599998474121</ele>
        <time>2022-04-24T09:10:54.000Z</time>
      </trkpt>
      <trkpt lat="47.40471" lon="-2.14476">
        <ele>67</ele>
        <time>2022-04-24T09:10:55.000Z</time>
      </trkpt>
      <trkpt lat="47.40468" lon="-2.14478">
        <ele>67.400001525879</ele>
        <time>2022-04-24T09:10:56.000Z</time>
      </trkpt>
      <trkpt lat="47.40466" lon="-2.14481">
        <ele>68</ele>
        <time>2022-04-24T09:10:57.000Z</time>
      </trkpt>
      <trkpt lat="47.40464" lon="-2.14483">
        <ele>68.400001525879</ele>
        <time>2022-04-24T09:10:58.000Z</time>
      </trkpt>
      <trkpt lat="47.40456" lon="-2.14493">
        <ele>68.400001525879</ele>
        <time>2022-04-24T09:11:01.000Z</time>
      </trkpt>
      <trkpt lat="47.40444" lon="-2.14505">
        <ele>68.400001525879</ele>
        <time>2022-04-24T09:11:07.000Z</time>
      </trkpt>
      <trkpt lat="47.40441" lon="-2.14508">
        <ele>68.800003051758</ele>
        <time>2022-04-24T09:11:08.000Z</time>
      </trkpt>
      <trkpt lat="47.40438" lon="-2.14511">
        <ele>69.199996948242</ele>
        <time>2022-04-24T09:11:09.000Z</time>
      </trkpt>
      <trkpt lat="47.40435" lon="-2.14515">
        <ele>69.599998474121</ele>
        <time>2022-04-24T09:11:10.000Z</time>
      </trkpt>
      <trkpt lat="47.40432" lon="-2.14518">
        <ele>70</ele>
        <time>2022-04-24T09:11:11.000Z</time>
      </trkpt>
      <trkpt lat="47.40429" lon="-2.14521">
        <ele>70.599998474121</ele>
        <time>2022-04-24T09:11:12.000Z</time>
      </trkpt>
      <trkpt lat="47.40416" lon="-2.14536">
        <ele>71</ele>
        <time>2022-04-24T09:11:16.000Z</time>
      </trkpt>
      <trkpt lat="47.40413" lon="-2.14539">
        <ele>71.400001525879</ele>
        <time>2022-04-24T09:11:17.000Z</time>
      </trkpt>
      <trkpt lat="47.4041" lon="-2.14543">
        <ele>71.800003051758</ele>
        <time>2022-04-24T09:11:18.000Z</time>
      </trkpt>
      <trkpt lat="47.40407" lon="-2.14547">
        <ele>72.400001525879</ele>
        <time>2022-04-24T09:11:19.000Z</time>
      </trkpt>
      <trkpt lat="47.40404" lon="-2.14549">
        <ele>72.800003051758</ele>
        <time>2022-04-24T09:11:20.000Z</time>
      </trkpt>
      <trkpt lat="47.40398" lon="-2.14554">
        <ele>73.199996948242</ele>
        <time>2022-04-24T09:11:22.000Z</time>
      </trkpt>
      <trkpt lat="47.40395" lon="-2.14557">
        <ele>73.599998474121</ele>
        <time>2022-04-24T09:11:23.000Z</time>
      </trkpt>
      <trkpt lat="47.40393" lon="-2.1456">
        <ele>74</ele>
        <time>2022-04-24T09:11:24.000Z</time>
      </trkpt>
      <trkpt lat="47.4039" lon="-2.14563">
        <ele>74.800003051758</ele>
        <time>2022-04-24T09:11:25.000Z</time>
      </trkpt>
      <trkpt lat="47.40376" lon="-2.14581">
        <ele>74.800003051758</ele>
        <time>2022-04-24T09:11:30.000Z</time>
      </trkpt>
      <trkpt lat="47.4036" lon="-2.14598">
        <ele>75.199996948242</ele>
        <time>2022-04-24T09:11:35.000Z</time>
      </trkpt>
      <trkpt lat="47.40357" lon="-2.14602">
        <ele>75.599998474121</ele>
        <time>2022-04-24T09:11:36.000Z</time>
      </trkpt>
      <trkpt lat="47.40354" lon="-2.14605">
        <ele>76</ele>
        <time>2022-04-24T09:11:37.000Z</time>
      </trkpt>
      <trkpt lat="47.40351" lon="-2.14609">
        <ele>76.400001525879</ele>
        <time>2022-04-24T09:11:38.000Z</time>
      </trkpt>
      <trkpt lat="47.40347" lon="-2.14612">
        <ele>76.800003051758</ele>
        <time>2022-04-24T09:11:39.000Z</time>
      </trkpt>
      <trkpt lat="47.40344" lon="-2.14617">
        <ele>76.800003051758</ele>
        <time>2022-04-24T09:11:40.000Z</time>
      </trkpt>
      <trkpt lat="47.40334" lon="-2.14627">
        <ele>76.800003051758</ele>
        <time>2022-04-24T09:11:43.000Z</time>
      </trkpt>
      <trkpt lat="47.40309" lon="-2.14653">
        <ele>76.800003051758</ele>
        <time>2022-04-24T09:11:50.000Z</time>
      </trkpt>
      <trkpt lat="47.4028" lon="-2.14683">
        <ele>76.800003051758</ele>
        <time>2022-04-24T09:11:57.000Z</time>
      </trkpt>
      <trkpt lat="47.40258" lon="-2.14709">
        <ele>76.800003051758</ele>
        <time>2022-04-24T09:12:02.000Z</time>
      </trkpt>
      <trkpt lat="47.40257" lon="-2.14725">
        <ele>76.400001525879</ele>
        <time>2022-04-24T09:12:04.000Z</time>
      </trkpt>
      <trkpt lat="47.40258" lon="-2.14733">
        <ele>76</ele>
        <time>2022-04-24T09:12:05.000Z</time>
      </trkpt>
      <trkpt lat="47.40261" lon="-2.1474">
        <ele>75.599998474121</ele>
        <time>2022-04-24T09:12:06.000Z</time>
      </trkpt>
      <trkpt lat="47.40265" lon="-2.14745">
        <ele>75.199996948242</ele>
        <time>2022-04-24T09:12:07.000Z</time>
      </trkpt>
      <trkpt lat="47.40269" lon="-2.14751">
        <ele>74.800003051758</ele>
        <time>2022-04-24T09:12:08.000Z</time>
      </trkpt>
      <trkpt lat="47.40298" lon="-2.148">
        <ele>74.800003051758</ele>
        <time>2022-04-24T09:12:15.000Z</time>
      </trkpt>
      <trkpt lat="47.4031" lon="-2.14821">
        <ele>74.400001525879</ele>
        <time>2022-04-24T09:12:18.000Z</time>
      </trkpt>
      <trkpt lat="47.40314" lon="-2.1483">
        <ele>74</ele>
        <time>2022-04-24T09:12:19.000Z</time>
      </trkpt>
      <trkpt lat="47.40318" lon="-2.14838">
        <ele>73.599998474121</ele>
        <time>2022-04-24T09:12:20.000Z</time>
      </trkpt>
      <trkpt lat="47.40322" lon="-2.14847">
        <ele>73.199996948242</ele>
        <time>2022-04-24T09:12:21.000Z</time>
      </trkpt>
      <trkpt lat="47.40327" lon="-2.14856">
        <ele>72.800003051758</ele>
        <time>2022-04-24T09:12:22.000Z</time>
      </trkpt>
      <trkpt lat="47.40346" lon="-2.14891">
        <ele>72.400001525879</ele>
        <time>2022-04-24T09:12:26.000Z</time>
      </trkpt>
      <trkpt lat="47.40352" lon="-2.149">
        <ele>71.800003051758</ele>
        <time>2022-04-24T09:12:27.000Z</time>
      </trkpt>
      <trkpt lat="47.40357" lon="-2.1491">
        <ele>71.400001525879</ele>
        <time>2022-04-24T09:12:28.000Z</time>
      </trkpt>
      <trkpt lat="47.40362" lon="-2.14919">
        <ele>71</ele>
        <time>2022-04-24T09:12:29.000Z</time>
      </trkpt>
      <trkpt lat="47.40368" lon="-2.14929">
        <ele>70.400001525879</ele>
        <time>2022-04-24T09:12:30.000Z</time>
      </trkpt>
      <trkpt lat="47.40373" lon="-2.14939">
        <ele>70</ele>
        <time>2022-04-24T09:12:31.000Z</time>
      </trkpt>
      <trkpt lat="47.40379" lon="-2.14949">
        <ele>69.599998474121</ele>
        <time>2022-04-24T09:12:32.000Z</time>
      </trkpt>
      <trkpt lat="47.40385" lon="-2.14958">
        <ele>69.199996948242</ele>
        <time>2022-04-24T09:12:33.000Z</time>
      </trkpt>
      <trkpt lat="47.40391" lon="-2.14968">
        <ele>68.800003051758</ele>
        <time>2022-04-24T09:12:34.000Z</time>
      </trkpt>
      <trkpt lat="47.40396" lon="-2.14977">
        <ele>68.400001525879</ele>
        <time>2022-04-24T09:12:35.000Z</time>
      </trkpt>
      <trkpt lat="47.40401" lon="-2.14987">
        <ele>68</ele>
        <time>2022-04-24T09:12:36.000Z</time>
      </trkpt>
      <trkpt lat="47.40407" lon="-2.14996">
        <ele>67.599998474121</ele>
        <time>2022-04-24T09:12:37.000Z</time>
      </trkpt>
      <trkpt lat="47.40412" lon="-2.15005">
        <ele>67.199996948242</ele>
        <time>2022-04-24T09:12:38.000Z</time>
      </trkpt>
      <trkpt lat="47.40418" lon="-2.15014">
        <ele>66.199996948242</ele>
        <time>2022-04-24T09:12:39.000Z</time>
      </trkpt>
      <trkpt lat="47.40429" lon="-2.15034">
        <ele>65.800003051758</ele>
        <time>2022-04-24T09:12:41.000Z</time>
      </trkpt>
      <trkpt lat="47.40435" lon="-2.15044">
        <ele>65.400001525879</ele>
        <time>2022-04-24T09:12:42.000Z</time>
      </trkpt>
      <trkpt lat="47.4044" lon="-2.15054">
        <ele>65</ele>
        <time>2022-04-24T09:12:43.000Z</time>
      </trkpt>
      <trkpt lat="47.40446" lon="-2.15064">
        <ele>64.599998474121</ele>
        <time>2022-04-24T09:12:44.000Z</time>
      </trkpt>
      <trkpt lat="47.40451" lon="-2.15074">
        <ele>64.199996948242</ele>
        <time>2022-04-24T09:12:45.000Z</time>
      </trkpt>
      <trkpt lat="47.40473" lon="-2.1511">
        <ele>64.199996948242</ele>
        <time>2022-04-24T09:12:49.000Z</time>
      </trkpt>
      <trkpt lat="47.40502" lon="-2.15156">
        <ele>64.199996948242</ele>
        <time>2022-04-24T09:12:55.000Z</time>
      </trkpt>
      <trkpt lat="47.40517" lon="-2.15178">
        <ele>64.199996948242</ele>
        <time>2022-04-24T09:12:58.000Z</time>
      </trkpt>
      <trkpt lat="47.40535" lon="-2.15194">
        <ele>64.199996948242</ele>
        <time>2022-04-24T09:13:01.000Z</time>
      </trkpt>
      <trkpt lat="47.40563" lon="-2.15204">
        <ele>64.199996948242</ele>
        <time>2022-04-24T09:13:05.000Z</time>
      </trkpt>
      <trkpt lat="47.40612" lon="-2.1521">
        <ele>64.199996948242</ele>
        <time>2022-04-24T09:13:12.000Z</time>
      </trkpt>
      <trkpt lat="47.40655" lon="-2.15213">
        <ele>64.199996948242</ele>
        <time>2022-04-24T09:13:18.000Z</time>
      </trkpt>
      <trkpt lat="47.40703" lon="-2.15221">
        <ele>64.199996948242</ele>
        <time>2022-04-24T09:13:25.000Z</time>
      </trkpt>
      <trkpt lat="47.40743" lon="-2.15237">
        <ele>64.199996948242</ele>
        <time>2022-04-24T09:13:31.000Z</time>
      </trkpt>
      <trkpt lat="47.40782" lon="-2.15252">
        <ele>64.199996948242</ele>
        <time>2022-04-24T09:13:37.000Z</time>
      </trkpt>
      <trkpt lat="47.40789" lon="-2.15255">
        <ele>63.599998474121</ele>
        <time>2022-04-24T09:13:38.000Z</time>
      </trkpt>
      <trkpt lat="47.40795" lon="-2.15259">
        <ele>63.200000762939</ele>
        <time>2022-04-24T09:13:39.000Z</time>
      </trkpt>
      <trkpt lat="47.40802" lon="-2.15262">
        <ele>62.799999237061</ele>
        <time>2022-04-24T09:13:40.000Z</time>
      </trkpt>
      <trkpt lat="47.40809" lon="-2.15266">
        <ele>62.400001525879</ele>
        <time>2022-04-24T09:13:41.000Z</time>
      </trkpt>
      <trkpt lat="47.40815" lon="-2.1527">
        <ele>62</ele>
        <time>2022-04-24T09:13:42.000Z</time>
      </trkpt>
      <trkpt lat="47.40821" lon="-2.15274">
        <ele>62</ele>
        <time>2022-04-24T09:13:43.000Z</time>
      </trkpt>
      <trkpt lat="47.40827" lon="-2.15279">
        <ele>62</ele>
        <time>2022-04-24T09:13:44.000Z</time>
      </trkpt>
      <trkpt lat="47.40849" lon="-2.15301">
        <ele>62</ele>
        <time>2022-04-24T09:13:48.000Z</time>
      </trkpt>
      <trkpt lat="47.40854" lon="-2.15306">
        <ele>62</ele>
        <time>2022-04-24T09:13:49.000Z</time>
      </trkpt>
      <trkpt lat="47.40875" lon="-2.15329">
        <ele>62</ele>
        <time>2022-04-24T09:13:53.000Z</time>
      </trkpt>
      <trkpt lat="47.40915" lon="-2.15371">
        <ele>62</ele>
        <time>2022-04-24T09:14:01.000Z</time>
      </trkpt>
      <trkpt lat="47.40935" lon="-2.15396">
        <ele>62</ele>
        <time>2022-04-24T09:14:06.000Z</time>
      </trkpt>
      <trkpt lat="47.40936" lon="-2.15403">
        <ele>62</ele>
        <time>2022-04-24T09:14:07.000Z</time>
      </trkpt>
      <trkpt lat="47.40934" lon="-2.1542">
        <ele>62</ele>
        <time>2022-04-24T09:14:10.000Z</time>
      </trkpt>
      <trkpt lat="47.40928" lon="-2.1543">
        <ele>62</ele>
        <time>2022-04-24T09:14:12.000Z</time>
      </trkpt>
      <trkpt lat="47.40923" lon="-2.1544">
        <ele>62</ele>
        <time>2022-04-24T09:14:14.000Z</time>
      </trkpt>
      <trkpt lat="47.40921" lon="-2.15446">
        <ele>62</ele>
        <time>2022-04-24T09:14:15.000Z</time>
      </trkpt>
      <trkpt lat="47.40917" lon="-2.15458">
        <ele>62</ele>
        <time>2022-04-24T09:14:17.000Z</time>
      </trkpt>
      <trkpt lat="47.40915" lon="-2.15471">
        <ele>62</ele>
        <time>2022-04-24T09:14:19.000Z</time>
      </trkpt>
      <trkpt lat="47.40917" lon="-2.15489">
        <ele>62</ele>
        <time>2022-04-24T09:14:22.000Z</time>
      </trkpt>
      <trkpt lat="47.40917" lon="-2.15496">
        <ele>62</ele>
        <time>2022-04-24T09:14:23.000Z</time>
      </trkpt>
      <trkpt lat="47.40917" lon="-2.15521">
        <ele>62</ele>
        <time>2022-04-24T09:14:26.000Z</time>
      </trkpt>
      <trkpt lat="47.40912" lon="-2.15536">
        <ele>62</ele>
        <time>2022-04-24T09:14:28.000Z</time>
      </trkpt>
      <trkpt lat="47.40901" lon="-2.15557">
        <ele>62</ele>
        <time>2022-04-24T09:14:31.000Z</time>
      </trkpt>
      <trkpt lat="47.40893" lon="-2.1557">
        <ele>62</ele>
        <time>2022-04-24T09:14:33.000Z</time>
      </trkpt>
      <trkpt lat="47.40862" lon="-2.15623">
        <ele>62</ele>
        <time>2022-04-24T09:14:41.000Z</time>
      </trkpt>
      <trkpt lat="47.40859" lon="-2.1563">
        <ele>62</ele>
        <time>2022-04-24T09:14:42.000Z</time>
      </trkpt>
      <trkpt lat="47.40852" lon="-2.15653">
        <ele>62</ele>
        <time>2022-04-24T09:14:45.000Z</time>
      </trkpt>
      <trkpt lat="47.40853" lon="-2.15686">
        <ele>62</ele>
        <time>2022-04-24T09:14:49.000Z</time>
      </trkpt>
      <trkpt lat="47.40853" lon="-2.1571">
        <ele>62</ele>
        <time>2022-04-24T09:14:52.000Z</time>
      </trkpt>
      <trkpt lat="47.40852" lon="-2.15718">
        <ele>62.400001525879</ele>
        <time>2022-04-24T09:14:53.000Z</time>
      </trkpt>
      <trkpt lat="47.40849" lon="-2.15725">
        <ele>62.799999237061</ele>
        <time>2022-04-24T09:14:54.000Z</time>
      </trkpt>
      <trkpt lat="47.40845" lon="-2.15731">
        <ele>63.200000762939</ele>
        <time>2022-04-24T09:14:55.000Z</time>
      </trkpt>
      <trkpt lat="47.40842" lon="-2.15738">
        <ele>63.599998474121</ele>
        <time>2022-04-24T09:14:56.000Z</time>
      </trkpt>
      <trkpt lat="47.40838" lon="-2.15744">
        <ele>64</ele>
        <time>2022-04-24T09:14:57.000Z</time>
      </trkpt>
      <trkpt lat="47.40834" lon="-2.1575">
        <ele>64</ele>
        <time>2022-04-24T09:14:58.000Z</time>
      </trkpt>
      <trkpt lat="47.40814" lon="-2.15779">
        <ele>64</ele>
        <time>2022-04-24T09:15:03.000Z</time>
      </trkpt>
      <trkpt lat="47.4081" lon="-2.15793">
        <ele>64</ele>
        <time>2022-04-24T09:15:05.000Z</time>
      </trkpt>
      <trkpt lat="47.40812" lon="-2.15814">
        <ele>64</ele>
        <time>2022-04-24T09:15:08.000Z</time>
      </trkpt>
      <trkpt lat="47.40814" lon="-2.15822">
        <ele>64.400001525879</ele>
        <time>2022-04-24T09:15:09.000Z</time>
      </trkpt>
      <trkpt lat="47.40815" lon="-2.1583">
        <ele>64.800003051758</ele>
        <time>2022-04-24T09:15:10.000Z</time>
      </trkpt>
      <trkpt lat="47.40816" lon="-2.15839">
        <ele>65.400001525879</ele>
        <time>2022-04-24T09:15:11.000Z</time>
      </trkpt>
      <trkpt lat="47.40818" lon="-2.15847">
        <ele>65.800003051758</ele>
        <time>2022-04-24T09:15:12.000Z</time>
      </trkpt>
      <trkpt lat="47.40819" lon="-2.15855">
        <ele>66.199996948242</ele>
        <time>2022-04-24T09:15:13.000Z</time>
      </trkpt>
      <trkpt lat="47.40822" lon="-2.1587">
        <ele>66.199996948242</ele>
        <time>2022-04-24T09:15:15.000Z</time>
      </trkpt>
      <trkpt lat="47.40827" lon="-2.15894">
        <ele>66.199996948242</ele>
        <time>2022-04-24T09:15:18.000Z</time>
      </trkpt>
      <trkpt lat="47.40833" lon="-2.15906">
        <ele>66.199996948242</ele>
        <time>2022-04-24T09:15:20.000Z</time>
      </trkpt>
      <trkpt lat="47.40856" lon="-2.15947">
        <ele>66.599998474121</ele>
        <time>2022-04-24T09:15:27.000Z</time>
      </trkpt>
      <trkpt lat="47.40859" lon="-2.15952">
        <ele>67</ele>
        <time>2022-04-24T09:15:28.000Z</time>
      </trkpt>
      <trkpt lat="47.40862" lon="-2.15957">
        <ele>67.400001525879</ele>
        <time>2022-04-24T09:15:29.000Z</time>
      </trkpt>
      <trkpt lat="47.40865" lon="-2.15963">
        <ele>67.800003051758</ele>
        <time>2022-04-24T09:15:30.000Z</time>
      </trkpt>
      <trkpt lat="47.40868" lon="-2.15968">
        <ele>68.199996948242</ele>
        <time>2022-04-24T09:15:31.000Z</time>
      </trkpt>
      <trkpt lat="47.4088" lon="-2.15988">
        <ele>68.199996948242</ele>
        <time>2022-04-24T09:15:35.000Z</time>
      </trkpt>
      <trkpt lat="47.40892" lon="-2.16013">
        <ele>68.199996948242</ele>
        <time>2022-04-24T09:15:41.000Z</time>
      </trkpt>
      <trkpt lat="47.40892" lon="-2.16025">
        <ele>68.199996948242</ele>
        <time>2022-04-24T09:15:44.000Z</time>
      </trkpt>
      <trkpt lat="47.40891" lon="-2.16027">
        <ele>68.199996948242</ele>
        <time>2022-04-24T09:15:45.000Z</time>
      </trkpt>
      <trkpt lat="47.40883" lon="-2.16032">
        <ele>68.199996948242</ele>
        <time>2022-04-24T09:15:48.000Z</time>
      </trkpt>
      <trkpt lat="47.40872" lon="-2.16041">
        <ele>68.199996948242</ele>
        <time>2022-04-24T09:15:52.000Z</time>
      </trkpt>
      <trkpt lat="47.40866" lon="-2.16046">
        <ele>68.199996948242</ele>
        <time>2022-04-24T09:15:54.000Z</time>
      </trkpt>
      <trkpt lat="47.40858" lon="-2.16052">
        <ele>68.199996948242</ele>
        <time>2022-04-24T09:15:59.000Z</time>
      </trkpt>
      <trkpt lat="47.40847" lon="-2.16063">
        <ele>68.199996948242</ele>
        <time>2022-04-24T09:16:05.000Z</time>
      </trkpt>
      <trkpt lat="47.4084" lon="-2.16064">
        <ele>68.199996948242</ele>
        <time>2022-04-24T09:16:08.000Z</time>
      </trkpt>
      <trkpt lat="47.40839" lon="-2.16061">
        <ele>68.199996948242</ele>
        <time>2022-04-24T09:16:09.000Z</time>
      </trkpt>
      <trkpt lat="47.40831" lon="-2.16048">
        <ele>68.199996948242</ele>
        <time>2022-04-24T09:16:13.000Z</time>
      </trkpt>
      <trkpt lat="47.40821" lon="-2.16044">
        <ele>68.199996948242</ele>
        <time>2022-04-24T09:16:18.000Z</time>
      </trkpt>
      <trkpt lat="47.40812" lon="-2.16048">
        <ele>68.199996948242</ele>
        <time>2022-04-24T09:16:20.000Z</time>
      </trkpt>
      <trkpt lat="47.40804" lon="-2.16052">
        <ele>68.199996948242</ele>
        <time>2022-04-24T09:16:22.000Z</time>
      </trkpt>
      <trkpt lat="47.4077" lon="-2.1607">
        <ele>68.199996948242</ele>
        <time>2022-04-24T09:16:29.000Z</time>
      </trkpt>
      <trkpt lat="47.40764" lon="-2.16079">
        <ele>68.199996948242</ele>
        <time>2022-04-24T09:16:31.000Z</time>
      </trkpt>
      <trkpt lat="47.40763" lon="-2.16084">
        <ele>68.199996948242</ele>
        <time>2022-04-24T09:16:32.000Z</time>
      </trkpt>
      <trkpt lat="47.40766" lon="-2.16107">
        <ele>68.199996948242</ele>
        <time>2022-04-24T09:16:36.000Z</time>
      </trkpt>
      <trkpt lat="47.40783" lon="-2.16146">
        <ele>68.199996948242</ele>
        <time>2022-04-24T09:16:43.000Z</time>
      </trkpt>
      <trkpt lat="47.40802" lon="-2.16189">
        <ele>68.199996948242</ele>
        <time>2022-04-24T09:16:50.000Z</time>
      </trkpt>
      <trkpt lat="47.40804" lon="-2.16197">
        <ele>68.199996948242</ele>
        <time>2022-04-24T09:16:52.000Z</time>
      </trkpt>
      <trkpt lat="47.40803" lon="-2.16201">
        <ele>67.800003051758</ele>
        <time>2022-04-24T09:16:53.000Z</time>
      </trkpt>
      <trkpt lat="47.40801" lon="-2.16207">
        <ele>67.400001525879</ele>
        <time>2022-04-24T09:16:54.000Z</time>
      </trkpt>
      <trkpt lat="47.40799" lon="-2.16213">
        <ele>67</ele>
        <time>2022-04-24T09:16:55.000Z</time>
      </trkpt>
      <trkpt lat="47.40795" lon="-2.16218">
        <ele>66.599998474121</ele>
        <time>2022-04-24T09:16:56.000Z</time>
      </trkpt>
      <trkpt lat="47.40792" lon="-2.1622">
        <ele>66.199996948242</ele>
        <time>2022-04-24T09:16:57.000Z</time>
      </trkpt>
      <trkpt lat="47.40782" lon="-2.16228">
        <ele>66.199996948242</ele>
        <time>2022-04-24T09:17:00.000Z</time>
      </trkpt>
      <trkpt lat="47.40774" lon="-2.16234">
        <ele>65.800003051758</ele>
        <time>2022-04-24T09:17:02.000Z</time>
      </trkpt>
      <trkpt lat="47.40771" lon="-2.16238">
        <ele>65.400001525879</ele>
        <time>2022-04-24T09:17:03.000Z</time>
      </trkpt>
      <trkpt lat="47.40767" lon="-2.16241">
        <ele>65</ele>
        <time>2022-04-24T09:17:04.000Z</time>
      </trkpt>
      <trkpt lat="47.40763" lon="-2.16245">
        <ele>64.599998474121</ele>
        <time>2022-04-24T09:17:05.000Z</time>
      </trkpt>
      <trkpt lat="47.40761" lon="-2.16248">
        <ele>64.199996948242</ele>
        <time>2022-04-24T09:17:06.000Z</time>
      </trkpt>
      <trkpt lat="47.4076" lon="-2.1625">
        <ele>64.199996948242</ele>
        <time>2022-04-24T09:17:07.000Z</time>
      </trkpt>
      <trkpt lat="47.40754" lon="-2.16253">
        <ele>64.199996948242</ele>
        <time>2022-04-24T09:17:09.000Z</time>
      </trkpt>
      <trkpt lat="47.4075" lon="-2.16254">
        <ele>63.400001525879</ele>
        <time>2022-04-24T09:17:10.000Z</time>
      </trkpt>
      <trkpt lat="47.40747" lon="-2.16257">
        <ele>62.799999237061</ele>
        <time>2022-04-24T09:17:11.000Z</time>
      </trkpt>
      <trkpt lat="47.40743" lon="-2.1626">
        <ele>62.400001525879</ele>
        <time>2022-04-24T09:17:12.000Z</time>
      </trkpt>
      <trkpt lat="47.40741" lon="-2.16264">
        <ele>62</ele>
        <time>2022-04-24T09:17:13.000Z</time>
      </trkpt>
      <trkpt lat="47.4074" lon="-2.16268">
        <ele>62</ele>
        <time>2022-04-24T09:17:14.000Z</time>
      </trkpt>
      <trkpt lat="47.40741" lon="-2.16271">
        <ele>62</ele>
        <time>2022-04-24T09:17:15.000Z</time>
      </trkpt>
      <trkpt lat="47.40743" lon="-2.16292">
        <ele>62</ele>
        <time>2022-04-24T09:17:19.000Z</time>
      </trkpt>
      <trkpt lat="47.40753" lon="-2.16306">
        <ele>62</ele>
        <time>2022-04-24T09:17:22.000Z</time>
      </trkpt>
      <trkpt lat="47.40776" lon="-2.16335">
        <ele>62</ele>
        <time>2022-04-24T09:17:28.000Z</time>
      </trkpt>
      <trkpt lat="47.40781" lon="-2.16335">
        <ele>62</ele>
        <time>2022-04-24T09:17:29.000Z</time>
      </trkpt>
      <trkpt lat="47.40789" lon="-2.16328">
        <ele>62</ele>
        <time>2022-04-24T09:17:31.000Z</time>
      </trkpt>
      <trkpt lat="47.40797" lon="-2.16322">
        <ele>62.400001525879</ele>
        <time>2022-04-24T09:17:33.000Z</time>
      </trkpt>
      <trkpt lat="47.40802" lon="-2.16322">
        <ele>63.400001525879</ele>
        <time>2022-04-24T09:17:34.000Z</time>
      </trkpt>
      <trkpt lat="47.40806" lon="-2.16325">
        <ele>63.799999237061</ele>
        <time>2022-04-24T09:17:35.000Z</time>
      </trkpt>
      <trkpt lat="47.40809" lon="-2.1633">
        <ele>64.199996948242</ele>
        <time>2022-04-24T09:17:36.000Z</time>
      </trkpt>
      <trkpt lat="47.40816" lon="-2.16342">
        <ele>64.199996948242</ele>
        <time>2022-04-24T09:17:38.000Z</time>
      </trkpt>
      <trkpt lat="47.40819" lon="-2.16349">
        <ele>64.199996948242</ele>
        <time>2022-04-24T09:17:39.000Z</time>
      </trkpt>
      <trkpt lat="47.4083" lon="-2.16374">
        <ele>64.199996948242</ele>
        <time>2022-04-24T09:17:43.000Z</time>
      </trkpt>
      <trkpt lat="47.40838" lon="-2.1639">
        <ele>64.199996948242</ele>
        <time>2022-04-24T09:17:46.000Z</time>
      </trkpt>
      <trkpt lat="47.40842" lon="-2.16398">
        <ele>64.199996948242</ele>
        <time>2022-04-24T09:17:48.000Z</time>
      </trkpt>
      <trkpt lat="47.40836" lon="-2.16407">
        <ele>64.199996948242</ele>
        <time>2022-04-24T09:17:51.000Z</time>
      </trkpt>
      <trkpt lat="47.40826" lon="-2.16416">
        <ele>64.199996948242</ele>
        <time>2022-04-24T09:17:55.000Z</time>
      </trkpt>
      <trkpt lat="47.40821" lon="-2.16418">
        <ele>64.199996948242</ele>
        <time>2022-04-24T09:17:57.000Z</time>
      </trkpt>
      <trkpt lat="47.40814" lon="-2.16422">
        <ele>64.199996948242</ele>
        <time>2022-04-24T09:17:59.000Z</time>
      </trkpt>
      <trkpt lat="47.40797" lon="-2.1643">
        <ele>64.199996948242</ele>
        <time>2022-04-24T09:18:04.000Z</time>
      </trkpt>
      <trkpt lat="47.40787" lon="-2.16439">
        <ele>64.199996948242</ele>
        <time>2022-04-24T09:18:07.000Z</time>
      </trkpt>
      <trkpt lat="47.40779" lon="-2.16447">
        <ele>64.199996948242</ele>
        <time>2022-04-24T09:18:09.000Z</time>
      </trkpt>
      <trkpt lat="47.40769" lon="-2.16466">
        <ele>64.199996948242</ele>
        <time>2022-04-24T09:18:13.000Z</time>
      </trkpt>
      <trkpt lat="47.40757" lon="-2.16488">
        <ele>64.199996948242</ele>
        <time>2022-04-24T09:18:17.000Z</time>
      </trkpt>
      <trkpt lat="47.40763" lon="-2.16507">
        <ele>64.199996948242</ele>
        <time>2022-04-24T09:18:20.000Z</time>
      </trkpt>
      <trkpt lat="47.40765" lon="-2.16513">
        <ele>64.199996948242</ele>
        <time>2022-04-24T09:18:21.000Z</time>
      </trkpt>
      <trkpt lat="47.40769" lon="-2.16517">
        <ele>64.199996948242</ele>
        <time>2022-04-24T09:18:22.000Z</time>
      </trkpt>
      <trkpt lat="47.40778" lon="-2.16516">
        <ele>64.199996948242</ele>
        <time>2022-04-24T09:18:24.000Z</time>
      </trkpt>
      <trkpt lat="47.40799" lon="-2.16511">
        <ele>64.199996948242</ele>
        <time>2022-04-24T09:18:29.000Z</time>
      </trkpt>
      <trkpt lat="47.40804" lon="-2.16511">
        <ele>64.199996948242</ele>
        <time>2022-04-24T09:18:30.000Z</time>
      </trkpt>
      <trkpt lat="47.40829" lon="-2.16506">
        <ele>64.199996948242</ele>
        <time>2022-04-24T09:18:36.000Z</time>
      </trkpt>
      <trkpt lat="47.40833" lon="-2.16506">
        <ele>64.599998474121</ele>
        <time>2022-04-24T09:18:37.000Z</time>
      </trkpt>
      <trkpt lat="47.40837" lon="-2.16505">
        <ele>65</ele>
        <time>2022-04-24T09:18:38.000Z</time>
      </trkpt>
      <trkpt lat="47.40841" lon="-2.16504">
        <ele>65.400001525879</ele>
        <time>2022-04-24T09:18:39.000Z</time>
      </trkpt>
      <trkpt lat="47.40846" lon="-2.16504">
        <ele>65.800003051758</ele>
        <time>2022-04-24T09:18:40.000Z</time>
      </trkpt>
      <trkpt lat="47.40849" lon="-2.16503">
        <ele>66.199996948242</ele>
        <time>2022-04-24T09:18:41.000Z</time>
      </trkpt>
      <trkpt lat="47.40857" lon="-2.165">
        <ele>66.199996948242</ele>
        <time>2022-04-24T09:18:43.000Z</time>
      </trkpt>
      <trkpt lat="47.40873" lon="-2.16496">
        <ele>66.199996948242</ele>
        <time>2022-04-24T09:18:47.000Z</time>
      </trkpt>
      <trkpt lat="47.40886" lon="-2.16475">
        <ele>66.199996948242</ele>
        <time>2022-04-24T09:18:51.000Z</time>
      </trkpt>
      <trkpt lat="47.40898" lon="-2.16469">
        <ele>66.199996948242</ele>
        <time>2022-04-24T09:18:54.000Z</time>
      </trkpt>
      <trkpt lat="47.40909" lon="-2.16468">
        <ele>66.199996948242</ele>
        <time>2022-04-24T09:18:58.000Z</time>
      </trkpt>
      <trkpt lat="47.40911" lon="-2.16468">
        <ele>66.199996948242</ele>
        <time>2022-04-24T09:18:59.000Z</time>
      </trkpt>
      <trkpt lat="47.40921" lon="-2.16464">
        <ele>66.199996948242</ele>
        <time>2022-04-24T09:19:03.000Z</time>
      </trkpt>
      <trkpt lat="47.40923" lon="-2.16463">
        <ele>66.199996948242</ele>
        <time>2022-04-24T09:19:04.000Z</time>
      </trkpt>
      <trkpt lat="47.40926" lon="-2.16456">
        <ele>66.199996948242</ele>
        <time>2022-04-24T09:19:07.000Z</time>
      </trkpt>
      <trkpt lat="47.40926" lon="-2.16453">
        <ele>66.199996948242</ele>
        <time>2022-04-24T09:19:08.000Z</time>
      </trkpt>
      <trkpt lat="47.40925" lon="-2.16449">
        <ele>66.199996948242</ele>
        <time>2022-04-24T09:19:10.000Z</time>
      </trkpt>
      <trkpt lat="47.40924" lon="-2.16446">
        <ele>66.199996948242</ele>
        <time>2022-04-24T09:19:11.000Z</time>
      </trkpt>
      <trkpt lat="47.40916" lon="-2.16427">
        <ele>66.199996948242</ele>
        <time>2022-04-24T09:19:16.000Z</time>
      </trkpt>
      <trkpt lat="47.40914" lon="-2.16423">
        <ele>66.199996948242</ele>
        <time>2022-04-24T09:19:17.000Z</time>
      </trkpt>
      <trkpt lat="47.40908" lon="-2.16405">
        <ele>66.199996948242</ele>
        <time>2022-04-24T09:19:21.000Z</time>
      </trkpt>
      <trkpt lat="47.4091" lon="-2.16399">
        <ele>66.199996948242</ele>
        <time>2022-04-24T09:19:23.000Z</time>
      </trkpt>
      <trkpt lat="47.40916" lon="-2.16393">
        <ele>66.199996948242</ele>
        <time>2022-04-24T09:19:25.000Z</time>
      </trkpt>
      <trkpt lat="47.40921" lon="-2.16377">
        <ele>66.199996948242</ele>
        <time>2022-04-24T09:19:29.000Z</time>
      </trkpt>
      <trkpt lat="47.40931" lon="-2.16371">
        <ele>66.199996948242</ele>
        <time>2022-04-24T09:19:33.000Z</time>
      </trkpt>
      <trkpt lat="47.40935" lon="-2.16367">
        <ele>66.199996948242</ele>
        <time>2022-04-24T09:19:35.000Z</time>
      </trkpt>
      <trkpt lat="47.40942" lon="-2.16353">
        <ele>66.199996948242</ele>
        <time>2022-04-24T09:19:38.000Z</time>
      </trkpt>
      <trkpt lat="47.40953" lon="-2.16341">
        <ele>66.199996948242</ele>
        <time>2022-04-24T09:19:42.000Z</time>
      </trkpt>
      <trkpt lat="47.40963" lon="-2.16333">
        <ele>66.199996948242</ele>
        <time>2022-04-24T09:19:46.000Z</time>
      </trkpt>
      <trkpt lat="47.40966" lon="-2.16327">
        <ele>66.199996948242</ele>
        <time>2022-04-24T09:19:48.000Z</time>
      </trkpt>
      <trkpt lat="47.40967" lon="-2.16325">
        <ele>66.199996948242</ele>
        <time>2022-04-24T09:19:49.000Z</time>
      </trkpt>
      <trkpt lat="47.40971" lon="-2.16319">
        <ele>66.199996948242</ele>
        <time>2022-04-24T09:19:51.000Z</time>
      </trkpt>
      <trkpt lat="47.40977" lon="-2.16311">
        <ele>66.599998474121</ele>
        <time>2022-04-24T09:19:53.000Z</time>
      </trkpt>
      <trkpt lat="47.40979" lon="-2.16309">
        <ele>67</ele>
        <time>2022-04-24T09:19:54.000Z</time>
      </trkpt>
      <trkpt lat="47.40982" lon="-2.1631">
        <ele>67.400001525879</ele>
        <time>2022-04-24T09:19:55.000Z</time>
      </trkpt>
      <trkpt lat="47.40984" lon="-2.16312">
        <ele>68</ele>
        <time>2022-04-24T09:19:56.000Z</time>
      </trkpt>
      <trkpt lat="47.40986" lon="-2.16315">
        <ele>68.400001525879</ele>
        <time>2022-04-24T09:19:57.000Z</time>
      </trkpt>
      <trkpt lat="47.40991" lon="-2.16317">
        <ele>68.400001525879</ele>
        <time>2022-04-24T09:20:00.000Z</time>
      </trkpt>
      <trkpt lat="47.40998" lon="-2.1631">
        <ele>68.400001525879</ele>
        <time>2022-04-24T09:20:03.000Z</time>
      </trkpt>
      <trkpt lat="47.41003" lon="-2.16305">
        <ele>68.400001525879</ele>
        <time>2022-04-24T09:20:05.000Z</time>
      </trkpt>
      <trkpt lat="47.41011" lon="-2.16305">
        <ele>68.400001525879</ele>
        <time>2022-04-24T09:20:07.000Z</time>
      </trkpt>
      <trkpt lat="47.41021" lon="-2.16308">
        <ele>68.400001525879</ele>
        <time>2022-04-24T09:20:09.000Z</time>
      </trkpt>
      <trkpt lat="47.41041" lon="-2.16312">
        <ele>68.400001525879</ele>
        <time>2022-04-24T09:20:14.000Z</time>
      </trkpt>
      <trkpt lat="47.41058" lon="-2.1631">
        <ele>68.400001525879</ele>
        <time>2022-04-24T09:20:18.000Z</time>
      </trkpt>
      <trkpt lat="47.41068" lon="-2.1631">
        <ele>67.800003051758</ele>
        <time>2022-04-24T09:20:20.000Z</time>
      </trkpt>
      <trkpt lat="47.41074" lon="-2.16308">
        <ele>67.400001525879</ele>
        <time>2022-04-24T09:20:21.000Z</time>
      </trkpt>
      <trkpt lat="47.41079" lon="-2.16308">
        <ele>67</ele>
        <time>2022-04-24T09:20:22.000Z</time>
      </trkpt>
      <trkpt lat="47.41085" lon="-2.16308">
        <ele>66.599998474121</ele>
        <time>2022-04-24T09:20:23.000Z</time>
      </trkpt>
      <trkpt lat="47.41088" lon="-2.16306">
        <ele>66.199996948242</ele>
        <time>2022-04-24T09:20:24.000Z</time>
      </trkpt>
      <trkpt lat="47.41107" lon="-2.16306">
        <ele>66.199996948242</ele>
        <time>2022-04-24T09:20:28.000Z</time>
      </trkpt>
      <trkpt lat="47.41129" lon="-2.16319">
        <ele>66.199996948242</ele>
        <time>2022-04-24T09:20:33.000Z</time>
      </trkpt>
      <trkpt lat="47.41132" lon="-2.16322">
        <ele>65.800003051758</ele>
        <time>2022-04-24T09:20:34.000Z</time>
      </trkpt>
      <trkpt lat="47.41135" lon="-2.16325">
        <ele>65.400001525879</ele>
        <time>2022-04-24T09:20:35.000Z</time>
      </trkpt>
      <trkpt lat="47.41137" lon="-2.16326">
        <ele>65</ele>
        <time>2022-04-24T09:20:36.000Z</time>
      </trkpt>
      <trkpt lat="47.41137" lon="-2.16327">
        <ele>64.599998474121</ele>
        <time>2022-04-24T09:20:37.000Z</time>
      </trkpt>
      <trkpt lat="47.41138" lon="-2.16329">
        <ele>64</ele>
        <time>2022-04-24T09:20:38.000Z</time>
      </trkpt>
      <trkpt lat="47.41153" lon="-2.16338">
        <ele>64</ele>
        <time>2022-04-24T09:20:43.000Z</time>
      </trkpt>
      <trkpt lat="47.4116" lon="-2.16342">
        <ele>64</ele>
        <time>2022-04-24T09:20:46.000Z</time>
      </trkpt>
      <trkpt lat="47.41163" lon="-2.16344">
        <ele>64</ele>
        <time>2022-04-24T09:20:48.000Z</time>
      </trkpt>
      <trkpt lat="47.41169" lon="-2.16342">
        <ele>64</ele>
        <time>2022-04-24T09:20:51.000Z</time>
      </trkpt>
      <trkpt lat="47.41171" lon="-2.16336">
        <ele>64</ele>
        <time>2022-04-24T09:20:53.000Z</time>
      </trkpt>
      <trkpt lat="47.41173" lon="-2.16329">
        <ele>64</ele>
        <time>2022-04-24T09:20:55.000Z</time>
      </trkpt>
      <trkpt lat="47.41176" lon="-2.16317">
        <ele>64</ele>
        <time>2022-04-24T09:20:59.000Z</time>
      </trkpt>
      <trkpt lat="47.41183" lon="-2.16302">
        <ele>64</ele>
        <time>2022-04-24T09:21:04.000Z</time>
      </trkpt>
      <trkpt lat="47.41186" lon="-2.16301">
        <ele>64</ele>
        <time>2022-04-24T09:21:06.000Z</time>
      </trkpt>
      <trkpt lat="47.4119" lon="-2.16302">
        <ele>64</ele>
        <time>2022-04-24T09:21:08.000Z</time>
      </trkpt>
      <trkpt lat="47.41191" lon="-2.16306">
        <ele>64</ele>
        <time>2022-04-24T09:21:10.000Z</time>
      </trkpt>
      <trkpt lat="47.41194" lon="-2.16317">
        <ele>64</ele>
        <time>2022-04-24T09:21:13.000Z</time>
      </trkpt>
      <trkpt lat="47.41195" lon="-2.16324">
        <ele>64</ele>
        <time>2022-04-24T09:21:15.000Z</time>
      </trkpt>
      <trkpt lat="47.41195" lon="-2.16328">
        <ele>63.599998474121</ele>
        <time>2022-04-24T09:21:16.000Z</time>
      </trkpt>
      <trkpt lat="47.41194" lon="-2.16332">
        <ele>63.200000762939</ele>
        <time>2022-04-24T09:21:17.000Z</time>
      </trkpt>
      <trkpt lat="47.41192" lon="-2.16336">
        <ele>62.400001525879</ele>
        <time>2022-04-24T09:21:18.000Z</time>
      </trkpt>
      <trkpt lat="47.41189" lon="-2.1634">
        <ele>62</ele>
        <time>2022-04-24T09:21:19.000Z</time>
      </trkpt>
      <trkpt lat="47.41184" lon="-2.16351">
        <ele>62</ele>
        <time>2022-04-24T09:21:23.000Z</time>
      </trkpt>
      <trkpt lat="47.41183" lon="-2.16355">
        <ele>62</ele>
        <time>2022-04-24T09:21:24.000Z</time>
      </trkpt>
      <trkpt lat="47.41185" lon="-2.1636">
        <ele>62</ele>
        <time>2022-04-24T09:21:25.000Z</time>
      </trkpt>
      <trkpt lat="47.41185" lon="-2.16369">
        <ele>62</ele>
        <time>2022-04-24T09:21:27.000Z</time>
      </trkpt>
      <trkpt lat="47.41176" lon="-2.16383">
        <ele>62</ele>
        <time>2022-04-24T09:21:31.000Z</time>
      </trkpt>
      <trkpt lat="47.41165" lon="-2.16383">
        <ele>62</ele>
        <time>2022-04-24T09:21:35.000Z</time>
      </trkpt>
      <trkpt lat="47.41157" lon="-2.16369">
        <ele>62</ele>
        <time>2022-04-24T09:21:40.000Z</time>
      </trkpt>
      <trkpt lat="47.41155" lon="-2.16368">
        <ele>62.400001525879</ele>
        <time>2022-04-24T09:21:41.000Z</time>
      </trkpt>
      <trkpt lat="47.41153" lon="-2.16367">
        <ele>63.400001525879</ele>
        <time>2022-04-24T09:21:42.000Z</time>
      </trkpt>
      <trkpt lat="47.4115" lon="-2.16366">
        <ele>63.799999237061</ele>
        <time>2022-04-24T09:21:43.000Z</time>
      </trkpt>
      <trkpt lat="47.41148" lon="-2.16364">
        <ele>64.199996948242</ele>
        <time>2022-04-24T09:21:44.000Z</time>
      </trkpt>
      <trkpt lat="47.41143" lon="-2.16349">
        <ele>64.199996948242</ele>
        <time>2022-04-24T09:21:48.000Z</time>
      </trkpt>
      <trkpt lat="47.41142" lon="-2.16346">
        <ele>64.199996948242</ele>
        <time>2022-04-24T09:21:49.000Z</time>
      </trkpt>
      <trkpt lat="47.41139" lon="-2.16339">
        <ele>64.199996948242</ele>
        <time>2022-04-24T09:21:51.000Z</time>
      </trkpt>
      <trkpt lat="47.41135" lon="-2.16333">
        <ele>64.199996948242</ele>
        <time>2022-04-24T09:21:53.000Z</time>
      </trkpt>
      <trkpt lat="47.41132" lon="-2.1633">
        <ele>64.199996948242</ele>
        <time>2022-04-24T09:21:55.000Z</time>
      </trkpt>
      <trkpt lat="47.41128" lon="-2.16325">
        <ele>64.199996948242</ele>
        <time>2022-04-24T09:21:58.000Z</time>
      </trkpt>
      <trkpt lat="47.41127" lon="-2.16322">
        <ele>64.199996948242</ele>
        <time>2022-04-24T09:21:59.000Z</time>
      </trkpt>
      <trkpt lat="47.41118" lon="-2.16317">
        <ele>64.199996948242</ele>
        <time>2022-04-24T09:22:03.000Z</time>
      </trkpt>
      <trkpt lat="47.41115" lon="-2.16324">
        <ele>64.199996948242</ele>
        <time>2022-04-24T09:22:06.000Z</time>
      </trkpt>
      <trkpt lat="47.41117" lon="-2.16329">
        <ele>64.199996948242</ele>
        <time>2022-04-24T09:22:08.000Z</time>
      </trkpt>
      <trkpt lat="47.4112" lon="-2.16335">
        <ele>64.199996948242</ele>
        <time>2022-04-24T09:22:10.000Z</time>
      </trkpt>
      <trkpt lat="47.41121" lon="-2.16358">
        <ele>64.199996948242</ele>
        <time>2022-04-24T09:22:16.000Z</time>
      </trkpt>
      <trkpt lat="47.41118" lon="-2.16359">
        <ele>64.199996948242</ele>
        <time>2022-04-24T09:22:17.000Z</time>
      </trkpt>
      <trkpt lat="47.41112" lon="-2.16364">
        <ele>64.599998474121</ele>
        <time>2022-04-24T09:22:19.000Z</time>
      </trkpt>
      <trkpt lat="47.4111" lon="-2.16367">
        <ele>65</ele>
        <time>2022-04-24T09:22:20.000Z</time>
      </trkpt>
      <trkpt lat="47.41106" lon="-2.1637">
        <ele>65.400001525879</ele>
        <time>2022-04-24T09:22:21.000Z</time>
      </trkpt>
      <trkpt lat="47.41103" lon="-2.1637">
        <ele>65.800003051758</ele>
        <time>2022-04-24T09:22:22.000Z</time>
      </trkpt>
      <trkpt lat="47.411" lon="-2.16368">
        <ele>66.199996948242</ele>
        <time>2022-04-24T09:22:23.000Z</time>
      </trkpt>
      <trkpt lat="47.41099" lon="-2.16366">
        <ele>66.199996948242</ele>
        <time>2022-04-24T09:22:24.000Z</time>
      </trkpt>
      <trkpt lat="47.41098" lon="-2.16364">
        <ele>66.199996948242</ele>
        <time>2022-04-24T09:22:25.000Z</time>
      </trkpt>
      <trkpt lat="47.41099" lon="-2.16355">
        <ele>66.199996948242</ele>
        <time>2022-04-24T09:22:28.000Z</time>
      </trkpt>
      <trkpt lat="47.41098" lon="-2.16355">
        <ele>66.199996948242</ele>
        <time>2022-04-24T09:22:29.000Z</time>
      </trkpt>
      <trkpt lat="47.41094" lon="-2.16351">
        <ele>66.199996948242</ele>
        <time>2022-04-24T09:22:31.000Z</time>
      </trkpt>
      <trkpt lat="47.41092" lon="-2.16349">
        <ele>66.199996948242</ele>
        <time>2022-04-24T09:22:32.000Z</time>
      </trkpt>
      <trkpt lat="47.41076" lon="-2.16332">
        <ele>66.199996948242</ele>
        <time>2022-04-24T09:22:38.000Z</time>
      </trkpt>
      <trkpt lat="47.41069" lon="-2.16332">
        <ele>66.199996948242</ele>
        <time>2022-04-24T09:22:40.000Z</time>
      </trkpt>
      <trkpt lat="47.41066" lon="-2.16332">
        <ele>66.199996948242</ele>
        <time>2022-04-24T09:22:41.000Z</time>
      </trkpt>
      <trkpt lat="47.41054" lon="-2.16333">
        <ele>66.199996948242</ele>
        <time>2022-04-24T09:22:45.000Z</time>
      </trkpt>
      <trkpt lat="47.41052" lon="-2.16331">
        <ele>66.199996948242</ele>
        <time>2022-04-24T09:22:46.000Z</time>
      </trkpt>
      <trkpt lat="47.41043" lon="-2.16325">
        <ele>66.199996948242</ele>
        <time>2022-04-24T09:22:50.000Z</time>
      </trkpt>
      <trkpt lat="47.41037" lon="-2.16324">
        <ele>66.199996948242</ele>
        <time>2022-04-24T09:22:52.000Z</time>
      </trkpt>
      <trkpt lat="47.41031" lon="-2.16325">
        <ele>66.199996948242</ele>
        <time>2022-04-24T09:22:54.000Z</time>
      </trkpt>
      <trkpt lat="47.4103" lon="-2.16328">
        <ele>66.199996948242</ele>
        <time>2022-04-24T09:22:55.000Z</time>
      </trkpt>
      <trkpt lat="47.41029" lon="-2.16331">
        <ele>67</ele>
        <time>2022-04-24T09:22:56.000Z</time>
      </trkpt>
      <trkpt lat="47.41027" lon="-2.16334">
        <ele>67.400001525879</ele>
        <time>2022-04-24T09:22:57.000Z</time>
      </trkpt>
      <trkpt lat="47.41025" lon="-2.16337">
        <ele>67.800003051758</ele>
        <time>2022-04-24T09:22:58.000Z</time>
      </trkpt>
      <trkpt lat="47.41023" lon="-2.16338">
        <ele>68.199996948242</ele>
        <time>2022-04-24T09:22:59.000Z</time>
      </trkpt>
      <trkpt lat="47.41009" lon="-2.16344">
        <ele>68.199996948242</ele>
        <time>2022-04-24T09:23:03.000Z</time>
      </trkpt>
      <trkpt lat="47.40985" lon="-2.16348">
        <ele>68.199996948242</ele>
        <time>2022-04-24T09:23:08.000Z</time>
      </trkpt>
      <trkpt lat="47.40976" lon="-2.16352">
        <ele>68.199996948242</ele>
        <time>2022-04-24T09:23:10.000Z</time>
      </trkpt>
      <trkpt lat="47.40966" lon="-2.16357">
        <ele>68.199996948242</ele>
        <time>2022-04-24T09:23:12.000Z</time>
      </trkpt>
      <trkpt lat="47.40957" lon="-2.16374">
        <ele>68.199996948242</ele>
        <time>2022-04-24T09:23:16.000Z</time>
      </trkpt>
      <trkpt lat="47.40958" lon="-2.16379">
        <ele>67.800003051758</ele>
        <time>2022-04-24T09:23:17.000Z</time>
      </trkpt>
      <trkpt lat="47.40958" lon="-2.16384">
        <ele>67.400001525879</ele>
        <time>2022-04-24T09:23:18.000Z</time>
      </trkpt>
      <trkpt lat="47.40958" lon="-2.16391">
        <ele>67</ele>
        <time>2022-04-24T09:23:19.000Z</time>
      </trkpt>
      <trkpt lat="47.40958" lon="-2.16397">
        <ele>66.400001525879</ele>
        <time>2022-04-24T09:23:20.000Z</time>
      </trkpt>
      <trkpt lat="47.40959" lon="-2.16403">
        <ele>66</ele>
        <time>2022-04-24T09:23:21.000Z</time>
      </trkpt>
      <trkpt lat="47.40964" lon="-2.16412">
        <ele>66</ele>
        <time>2022-04-24T09:23:23.000Z</time>
      </trkpt>
      <trkpt lat="47.40968" lon="-2.16414">
        <ele>66</ele>
        <time>2022-04-24T09:23:24.000Z</time>
      </trkpt>
      <trkpt lat="47.40981" lon="-2.16413">
        <ele>66</ele>
        <time>2022-04-24T09:23:28.000Z</time>
      </trkpt>
      <trkpt lat="47.40995" lon="-2.16424">
        <ele>66</ele>
        <time>2022-04-24T09:23:32.000Z</time>
      </trkpt>
      <trkpt lat="47.41007" lon="-2.16419">
        <ele>66</ele>
        <time>2022-04-24T09:23:35.000Z</time>
      </trkpt>
      <trkpt lat="47.41011" lon="-2.16408">
        <ele>66</ele>
        <time>2022-04-24T09:23:38.000Z</time>
      </trkpt>
      <trkpt lat="47.41015" lon="-2.164">
        <ele>66</ele>
        <time>2022-04-24T09:23:41.000Z</time>
      </trkpt>
      <trkpt lat="47.41018" lon="-2.164">
        <ele>66</ele>
        <time>2022-04-24T09:23:42.000Z</time>
      </trkpt>
      <trkpt lat="47.4102" lon="-2.16411">
        <ele>66</ele>
        <time>2022-04-24T09:23:47.000Z</time>
      </trkpt>
      <trkpt lat="47.4102" lon="-2.16421">
        <ele>66</ele>
        <time>2022-04-24T09:23:49.000Z</time>
      </trkpt>
      <trkpt lat="47.41018" lon="-2.16423">
        <ele>66</ele>
        <time>2022-04-24T09:23:50.000Z</time>
      </trkpt>
      <trkpt lat="47.41018" lon="-2.16425">
        <ele>66</ele>
        <time>2022-04-24T09:23:51.000Z</time>
      </trkpt>
      <trkpt lat="47.41017" lon="-2.16436">
        <ele>65.599998474121</ele>
        <time>2022-04-24T09:23:54.000Z</time>
      </trkpt>
      <trkpt lat="47.41016" lon="-2.16441">
        <ele>65.199996948242</ele>
        <time>2022-04-24T09:23:55.000Z</time>
      </trkpt>
      <trkpt lat="47.41017" lon="-2.16447">
        <ele>64.800003051758</ele>
        <time>2022-04-24T09:23:56.000Z</time>
      </trkpt>
      <trkpt lat="47.41018" lon="-2.16451">
        <ele>64.400001525879</ele>
        <time>2022-04-24T09:23:57.000Z</time>
      </trkpt>
      <trkpt lat="47.41021" lon="-2.16454">
        <ele>64</ele>
        <time>2022-04-24T09:23:58.000Z</time>
      </trkpt>
      <trkpt lat="47.41023" lon="-2.16453">
        <ele>64</ele>
        <time>2022-04-24T09:23:59.000Z</time>
      </trkpt>
      <trkpt lat="47.41028" lon="-2.16457">
        <ele>64</ele>
        <time>2022-04-24T09:24:02.000Z</time>
      </trkpt>
      <trkpt lat="47.41034" lon="-2.16459">
        <ele>64</ele>
        <time>2022-04-24T09:24:04.000Z</time>
      </trkpt>
      <trkpt lat="47.41047" lon="-2.16476">
        <ele>64</ele>
        <time>2022-04-24T09:24:09.000Z</time>
      </trkpt>
      <trkpt lat="47.41046" lon="-2.16482">
        <ele>64</ele>
        <time>2022-04-24T09:24:10.000Z</time>
      </trkpt>
      <trkpt lat="47.41047" lon="-2.16492">
        <ele>64</ele>
        <time>2022-04-24T09:24:12.000Z</time>
      </trkpt>
      <trkpt lat="47.41052" lon="-2.16506">
        <ele>64</ele>
        <time>2022-04-24T09:24:15.000Z</time>
      </trkpt>
      <trkpt lat="47.41051" lon="-2.16519">
        <ele>63.599998474121</ele>
        <time>2022-04-24T09:24:17.000Z</time>
      </trkpt>
      <trkpt lat="47.41049" lon="-2.16524">
        <ele>63</ele>
        <time>2022-04-24T09:24:18.000Z</time>
      </trkpt>
      <trkpt lat="47.41047" lon="-2.16527">
        <ele>62.599998474121</ele>
        <time>2022-04-24T09:24:19.000Z</time>
      </trkpt>
      <trkpt lat="47.41045" lon="-2.16529">
        <ele>62.200000762939</ele>
        <time>2022-04-24T09:24:20.000Z</time>
      </trkpt>
      <trkpt lat="47.41041" lon="-2.16534">
        <ele>61.799999237061</ele>
        <time>2022-04-24T09:24:21.000Z</time>
      </trkpt>
      <trkpt lat="47.41035" lon="-2.16532">
        <ele>61.799999237061</ele>
        <time>2022-04-24T09:24:24.000Z</time>
      </trkpt>
      <trkpt lat="47.41028" lon="-2.16528">
        <ele>61.799999237061</ele>
        <time>2022-04-24T09:24:27.000Z</time>
      </trkpt>
      <trkpt lat="47.41022" lon="-2.16522">
        <ele>61.799999237061</ele>
        <time>2022-04-24T09:24:30.000Z</time>
      </trkpt>
      <trkpt lat="47.41016" lon="-2.16509">
        <ele>61.799999237061</ele>
        <time>2022-04-24T09:24:35.000Z</time>
      </trkpt>
      <trkpt lat="47.41013" lon="-2.16503">
        <ele>61.799999237061</ele>
        <time>2022-04-24T09:24:37.000Z</time>
      </trkpt>
      <trkpt lat="47.41007" lon="-2.16499">
        <ele>61.799999237061</ele>
        <time>2022-04-24T09:24:39.000Z</time>
      </trkpt>
      <trkpt lat="47.41001" lon="-2.16483">
        <ele>61.799999237061</ele>
        <time>2022-04-24T09:24:43.000Z</time>
      </trkpt>
      <trkpt lat="47.40995" lon="-2.16478">
        <ele>61.799999237061</ele>
        <time>2022-04-24T09:24:45.000Z</time>
      </trkpt>
      <trkpt lat="47.40992" lon="-2.16469">
        <ele>61.799999237061</ele>
        <time>2022-04-24T09:24:47.000Z</time>
      </trkpt>
      <trkpt lat="47.40986" lon="-2.16462">
        <ele>62.200000762939</ele>
        <time>2022-04-24T09:24:51.000Z</time>
      </trkpt>
      <trkpt lat="47.40983" lon="-2.16462">
        <ele>62.799999237061</ele>
        <time>2022-04-24T09:24:52.000Z</time>
      </trkpt>
      <trkpt lat="47.4098" lon="-2.16464">
        <ele>63.200000762939</ele>
        <time>2022-04-24T09:24:53.000Z</time>
      </trkpt>
      <trkpt lat="47.40978" lon="-2.16466">
        <ele>63.599998474121</ele>
        <time>2022-04-24T09:24:54.000Z</time>
      </trkpt>
      <trkpt lat="47.40976" lon="-2.16469">
        <ele>64</ele>
        <time>2022-04-24T09:24:55.000Z</time>
      </trkpt>
      <trkpt lat="47.40975" lon="-2.16474">
        <ele>64</ele>
        <time>2022-04-24T09:24:56.000Z</time>
      </trkpt>
      <trkpt lat="47.40969" lon="-2.16482">
        <ele>64</ele>
        <time>2022-04-24T09:24:59.000Z</time>
      </trkpt>
      <trkpt lat="47.40966" lon="-2.16481">
        <ele>64</ele>
        <time>2022-04-24T09:25:00.000Z</time>
      </trkpt>
      <trkpt lat="47.40961" lon="-2.16471">
        <ele>64</ele>
        <time>2022-04-24T09:25:03.000Z</time>
      </trkpt>
      <trkpt lat="47.4095" lon="-2.16454">
        <ele>64</ele>
        <time>2022-04-24T09:25:09.000Z</time>
      </trkpt>
      <trkpt lat="47.40937" lon="-2.16447">
        <ele>64</ele>
        <time>2022-04-24T09:25:14.000Z</time>
      </trkpt>
      <trkpt lat="47.40933" lon="-2.16448">
        <ele>64</ele>
        <time>2022-04-24T09:25:15.000Z</time>
      </trkpt>
      <trkpt lat="47.40931" lon="-2.16452">
        <ele>64</ele>
        <time>2022-04-24T09:25:16.000Z</time>
      </trkpt>
      <trkpt lat="47.40931" lon="-2.16457">
        <ele>64</ele>
        <time>2022-04-24T09:25:18.000Z</time>
      </trkpt>
      <trkpt lat="47.40934" lon="-2.16462">
        <ele>64</ele>
        <time>2022-04-24T09:25:19.000Z</time>
      </trkpt>
      <trkpt lat="47.40938" lon="-2.16469">
        <ele>64</ele>
        <time>2022-04-24T09:25:21.000Z</time>
      </trkpt>
      <trkpt lat="47.40942" lon="-2.16495">
        <ele>64</ele>
        <time>2022-04-24T09:25:26.000Z</time>
      </trkpt>
      <trkpt lat="47.40952" lon="-2.16528">
        <ele>63.599998474121</ele>
        <time>2022-04-24T09:25:31.000Z</time>
      </trkpt>
      <trkpt lat="47.40954" lon="-2.16534">
        <ele>63.200000762939</ele>
        <time>2022-04-24T09:25:32.000Z</time>
      </trkpt>
      <trkpt lat="47.40956" lon="-2.16541">
        <ele>62.799999237061</ele>
        <time>2022-04-24T09:25:33.000Z</time>
      </trkpt>
      <trkpt lat="47.40957" lon="-2.16547">
        <ele>62.400001525879</ele>
        <time>2022-04-24T09:25:34.000Z</time>
      </trkpt>
      <trkpt lat="47.40958" lon="-2.16552">
        <ele>62</ele>
        <time>2022-04-24T09:25:35.000Z</time>
      </trkpt>
      <trkpt lat="47.40961" lon="-2.16561">
        <ele>62</ele>
        <time>2022-04-24T09:25:37.000Z</time>
      </trkpt>
      <trkpt lat="47.40965" lon="-2.16571">
        <ele>62</ele>
        <time>2022-04-24T09:25:39.000Z</time>
      </trkpt>
      <trkpt lat="47.40966" lon="-2.16575">
        <ele>62</ele>
        <time>2022-04-24T09:25:40.000Z</time>
      </trkpt>
      <trkpt lat="47.40967" lon="-2.1658">
        <ele>61.400001525879</ele>
        <time>2022-04-24T09:25:41.000Z</time>
      </trkpt>
      <trkpt lat="47.4097" lon="-2.16584">
        <ele>61</ele>
        <time>2022-04-24T09:25:42.000Z</time>
      </trkpt>
      <trkpt lat="47.40973" lon="-2.16586">
        <ele>60.599998474121</ele>
        <time>2022-04-24T09:25:43.000Z</time>
      </trkpt>
      <trkpt lat="47.40977" lon="-2.16585">
        <ele>60.200000762939</ele>
        <time>2022-04-24T09:25:44.000Z</time>
      </trkpt>
      <trkpt lat="47.40979" lon="-2.16581">
        <ele>59.799999237061</ele>
        <time>2022-04-24T09:25:45.000Z</time>
      </trkpt>
      <trkpt lat="47.4098" lon="-2.16573">
        <ele>59.799999237061</ele>
        <time>2022-04-24T09:25:47.000Z</time>
      </trkpt>
      <trkpt lat="47.40984" lon="-2.16558">
        <ele>59.799999237061</ele>
        <time>2022-04-24T09:25:52.000Z</time>
      </trkpt>
      <trkpt lat="47.40987" lon="-2.16553">
        <ele>59.799999237061</ele>
        <time>2022-04-24T09:25:54.000Z</time>
      </trkpt>
      <trkpt lat="47.40989" lon="-2.16554">
        <ele>59.799999237061</ele>
        <time>2022-04-24T09:25:55.000Z</time>
      </trkpt>
      <trkpt lat="47.40996" lon="-2.16559">
        <ele>59.799999237061</ele>
        <time>2022-04-24T09:25:58.000Z</time>
      </trkpt>
      <trkpt lat="47.41003" lon="-2.16559">
        <ele>59.799999237061</ele>
        <time>2022-04-24T09:26:00.000Z</time>
      </trkpt>
      <trkpt lat="47.41028" lon="-2.16561">
        <ele>59.799999237061</ele>
        <time>2022-04-24T09:26:06.000Z</time>
      </trkpt>
      <trkpt lat="47.41038" lon="-2.16571">
        <ele>59.799999237061</ele>
        <time>2022-04-24T09:26:09.000Z</time>
      </trkpt>
      <trkpt lat="47.41043" lon="-2.16582">
        <ele>59.799999237061</ele>
        <time>2022-04-24T09:26:11.000Z</time>
      </trkpt>
      <trkpt lat="47.41048" lon="-2.16587">
        <ele>59.799999237061</ele>
        <time>2022-04-24T09:26:12.000Z</time>
      </trkpt>
      <trkpt lat="47.41058" lon="-2.16591">
        <ele>59.799999237061</ele>
        <time>2022-04-24T09:26:14.000Z</time>
      </trkpt>
      <trkpt lat="47.41067" lon="-2.16588">
        <ele>59.799999237061</ele>
        <time>2022-04-24T09:26:16.000Z</time>
      </trkpt>
      <trkpt lat="47.41082" lon="-2.16582">
        <ele>59.799999237061</ele>
        <time>2022-04-24T09:26:19.000Z</time>
      </trkpt>
      <trkpt lat="47.41092" lon="-2.16578">
        <ele>59.799999237061</ele>
        <time>2022-04-24T09:26:21.000Z</time>
      </trkpt>
      <trkpt lat="47.41098" lon="-2.16572">
        <ele>59.799999237061</ele>
        <time>2022-04-24T09:26:23.000Z</time>
      </trkpt>
      <trkpt lat="47.411" lon="-2.1656">
        <ele>59.799999237061</ele>
        <time>2022-04-24T09:26:27.000Z</time>
      </trkpt>
      <trkpt lat="47.41106" lon="-2.16543">
        <ele>59.799999237061</ele>
        <time>2022-04-24T09:26:32.000Z</time>
      </trkpt>
      <trkpt lat="47.41118" lon="-2.1653">
        <ele>59.799999237061</ele>
        <time>2022-04-24T09:26:37.000Z</time>
      </trkpt>
      <trkpt lat="47.4112" lon="-2.16521">
        <ele>60.200000762939</ele>
        <time>2022-04-24T09:26:39.000Z</time>
      </trkpt>
      <trkpt lat="47.41121" lon="-2.16518">
        <ele>60.599998474121</ele>
        <time>2022-04-24T09:26:40.000Z</time>
      </trkpt>
      <trkpt lat="47.41121" lon="-2.16516">
        <ele>61</ele>
        <time>2022-04-24T09:26:41.000Z</time>
      </trkpt>
      <trkpt lat="47.41122" lon="-2.16515">
        <ele>61.400001525879</ele>
        <time>2022-04-24T09:26:42.000Z</time>
      </trkpt>
      <trkpt lat="47.41121" lon="-2.16513">
        <ele>61.799999237061</ele>
        <time>2022-04-24T09:26:43.000Z</time>
      </trkpt>
      <trkpt lat="47.41119" lon="-2.16508">
        <ele>61.799999237061</ele>
        <time>2022-04-24T09:26:45.000Z</time>
      </trkpt>
      <trkpt lat="47.41114" lon="-2.16495">
        <ele>61.799999237061</ele>
        <time>2022-04-24T09:26:49.000Z</time>
      </trkpt>
      <trkpt lat="47.41112" lon="-2.16491">
        <ele>62.200000762939</ele>
        <time>2022-04-24T09:26:50.000Z</time>
      </trkpt>
      <trkpt lat="47.4111" lon="-2.16488">
        <ele>62.599998474121</ele>
        <time>2022-04-24T09:26:51.000Z</time>
      </trkpt>
      <trkpt lat="47.41108" lon="-2.16485">
        <ele>63</ele>
        <time>2022-04-24T09:26:52.000Z</time>
      </trkpt>
      <trkpt lat="47.41105" lon="-2.16483">
        <ele>63.400001525879</ele>
        <time>2022-04-24T09:26:53.000Z</time>
      </trkpt>
      <trkpt lat="47.41102" lon="-2.1648">
        <ele>63.799999237061</ele>
        <time>2022-04-24T09:26:54.000Z</time>
      </trkpt>
      <trkpt lat="47.411" lon="-2.16477">
        <ele>63.799999237061</ele>
        <time>2022-04-24T09:26:55.000Z</time>
      </trkpt>
      <trkpt lat="47.41096" lon="-2.16467">
        <ele>63.799999237061</ele>
        <time>2022-04-24T09:26:58.000Z</time>
      </trkpt>
      <trkpt lat="47.41093" lon="-2.16464">
        <ele>63.799999237061</ele>
        <time>2022-04-24T09:26:59.000Z</time>
      </trkpt>
      <trkpt lat="47.41086" lon="-2.1646">
        <ele>63.799999237061</ele>
        <time>2022-04-24T09:27:02.000Z</time>
      </trkpt>
      <trkpt lat="47.41085" lon="-2.16457">
        <ele>63.799999237061</ele>
        <time>2022-04-24T09:27:03.000Z</time>
      </trkpt>
      <trkpt lat="47.41085" lon="-2.16448">
        <ele>63.799999237061</ele>
        <time>2022-04-24T09:27:06.000Z</time>
      </trkpt>
      <trkpt lat="47.41083" lon="-2.16442">
        <ele>64.400001525879</ele>
        <time>2022-04-24T09:27:08.000Z</time>
      </trkpt>
      <trkpt lat="47.41081" lon="-2.16441">
        <ele>64.800003051758</ele>
        <time>2022-04-24T09:27:09.000Z</time>
      </trkpt>
      <trkpt lat="47.41079" lon="-2.1644">
        <ele>65.199996948242</ele>
        <time>2022-04-24T09:27:10.000Z</time>
      </trkpt>
      <trkpt lat="47.41077" lon="-2.1644">
        <ele>65.599998474121</ele>
        <time>2022-04-24T09:27:11.000Z</time>
      </trkpt>
      <trkpt lat="47.41074" lon="-2.1644">
        <ele>66</ele>
        <time>2022-04-24T09:27:12.000Z</time>
      </trkpt>
      <trkpt lat="47.41071" lon="-2.1644">
        <ele>66</ele>
        <time>2022-04-24T09:27:13.000Z</time>
      </trkpt>
      <trkpt lat="47.41062" lon="-2.16444">
        <ele>66</ele>
        <time>2022-04-24T09:27:17.000Z</time>
      </trkpt>
      <trkpt lat="47.41057" lon="-2.16445">
        <ele>66</ele>
        <time>2022-04-24T09:27:20.000Z</time>
      </trkpt>
      <trkpt lat="47.41054" lon="-2.16444">
        <ele>66</ele>
        <time>2022-04-24T09:27:21.000Z</time>
      </trkpt>
      <trkpt lat="47.41043" lon="-2.16431">
        <ele>66</ele>
        <time>2022-04-24T09:27:26.000Z</time>
      </trkpt>
      <trkpt lat="47.41042" lon="-2.16428">
        <ele>66</ele>
        <time>2022-04-24T09:27:27.000Z</time>
      </trkpt>
      <trkpt lat="47.41042" lon="-2.16425">
        <ele>66</ele>
        <time>2022-04-24T09:27:28.000Z</time>
      </trkpt>
      <trkpt lat="47.41041" lon="-2.1641">
        <ele>66</ele>
        <time>2022-04-24T09:27:32.000Z</time>
      </trkpt>
      <trkpt lat="47.41039" lon="-2.16398">
        <ele>66</ele>
        <time>2022-04-24T09:27:35.000Z</time>
      </trkpt>
      <trkpt lat="47.41035" lon="-2.16394">
        <ele>66</ele>
        <time>2022-04-24T09:27:37.000Z</time>
      </trkpt>
      <trkpt lat="47.41026" lon="-2.16384">
        <ele>66</ele>
        <time>2022-04-24T09:27:41.000Z</time>
      </trkpt>
      <trkpt lat="47.41023" lon="-2.16377">
        <ele>66</ele>
        <time>2022-04-24T09:27:43.000Z</time>
      </trkpt>
      <trkpt lat="47.41029" lon="-2.16374">
        <ele>66</ele>
        <time>2022-04-24T09:27:47.000Z</time>
      </trkpt>
      <trkpt lat="47.41045" lon="-2.16382">
        <ele>66</ele>
        <time>2022-04-24T09:27:53.000Z</time>
      </trkpt>
      <trkpt lat="47.41054" lon="-2.16385">
        <ele>66</ele>
        <time>2022-04-24T09:27:55.000Z</time>
      </trkpt>
      <trkpt lat="47.41064" lon="-2.16389">
        <ele>66</ele>
        <time>2022-04-24T09:27:58.000Z</time>
      </trkpt>
      <trkpt lat="47.41072" lon="-2.16398">
        <ele>66</ele>
        <time>2022-04-24T09:28:01.000Z</time>
      </trkpt>
      <trkpt lat="47.41073" lon="-2.16402">
        <ele>66</ele>
        <time>2022-04-24T09:28:02.000Z</time>
      </trkpt>
      <trkpt lat="47.41082" lon="-2.16422">
        <ele>66</ele>
        <time>2022-04-24T09:28:07.000Z</time>
      </trkpt>
      <trkpt lat="47.41091" lon="-2.16438">
        <ele>66</ele>
        <time>2022-04-24T09:28:12.000Z</time>
      </trkpt>
      <trkpt lat="47.41108" lon="-2.16456">
        <ele>66</ele>
        <time>2022-04-24T09:28:16.000Z</time>
      </trkpt>
      <trkpt lat="47.41113" lon="-2.1646">
        <ele>66</ele>
        <time>2022-04-24T09:28:17.000Z</time>
      </trkpt>
      <trkpt lat="47.41118" lon="-2.16463">
        <ele>65.199996948242</ele>
        <time>2022-04-24T09:28:18.000Z</time>
      </trkpt>
      <trkpt lat="47.41123" lon="-2.16464">
        <ele>64.599998474121</ele>
        <time>2022-04-24T09:28:19.000Z</time>
      </trkpt>
      <trkpt lat="47.41127" lon="-2.16466">
        <ele>64.199996948242</ele>
        <time>2022-04-24T09:28:20.000Z</time>
      </trkpt>
      <trkpt lat="47.4113" lon="-2.16469">
        <ele>63.799999237061</ele>
        <time>2022-04-24T09:28:21.000Z</time>
      </trkpt>
      <trkpt lat="47.41133" lon="-2.16478">
        <ele>63.799999237061</ele>
        <time>2022-04-24T09:28:23.000Z</time>
      </trkpt>
      <trkpt lat="47.41135" lon="-2.16485">
        <ele>63.400001525879</ele>
        <time>2022-04-24T09:28:25.000Z</time>
      </trkpt>
      <trkpt lat="47.41136" lon="-2.16487">
        <ele>63</ele>
        <time>2022-04-24T09:28:26.000Z</time>
      </trkpt>
      <trkpt lat="47.41137" lon="-2.16487">
        <ele>62.400001525879</ele>
        <time>2022-04-24T09:28:27.000Z</time>
      </trkpt>
      <trkpt lat="47.41138" lon="-2.16485">
        <ele>62</ele>
        <time>2022-04-24T09:28:28.000Z</time>
      </trkpt>
      <trkpt lat="47.41139" lon="-2.16481">
        <ele>61.599998474121</ele>
        <time>2022-04-24T09:28:29.000Z</time>
      </trkpt>
      <trkpt lat="47.4114" lon="-2.1646">
        <ele>61.599998474121</ele>
        <time>2022-04-24T09:28:34.000Z</time>
      </trkpt>
      <trkpt lat="47.41136" lon="-2.16455">
        <ele>61.599998474121</ele>
        <time>2022-04-24T09:28:36.000Z</time>
      </trkpt>
      <trkpt lat="47.41126" lon="-2.16442">
        <ele>62</ele>
        <time>2022-04-24T09:28:41.000Z</time>
      </trkpt>
      <trkpt lat="47.41125" lon="-2.1644">
        <ele>62.599998474121</ele>
        <time>2022-04-24T09:28:42.000Z</time>
      </trkpt>
      <trkpt lat="47.41124" lon="-2.16437">
        <ele>63.400001525879</ele>
        <time>2022-04-24T09:28:43.000Z</time>
      </trkpt>
      <trkpt lat="47.41122" lon="-2.16436">
        <ele>63.799999237061</ele>
        <time>2022-04-24T09:28:44.000Z</time>
      </trkpt>
      <trkpt lat="47.41117" lon="-2.16431">
        <ele>63.799999237061</ele>
        <time>2022-04-24T09:28:46.000Z</time>
      </trkpt>
      <trkpt lat="47.41109" lon="-2.16425">
        <ele>63.799999237061</ele>
        <time>2022-04-24T09:28:49.000Z</time>
      </trkpt>
      <trkpt lat="47.41105" lon="-2.16419">
        <ele>63.799999237061</ele>
        <time>2022-04-24T09:28:51.000Z</time>
      </trkpt>
      <trkpt lat="47.41104" lon="-2.16411">
        <ele>63.799999237061</ele>
        <time>2022-04-24T09:28:53.000Z</time>
      </trkpt>
      <trkpt lat="47.41105" lon="-2.16408">
        <ele>63.799999237061</ele>
        <time>2022-04-24T09:28:55.000Z</time>
      </trkpt>
      <trkpt lat="47.41106" lon="-2.1641">
        <ele>63.799999237061</ele>
        <time>2022-04-24T09:28:56.000Z</time>
      </trkpt>
      <trkpt lat="47.41115" lon="-2.16421">
        <ele>63.799999237061</ele>
        <time>2022-04-24T09:29:01.000Z</time>
      </trkpt>
      <trkpt lat="47.41128" lon="-2.16427">
        <ele>63.799999237061</ele>
        <time>2022-04-24T09:29:05.000Z</time>
      </trkpt>
      <trkpt lat="47.41131" lon="-2.16427">
        <ele>63.799999237061</ele>
        <time>2022-04-24T09:29:06.000Z</time>
      </trkpt>
      <trkpt lat="47.4114" lon="-2.16431">
        <ele>63.799999237061</ele>
        <time>2022-04-24T09:29:09.000Z</time>
      </trkpt>
      <trkpt lat="47.41143" lon="-2.16437">
        <ele>63.400001525879</ele>
        <time>2022-04-24T09:29:11.000Z</time>
      </trkpt>
      <trkpt lat="47.41143" lon="-2.1644">
        <ele>63</ele>
        <time>2022-04-24T09:29:12.000Z</time>
      </trkpt>
      <trkpt lat="47.41144" lon="-2.16445">
        <ele>62.599998474121</ele>
        <time>2022-04-24T09:29:13.000Z</time>
      </trkpt>
      <trkpt lat="47.41145" lon="-2.16448">
        <ele>62.200000762939</ele>
        <time>2022-04-24T09:29:14.000Z</time>
      </trkpt>
      <trkpt lat="47.41149" lon="-2.16449">
        <ele>61.799999237061</ele>
        <time>2022-04-24T09:29:15.000Z</time>
      </trkpt>
      <trkpt lat="47.41152" lon="-2.16451">
        <ele>61.799999237061</ele>
        <time>2022-04-24T09:29:16.000Z</time>
      </trkpt>
      <trkpt lat="47.41162" lon="-2.16461">
        <ele>61.400001525879</ele>
        <time>2022-04-24T09:29:19.000Z</time>
      </trkpt>
      <trkpt lat="47.41165" lon="-2.16464">
        <ele>61</ele>
        <time>2022-04-24T09:29:20.000Z</time>
      </trkpt>
      <trkpt lat="47.41168" lon="-2.16466">
        <ele>60.599998474121</ele>
        <time>2022-04-24T09:29:21.000Z</time>
      </trkpt>
      <trkpt lat="47.41171" lon="-2.16469">
        <ele>60.200000762939</ele>
        <time>2022-04-24T09:29:22.000Z</time>
      </trkpt>
      <trkpt lat="47.41173" lon="-2.16472">
        <ele>59.799999237061</ele>
        <time>2022-04-24T09:29:23.000Z</time>
      </trkpt>
      <trkpt lat="47.41175" lon="-2.16474">
        <ele>59.799999237061</ele>
        <time>2022-04-24T09:29:24.000Z</time>
      </trkpt>
      <trkpt lat="47.41193" lon="-2.16496">
        <ele>59.799999237061</ele>
        <time>2022-04-24T09:29:30.000Z</time>
      </trkpt>
      <trkpt lat="47.41203" lon="-2.16512">
        <ele>60.200000762939</ele>
        <time>2022-04-24T09:29:34.000Z</time>
      </trkpt>
      <trkpt lat="47.41206" lon="-2.16515">
        <ele>60.599998474121</ele>
        <time>2022-04-24T09:29:35.000Z</time>
      </trkpt>
      <trkpt lat="47.41208" lon="-2.16518">
        <ele>61</ele>
        <time>2022-04-24T09:29:36.000Z</time>
      </trkpt>
      <trkpt lat="47.41211" lon="-2.16521">
        <ele>61.400001525879</ele>
        <time>2022-04-24T09:29:37.000Z</time>
      </trkpt>
      <trkpt lat="47.41213" lon="-2.16525">
        <ele>62</ele>
        <time>2022-04-24T09:29:38.000Z</time>
      </trkpt>
      <trkpt lat="47.41228" lon="-2.16547">
        <ele>62</ele>
        <time>2022-04-24T09:29:44.000Z</time>
      </trkpt>
      <trkpt lat="47.4123" lon="-2.16551">
        <ele>62</ele>
        <time>2022-04-24T09:29:45.000Z</time>
      </trkpt>
      <trkpt lat="47.41232" lon="-2.16564">
        <ele>62</ele>
        <time>2022-04-24T09:29:47.000Z</time>
      </trkpt>
      <trkpt lat="47.41245" lon="-2.16584">
        <ele>62</ele>
        <time>2022-04-24T09:29:51.000Z</time>
      </trkpt>
      <trkpt lat="47.41248" lon="-2.1659">
        <ele>62</ele>
        <time>2022-04-24T09:29:52.000Z</time>
      </trkpt>
      <trkpt lat="47.41255" lon="-2.16606">
        <ele>62</ele>
        <time>2022-04-24T09:29:55.000Z</time>
      </trkpt>
      <trkpt lat="47.41263" lon="-2.16632">
        <ele>62</ele>
        <time>2022-04-24T09:30:00.000Z</time>
      </trkpt>
      <trkpt lat="47.41267" lon="-2.16638">
        <ele>62</ele>
        <time>2022-04-24T09:30:02.000Z</time>
      </trkpt>
      <trkpt lat="47.41269" lon="-2.16638">
        <ele>62</ele>
        <time>2022-04-24T09:30:03.000Z</time>
      </trkpt>
      <trkpt lat="47.41274" lon="-2.16627">
        <ele>62</ele>
        <time>2022-04-24T09:30:06.000Z</time>
      </trkpt>
      <trkpt lat="47.41275" lon="-2.16618">
        <ele>62</ele>
        <time>2022-04-24T09:30:08.000Z</time>
      </trkpt>
      <trkpt lat="47.41279" lon="-2.16597">
        <ele>62</ele>
        <time>2022-04-24T09:30:12.000Z</time>
      </trkpt>
      <trkpt lat="47.41288" lon="-2.16563">
        <ele>62</ele>
        <time>2022-04-24T09:30:18.000Z</time>
      </trkpt>
      <trkpt lat="47.41297" lon="-2.1652">
        <ele>62</ele>
        <time>2022-04-24T09:30:25.000Z</time>
      </trkpt>
      <trkpt lat="47.41303" lon="-2.16494">
        <ele>62</ele>
        <time>2022-04-24T09:30:29.000Z</time>
      </trkpt>
      <trkpt lat="47.41306" lon="-2.16479">
        <ele>62</ele>
        <time>2022-04-24T09:30:31.000Z</time>
      </trkpt>
      <trkpt lat="47.41307" lon="-2.16472">
        <ele>62.400001525879</ele>
        <time>2022-04-24T09:30:32.000Z</time>
      </trkpt>
      <trkpt lat="47.41309" lon="-2.16464">
        <ele>62.799999237061</ele>
        <time>2022-04-24T09:30:33.000Z</time>
      </trkpt>
      <trkpt lat="47.41311" lon="-2.16457">
        <ele>63.200000762939</ele>
        <time>2022-04-24T09:30:34.000Z</time>
      </trkpt>
      <trkpt lat="47.41312" lon="-2.16449">
        <ele>63.599998474121</ele>
        <time>2022-04-24T09:30:35.000Z</time>
      </trkpt>
      <trkpt lat="47.41314" lon="-2.16441">
        <ele>64</ele>
        <time>2022-04-24T09:30:36.000Z</time>
      </trkpt>
      <trkpt lat="47.41319" lon="-2.16425">
        <ele>64</ele>
        <time>2022-04-24T09:30:38.000Z</time>
      </trkpt>
      <trkpt lat="47.41334" lon="-2.16361">
        <ele>64</ele>
        <time>2022-04-24T09:30:46.000Z</time>
      </trkpt>
      <trkpt lat="47.41338" lon="-2.16345">
        <ele>64</ele>
        <time>2022-04-24T09:30:48.000Z</time>
      </trkpt>
      <trkpt lat="47.41348" lon="-2.16323">
        <ele>64</ele>
        <time>2022-04-24T09:30:51.000Z</time>
      </trkpt>
      <trkpt lat="47.41355" lon="-2.1631">
        <ele>64</ele>
        <time>2022-04-24T09:30:53.000Z</time>
      </trkpt>
      <trkpt lat="47.41361" lon="-2.16308">
        <ele>64</ele>
        <time>2022-04-24T09:30:54.000Z</time>
      </trkpt>
      <trkpt lat="47.4137" lon="-2.16313">
        <ele>64</ele>
        <time>2022-04-24T09:30:56.000Z</time>
      </trkpt>
      <trkpt lat="47.41381" lon="-2.16332">
        <ele>64</ele>
        <time>2022-04-24T09:30:59.000Z</time>
      </trkpt>
      <trkpt lat="47.41385" lon="-2.16338">
        <ele>64</ele>
        <time>2022-04-24T09:31:00.000Z</time>
      </trkpt>
      <trkpt lat="47.41416" lon="-2.16385">
        <ele>64</ele>
        <time>2022-04-24T09:31:08.000Z</time>
      </trkpt>
      <trkpt lat="47.41432" lon="-2.16418">
        <ele>64</ele>
        <time>2022-04-24T09:31:13.000Z</time>
      </trkpt>
      <trkpt lat="47.41435" lon="-2.16425">
        <ele>64</ele>
        <time>2022-04-24T09:31:14.000Z</time>
      </trkpt>
      <trkpt lat="47.41445" lon="-2.1646">
        <ele>64</ele>
        <time>2022-04-24T09:31:19.000Z</time>
      </trkpt>
      <trkpt lat="47.41446" lon="-2.16468">
        <ele>64</ele>
        <time>2022-04-24T09:31:20.000Z</time>
      </trkpt>
      <trkpt lat="47.41452" lon="-2.16498">
        <ele>64</ele>
        <time>2022-04-24T09:31:24.000Z</time>
      </trkpt>
      <trkpt lat="47.41455" lon="-2.16513">
        <ele>64</ele>
        <time>2022-04-24T09:31:26.000Z</time>
      </trkpt>
      <trkpt lat="47.41467" lon="-2.16567">
        <ele>64</ele>
        <time>2022-04-24T09:31:33.000Z</time>
      </trkpt>
      <trkpt lat="47.41479" lon="-2.16612">
        <ele>64.400001525879</ele>
        <time>2022-04-24T09:31:39.000Z</time>
      </trkpt>
      <trkpt lat="47.41481" lon="-2.16619">
        <ele>64.800003051758</ele>
        <time>2022-04-24T09:31:40.000Z</time>
      </trkpt>
      <trkpt lat="47.41483" lon="-2.16626">
        <ele>65.199996948242</ele>
        <time>2022-04-24T09:31:41.000Z</time>
      </trkpt>
      <trkpt lat="47.41486" lon="-2.16633">
        <ele>65.599998474121</ele>
        <time>2022-04-24T09:31:42.000Z</time>
      </trkpt>
      <trkpt lat="47.41488" lon="-2.1664">
        <ele>66</ele>
        <time>2022-04-24T09:31:43.000Z</time>
      </trkpt>
      <trkpt lat="47.41493" lon="-2.16655">
        <ele>66</ele>
        <time>2022-04-24T09:31:45.000Z</time>
      </trkpt>
      <trkpt lat="47.4151" lon="-2.16694">
        <ele>66</ele>
        <time>2022-04-24T09:31:51.000Z</time>
      </trkpt>
      <trkpt lat="47.4152" lon="-2.16709">
        <ele>66</ele>
        <time>2022-04-24T09:31:54.000Z</time>
      </trkpt>
      <trkpt lat="47.41528" lon="-2.16719">
        <ele>66</ele>
        <time>2022-04-24T09:31:56.000Z</time>
      </trkpt>
      <trkpt lat="47.41534" lon="-2.16729">
        <ele>66</ele>
        <time>2022-04-24T09:31:58.000Z</time>
      </trkpt>
      <trkpt lat="47.41534" lon="-2.16742">
        <ele>66</ele>
        <time>2022-04-24T09:32:00.000Z</time>
      </trkpt>
      <trkpt lat="47.41527" lon="-2.16762">
        <ele>66</ele>
        <time>2022-04-24T09:32:03.000Z</time>
      </trkpt>
      <trkpt lat="47.41524" lon="-2.16769">
        <ele>66</ele>
        <time>2022-04-24T09:32:04.000Z</time>
      </trkpt>
      <trkpt lat="47.41503" lon="-2.16814">
        <ele>66</ele>
        <time>2022-04-24T09:32:11.000Z</time>
      </trkpt>
      <trkpt lat="47.41482" lon="-2.16854">
        <ele>66</ele>
        <time>2022-04-24T09:32:18.000Z</time>
      </trkpt>
      <trkpt lat="47.4148" lon="-2.1686">
        <ele>66</ele>
        <time>2022-04-24T09:32:19.000Z</time>
      </trkpt>
      <trkpt lat="47.41479" lon="-2.16874">
        <ele>66</ele>
        <time>2022-04-24T09:32:21.000Z</time>
      </trkpt>
      <trkpt lat="47.41478" lon="-2.1689">
        <ele>66</ele>
        <time>2022-04-24T09:32:23.000Z</time>
      </trkpt>
      <trkpt lat="47.41476" lon="-2.16906">
        <ele>65.599998474121</ele>
        <time>2022-04-24T09:32:25.000Z</time>
      </trkpt>
      <trkpt lat="47.41476" lon="-2.16915">
        <ele>65.199996948242</ele>
        <time>2022-04-24T09:32:26.000Z</time>
      </trkpt>
      <trkpt lat="47.41475" lon="-2.16924">
        <ele>64.800003051758</ele>
        <time>2022-04-24T09:32:27.000Z</time>
      </trkpt>
      <trkpt lat="47.41475" lon="-2.16933">
        <ele>64.400001525879</ele>
        <time>2022-04-24T09:32:28.000Z</time>
      </trkpt>
      <trkpt lat="47.41474" lon="-2.16942">
        <ele>64</ele>
        <time>2022-04-24T09:32:29.000Z</time>
      </trkpt>
      <trkpt lat="47.41473" lon="-2.16989">
        <ele>64</ele>
        <time>2022-04-24T09:32:34.000Z</time>
      </trkpt>
      <trkpt lat="47.41472" lon="-2.17015">
        <ele>64</ele>
        <time>2022-04-24T09:32:37.000Z</time>
      </trkpt>
      <trkpt lat="47.41468" lon="-2.17042">
        <ele>64</ele>
        <time>2022-04-24T09:32:40.000Z</time>
      </trkpt>
      <trkpt lat="47.41466" lon="-2.17051">
        <ele>64</ele>
        <time>2022-04-24T09:32:41.000Z</time>
      </trkpt>
      <trkpt lat="47.41451" lon="-2.17093">
        <ele>64</ele>
        <time>2022-04-24T09:32:46.000Z</time>
      </trkpt>
      <trkpt lat="47.41429" lon="-2.17156">
        <ele>64</ele>
        <time>2022-04-24T09:32:54.000Z</time>
      </trkpt>
      <trkpt lat="47.41424" lon="-2.17172">
        <ele>64</ele>
        <time>2022-04-24T09:32:56.000Z</time>
      </trkpt>
      <trkpt lat="47.4142" lon="-2.172">
        <ele>64</ele>
        <time>2022-04-24T09:32:59.000Z</time>
      </trkpt>
      <trkpt lat="47.41422" lon="-2.17237">
        <ele>64</ele>
        <time>2022-04-24T09:33:03.000Z</time>
      </trkpt>
      <trkpt lat="47.41424" lon="-2.17246">
        <ele>64</ele>
        <time>2022-04-24T09:33:04.000Z</time>
      </trkpt>
      <trkpt lat="47.41434" lon="-2.17301">
        <ele>64</ele>
        <time>2022-04-24T09:33:10.000Z</time>
      </trkpt>
      <trkpt lat="47.41433" lon="-2.17338">
        <ele>64</ele>
        <time>2022-04-24T09:33:14.000Z</time>
      </trkpt>
      <trkpt lat="47.41422" lon="-2.1737">
        <ele>64</ele>
        <time>2022-04-24T09:33:18.000Z</time>
      </trkpt>
      <trkpt lat="47.41418" lon="-2.17377">
        <ele>64</ele>
        <time>2022-04-24T09:33:19.000Z</time>
      </trkpt>
      <trkpt lat="47.41394" lon="-2.17421">
        <ele>64</ele>
        <time>2022-04-24T09:33:25.000Z</time>
      </trkpt>
      <trkpt lat="47.41378" lon="-2.17449">
        <ele>63.599998474121</ele>
        <time>2022-04-24T09:33:29.000Z</time>
      </trkpt>
      <trkpt lat="47.41373" lon="-2.17455">
        <ele>63.200000762939</ele>
        <time>2022-04-24T09:33:30.000Z</time>
      </trkpt>
      <trkpt lat="47.41368" lon="-2.17462">
        <ele>62.799999237061</ele>
        <time>2022-04-24T09:33:31.000Z</time>
      </trkpt>
      <trkpt lat="47.41363" lon="-2.17467">
        <ele>62.400001525879</ele>
        <time>2022-04-24T09:33:32.000Z</time>
      </trkpt>
      <trkpt lat="47.41357" lon="-2.17471">
        <ele>62</ele>
        <time>2022-04-24T09:33:33.000Z</time>
      </trkpt>
      <trkpt lat="47.41346" lon="-2.1748">
        <ele>62</ele>
        <time>2022-04-24T09:33:35.000Z</time>
      </trkpt>
      <trkpt lat="47.41323" lon="-2.17494">
        <ele>62</ele>
        <time>2022-04-24T09:33:39.000Z</time>
      </trkpt>
      <trkpt lat="47.41306" lon="-2.17512">
        <ele>62</ele>
        <time>2022-04-24T09:33:43.000Z</time>
      </trkpt>
      <trkpt lat="47.41301" lon="-2.17514">
        <ele>62</ele>
        <time>2022-04-24T09:33:44.000Z</time>
      </trkpt>
      <trkpt lat="47.41293" lon="-2.17511">
        <ele>62</ele>
        <time>2022-04-24T09:33:46.000Z</time>
      </trkpt>
      <trkpt lat="47.41284" lon="-2.17501">
        <ele>62</ele>
        <time>2022-04-24T09:33:48.000Z</time>
      </trkpt>
      <trkpt lat="47.41269" lon="-2.17486">
        <ele>62</ele>
        <time>2022-04-24T09:33:51.000Z</time>
      </trkpt>
      <trkpt lat="47.41256" lon="-2.17471">
        <ele>61.599998474121</ele>
        <time>2022-04-24T09:33:55.000Z</time>
      </trkpt>
      <trkpt lat="47.41254" lon="-2.17468">
        <ele>61</ele>
        <time>2022-04-24T09:33:56.000Z</time>
      </trkpt>
      <trkpt lat="47.41253" lon="-2.17466">
        <ele>60.599998474121</ele>
        <time>2022-04-24T09:33:57.000Z</time>
      </trkpt>
      <trkpt lat="47.41253" lon="-2.17464">
        <ele>60.200000762939</ele>
        <time>2022-04-24T09:33:58.000Z</time>
      </trkpt>
      <trkpt lat="47.41252" lon="-2.17462">
        <ele>59.799999237061</ele>
        <time>2022-04-24T09:33:59.000Z</time>
      </trkpt>
      <trkpt lat="47.41251" lon="-2.1746">
        <ele>59.799999237061</ele>
        <time>2022-04-24T09:34:00.000Z</time>
      </trkpt>
      <trkpt lat="47.41247" lon="-2.17455">
        <ele>59.799999237061</ele>
        <time>2022-04-24T09:34:04.000Z</time>
      </trkpt>
      <trkpt lat="47.41246" lon="-2.17456">
        <ele>59.799999237061</ele>
        <time>2022-04-24T09:34:06.000Z</time>
      </trkpt>
      <trkpt lat="47.41245" lon="-2.17454">
        <ele>59.799999237061</ele>
        <time>2022-04-24T09:34:08.000Z</time>
      </trkpt>
      <trkpt lat="47.41244" lon="-2.17449">
        <ele>59.799999237061</ele>
        <time>2022-04-24T09:34:10.000Z</time>
      </trkpt>
      <trkpt lat="47.41233" lon="-2.17422">
        <ele>59.799999237061</ele>
        <time>2022-04-24T09:34:16.000Z</time>
      </trkpt>
      <trkpt lat="47.41231" lon="-2.17415">
        <ele>59.799999237061</ele>
        <time>2022-04-24T09:34:17.000Z</time>
      </trkpt>
      <trkpt lat="47.41228" lon="-2.17394">
        <ele>59.799999237061</ele>
        <time>2022-04-24T09:34:20.000Z</time>
      </trkpt>
      <trkpt lat="47.41228" lon="-2.17387">
        <ele>59.799999237061</ele>
        <time>2022-04-24T09:34:21.000Z</time>
      </trkpt>
      <trkpt lat="47.41226" lon="-2.17362">
        <ele>59.799999237061</ele>
        <time>2022-04-24T09:34:26.000Z</time>
      </trkpt>
      <trkpt lat="47.41216" lon="-2.17346">
        <ele>59.799999237061</ele>
        <time>2022-04-24T09:34:31.000Z</time>
      </trkpt>
      <trkpt lat="47.41197" lon="-2.1732">
        <ele>59.799999237061</ele>
        <time>2022-04-24T09:34:38.000Z</time>
      </trkpt>
      <trkpt lat="47.41191" lon="-2.17312">
        <ele>60.200000762939</ele>
        <time>2022-04-24T09:34:41.000Z</time>
      </trkpt>
      <trkpt lat="47.41189" lon="-2.17311">
        <ele>60.599998474121</ele>
        <time>2022-04-24T09:34:42.000Z</time>
      </trkpt>
      <trkpt lat="47.41188" lon="-2.17309">
        <ele>61</ele>
        <time>2022-04-24T09:34:43.000Z</time>
      </trkpt>
      <trkpt lat="47.41187" lon="-2.17307">
        <ele>61.400001525879</ele>
        <time>2022-04-24T09:34:44.000Z</time>
      </trkpt>
      <trkpt lat="47.41185" lon="-2.17306">
        <ele>61.799999237061</ele>
        <time>2022-04-24T09:34:45.000Z</time>
      </trkpt>
      <trkpt lat="47.41182" lon="-2.17299">
        <ele>61.799999237061</ele>
        <time>2022-04-24T09:34:48.000Z</time>
      </trkpt>
    </trkseg>
  </trk>
</gpx>